Wetterdaten: Dienstag, 08.05.2018
Datum Zeit Temp. A. Pool Temp. Feuchte A. Luftdruck Regen Wind Richtung Richtung Sonnenschein ET UV Solar Taupunkt Windchill Windben Empfang
08.05.2018 00:00 14,7 C 18,9 C 57 % 1014,1 hPa 0,0 l/m 9,3 km/h (2 Bft) O 80 0 min 0,000 mm 0,0 UV-I 0 W/m 6,3 C 13,1 C 11,3 km/h (2 Bft) 95,65 %
08.05.2018 00:01 14,7 C 18,9 C 56 % 1014,1 hPa 0,0 l/m 9,4 km/h (2 Bft) O-NO 71 0 min 0,000 mm 0,0 UV-I 0 W/m 6,0 C 13,1 C 12,9 km/h (3 Bft) 94,74 %
08.05.2018 00:02 14,7 C 18,9 C 56 % 1014,1 hPa 0,0 l/m 7,6 km/h (2 Bft) O 86 0 min 0,000 mm 0,0 UV-I 0 W/m 6,0 C 14,0 C 11,3 km/h (2 Bft) 100,00 %
08.05.2018 00:03 14,7 C 18,9 C 56 % 1014,0 hPa 0,0 l/m 7,9 km/h (2 Bft) O 87 0 min 0,000 mm 0,0 UV-I 0 W/m 6,0 C 13,8 C 11,3 km/h (2 Bft) 95,83 %
08.05.2018 00:04 14,6 C 18,9 C 57 % 1014,0 hPa 0,0 l/m 7,3 km/h (2 Bft) NO 55 0 min 0,000 mm 0,0 UV-I 0 W/m 6,2 C 14,1 C 12,9 km/h (3 Bft) 100,00 %
08.05.2018 00:05 14,6 C 18,9 C 57 % 1014,1 hPa 0,0 l/m 8,1 km/h (2 Bft) O-NO 73 0 min 0,000 mm 0,0 UV-I 0 W/m 6,2 C 13,6 C 11,3 km/h (2 Bft) 95,83 %
08.05.2018 00:06 14,6 C 18,9 C 57 % 1014,0 hPa 0,0 l/m 8,1 km/h (2 Bft) O-NO 76 0 min 0,000 mm 0,0 UV-I 0 W/m 6,2 C 13,6 C 11,3 km/h (2 Bft) 95,65 %
08.05.2018 00:07 14,6 C 18,9 C 57 % 1014,0 hPa 0,0 l/m 7,1 km/h (2 Bft) O-NO 63 0 min 0,000 mm 0,0 UV-I 0 W/m 6,2 C 14,2 C 11,3 km/h (2 Bft) 100,00 %
08.05.2018 00:08 14,5 C 18,9 C 57 % 1014,0 hPa 0,0 l/m 5,1 km/h (1 Bft) O 90 0 min 0,000 mm 0,0 UV-I 0 W/m 6,1 C 14,5 C 9,7 km/h (2 Bft) 95,65 %
08.05.2018 00:09 14,4 C 18,9 C 57 % 1014,0 hPa 0,0 l/m 6,4 km/h (2 Bft) O-NO 78 0 min 0,000 mm 0,0 UV-I 0 W/m 6,0 C 14,4 C 11,3 km/h (2 Bft) 100,00 %
08.05.2018 00:10 14,4 C 18,9 C 57 % 1014,0 hPa 0,0 l/m 8,4 km/h (2 Bft) O-NO 70 0 min 0,000 mm 0,0 UV-I 0 W/m 6,0 C 13,3 C 12,9 km/h (3 Bft) 85,71 %
08.05.2018 00:11 14,4 C 18,9 C 58 % 1014,0 hPa 0,0 l/m 6,8 km/h (2 Bft) O-NO 77 0 min 0,000 mm 0,0 UV-I 0 W/m 6,2 C 14,2 C 9,7 km/h (2 Bft) 100,00 %
08.05.2018 00:12 14,3 C 18,9 C 58 % 1014,0 hPa 0,0 l/m 8,2 km/h (2 Bft) O-NO 65 0 min 0,000 mm 0,0 UV-I 0 W/m 6,2 C 13,3 C 11,3 km/h (2 Bft) 95,65 %
08.05.2018 00:13 14,3 C 18,9 C 58 % 1014,0 hPa 0,0 l/m 7,0 km/h (2 Bft) O 80 0 min 0,000 mm 0,0 UV-I 0 W/m 6,2 C 13,9 C 9,7 km/h (2 Bft) 100,00 %
08.05.2018 00:14 14,3 C 18,9 C 58 % 1014,0 hPa 0,0 l/m 6,8 km/h (2 Bft) O-NO 74 0 min 0,000 mm 0,0 UV-I 0 W/m 6,2 C 14,1 C 9,7 km/h (2 Bft) 95,65 %
08.05.2018 00:15 14,3 C 18,9 C 58 % 1013,9 hPa 0,0 l/m 7,0 km/h (2 Bft) O 82 0 min 0,000 mm 0,0 UV-I 0 W/m 6,2 C 13,9 C 9,7 km/h (2 Bft) 100,00 %
08.05.2018 00:16 14,3 C 18,9 C 58 % 1014,0 hPa 0,0 l/m 6,1 km/h (2 Bft) O 88 0 min 0,000 mm 0,0 UV-I 0 W/m 6,2 C 14,3 C 6,4 km/h (2 Bft) 100,00 %
08.05.2018 00:17 14,3 C 18,9 C 58 % 1014,0 hPa 0,0 l/m 8,0 km/h (2 Bft) O 82 0 min 0,000 mm 0,0 UV-I 0 W/m 6,2 C 13,4 C 11,3 km/h (2 Bft) 95,83 %
08.05.2018 00:18 14,3 C 18,9 C 58 % 1014,0 hPa 0,0 l/m 8,7 km/h (2 Bft) O-NO 78 0 min 0,000 mm 0,0 UV-I 0 W/m 6,2 C 13,0 C 11,3 km/h (2 Bft) 100,00 %
08.05.2018 00:19 14,2 C 18,9 C 59 % 1014,0 hPa 0,0 l/m 6,7 km/h (2 Bft) O-NO 76 0 min 0,000 mm 0,0 UV-I 0 W/m 6,3 C 14,0 C 11,3 km/h (2 Bft) 100,00 %
08.05.2018 00:20 14,2 C 18,9 C 59 % 1014,0 hPa 0,0 l/m 7,9 km/h (2 Bft) O-NO 71 0 min 0,000 mm 0,0 UV-I 0 W/m 6,3 C 13,3 C 11,3 km/h (2 Bft) 95,83 %
08.05.2018 00:21 14,1 C 18,9 C 59 % 1014,0 hPa 0,0 l/m 7,5 km/h (2 Bft) O-NO 78 0 min 0,000 mm 0,0 UV-I 0 W/m 6,2 C 13,4 C 11,3 km/h (2 Bft) 100,00 %
08.05.2018 00:22 14,1 C 18,9 C 59 % 1014,0 hPa 0,0 l/m 6,9 km/h (2 Bft) O-NO 69 0 min 0,000 mm 0,0 UV-I 0 W/m 6,2 C 13,8 C 8,0 km/h (2 Bft) 100,00 %
08.05.2018 00:23 14,0 C 18,9 C 60 % 1014,1 hPa 0,0 l/m 7,0 km/h (2 Bft) O-NO 66 0 min 0,000 mm 0,0 UV-I 0 W/m 6,4 C 13,6 C 11,3 km/h (2 Bft) 95,65 %
08.05.2018 00:24 13,9 C 18,9 C 60 % 1014,0 hPa 0,0 l/m 6,2 km/h (2 Bft) O-NO 76 0 min 0,000 mm 0,0 UV-I 0 W/m 6,3 C 13,9 C 9,7 km/h (2 Bft) 100,00 %
08.05.2018 00:25 13,8 C 18,9 C 61 % 1014,0 hPa 0,0 l/m 4,8 km/h (1 Bft) O 86 0 min 0,000 mm 0,0 UV-I 0 W/m 6,4 C 13,8 C 6,4 km/h (2 Bft) 95,65 %
08.05.2018 00:26 13,7 C 18,9 C 61 % 1014,0 hPa 0,0 l/m 6,4 km/h (2 Bft) O-NO 78 0 min 0,000 mm 0,0 UV-I 0 W/m 6,3 C 13,7 C 11,3 km/h (2 Bft) 100,00 %
08.05.2018 00:27 13,6 C 18,9 C 61 % 1014,0 hPa 0,0 l/m 5,7 km/h (1 Bft) O-NO 64 0 min 0,000 mm 0,0 UV-I 0 W/m 6,2 C 13,6 C 8,0 km/h (2 Bft) 97,37 %
08.05.2018 00:28 13,6 C 18,9 C 61 % 1014,0 hPa 0,0 l/m 7,1 km/h (2 Bft) O-NO 78 0 min 0,000 mm 0,0 UV-I 0 W/m 6,2 C 13,2 C 11,3 km/h (2 Bft) 100,00 %
08.05.2018 00:29 13,5 C 18,9 C 62 % 1014,0 hPa 0,0 l/m 6,1 km/h (2 Bft) O-NO 76 0 min 0,000 mm 0,0 UV-I 0 W/m 6,4 C 13,5 C 11,3 km/h (2 Bft) 100,00 %
08.05.2018 00:30 13,4 C 18,9 C 62 % 1014,0 hPa 0,0 l/m 7,8 km/h (2 Bft) O-NO 77 0 min 0,000 mm 0,0 UV-I 0 W/m 6,3 C 12,5 C 12,9 km/h (3 Bft) 100,00 %
08.05.2018 00:31 13,4 C 18,9 C 62 % 1013,9 hPa 0,0 l/m 8,1 km/h (2 Bft) O 80 0 min 0,000 mm 0,0 UV-I 0 W/m 6,3 C 12,4 C 12,9 km/h (3 Bft) 95,65 %
08.05.2018 00:32 13,3 C 18,9 C 62 % 1013,9 hPa 0,0 l/m 9,4 km/h (2 Bft) O-NO 64 0 min 0,000 mm 0,0 UV-I 0 W/m 6,2 C 11,5 C 12,9 km/h (3 Bft) 100,00 %
08.05.2018 00:33 13,4 C 18,9 C 62 % 1013,9 hPa 0,0 l/m 8,5 km/h (2 Bft) O-NO 76 0 min 0,000 mm 0,0 UV-I 0 W/m 6,3 C 12,1 C 11,3 km/h (2 Bft) 96,15 %
08.05.2018 00:34 13,4 C 18,9 C 62 % 1013,9 hPa 0,0 l/m 8,2 km/h (2 Bft) O-NO 74 0 min 0,000 mm 0,0 UV-I 0 W/m 6,3 C 12,3 C 11,3 km/h (2 Bft) 95,83 %
08.05.2018 00:35 13,4 C 18,9 C 62 % 1013,9 hPa 0,0 l/m 8,2 km/h (2 Bft) O 84 0 min 0,000 mm 0,0 UV-I 0 W/m 6,3 C 12,3 C 11,3 km/h (2 Bft) 100,00 %
08.05.2018 00:36 13,4 C 18,9 C 62 % 1013,9 hPa 0,0 l/m 7,3 km/h (2 Bft) O-NO 59 0 min 0,000 mm 0,0 UV-I 0 W/m 6,3 C 12,8 C 9,7 km/h (2 Bft) 100,00 %
08.05.2018 00:37 13,4 C 18,9 C 62 % 1013,9 hPa 0,0 l/m 6,9 km/h (2 Bft) O-NO 74 0 min 0,000 mm 0,0 UV-I 0 W/m 6,3 C 13,1 C 9,7 km/h (2 Bft) 100,00 %
08.05.2018 00:38 13,4 C 18,9 C 62 % 1014,0 hPa 0,0 l/m 7,0 km/h (2 Bft) O 83 0 min 0,000 mm 0,0 UV-I 0 W/m 6,3 C 13,0 C 11,3 km/h (2 Bft) 95,83 %
08.05.2018 00:39 13,4 C 18,9 C 62 % 1014,0 hPa 0,0 l/m 5,7 km/h (1 Bft) O 92 0 min 0,000 mm 0,0 UV-I 0 W/m 6,3 C 13,4 C 8,0 km/h (2 Bft) 95,83 %
08.05.2018 00:40 13,4 C 18,9 C 62 % 1014,0 hPa 0,0 l/m 6,6 km/h (2 Bft) O-NO 64 0 min 0,000 mm 0,0 UV-I 0 W/m 6,3 C 13,3 C 8,0 km/h (2 Bft) 96,30 %
08.05.2018 00:41 13,5 C 18,9 C 62 % 1013,9 hPa 0,0 l/m 6,4 km/h (2 Bft) O-NO 65 0 min 0,000 mm 0,0 UV-I 0 W/m 6,4 C 13,5 C 8,0 km/h (2 Bft) 100,00 %
08.05.2018 00:42 13,5 C 18,9 C 62 % 1014,0 hPa 0,0 l/m 7,0 km/h (2 Bft) O 82 0 min 0,000 mm 0,0 UV-I 0 W/m 6,4 C 13,1 C 11,3 km/h (2 Bft) 95,83 %
08.05.2018 00:43 13,4 C 18,3 C 62 % 1014,0 hPa 0,0 l/m 7,8 km/h (2 Bft) O-NO 75 0 min 0,000 mm 0,0 UV-I 0 W/m 6,3 C 12,5 C 11,3 km/h (2 Bft) 100,00 %
08.05.2018 00:44 13,4 C 18,3 C 62 % 1014,0 hPa 0,0 l/m 7,1 km/h (2 Bft) O-NO 72 0 min 0,000 mm 0,0 UV-I 0 W/m 6,3 C 13,0 C 11,3 km/h (2 Bft) 95,65 %
08.05.2018 00:45 13,5 C 18,3 C 62 % 1014,0 hPa 0,0 l/m 8,3 km/h (2 Bft) O 88 0 min 0,000 mm 0,0 UV-I 0 W/m 6,4 C 12,4 C 12,9 km/h (3 Bft) 95,83 %
08.05.2018 00:46 13,5 C 18,3 C 62 % 1014,0 hPa 0,0 l/m 6,8 km/h (2 Bft) O-NO 66 0 min 0,000 mm 0,0 UV-I 0 W/m 6,4 C 13,3 C 8,0 km/h (2 Bft) 95,65 %
08.05.2018 00:47 13,5 C 18,3 C 62 % 1014,0 hPa 0,0 l/m 9,1 km/h (2 Bft) O-NO 72 0 min 0,000 mm 0,0 UV-I 0 W/m 6,4 C 11,9 C 11,3 km/h (2 Bft) 100,00 %
08.05.2018 00:48 13,4 C 18,3 C 62 % 1014,0 hPa 0,0 l/m 7,7 km/h (2 Bft) O-NO 72 0 min 0,000 mm 0,0 UV-I 0 W/m 6,3 C 12,6 C 11,3 km/h (2 Bft) 100,00 %
08.05.2018 00:49 13,4 C 18,3 C 62 % 1014,0 hPa 0,0 l/m 7,7 km/h (2 Bft) O-NO 67 0 min 0,000 mm 0,0 UV-I 0 W/m 6,3 C 12,6 C 11,3 km/h (2 Bft) 100,00 %
08.05.2018 00:50 13,4 C 18,3 C 62 % 1013,9 hPa 0,0 l/m 8,2 km/h (2 Bft) O-NO 73 0 min 0,000 mm 0,0 UV-I 0 W/m 6,3 C 12,3 C 11,3 km/h (2 Bft) 91,30 %
08.05.2018 00:51 13,4 C 18,3 C 62 % 1013,9 hPa 0,0 l/m 8,4 km/h (2 Bft) O-NO 69 0 min 0,000 mm 0,0 UV-I 0 W/m 6,3 C 12,2 C 11,3 km/h (2 Bft) 100,00 %
08.05.2018 00:52 13,3 C 18,3 C 62 % 1013,9 hPa 0,0 l/m 7,5 km/h (2 Bft) O 87 0 min 0,000 mm 0,0 UV-I 0 W/m 6,2 C 12,6 C 9,7 km/h (2 Bft) 95,65 %
08.05.2018 00:53 13,2 C 18,3 C 63 % 1013,9 hPa 0,0 l/m 6,8 km/h (2 Bft) O-NO 63 0 min 0,000 mm 0,0 UV-I 0 W/m 6,3 C 13,0 C 8,0 km/h (2 Bft) 100,00 %
08.05.2018 00:54 13,2 C 18,3 C 63 % 1013,9 hPa 0,0 l/m 6,6 km/h (2 Bft) O 84 0 min 0,000 mm 0,0 UV-I 0 W/m 6,3 C 13,1 C 9,7 km/h (2 Bft) 100,00 %
08.05.2018 00:55 13,1 C 18,3 C 63 % 1013,9 hPa 0,0 l/m 6,0 km/h (2 Bft) O-NO 64 0 min 0,000 mm 0,0 UV-I 0 W/m 6,2 C 13,1 C 9,7 km/h (2 Bft) 100,00 %
08.05.2018 00:56 13,1 C 18,3 C 63 % 1013,9 hPa 0,0 l/m 5,8 km/h (2 Bft) O-NO 75 0 min 0,000 mm 0,0 UV-I 0 W/m 6,2 C 13,1 C 6,4 km/h (2 Bft) 100,00 %
08.05.2018 00:57 13,1 C 18,3 C 63 % 1013,9 hPa 0,0 l/m 5,9 km/h (2 Bft) O-NO 57 0 min 0,000 mm 0,0 UV-I 0 W/m 6,2 C 13,1 C 8,0 km/h (2 Bft) 100,00 %
08.05.2018 00:58 13,0 C 18,3 C 63 % 1013,9 hPa 0,0 l/m 5,7 km/h (1 Bft) O 88 0 min 0,000 mm 0,0 UV-I 0 W/m 6,1 C 13,0 C 8,0 km/h (2 Bft) 100,00 %
08.05.2018 00:59 13,0 C 18,3 C 63 % 1013,9 hPa 0,0 l/m 5,6 km/h (1 Bft) O-NO 67 0 min 0,000 mm 0,0 UV-I 0 W/m 6,1 C 13,0 C 8,0 km/h (2 Bft) 100,00 %
08.05.2018 01:00 13,0 C 18,3 C 63 % 1013,9 hPa 0,0 l/m 6,4 km/h (2 Bft) O 84 0 min 0,051 mm 0,0 UV-I 0 W/m 6,1 C 13,0 C 8,0 km/h (2 Bft) 95,65 %
08.05.2018 01:01 12,9 C 18,3 C 64 % 1013,8 hPa 0,0 l/m 7,9 km/h (2 Bft) O-NO 70 0 min 0,000 mm 0,0 UV-I 0 W/m 6,3 C 12,0 C 11,3 km/h (2 Bft) 100,00 %
08.05.2018 01:02 12,9 C 18,3 C 64 % 1013,9 hPa 0,0 l/m 5,7 km/h (1 Bft) O-NO 68 0 min 0,000 mm 0,0 UV-I 0 W/m 6,3 C 12,9 C 8,0 km/h (2 Bft) 100,00 %
08.05.2018 01:03 12,9 C 18,3 C 64 % 1013,9 hPa 0,0 l/m 6,7 km/h (2 Bft) O-NO 76 0 min 0,000 mm 0,0 UV-I 0 W/m 6,3 C 12,7 C 9,7 km/h (2 Bft) 100,00 %
08.05.2018 01:04 12,9 C 18,3 C 64 % 1013,9 hPa 0,0 l/m 6,2 km/h (2 Bft) O 86 0 min 0,000 mm 0,0 UV-I 0 W/m 6,3 C 12,9 C 11,3 km/h (2 Bft) 100,00 %
08.05.2018 01:05 12,9 C 18,3 C 64 % 1013,9 hPa 0,0 l/m 7,0 km/h (2 Bft) NO 56 0 min 0,000 mm 0,0 UV-I 0 W/m 6,3 C 12,5 C 9,7 km/h (2 Bft) 100,00 %
08.05.2018 01:06 12,9 C 18,3 C 64 % 1013,9 hPa 0,0 l/m 7,5 km/h (2 Bft) O-NO 74 0 min 0,000 mm 0,0 UV-I 0 W/m 6,3 C 12,2 C 11,3 km/h (2 Bft) 100,00 %
08.05.2018 01:07 12,9 C 18,3 C 64 % 1013,9 hPa 0,0 l/m 7,0 km/h (2 Bft) O-NO 66 0 min 0,000 mm 0,0 UV-I 0 W/m 6,3 C 12,5 C 9,7 km/h (2 Bft) 95,65 %
08.05.2018 01:08 12,9 C 18,3 C 64 % 1013,8 hPa 0,0 l/m 5,8 km/h (2 Bft) O 97 0 min 0,000 mm 0,0 UV-I 0 W/m 6,3 C 12,9 C 9,7 km/h (2 Bft) 100,00 %
08.05.2018 01:09 12,9 C 18,3 C 64 % 1013,8 hPa 0,0 l/m 6,2 km/h (2 Bft) O 90 0 min 0,000 mm 0,0 UV-I 0 W/m 6,3 C 12,9 C 9,7 km/h (2 Bft) 100,00 %
08.05.2018 01:10 12,9 C 18,3 C 64 % 1013,8 hPa 0,0 l/m 6,7 km/h (2 Bft) O 79 0 min 0,000 mm 0,0 UV-I 0 W/m 6,3 C 12,7 C 9,7 km/h (2 Bft) 100,00 %
08.05.2018 01:11 12,9 C 18,3 C 64 % 1013,8 hPa 0,0 l/m 7,0 km/h (2 Bft) NO 49 0 min 0,000 mm 0,0 UV-I 0 W/m 6,3 C 12,5 C 9,7 km/h (2 Bft) 100,00 %
08.05.2018 01:12 12,8 C 18,3 C 64 % 1013,8 hPa 0,0 l/m 5,0 km/h (1 Bft) O 96 0 min 0,000 mm 0,0 UV-I 0 W/m 6,2 C 12,8 C 11,3 km/h (2 Bft) 100,00 %
08.05.2018 01:13 12,8 C 18,3 C 64 % 1013,8 hPa 0,0 l/m 6,5 km/h (2 Bft) NO 53 0 min 0,000 mm 0,0 UV-I 0 W/m 6,2 C 12,8 C 9,7 km/h (2 Bft) 95,65 %
08.05.2018 01:14 12,8 C 18,3 C 64 % 1013,7 hPa 0,0 l/m 8,9 km/h (2 Bft) NO 54 0 min 0,000 mm 0,0 UV-I 0 W/m 6,2 C 11,3 C 14,5 km/h (3 Bft) 100,00 %
08.05.2018 01:15 12,8 C 18,3 C 64 % 1013,7 hPa 0,0 l/m 6,7 km/h (2 Bft) O 85 0 min 0,000 mm 0,0 UV-I 0 W/m 6,2 C 12,6 C 8,0 km/h (2 Bft) 100,00 %
08.05.2018 01:16 12,8 C 18,3 C 64 % 1013,7 hPa 0,0 l/m 6,4 km/h (2 Bft) O 90 0 min 0,000 mm 0,0 UV-I 0 W/m 6,2 C 12,8 C 8,0 km/h (2 Bft) 100,00 %
08.05.2018 01:17 12,9 C 18,3 C 64 % 1013,6 hPa 0,0 l/m 5,8 km/h (2 Bft) O-NO 77 0 min 0,000 mm 0,0 UV-I 0 W/m 6,3 C 12,9 C 8,0 km/h (2 Bft) 95,65 %
08.05.2018 01:18 12,8 C 18,3 C 64 % 1013,6 hPa 0,0 l/m 6,7 km/h (2 Bft) O-NO 77 0 min 0,000 mm 0,0 UV-I 0 W/m 6,2 C 12,6 C 11,3 km/h (2 Bft) 100,00 %
08.05.2018 01:19 12,8 C 18,3 C 64 % 1013,6 hPa 0,0 l/m 6,0 km/h (2 Bft) O 83 0 min 0,000 mm 0,0 UV-I 0 W/m 6,2 C 12,8 C 8,0 km/h (2 Bft) 100,00 %
08.05.2018 01:20 12,8 C 18,3 C 64 % 1013,6 hPa 0,0 l/m 4,6 km/h (1 Bft) NO 51 0 min 0,000 mm 0,0 UV-I 0 W/m 6,2 C 12,8 C 8,0 km/h (2 Bft) 100,00 %
08.05.2018 01:21 12,8 C 18,3 C 64 % 1013,6 hPa 0,0 l/m 6,4 km/h (2 Bft) O-NO 67 0 min 0,000 mm 0,0 UV-I 0 W/m 6,2 C 12,8 C 11,3 km/h (2 Bft) 91,67 %
08.05.2018 01:22 12,7 C 18,3 C 65 % 1013,6 hPa 0,0 l/m 5,9 km/h (2 Bft) NO 55 0 min 0,000 mm 0,0 UV-I 0 W/m 6,3 C 12,7 C 8,0 km/h (2 Bft) 100,00 %
08.05.2018 01:23 12,7 C 18,3 C 65 % 1013,6 hPa 0,0 l/m 5,5 km/h (1 Bft) O-NO 74 0 min 0,000 mm 0,0 UV-I 0 W/m 6,3 C 12,7 C 8,0 km/h (2 Bft) 100,00 %
08.05.2018 01:24 12,7 C 18,3 C 65 % 1013,5 hPa 0,0 l/m 5,6 km/h (1 Bft) NO 44 0 min 0,000 mm 0,0 UV-I 0 W/m 6,3 C 12,7 C 8,0 km/h (2 Bft) 100,00 %
08.05.2018 01:25 12,6 C 18,3 C 65 % 1013,6 hPa 0,0 l/m 6,4 km/h (2 Bft) NO 49 0 min 0,000 mm 0,0 UV-I 0 W/m 6,2 C 12,6 C 11,3 km/h (2 Bft) 100,00 %
08.05.2018 01:26 12,6 C 18,3 C 65 % 1013,5 hPa 0,0 l/m 6,2 km/h (2 Bft) O-NO 73 0 min 0,000 mm 0,0 UV-I 0 W/m 6,2 C 12,6 C 8,0 km/h (2 Bft) 100,00 %
08.05.2018 01:27 12,5 C 18,3 C 66 % 1013,5 hPa 0,0 l/m 5,9 km/h (2 Bft) NO 49 0 min 0,000 mm 0,0 UV-I 0 W/m 6,3 C 12,5 C 8,0 km/h (2 Bft) 95,83 %
08.05.2018 01:28 12,4 C 18,3 C 66 % 1013,5 hPa 0,0 l/m 7,3 km/h (2 Bft) NO 51 0 min 0,000 mm 0,0 UV-I 0 W/m 6,2 C 11,8 C 9,7 km/h (2 Bft) 100,00 %
08.05.2018 01:29 12,3 C 18,3 C 66 % 1013,5 hPa 0,0 l/m 8,4 km/h (2 Bft) O-NO 61 0 min 0,000 mm 0,0 UV-I 0 W/m 6,1 C 11,0 C 12,9 km/h (3 Bft) 100,00 %
08.05.2018 01:30 12,3 C 18,3 C 66 % 1013,5 hPa 0,0 l/m 6,8 km/h (2 Bft) NO 53 0 min 0,000 mm 0,0 UV-I 0 W/m 6,1 C 12,0 C 9,7 km/h (2 Bft) 100,00 %
08.05.2018 01:31 12,3 C 18,3 C 67 % 1013,5 hPa 0,0 l/m 6,4 km/h (2 Bft) NO 56 0 min 0,000 mm 0,0 UV-I 0 W/m 6,4 C 12,3 C 9,7 km/h (2 Bft) 100,00 %
08.05.2018 01:32 12,3 C 18,3 C 67 % 1013,5 hPa 0,0 l/m 7,4 km/h (2 Bft) O-NO 60 0 min 0,000 mm 0,0 UV-I 0 W/m 6,4 C 11,6 C 9,7 km/h (2 Bft) 95,65 %
08.05.2018 01:33 12,3 C 18,3 C 67 % 1013,5 hPa 0,0 l/m 6,8 km/h (2 Bft) O 79 0 min 0,000 mm 0,0 UV-I 0 W/m 6,4 C 12,0 C 9,7 km/h (2 Bft) 100,00 %
08.05.2018 01:34 12,2 C 18,3 C 67 % 1013,5 hPa 0,0 l/m 6,9 km/h (2 Bft) O-NO 71 0 min 0,000 mm 0,0 UV-I 0 W/m 6,3 C 11,9 C 11,3 km/h (2 Bft) 100,00 %
08.05.2018 01:35 12,2 C 18,3 C 67 % 1013,5 hPa 0,0 l/m 6,4 km/h (2 Bft) O-NO 59 0 min 0,000 mm 0,0 UV-I 0 W/m 6,3 C 12,2 C 9,7 km/h (2 Bft) 100,00 %
08.05.2018 01:36 12,3 C 18,3 C 67 % 1013,5 hPa 0,0 l/m 7,7 km/h (2 Bft) N-NO 31 0 min 0,000 mm 0,0 UV-I 0 W/m 6,4 C 11,5 C 11,3 km/h (2 Bft) 100,00 %
08.05.2018 01:37 12,3 C 18,3 C 67 % 1013,4 hPa 0,0 l/m 6,4 km/h (2 Bft) O-NO 59 0 min 0,000 mm 0,0 UV-I 0 W/m 6,4 C 12,3 C 9,7 km/h (2 Bft) 100,00 %
08.05.2018 01:38 12,3 C 18,3 C 67 % 1013,4 hPa 0,0 l/m 7,5 km/h (2 Bft) NO 50 0 min 0,000 mm 0,0 UV-I 0 W/m 6,4 C 11,6 C 9,7 km/h (2 Bft) 95,65 %
08.05.2018 01:39 12,4 C 18,3 C 67 % 1013,4 hPa 0,0 l/m 7,0 km/h (2 Bft) NO 39 0 min 0,000 mm 0,0 UV-I 0 W/m 6,4 C 12,0 C 12,9 km/h (3 Bft) 91,67 %
08.05.2018 01:40 12,3 C 18,3 C 67 % 1013,4 hPa 0,0 l/m 8,3 km/h (2 Bft) O-NO 58 0 min 0,000 mm 0,0 UV-I 0 W/m 6,4 C 11,1 C 11,3 km/h (2 Bft) 100,00 %
08.05.2018 01:41 12,4 C 18,3 C 67 % 1013,4 hPa 0,0 l/m 8,9 km/h (2 Bft) NO 49 0 min 0,000 mm 0,0 UV-I 0 W/m 6,4 C 10,8 C 14,5 km/h (3 Bft) 91,67 %
08.05.2018 01:42 12,4 C 18,3 C 66 % 1013,4 hPa 0,0 l/m 8,9 km/h (2 Bft) NO 51 0 min 0,000 mm 0,0 UV-I 0 W/m 6,2 C 10,8 C 14,5 km/h (3 Bft) 100,00 %
08.05.2018 01:43 12,4 C 18,3 C 66 % 1013,4 hPa 0,0 l/m 9,4 km/h (2 Bft) O-NO 57 0 min 0,000 mm 0,0 UV-I 0 W/m 6,2 C 10,6 C 12,9 km/h (3 Bft) 95,65 %
08.05.2018 01:44 12,5 C 18,3 C 66 % 1013,4 hPa 0,0 l/m 8,9 km/h (2 Bft) O-NO 65 0 min 0,000 mm 0,0 UV-I 0 W/m 6,3 C 11,0 C 12,9 km/h (3 Bft) 100,00 %
08.05.2018 01:45 12,6 C 18,3 C 66 % 1013,4 hPa 0,0 l/m 8,4 km/h (2 Bft) NO 42 0 min 0,000 mm 0,0 UV-I 0 W/m 6,4 C 11,3 C 14,5 km/h (3 Bft) 91,30 %
08.05.2018 01:46 12,6 C 18,3 C 66 % 1013,3 hPa 0,0 l/m 7,8 km/h (2 Bft) NO 41 0 min 0,000 mm 0,0 UV-I 0 W/m 6,4 C 11,7 C 11,3 km/h (2 Bft) 100,00 %
08.05.2018 01:47 12,6 C 18,3 C 66 % 1013,4 hPa 0,0 l/m 7,6 km/h (2 Bft) O-NO 61 0 min 0,000 mm 0,0 UV-I 0 W/m 6,4 C 11,8 C 11,3 km/h (2 Bft) 91,30 %
08.05.2018 01:48 12,7 C 18,3 C 66 % 1013,4 hPa 0,0 l/m 8,6 km/h (2 Bft) NO 48 0 min 0,000 mm 0,0 UV-I 0 W/m 6,5 C 11,3 C 11,3 km/h (2 Bft) 100,00 %
08.05.2018 01:49 12,7 C 18,3 C 66 % 1013,3 hPa 0,0 l/m 6,7 km/h (2 Bft) O-NO 65 0 min 0,000 mm 0,0 UV-I 0 W/m 6,5 C 12,5 C 9,7 km/h (2 Bft) 92,31 %
08.05.2018 01:50 12,7 C 18,3 C 66 % 1013,3 hPa 0,0 l/m 8,4 km/h (2 Bft) N-NO 31 0 min 0,000 mm 0,0 UV-I 0 W/m 6,5 C 11,5 C 12,9 km/h (3 Bft) 100,00 %
08.05.2018 01:51 12,8 C 18,3 C 65 % 1013,3 hPa 0,0 l/m 8,0 km/h (2 Bft) NO 52 0 min 0,000 mm 0,0 UV-I 0 W/m 6,4 C 11,8 C 12,9 km/h (3 Bft) 91,30 %
08.05.2018 01:52 12,7 C 18,3 C 65 % 1013,3 hPa 0,0 l/m 7,5 km/h (2 Bft) O 84 0 min 0,000 mm 0,0 UV-I 0 W/m 6,3 C 12,0 C 12,9 km/h (3 Bft) 95,83 %
08.05.2018 01:53 12,7 C 18,3 C 66 % 1013,3 hPa 0,0 l/m 5,9 km/h (2 Bft) NO 49 0 min 0,000 mm 0,0 UV-I 0 W/m 6,5 C 12,7 C 8,0 km/h (2 Bft) 95,65 %
08.05.2018 01:54 12,7 C 18,3 C 66 % 1013,2 hPa 0,0 l/m 6,6 km/h (2 Bft) O-NO 63 0 min 0,000 mm 0,0 UV-I 0 W/m 6,5 C 12,6 C 9,7 km/h (2 Bft) 92,59 %
08.05.2018 01:55 12,6 C 18,3 C 66 % 1013,2 hPa 0,0 l/m 4,6 km/h (1 Bft) NO 54 0 min 0,000 mm 0,0 UV-I 0 W/m 6,4 C 12,6 C 8,0 km/h (2 Bft) 100,00 %
08.05.2018 01:56 12,6 C 18,3 C 66 % 1013,2 hPa 0,0 l/m 6,1 km/h (2 Bft) O-NO 65 0 min 0,000 mm 0,0 UV-I 0 W/m 6,4 C 12,6 C 9,7 km/h (2 Bft) 96,00 %
08.05.2018 01:57 12,5 C 18,3 C 66 % 1013,2 hPa 0,0 l/m 7,2 km/h (2 Bft) O-NO 61 0 min 0,000 mm 0,0 UV-I 0 W/m 6,3 C 12,0 C 9,7 km/h (2 Bft) 100,00 %
08.05.2018 01:58 12,6 C 18,3 C 66 % 1013,2 hPa 0,0 l/m 5,8 km/h (2 Bft) NO 53 0 min 0,000 mm 0,0 UV-I 0 W/m 6,4 C 12,6 C 11,3 km/h (2 Bft) 91,67 %
08.05.2018 01:59 12,6 C 18,3 C 66 % 1013,2 hPa 0,0 l/m 5,7 km/h (1 Bft) O-NO 69 0 min 0,000 mm 0,0 UV-I 0 W/m 6,4 C 12,6 C 9,7 km/h (2 Bft) 100,00 %
08.05.2018 02:00 12,6 C 18,3 C 66 % 1013,2 hPa 0,0 l/m 6,4 km/h (2 Bft) O 92 0 min 0,025 mm 0,0 UV-I 0 W/m 6,4 C 12,6 C 11,3 km/h (2 Bft) 91,67 %
08.05.2018 02:01 12,6 C 18,3 C 66 % 1013,2 hPa 0,0 l/m 6,8 km/h (2 Bft) O 80 0 min 0,000 mm 0,0 UV-I 0 W/m 6,4 C 12,4 C 9,7 km/h (2 Bft) 91,67 %
08.05.2018 02:02 12,6 C 18,3 C 66 % 1013,2 hPa 0,0 l/m 7,8 km/h (2 Bft) O 92 0 min 0,000 mm 0,0 UV-I 0 W/m 6,4 C 11,7 C 9,7 km/h (2 Bft) 100,00 %
08.05.2018 02:03 12,6 C 18,3 C 66 % 1013,2 hPa 0,0 l/m 7,5 km/h (2 Bft) O-NO 69 0 min 0,000 mm 0,0 UV-I 0 W/m 6,4 C 11,9 C 11,3 km/h (2 Bft) 91,67 %
08.05.2018 02:04 12,5 C 18,3 C 66 % 1013,2 hPa 0,0 l/m 5,8 km/h (2 Bft) NO 51 0 min 0,000 mm 0,0 UV-I 0 W/m 6,3 C 12,5 C 8,0 km/h (2 Bft) 100,00 %
08.05.2018 02:05 12,5 C 18,3 C 66 % 1013,2 hPa 0,0 l/m 6,8 km/h (2 Bft) O-NO 67 0 min 0,000 mm 0,0 UV-I 0 W/m 6,3 C 12,2 C 14,5 km/h (3 Bft) 91,67 %
08.05.2018 02:06 12,5 C 18,3 C 66 % 1013,2 hPa 0,0 l/m 6,2 km/h (2 Bft) O-NO 76 0 min 0,000 mm 0,0 UV-I 0 W/m 6,3 C 12,5 C 9,7 km/h (2 Bft) 95,65 %
08.05.2018 02:07 12,5 C 18,3 C 66 % 1013,1 hPa 0,0 l/m 8,9 km/h (2 Bft) O-NO 78 0 min 0,000 mm 0,0 UV-I 0 W/m 6,3 C 11,0 C 12,9 km/h (3 Bft) 91,67 %
08.05.2018 02:08 12,5 C 18,3 C 66 % 1013,1 hPa 0,0 l/m 8,8 km/h (2 Bft) O 80 0 min 0,000 mm 0,0 UV-I 0 W/m 6,3 C 11,0 C 12,9 km/h (3 Bft) 95,65 %
08.05.2018 02:09 12,5 C 18,3 C 66 % 1013,1 hPa 0,0 l/m 7,4 km/h (2 Bft) O-NO 77 0 min 0,000 mm 0,0 UV-I 0 W/m 6,3 C 11,9 C 11,3 km/h (2 Bft) 95,83 %
08.05.2018 02:10 12,4 C 18,3 C 67 % 1013,1 hPa 0,0 l/m 8,4 km/h (2 Bft) O-SO 109 0 min 0,000 mm 0,0 UV-I 0 W/m 6,4 C 11,1 C 11,3 km/h (2 Bft) 92,31 %
08.05.2018 02:11 12,4 C 18,3 C 67 % 1013,1 hPa 0,0 l/m 8,4 km/h (2 Bft) O-NO 61 0 min 0,000 mm 0,0 UV-I 0 W/m 6,4 C 11,1 C 12,9 km/h (3 Bft) 100,00 %
08.05.2018 02:12 12,5 C 18,3 C 67 % 1013,1 hPa 0,0 l/m 6,8 km/h (2 Bft) O-NO 63 0 min 0,000 mm 0,0 UV-I 0 W/m 6,5 C 12,2 C 11,3 km/h (2 Bft) 91,30 %
08.05.2018 02:13 12,5 C 18,3 C 66 % 1013,1 hPa 0,0 l/m 7,1 km/h (2 Bft) O 101 0 min 0,000 mm 0,0 UV-I 0 W/m 6,3 C 12,0 C 9,7 km/h (2 Bft) 100,00 %
08.05.2018 02:14 12,5 C 18,3 C 66 % 1013,1 hPa 0,0 l/m 6,4 km/h (2 Bft) O-NO 72 0 min 0,000 mm 0,0 UV-I 0 W/m 6,3 C 12,5 C 9,7 km/h (2 Bft) 91,30 %
08.05.2018 02:15 12,5 C 18,3 C 66 % 1013,1 hPa 0,0 l/m 8,2 km/h (2 Bft) O-NO 72 0 min 0,000 mm 0,0 UV-I 0 W/m 6,3 C 11,4 C 12,9 km/h (3 Bft) 100,00 %
08.05.2018 02:16 12,6 C 18,3 C 66 % 1013,1 hPa 0,0 l/m 8,7 km/h (2 Bft) O 86 0 min 0,000 mm 0,0 UV-I 0 W/m 6,4 C 11,2 C 12,9 km/h (3 Bft) 87,50 %
08.05.2018 02:17 12,6 C 18,3 C 66 % 1013,0 hPa 0,0 l/m 7,5 km/h (2 Bft) NO 54 0 min 0,000 mm 0,0 UV-I 0 W/m 6,4 C 11,9 C 12,9 km/h (3 Bft) 100,00 %
08.05.2018 02:18 12,7 C 18,3 C 66 % 1013,0 hPa 0,0 l/m 4,5 km/h (1 Bft) O-NO 60 0 min 0,000 mm 0,0 UV-I 0 W/m 6,5 C 12,7 C 6,4 km/h (2 Bft) 92,59 %
08.05.2018 02:19 12,8 C 18,3 C 65 % 1013,0 hPa 0,0 l/m 8,0 km/h (2 Bft) O 86 0 min 0,000 mm 0,0 UV-I 0 W/m 6,4 C 11,8 C 11,3 km/h (2 Bft) 91,30 %
08.05.2018 02:20 12,8 C 18,3 C 65 % 1013,1 hPa 0,0 l/m 8,1 km/h (2 Bft) O-NO 78 0 min 0,000 mm 0,0 UV-I 0 W/m 6,4 C 11,7 C 11,3 km/h (2 Bft) 95,83 %
08.05.2018 02:21 12,8 C 18,3 C 65 % 1013,0 hPa 0,0 l/m 7,5 km/h (2 Bft) NO 47 0 min 0,000 mm 0,0 UV-I 0 W/m 6,4 C 12,1 C 11,3 km/h (2 Bft) 100,00 %
08.05.2018 02:22 12,9 C 18,3 C 65 % 1013,0 hPa 0,0 l/m 7,4 km/h (2 Bft) NO 37 0 min 0,000 mm 0,0 UV-I 0 W/m 6,5 C 12,3 C 16,1 km/h (3 Bft) 95,83 %
08.05.2018 02:23 12,9 C 18,3 C 65 % 1013,0 hPa 0,0 l/m 8,0 km/h (2 Bft) O-NO 69 0 min 0,000 mm 0,0 UV-I 0 W/m 6,5 C 11,9 C 9,7 km/h (2 Bft) 95,65 %
08.05.2018 02:24 12,9 C 18,3 C 65 % 1013,0 hPa 0,0 l/m 5,6 km/h (1 Bft) NO 44 0 min 0,000 mm 0,0 UV-I 0 W/m 6,5 C 12,9 C 6,4 km/h (2 Bft) 100,00 %
08.05.2018 02:25 12,9 C 18,3 C 65 % 1013,0 hPa 0,0 l/m 7,8 km/h (2 Bft) NO 51 0 min 0,000 mm 0,0 UV-I 0 W/m 6,5 C 12,0 C 9,7 km/h (2 Bft) 95,65 %
08.05.2018 02:26 12,9 C 18,3 C 64 % 1012,9 hPa 0,0 l/m 6,4 km/h (2 Bft) NO 55 0 min 0,000 mm 0,0 UV-I 0 W/m 6,3 C 12,9 C 9,7 km/h (2 Bft) 100,00 %
08.05.2018 02:27 12,9 C 18,3 C 64 % 1013,0 hPa 0,0 l/m 7,1 km/h (2 Bft) O-NO 74 0 min 0,000 mm 0,0 UV-I 0 W/m 6,3 C 12,5 C 11,3 km/h (2 Bft) 95,83 %
08.05.2018 02:28 12,9 C 18,3 C 64 % 1012,9 hPa 0,0 l/m 6,2 km/h (2 Bft) NO 50 0 min 0,000 mm 0,0 UV-I 0 W/m 6,3 C 12,9 C 8,0 km/h (2 Bft) 95,83 %
08.05.2018 02:29 12,9 C 18,3 C 64 % 1013,0 hPa 0,0 l/m 4,6 km/h (1 Bft) NO 52 0 min 0,000 mm 0,0 UV-I 0 W/m 6,3 C 12,9 C 6,4 km/h (2 Bft) 95,65 %
08.05.2018 02:30 12,8 C 18,3 C 65 % 1012,9 hPa 0,0 l/m 6,6 km/h (2 Bft) O-NO 71 0 min 0,000 mm 0,0 UV-I 0 W/m 6,4 C 12,7 C 9,7 km/h (2 Bft) 100,00 %
08.05.2018 02:31 12,8 C 18,3 C 65 % 1012,9 hPa 0,0 l/m 7,6 km/h (2 Bft) O 94 0 min 0,000 mm 0,0 UV-I 0 W/m 6,4 C 12,0 C 11,3 km/h (2 Bft) 95,65 %
08.05.2018 02:32 12,7 C 18,3 C 65 % 1012,9 hPa 0,0 l/m 6,4 km/h (2 Bft) NO 51 0 min 0,000 mm 0,0 UV-I 0 W/m 6,3 C 12,7 C 9,7 km/h (2 Bft) 91,67 %
08.05.2018 02:33 12,7 C 18,3 C 65 % 1012,9 hPa 0,0 l/m 6,0 km/h (2 Bft) O 79 0 min 0,000 mm 0,0 UV-I 0 W/m 6,3 C 12,7 C 8,0 km/h (2 Bft) 100,00 %
08.05.2018 02:34 12,6 C 18,3 C 66 % 1012,9 hPa 0,0 l/m 6,0 km/h (2 Bft) O-NO 69 0 min 0,000 mm 0,0 UV-I 0 W/m 6,4 C 12,6 C 11,3 km/h (2 Bft) 92,31 %
08.05.2018 02:35 12,5 C 18,3 C 66 % 1012,9 hPa 0,0 l/m 5,6 km/h (1 Bft) O 80 0 min 0,000 mm 0,0 UV-I 0 W/m 6,3 C 12,5 C 11,3 km/h (2 Bft) 95,83 %
08.05.2018 02:36 12,4 C 18,3 C 66 % 1012,9 hPa 0,0 l/m 6,0 km/h (2 Bft) O-NO 66 0 min 0,000 mm 0,0 UV-I 0 W/m 6,2 C 12,4 C 8,0 km/h (2 Bft) 95,65 %
08.05.2018 02:37 12,4 C 18,3 C 66 % 1012,9 hPa 0,0 l/m 7,1 km/h (2 Bft) O-NO 77 0 min 0,000 mm 0,0 UV-I 0 W/m 6,2 C 11,9 C 11,3 km/h (2 Bft) 100,00 %
08.05.2018 02:38 12,3 C 18,3 C 66 % 1012,9 hPa 0,0 l/m 4,8 km/h (1 Bft) O-NO 65 0 min 0,000 mm 0,0 UV-I 0 W/m 6,1 C 12,3 C 6,4 km/h (2 Bft) 100,00 %
08.05.2018 02:39 12,3 C 18,3 C 66 % 1012,9 hPa 0,0 l/m 5,6 km/h (1 Bft) O-NO 59 0 min 0,000 mm 0,0 UV-I 0 W/m 6,1 C 12,3 C 8,0 km/h (2 Bft) 100,00 %
08.05.2018 02:40 12,3 C 18,3 C 66 % 1012,9 hPa 0,0 l/m 5,4 km/h (1 Bft) O-NO 68 0 min 0,000 mm 0,0 UV-I 0 W/m 6,1 C 12,3 C 8,0 km/h (2 Bft) 95,65 %
08.05.2018 02:41 12,3 C 18,3 C 66 % 1012,9 hPa 0,0 l/m 5,5 km/h (1 Bft) O-NO 76 0 min 0,000 mm 0,0 UV-I 0 W/m 6,1 C 12,3 C 8,0 km/h (2 Bft) 100,00 %
08.05.2018 02:42 12,3 C 18,3 C 66 % 1012,8 hPa 0,0 l/m 4,6 km/h (1 Bft) O-NO 77 0 min 0,000 mm 0,0 UV-I 0 W/m 6,1 C 12,3 C 8,0 km/h (2 Bft) 100,00 %
08.05.2018 02:43 12,3 C 18,3 C 66 % 1012,8 hPa 0,0 l/m 4,8 km/h (1 Bft) O-NO 66 0 min 0,000 mm 0,0 UV-I 0 W/m 6,1 C 12,3 C 8,0 km/h (2 Bft) 100,00 %
08.05.2018 02:44 12,3 C 18,3 C 66 % 1012,8 hPa 0,0 l/m 4,7 km/h (1 Bft) O-NO 78 0 min 0,000 mm 0,0 UV-I 0 W/m 6,1 C 12,3 C 8,0 km/h (2 Bft) 100,00 %
08.05.2018 02:45 12,2 C 18,3 C 66 % 1012,8 hPa 0,0 l/m 6,2 km/h (2 Bft) NO 45 0 min 0,000 mm 0,0 UV-I 0 W/m 6,0 C 12,2 C 8,0 km/h (2 Bft) 100,00 %
08.05.2018 02:46 12,2 C 18,3 C 66 % 1012,8 hPa 0,0 l/m 5,0 km/h (1 Bft) O-NO 72 0 min 0,000 mm 0,0 UV-I 0 W/m 6,0 C 12,2 C 6,4 km/h (2 Bft) 86,96 %
08.05.2018 02:47 12,2 C 18,3 C 66 % 1012,8 hPa 0,0 l/m 5,2 km/h (1 Bft) O-NO 77 0 min 0,000 mm 0,0 UV-I 0 W/m 6,0 C 12,2 C 8,0 km/h (2 Bft) 96,15 %
08.05.2018 02:48 12,2 C 18,3 C 66 % 1012,8 hPa 0,0 l/m 6,4 km/h (2 Bft) O-NO 59 0 min 0,000 mm 0,0 UV-I 0 W/m 6,0 C 12,2 C 8,0 km/h (2 Bft) 95,65 %
08.05.2018 02:49 12,1 C 18,3 C 67 % 1012,7 hPa 0,0 l/m 5,5 km/h (1 Bft) O-NO 65 0 min 0,000 mm 0,0 UV-I 0 W/m 6,2 C 12,1 C 8,0 km/h (2 Bft) 100,00 %
08.05.2018 02:50 12,1 C 18,3 C 66 % 1012,7 hPa 0,0 l/m 5,2 km/h (1 Bft) O-NO 78 0 min 0,000 mm 0,0 UV-I 0 W/m 5,9 C 12,1 C 6,4 km/h (2 Bft) 95,65 %
08.05.2018 02:51 12,1 C 18,3 C 66 % 1012,7 hPa 0,0 l/m 3,6 km/h (1 Bft) O-NO 78 0 min 0,000 mm 0,0 UV-I 0 W/m 5,9 C 12,1 C 4,8 km/h (1 Bft) 100,00 %
08.05.2018 02:52 12,1 C 18,3 C 66 % 1012,7 hPa 0,0 l/m 5,5 km/h (1 Bft) O-NO 68 0 min 0,000 mm 0,0 UV-I 0 W/m 5,9 C 12,1 C 8,0 km/h (2 Bft) 100,00 %
08.05.2018 02:53 12,1 C 18,3 C 66 % 1012,7 hPa 0,0 l/m 6,6 km/h (2 Bft) NO 46 0 min 0,000 mm 0,0 UV-I 0 W/m 5,9 C 12,0 C 8,0 km/h (2 Bft) 100,00 %
08.05.2018 02:54 12,1 C 18,3 C 66 % 1012,7 hPa 0,0 l/m 8,6 km/h (2 Bft) NO 36 0 min 0,000 mm 0,0 UV-I 0 W/m 5,9 C 10,7 C 12,9 km/h (3 Bft) 100,00 %
08.05.2018 02:55 12,1 C 18,3 C 66 % 1012,7 hPa 0,0 l/m 7,7 km/h (2 Bft) NO 35 0 min 0,000 mm 0,0 UV-I 0 W/m 5,9 C 11,2 C 11,3 km/h (2 Bft) 100,00 %
08.05.2018 02:56 12,1 C 18,3 C 66 % 1012,7 hPa 0,0 l/m 7,0 km/h (2 Bft) NO 56 0 min 0,000 mm 0,0 UV-I 0 W/m 5,9 C 11,7 C 8,0 km/h (2 Bft) 100,00 %
08.05.2018 02:57 12,1 C 18,3 C 66 % 1012,7 hPa 0,0 l/m 6,0 km/h (2 Bft) O-NO 61 0 min 0,000 mm 0,0 UV-I 0 W/m 5,9 C 12,1 C 9,7 km/h (2 Bft) 95,65 %
08.05.2018 02:58 12,2 C 18,3 C 66 % 1012,7 hPa 0,0 l/m 12,5 km/h (3 Bft) O-NO 59 0 min 0,000 mm 0,0 UV-I 0 W/m 6,0 C 8,8 C 16,1 km/h (3 Bft) 100,00 %
08.05.2018 02:59 12,3 C 18,3 C 66 % 1012,6 hPa 0,0 l/m 9,4 km/h (2 Bft) O-NO 71 0 min 0,000 mm 0,0 UV-I 0 W/m 6,1 C 10,5 C 16,1 km/h (3 Bft) 100,00 %
08.05.2018 03:00 12,4 C 18,3 C 65 % 1012,6 hPa 0,0 l/m 7,1 km/h (2 Bft) O-NO 57 0 min 0,000 mm 0,0 UV-I 0 W/m 6,0 C 11,9 C 11,3 km/h (2 Bft) 100,00 %
08.05.2018 03:01 12,4 C 18,3 C 65 % 1012,7 hPa 0,0 l/m 8,6 km/h (2 Bft) NO 42 0 min 0,026 mm 0,0 UV-I 0 W/m 6,0 C 11,0 C 11,3 km/h (2 Bft) 95,65 %
08.05.2018 03:02 12,5 C 18,3 C 65 % 1012,7 hPa 0,0 l/m 9,3 km/h (2 Bft) NO 53 0 min 0,000 mm 0,0 UV-I 0 W/m 6,1 C 10,7 C 16,1 km/h (3 Bft) 100,00 %
08.05.2018 03:03 12,6 C 18,3 C 64 % 1012,6 hPa 0,0 l/m 9,1 km/h (2 Bft) NO 34 0 min 0,000 mm 0,0 UV-I 0 W/m 6,0 C 10,9 C 12,9 km/h (3 Bft) 86,96 %
08.05.2018 03:04 12,7 C 18,3 C 64 % 1012,6 hPa 0,0 l/m 8,4 km/h (2 Bft) NO 52 0 min 0,000 mm 0,0 UV-I 0 W/m 6,1 C 11,5 C 14,5 km/h (3 Bft) 95,83 %
08.05.2018 03:05 12,7 C 18,3 C 64 % 1012,6 hPa 0,0 l/m 8,5 km/h (2 Bft) NO 49 0 min 0,000 mm 0,0 UV-I 0 W/m 6,1 C 11,4 C 12,9 km/h (3 Bft) 96,15 %
08.05.2018 03:06 12,8 C 18,3 C 64 % 1012,6 hPa 0,0 l/m 8,9 km/h (2 Bft) O-NO 64 0 min 0,000 mm 0,0 UV-I 0 W/m 6,2 C 11,3 C 12,9 km/h (3 Bft) 100,00 %
08.05.2018 03:07 12,8 C 18,3 C 63 % 1012,6 hPa 0,0 l/m 8,5 km/h (2 Bft) O-NO 57 0 min 0,000 mm 0,0 UV-I 0 W/m 5,9 C 11,5 C 12,9 km/h (3 Bft) 95,65 %
08.05.2018 03:08 12,8 C 18,3 C 63 % 1012,6 hPa 0,0 l/m 7,6 km/h (2 Bft) NO 47 0 min 0,000 mm 0,0 UV-I 0 W/m 5,9 C 12,0 C 12,9 km/h (3 Bft) 100,00 %
08.05.2018 03:09 12,8 C 18,3 C 63 % 1012,6 hPa 0,0 l/m 7,3 km/h (2 Bft) NO 42 0 min 0,000 mm 0,0 UV-I 0 W/m 5,9 C 12,2 C 11,3 km/h (2 Bft) 100,00 %
08.05.2018 03:10 12,8 C 18,3 C 63 % 1012,5 hPa 0,0 l/m 7,4 km/h (2 Bft) O-NO 59 0 min 0,000 mm 0,0 UV-I 0 W/m 5,9 C 12,2 C 11,3 km/h (2 Bft) 100,00 %
08.05.2018 03:11 12,8 C 18,3 C 63 % 1012,5 hPa 0,0 l/m 9,2 km/h (2 Bft) O-NO 61 0 min 0,000 mm 0,0 UV-I 0 W/m 5,9 C 11,1 C 14,5 km/h (3 Bft) 100,00 %
08.05.2018 03:12 12,7 C 18,3 C 63 % 1012,5 hPa 0,0 l/m 5,6 km/h (1 Bft) O-NO 76 0 min 0,000 mm 0,0 UV-I 0 W/m 5,8 C 12,7 C 11,3 km/h (2 Bft) 100,00 %
08.05.2018 03:13 12,7 C 18,3 C 64 % 1012,5 hPa 0,0 l/m 6,4 km/h (2 Bft) N-NO 26 0 min 0,000 mm 0,0 UV-I 0 W/m 6,1 C 12,7 C 8,0 km/h (2 Bft) 100,00 %
08.05.2018 03:14 12,6 C 18,3 C 64 % 1012,5 hPa 0,0 l/m 6,8 km/h (2 Bft) O 84 0 min 0,000 mm 0,0 UV-I 0 W/m 6,0 C 12,4 C 12,9 km/h (3 Bft) 100,00 %
08.05.2018 03:15 12,5 C 18,3 C 64 % 1012,5 hPa 0,0 l/m 5,2 km/h (1 Bft) O-SO 112 0 min 0,000 mm 0,0 UV-I 0 W/m 5,9 C 12,5 C 8,0 km/h (2 Bft) 95,65 %
08.05.2018 03:16 12,3 C 18,3 C 65 % 1012,5 hPa 0,0 l/m 7,1 km/h (2 Bft) O 84 0 min 0,000 mm 0,0 UV-I 0 W/m 5,9 C 11,8 C 11,3 km/h (2 Bft) 100,00 %
08.05.2018 03:17 12,2 C 18,3 C 65 % 1012,5 hPa 0,0 l/m 7,6 km/h (2 Bft) O 86 0 min 0,000 mm 0,0 UV-I 0 W/m 5,8 C 11,4 C 11,3 km/h (2 Bft) 100,00 %
08.05.2018 03:18 12,1 C 18,3 C 65 % 1012,5 hPa 0,0 l/m 7,4 km/h (2 Bft) O-NO 67 0 min 0,000 mm 0,0 UV-I 0 W/m 5,7 C 11,4 C 11,3 km/h (2 Bft) 100,00 %
08.05.2018 03:19 12,0 C 18,3 C 66 % 1012,5 hPa 0,0 l/m 8,3 km/h (2 Bft) O-NO 77 0 min 0,000 mm 0,0 UV-I 0 W/m 5,8 C 10,8 C 12,9 km/h (3 Bft) 100,00 %
08.05.2018 03:20 11,9 C 18,3 C 66 % 1012,5 hPa 0,0 l/m 7,2 km/h (2 Bft) O-NO 76 0 min 0,000 mm 0,0 UV-I 0 W/m 5,8 C 11,4 C 9,7 km/h (2 Bft) 100,00 %
08.05.2018 03:21 11,9 C 18,3 C 66 % 1012,5 hPa 0,0 l/m 6,6 km/h (2 Bft) O-NO 72 0 min 0,000 mm 0,0 UV-I 0 W/m 5,8 C 11,8 C 12,9 km/h (3 Bft) 100,00 %
08.05.2018 03:22 11,9 C 18,3 C 66 % 1012,5 hPa 0,0 l/m 9,7 km/h (2 Bft) O-NO 69 0 min 0,000 mm 0,0 UV-I 0 W/m 5,8 C 9,9 C 14,5 km/h (3 Bft) 95,65 %
08.05.2018 03:24 11,8 C 18,3 C 67 % 1012,5 hPa 0,0 l/m 9,2 km/h (2 Bft) O-NO 61 0 min 0,000 mm 0,0 UV-I 0 W/m 5,9 C 10,0 C 16,1 km/h (3 Bft) 100,00 %
08.05.2018 03:25 11,7 C 18,3 C 67 % 1012,5 hPa 0,0 l/m 9,1 km/h (2 Bft) O-NO 74 0 min 0,000 mm 0,0 UV-I 0 W/m 5,8 C 10,0 C 12,9 km/h (3 Bft) 100,00 %
08.05.2018 03:26 11,7 C 18,3 C 67 % 1012,5 hPa 0,0 l/m 8,5 km/h (2 Bft) O-NO 63 0 min 0,000 mm 0,0 UV-I 0 W/m 5,8 C 10,3 C 12,9 km/h (3 Bft) 100,00 %
08.05.2018 03:27 11,7 C 18,3 C 67 % 1012,5 hPa 0,0 l/m 8,1 km/h (2 Bft) O 89 0 min 0,000 mm 0,0 UV-I 0 W/m 5,8 C 10,6 C 11,3 km/h (2 Bft) 100,00 %
08.05.2018 03:28 11,7 C 18,3 C 67 % 1012,5 hPa 0,0 l/m 8,3 km/h (2 Bft) O 80 0 min 0,000 mm 0,0 UV-I 0 W/m 5,8 C 10,5 C 12,9 km/h (3 Bft) 97,14 %
08.05.2018 03:29 11,7 C 18,3 C 67 % 1012,5 hPa 0,0 l/m 6,2 km/h (2 Bft) O-NO 75 0 min 0,000 mm 0,0 UV-I 0 W/m 5,8 C 11,7 C 8,0 km/h (2 Bft) 100,00 %
08.05.2018 03:30 11,7 C 18,3 C 67 % 1012,4 hPa 0,0 l/m 6,7 km/h (2 Bft) O-NO 76 0 min 0,000 mm 0,0 UV-I 0 W/m 5,8 C 11,5 C 12,9 km/h (3 Bft) 95,65 %
08.05.2018 03:31 11,7 C 18,3 C 67 % 1012,4 hPa 0,0 l/m 8,4 km/h (2 Bft) O 100 0 min 0,000 mm 0,0 UV-I 0 W/m 5,8 C 10,4 C 11,3 km/h (2 Bft) 100,00 %
08.05.2018 03:32 11,7 C 18,3 C 67 % 1012,5 hPa 0,0 l/m 7,4 km/h (2 Bft) O-NO 61 0 min 0,000 mm 0,0 UV-I 0 W/m 5,8 C 11,0 C 9,7 km/h (2 Bft) 91,30 %
08.05.2018 03:33 11,6 C 18,3 C 67 % 1012,5 hPa 0,0 l/m 7,6 km/h (2 Bft) O-NO 69 0 min 0,000 mm 0,0 UV-I 0 W/m 5,7 C 10,8 C 11,3 km/h (2 Bft) 95,83 %
08.05.2018 03:34 11,6 C 18,3 C 67 % 1012,5 hPa 0,0 l/m 8,0 km/h (2 Bft) O-NO 73 0 min 0,000 mm 0,0 UV-I 0 W/m 5,7 C 10,5 C 11,3 km/h (2 Bft) 100,00 %
08.05.2018 03:35 11,6 C 18,3 C 67 % 1012,5 hPa 0,0 l/m 8,0 km/h (2 Bft) O 90 0 min 0,000 mm 0,0 UV-I 0 W/m 5,7 C 10,5 C 11,3 km/h (2 Bft) 100,00 %
08.05.2018 03:36 11,6 C 18,3 C 67 % 1012,4 hPa 0,0 l/m 7,7 km/h (2 Bft) O 87 0 min 0,000 mm 0,0 UV-I 0 W/m 5,7 C 10,7 C 9,7 km/h (2 Bft) 100,00 %
08.05.2018 03:37 11,5 C 18,3 C 68 % 1012,4 hPa 0,0 l/m 8,1 km/h (2 Bft) O-NO 68 0 min 0,000 mm 0,0 UV-I 0 W/m 5,8 C 10,4 C 11,3 km/h (2 Bft) 95,65 %
08.05.2018 03:38 11,5 C 18,3 C 68 % 1012,4 hPa 0,0 l/m 7,6 km/h (2 Bft) O 100 0 min 0,000 mm 0,0 UV-I 0 W/m 5,8 C 10,7 C 11,3 km/h (2 Bft) 100,00 %
08.05.2018 03:39 11,4 C 18,3 C 68 % 1012,4 hPa 0,0 l/m 8,5 km/h (2 Bft) O-NO 78 0 min 0,000 mm 0,0 UV-I 0 W/m 5,7 C 10,0 C 12,9 km/h (3 Bft) 96,15 %
08.05.2018 03:40 11,4 C 18,3 C 68 % 1012,4 hPa 0,0 l/m 8,0 km/h (2 Bft) O 80 0 min 0,000 mm 0,0 UV-I 0 W/m 5,7 C 10,3 C 12,9 km/h (3 Bft) 100,00 %
08.05.2018 03:41 11,4 C 18,3 C 68 % 1012,4 hPa 0,0 l/m 7,8 km/h (2 Bft) O-NO 71 0 min 0,000 mm 0,0 UV-I 0 W/m 5,7 C 10,5 C 12,9 km/h (3 Bft) 100,00 %
08.05.2018 03:42 11,4 C 18,3 C 68 % 1012,4 hPa 0,0 l/m 8,2 km/h (2 Bft) O 79 0 min 0,000 mm 0,0 UV-I 0 W/m 5,7 C 10,2 C 12,9 km/h (3 Bft) 100,00 %
08.05.2018 03:43 11,3 C 18,3 C 68 % 1012,4 hPa 0,0 l/m 7,7 km/h (2 Bft) O-NO 77 0 min 0,000 mm 0,0 UV-I 0 W/m 5,6 C 10,4 C 11,3 km/h (2 Bft) 100,00 %
08.05.2018 03:44 11,3 C 18,3 C 69 % 1012,3 hPa 0,0 l/m 9,0 km/h (2 Bft) O-NO 62 0 min 0,000 mm 0,0 UV-I 0 W/m 5,8 C 9,6 C 12,9 km/h (3 Bft) 100,00 %
08.05.2018 03:45 11,3 C 18,3 C 69 % 1012,4 hPa 0,0 l/m 6,6 km/h (2 Bft) O-NO 68 0 min 0,000 mm 0,0 UV-I 0 W/m 5,8 C 11,2 C 11,3 km/h (2 Bft) 95,65 %
08.05.2018 03:46 11,2 C 18,3 C 69 % 1012,3 hPa 0,0 l/m 4,5 km/h (1 Bft) O-NO 71 0 min 0,000 mm 0,0 UV-I 0 W/m 5,7 C 11,2 C 4,8 km/h (1 Bft) 100,00 %
08.05.2018 03:47 11,2 C 18,3 C 69 % 1012,3 hPa 0,0 l/m 6,1 km/h (2 Bft) O-NO 69 0 min 0,000 mm 0,0 UV-I 0 W/m 5,7 C 11,2 C 9,7 km/h (2 Bft) 100,00 %
08.05.2018 03:48 11,2 C 18,3 C 69 % 1012,4 hPa 0,0 l/m 7,4 km/h (2 Bft) O-NO 73 0 min 0,000 mm 0,0 UV-I 0 W/m 5,7 C 10,5 C 11,3 km/h (2 Bft) 100,00 %
08.05.2018 03:49 11,2 C 18,3 C 69 % 1012,4 hPa 0,0 l/m 6,8 km/h (2 Bft) O 89 0 min 0,000 mm 0,0 UV-I 0 W/m 5,7 C 10,9 C 8,0 km/h (2 Bft) 94,12 %
08.05.2018 03:50 11,2 C 18,3 C 69 % 1012,4 hPa 0,0 l/m 6,5 km/h (2 Bft) O-NO 71 0 min 0,000 mm 0,0 UV-I 0 W/m 5,7 C 11,2 C 9,7 km/h (2 Bft) 95,83 %
08.05.2018 03:51 11,1 C 18,3 C 69 % 1012,4 hPa 0,0 l/m 6,5 km/h (2 Bft) O-NO 69 0 min 0,000 mm 0,0 UV-I 0 W/m 5,6 C 11,1 C 8,0 km/h (2 Bft) 91,30 %
08.05.2018 03:52 11,1 C 18,3 C 69 % 1012,4 hPa 0,0 l/m 4,7 km/h (1 Bft) O-NO 69 0 min 0,000 mm 0,0 UV-I 0 W/m 5,6 C 11,1 C 6,4 km/h (2 Bft) 100,00 %
08.05.2018 03:53 11,1 C 18,3 C 69 % 1012,4 hPa 0,0 l/m 5,6 km/h (1 Bft) O 86 0 min 0,000 mm 0,0 UV-I 0 W/m 5,6 C 11,1 C 8,0 km/h (2 Bft) 96,15 %
08.05.2018 03:54 11,0 C 18,3 C 70 % 1012,3 hPa 0,0 l/m 6,8 km/h (2 Bft) O-NO 77 0 min 0,000 mm 0,0 UV-I 0 W/m 5,7 C 10,7 C 9,7 km/h (2 Bft) 95,83 %
08.05.2018 03:55 10,9 C 18,3 C 70 % 1012,3 hPa 0,0 l/m 5,6 km/h (1 Bft) O-NO 69 0 min 0,000 mm 0,0 UV-I 0 W/m 5,6 C 10,9 C 6,4 km/h (2 Bft) 91,30 %
08.05.2018 03:56 10,9 C 18,3 C 70 % 1012,3 hPa 0,0 l/m 4,2 km/h (1 Bft) O 80 0 min 0,000 mm 0,0 UV-I 0 W/m 5,6 C 10,9 C 6,4 km/h (2 Bft) 95,83 %
08.05.2018 03:57 10,9 C 18,3 C 70 % 1012,3 hPa 0,0 l/m 4,5 km/h (1 Bft) NO 52 0 min 0,000 mm 0,0 UV-I 0 W/m 5,6 C 10,9 C 8,0 km/h (2 Bft) 95,83 %
08.05.2018 03:58 10,9 C 18,3 C 70 % 1012,3 hPa 0,0 l/m 5,2 km/h (1 Bft) O-NO 74 0 min 0,000 mm 0,0 UV-I 0 W/m 5,6 C 10,9 C 8,0 km/h (2 Bft) 92,31 %
08.05.2018 03:59 10,9 C 18,3 C 70 % 1012,3 hPa 0,0 l/m 5,6 km/h (1 Bft) O-NO 78 0 min 0,000 mm 0,0 UV-I 0 W/m 5,6 C 10,9 C 6,4 km/h (2 Bft) 100,00 %
08.05.2018 04:00 10,9 C 18,3 C 70 % 1012,3 hPa 0,0 l/m 5,8 km/h (2 Bft) O-NO 67 0 min 0,025 mm 0,0 UV-I 0 W/m 5,6 C 10,9 C 8,0 km/h (2 Bft) 95,83 %
08.05.2018 04:02 10,7 C 18,3 C 71 % 1012,2 hPa 0,0 l/m 7,5 km/h (2 Bft) NO 55 0 min 0,000 mm 0,0 UV-I 0 W/m 5,7 C 9,9 C 9,7 km/h (2 Bft) 100,00 %
08.05.2018 04:03 10,7 C 18,3 C 71 % 1012,2 hPa 0,0 l/m 5,8 km/h (2 Bft) O-NO 59 0 min 0,000 mm 0,0 UV-I 0 W/m 5,7 C 10,7 C 6,4 km/h (2 Bft) 95,83 %
08.05.2018 04:04 10,7 C 18,3 C 71 % 1012,2 hPa 0,0 l/m 5,1 km/h (1 Bft) NO 45 0 min 0,000 mm 0,0 UV-I 0 W/m 5,7 C 10,7 C 6,4 km/h (2 Bft) 95,65 %
08.05.2018 04:05 10,7 C 18,3 C 71 % 1012,2 hPa 0,0 l/m 6,8 km/h (2 Bft) NO 51 0 min 0,000 mm 0,0 UV-I 0 W/m 5,7 C 10,4 C 8,0 km/h (2 Bft) 95,83 %
08.05.2018 04:06 10,6 C 18,3 C 71 % 1012,2 hPa 0,0 l/m 6,4 km/h (2 Bft) O-NO 70 0 min 0,000 mm 0,0 UV-I 0 W/m 5,6 C 10,6 C 8,0 km/h (2 Bft) 100,00 %
08.05.2018 04:07 10,6 C 18,3 C 72 % 1012,2 hPa 0,0 l/m 5,1 km/h (1 Bft) O 85 0 min 0,000 mm 0,0 UV-I 0 W/m 5,8 C 10,6 C 8,0 km/h (2 Bft) 95,83 %
08.05.2018 04:09 10,6 C 18,3 C 71 % 1012,2 hPa 0,0 l/m 6,1 km/h (2 Bft) O-NO 61 0 min 0,000 mm 0,0 UV-I 0 W/m 5,6 C 10,6 C 9,7 km/h (2 Bft) 95,74 %
08.05.2018 04:10 10,6 C 18,3 C 72 % 1012,1 hPa 0,0 l/m 4,5 km/h (1 Bft) O-NO 67 0 min 0,000 mm 0,0 UV-I 0 W/m 5,8 C 10,6 C 6,4 km/h (2 Bft) 86,96 %
08.05.2018 04:11 10,6 C 17,8 C 71 % 1012,1 hPa 0,0 l/m 5,0 km/h (1 Bft) NO 45 0 min 0,000 mm 0,0 UV-I 0 W/m 5,6 C 10,6 C 8,0 km/h (2 Bft) 100,00 %
08.05.2018 04:12 10,7 C 18,3 C 71 % 1012,2 hPa 0,0 l/m 6,2 km/h (2 Bft) O-NO 58 0 min 0,000 mm 0,0 UV-I 0 W/m 5,7 C 10,7 C 8,0 km/h (2 Bft) 95,65 %
08.05.2018 04:13 10,6 C 18,3 C 71 % 1012,2 hPa 0,0 l/m 6,2 km/h (2 Bft) O-NO 74 0 min 0,000 mm 0,0 UV-I 0 W/m 5,6 C 10,6 C 8,0 km/h (2 Bft) 100,00 %
08.05.2018 04:14 10,6 C 18,3 C 71 % 1012,1 hPa 0,0 l/m 4,7 km/h (1 Bft) NO 52 0 min 0,000 mm 0,0 UV-I 0 W/m 5,6 C 10,6 C 6,4 km/h (2 Bft) 95,83 %
08.05.2018 04:15 10,6 C 18,3 C 71 % 1012,1 hPa 0,0 l/m 7,1 km/h (2 Bft) O-NO 71 0 min 0,000 mm 0,0 UV-I 0 W/m 5,6 C 10,1 C 9,7 km/h (2 Bft) 100,00 %
08.05.2018 04:16 10,6 C 18,3 C 71 % 1012,2 hPa 0,0 l/m 7,9 km/h (2 Bft) O 80 0 min 0,000 mm 0,0 UV-I 0 W/m 5,6 C 9,5 C 11,3 km/h (2 Bft) 95,83 %
08.05.2018 04:17 10,6 C 18,3 C 71 % 1012,1 hPa 0,0 l/m 4,2 km/h (1 Bft) O-NO 76 0 min 0,000 mm 0,0 UV-I 0 W/m 5,6 C 10,6 C 4,8 km/h (1 Bft) 95,65 %
08.05.2018 04:18 10,6 C 17,8 C 71 % 1012,1 hPa 0,0 l/m 4,0 km/h (1 Bft) O-NO 65 0 min 0,000 mm 0,0 UV-I 0 W/m 5,6 C 10,6 C 6,4 km/h (2 Bft) 95,83 %
08.05.2018 04:19 10,7 C 18,3 C 71 % 1012,1 hPa 0,0 l/m 5,8 km/h (2 Bft) O-NO 71 0 min 0,000 mm 0,0 UV-I 0 W/m 5,7 C 10,7 C 8,0 km/h (2 Bft) 95,65 %
08.05.2018 04:20 10,7 C 17,8 C 71 % 1012,1 hPa 0,0 l/m 5,3 km/h (1 Bft) O-NO 67 0 min 0,000 mm 0,0 UV-I 0 W/m 5,7 C 10,7 C 8,0 km/h (2 Bft) 95,83 %
08.05.2018 04:21 10,8 C 18,3 C 70 % 1012,1 hPa 0,0 l/m 6,8 km/h (2 Bft) NO 56 0 min 0,000 mm 0,0 UV-I 0 W/m 5,6 C 10,5 C 11,3 km/h (2 Bft) 95,65 %
08.05.2018 04:22 10,8 C 17,8 C 70 % 1012,1 hPa 0,0 l/m 5,4 km/h (1 Bft) O-NO 76 0 min 0,000 mm 0,0 UV-I 0 W/m 5,6 C 10,8 C 8,0 km/h (2 Bft) 100,00 %
08.05.2018 04:23 10,9 C 17,8 C 70 % 1012,1 hPa 0,0 l/m 4,3 km/h (1 Bft) NO 55 0 min 0,000 mm 0,0 UV-I 0 W/m 5,6 C 10,9 C 6,4 km/h (2 Bft) 100,00 %
08.05.2018 04:24 10,9 C 18,3 C 69 % 1012,1 hPa 0,0 l/m 6,8 km/h (2 Bft) O 94 0 min 0,000 mm 0,0 UV-I 0 W/m 5,4 C 10,6 C 11,3 km/h (2 Bft) 100,00 %
08.05.2018 04:25 11,0 C 17,8 C 69 % 1012,1 hPa 0,0 l/m 4,8 km/h (1 Bft) NO 46 0 min 0,000 mm 0,0 UV-I 0 W/m 5,5 C 11,0 C 8,0 km/h (2 Bft) 92,31 %
08.05.2018 04:26 11,1 C 17,8 C 69 % 1012,0 hPa 0,0 l/m 5,2 km/h (1 Bft) O-NO 68 0 min 0,000 mm 0,0 UV-I 0 W/m 5,6 C 11,1 C 8,0 km/h (2 Bft) 100,00 %
08.05.2018 04:27 11,1 C 18,3 C 69 % 1012,1 hPa 0,0 l/m 4,9 km/h (1 Bft) O 84 0 min 0,000 mm 0,0 UV-I 0 W/m 5,6 C 11,1 C 6,4 km/h (2 Bft) 95,65 %
08.05.2018 04:28 11,1 C 17,8 C 69 % 1012,0 hPa 0,0 l/m 4,4 km/h (1 Bft) O-NO 75 0 min 0,000 mm 0,0 UV-I 0 W/m 5,6 C 11,1 C 6,4 km/h (2 Bft) 100,00 %
08.05.2018 04:29 11,1 C 17,8 C 69 % 1011,9 hPa 0,0 l/m 6,4 km/h (2 Bft) O-NO 71 0 min 0,000 mm 0,0 UV-I 0 W/m 5,6 C 11,1 C 11,3 km/h (2 Bft) 95,65 %
08.05.2018 04:30 11,0 C 17,8 C 69 % 1012,0 hPa 0,0 l/m 5,2 km/h (1 Bft) O 95 0 min 0,000 mm 0,0 UV-I 0 W/m 5,5 C 11,0 C 9,7 km/h (2 Bft) 100,00 %
08.05.2018 04:31 11,1 C 17,8 C 69 % 1012,0 hPa 0,0 l/m 6,7 km/h (2 Bft) O-NO 77 0 min 0,000 mm 0,0 UV-I 0 W/m 5,6 C 10,9 C 8,0 km/h (2 Bft) 95,65 %
08.05.2018 04:32 11,0 C 17,8 C 69 % 1012,0 hPa 0,0 l/m 6,9 km/h (2 Bft) O 83 0 min 0,000 mm 0,0 UV-I 0 W/m 5,5 C 10,7 C 11,3 km/h (2 Bft) 100,00 %
08.05.2018 04:33 11,0 C 17,8 C 69 % 1012,0 hPa 0,0 l/m 6,3 km/h (2 Bft) O 93 0 min 0,000 mm 0,0 UV-I 0 W/m 5,5 C 11,0 C 9,7 km/h (2 Bft) 95,65 %
08.05.2018 04:34 11,1 C 17,8 C 69 % 1012,0 hPa 0,0 l/m 6,8 km/h (2 Bft) O-NO 66 0 min 0,000 mm 0,0 UV-I 0 W/m 5,6 C 10,8 C 9,7 km/h (2 Bft) 95,83 %
08.05.2018 04:35 11,0 C 17,8 C 69 % 1012,0 hPa 0,0 l/m 9,7 km/h (2 Bft) O-NO 65 0 min 0,000 mm 0,0 UV-I 0 W/m 5,5 C 8,9 C 14,5 km/h (3 Bft) 100,00 %
08.05.2018 04:36 11,1 C 17,8 C 69 % 1012,0 hPa 0,0 l/m 7,0 km/h (2 Bft) O-NO 75 0 min 0,000 mm 0,0 UV-I 0 W/m 5,6 C 10,7 C 11,3 km/h (2 Bft) 96,15 %
08.05.2018 04:37 11,1 C 17,8 C 69 % 1012,0 hPa 0,0 l/m 6,2 km/h (2 Bft) O-NO 74 0 min 0,000 mm 0,0 UV-I 0 W/m 5,6 C 11,1 C 9,7 km/h (2 Bft) 100,00 %
08.05.2018 04:38 11,1 C 17,8 C 69 % 1012,0 hPa 0,0 l/m 7,1 km/h (2 Bft) O 87 0 min 0,000 mm 0,0 UV-I 0 W/m 5,6 C 10,6 C 11,3 km/h (2 Bft) 95,65 %
08.05.2018 04:39 11,1 C 17,8 C 69 % 1011,9 hPa 0,0 l/m 7,3 km/h (2 Bft) O-NO 67 0 min 0,000 mm 0,0 UV-I 0 W/m 5,6 C 10,5 C 11,3 km/h (2 Bft) 100,00 %
08.05.2018 04:40 11,1 C 17,8 C 69 % 1012,0 hPa 0,0 l/m 9,4 km/h (2 Bft) O-NO 78 0 min 0,000 mm 0,0 UV-I 0 W/m 5,6 C 9,1 C 12,9 km/h (3 Bft) 95,65 %
08.05.2018 04:41 11,2 C 17,8 C 68 % 1012,0 hPa 0,0 l/m 7,6 km/h (2 Bft) O-NO 74 0 min 0,000 mm 0,0 UV-I 0 W/m 5,5 C 10,4 C 11,3 km/h (2 Bft) 100,00 %
08.05.2018 04:42 11,2 C 17,8 C 68 % 1012,0 hPa 0,0 l/m 9,2 km/h (2 Bft) O-NO 74 0 min 0,000 mm 0,0 UV-I 0 W/m 5,5 C 9,4 C 12,9 km/h (3 Bft) 100,00 %
08.05.2018 04:43 11,2 C 17,8 C 68 % 1012,0 hPa 0,0 l/m 7,9 km/h (2 Bft) O-NO 70 0 min 0,000 mm 0,0 UV-I 0 W/m 5,5 C 10,2 C 11,3 km/h (2 Bft) 100,00 %
08.05.2018 04:44 11,2 C 17,8 C 68 % 1012,0 hPa 0,0 l/m 7,7 km/h (2 Bft) O-NO 68 0 min 0,000 mm 0,0 UV-I 0 W/m 5,5 C 10,3 C 11,3 km/h (2 Bft) 100,00 %
08.05.2018 04:45 11,2 C 17,8 C 68 % 1012,0 hPa 0,0 l/m 7,9 km/h (2 Bft) O-NO 70 0 min 0,000 mm 0,0 UV-I 0 W/m 5,5 C 10,2 C 12,9 km/h (3 Bft) 100,00 %
08.05.2018 04:46 11,2 C 17,8 C 68 % 1011,9 hPa 0,0 l/m 7,4 km/h (2 Bft) O 80 0 min 0,000 mm 0,0 UV-I 0 W/m 5,5 C 10,5 C 11,3 km/h (2 Bft) 95,65 %
08.05.2018 04:47 11,3 C 17,8 C 68 % 1011,9 hPa 0,0 l/m 6,9 km/h (2 Bft) O 89 0 min 0,000 mm 0,0 UV-I 0 W/m 5,6 C 11,0 C 11,3 km/h (2 Bft) 100,00 %
08.05.2018 04:48 11,3 C 17,8 C 67 % 1011,8 hPa 0,0 l/m 7,4 km/h (2 Bft) O-NO 77 0 min 0,000 mm 0,0 UV-I 0 W/m 5,4 C 10,6 C 9,7 km/h (2 Bft) 100,00 %
08.05.2018 04:49 11,3 C 17,8 C 67 % 1011,8 hPa 0,0 l/m 7,1 km/h (2 Bft) O-NO 74 0 min 0,000 mm 0,0 UV-I 0 W/m 5,4 C 10,8 C 8,0 km/h (2 Bft) 100,00 %
08.05.2018 04:50 11,3 C 17,8 C 67 % 1011,8 hPa 0,0 l/m 6,7 km/h (2 Bft) O-NO 66 0 min 0,000 mm 0,0 UV-I 0 W/m 5,4 C 11,1 C 8,0 km/h (2 Bft) 96,15 %
08.05.2018 04:51 11,3 C 17,8 C 67 % 1011,8 hPa 0,0 l/m 5,9 km/h (2 Bft) O 86 0 min 0,000 mm 0,0 UV-I 0 W/m 5,4 C 11,3 C 6,4 km/h (2 Bft) 100,00 %
08.05.2018 04:52 11,3 C 17,8 C 67 % 1011,8 hPa 0,0 l/m 5,6 km/h (1 Bft) O 79 0 min 0,000 mm 0,0 UV-I 0 W/m 5,4 C 11,3 C 6,4 km/h (2 Bft) 91,30 %
08.05.2018 04:53 11,2 C 17,8 C 68 % 1011,8 hPa 0,0 l/m 4,6 km/h (1 Bft) O 80 0 min 0,000 mm 0,0 UV-I 0 W/m 5,5 C 11,2 C 6,4 km/h (2 Bft) 100,00 %
08.05.2018 04:54 11,1 C 17,8 C 68 % 1011,8 hPa 0,0 l/m 4,5 km/h (1 Bft) O 79 0 min 0,000 mm 0,0 UV-I 0 W/m 5,4 C 11,1 C 6,4 km/h (2 Bft) 100,00 %
08.05.2018 04:55 11,1 C 17,8 C 68 % 1011,8 hPa 0,0 l/m 3,9 km/h (1 Bft) O 86 0 min 0,000 mm 0,0 UV-I 0 W/m 5,4 C 11,1 C 4,8 km/h (1 Bft) 100,00 %
08.05.2018 04:56 11,0 C 17,8 C 68 % 1011,7 hPa 0,0 l/m 5,4 km/h (1 Bft) O 86 0 min 0,000 mm 0,0 UV-I 0 W/m 5,3 C 11,0 C 9,7 km/h (2 Bft) 100,00 %
08.05.2018 04:57 10,9 C 17,8 C 69 % 1011,7 hPa 0,0 l/m 5,0 km/h (1 Bft) O 87 0 min 0,000 mm 0,0 UV-I 0 W/m 5,4 C 10,9 C 6,4 km/h (2 Bft) 100,00 %
08.05.2018 04:58 11,0 C 17,8 C 69 % 1011,7 hPa 0,0 l/m 5,5 km/h (1 Bft) O 85 0 min 0,000 mm 0,0 UV-I 0 W/m 5,5 C 11,0 C 8,0 km/h (2 Bft) 95,65 %
08.05.2018 04:59 11,0 C 17,8 C 68 % 1011,7 hPa 0,0 l/m 4,5 km/h (1 Bft) O-NO 74 0 min 0,000 mm 0,0 UV-I 0 W/m 5,3 C 11,0 C 6,4 km/h (2 Bft) 100,00 %
08.05.2018 05:00 11,1 C 17,8 C 68 % 1011,7 hPa 0,0 l/m 5,7 km/h (1 Bft) O-NO 69 0 min 0,025 mm 0,0 UV-I 0 W/m 5,4 C 11,1 C 11,3 km/h (2 Bft) 95,83 %
08.05.2018 05:01 11,1 C 17,8 C 68 % 1011,7 hPa 0,0 l/m 7,1 km/h (2 Bft) NO 55 0 min 0,000 mm 0,0 UV-I 0 W/m 5,4 C 10,6 C 9,7 km/h (2 Bft) 92,86 %
08.05.2018 05:02 11,1 C 17,8 C 68 % 1011,7 hPa 0,0 l/m 6,9 km/h (2 Bft) O-NO 68 0 min 0,000 mm 0,0 UV-I 0 W/m 5,4 C 10,8 C 8,0 km/h (2 Bft) 100,00 %
08.05.2018 05:03 11,2 C 17,8 C 68 % 1011,8 hPa 0,0 l/m 5,9 km/h (2 Bft) O 80 0 min 0,000 mm 0,0 UV-I 0 W/m 5,5 C 11,2 C 8,0 km/h (2 Bft) 95,65 %
08.05.2018 05:04 11,1 C 17,8 C 68 % 1011,8 hPa 0,0 l/m 6,1 km/h (2 Bft) O 96 0 min 0,000 mm 0,0 UV-I 0 W/m 5,4 C 11,1 C 9,7 km/h (2 Bft) 100,00 %
08.05.2018 05:05 11,0 C 17,8 C 69 % 1011,8 hPa 0,0 l/m 6,2 km/h (2 Bft) O-SO 103 0 min 0,000 mm 0,0 UV-I 0 W/m 5,5 C 11,0 C 9,7 km/h (2 Bft) 95,65 %
08.05.2018 05:06 10,9 C 17,8 C 69 % 1011,8 hPa 0,0 l/m 5,0 km/h (1 Bft) O 84 0 min 0,000 mm 0,0 UV-I 0 W/m 5,4 C 10,9 C 6,4 km/h (2 Bft) 100,00 %
08.05.2018 05:07 10,8 C 17,8 C 69 % 1011,8 hPa 0,0 l/m 4,5 km/h (1 Bft) O 92 0 min 0,000 mm 0,0 UV-I 0 W/m 5,3 C 10,8 C 6,4 km/h (2 Bft) 95,65 %
08.05.2018 05:08 10,8 C 17,8 C 69 % 1011,8 hPa 0,0 l/m 5,3 km/h (1 Bft) O 96 0 min 0,000 mm 0,0 UV-I 0 W/m 5,3 C 10,8 C 6,4 km/h (2 Bft) 100,00 %
08.05.2018 05:09 10,8 C 17,8 C 69 % 1011,8 hPa 0,0 l/m 4,8 km/h (1 Bft) O 86 0 min 0,000 mm 0,0 UV-I 0 W/m 5,3 C 10,8 C 6,4 km/h (2 Bft) 100,00 %
08.05.2018 05:10 10,8 C 17,8 C 69 % 1011,8 hPa 0,0 l/m 4,3 km/h (1 Bft) O 101 0 min 0,000 mm 0,0 UV-I 0 W/m 5,3 C 10,8 C 6,4 km/h (2 Bft) 100,00 %
08.05.2018 05:11 10,8 C 17,8 C 69 % 1011,8 hPa 0,0 l/m 3,8 km/h (1 Bft) O 101 0 min 0,000 mm 0,0 UV-I 0 W/m 5,3 C 10,8 C 4,8 km/h (1 Bft) 95,65 %
08.05.2018 05:12 10,7 C 17,8 C 70 % 1011,9 hPa 0,0 l/m 3,6 km/h (1 Bft) O 101 0 min 0,000 mm 0,0 UV-I 0 W/m 5,5 C 10,7 C 4,8 km/h (1 Bft) 95,83 %
08.05.2018 05:13 10,7 C 17,8 C 70 % 1011,8 hPa 0,0 l/m 4,5 km/h (1 Bft) O 98 0 min 0,000 mm 0,0 UV-I 0 W/m 5,5 C 10,7 C 6,4 km/h (2 Bft) 92,31 %
08.05.2018 05:14 10,6 C 17,8 C 70 % 1011,8 hPa 0,0 l/m 4,2 km/h (1 Bft) O 97 0 min 0,000 mm 0,0 UV-I 0 W/m 5,4 C 10,6 C 6,4 km/h (2 Bft) 100,00 %
08.05.2018 05:15 10,7 C 17,8 C 70 % 1011,8 hPa 0,0 l/m 4,0 km/h (1 Bft) O 86 0 min 0,000 mm 0,0 UV-I 0 W/m 5,5 C 10,7 C 4,8 km/h (1 Bft) 95,65 %
08.05.2018 05:16 10,7 C 17,8 C 70 % 1011,8 hPa 0,0 l/m 3,0 km/h (1 Bft) O-NO 71 0 min 0,000 mm 0,0 UV-I 0 W/m 5,5 C 10,7 C 4,8 km/h (1 Bft) 95,83 %
08.05.2018 05:17 10,7 C 17,8 C 70 % 1011,8 hPa 0,0 l/m 3,7 km/h (1 Bft) O-NO 73 0 min 0,000 mm 0,0 UV-I 0 W/m 5,5 C 10,7 C 4,8 km/h (1 Bft) 92,59 %
08.05.2018 05:18 10,7 C 17,8 C 70 % 1011,8 hPa 0,0 l/m 3,3 km/h (1 Bft) O 79 0 min 0,000 mm 0,0 UV-I 0 W/m 5,5 C 10,7 C 4,8 km/h (1 Bft) 100,00 %
08.05.2018 05:19 10,8 C 17,8 C 69 % 1011,8 hPa 0,0 l/m 4,2 km/h (1 Bft) O 80 0 min 0,000 mm 0,0 UV-I 0 W/m 5,3 C 10,8 C 6,4 km/h (2 Bft) 95,83 %
08.05.2018 05:20 10,8 C 17,8 C 69 % 1011,8 hPa 0,0 l/m 4,6 km/h (1 Bft) O-SO 104 0 min 0,000 mm 0,0 UV-I 0 W/m 5,3 C 10,8 C 6,4 km/h (2 Bft) 100,00 %
08.05.2018 05:21 10,7 C 17,8 C 69 % 1011,8 hPa 0,0 l/m 4,7 km/h (1 Bft) O-SO 104 0 min 0,000 mm 0,0 UV-I 0 W/m 5,2 C 10,7 C 6,4 km/h (2 Bft) 95,83 %
08.05.2018 05:22 10,6 C 17,8 C 70 % 1011,8 hPa 0,0 l/m 4,2 km/h (1 Bft) O 80 0 min 0,000 mm 0,0 UV-I 3 W/m 5,4 C 10,6 C 6,4 km/h (2 Bft) 95,65 %
08.05.2018 05:23 10,5 C 17,8 C 70 % 1011,8 hPa 0,0 l/m 4,8 km/h (1 Bft) O-SO 105 0 min 0,000 mm 0,0 UV-I 5 W/m 5,3 C 10,5 C 6,4 km/h (2 Bft) 100,00 %
08.05.2018 05:24 10,4 C 17,8 C 70 % 1011,8 hPa 0,0 l/m 4,3 km/h (1 Bft) O 93 0 min 0,000 mm 0,0 UV-I 5 W/m 5,2 C 10,4 C 6,4 km/h (2 Bft) 100,00 %
08.05.2018 05:25 10,4 C 17,8 C 71 % 1011,8 hPa 0,0 l/m 5,2 km/h (1 Bft) O 92 0 min 0,000 mm 0,0 UV-I 5 W/m 5,4 C 10,4 C 6,4 km/h (2 Bft) 96,15 %
08.05.2018 05:26 10,4 C 17,8 C 71 % 1011,8 hPa 0,0 l/m 5,3 km/h (1 Bft) O 93 0 min 0,000 mm 0,0 UV-I 5 W/m 5,4 C 10,4 C 6,4 km/h (2 Bft) 91,30 %
08.05.2018 05:27 10,3 C 17,8 C 71 % 1011,8 hPa 0,0 l/m 4,1 km/h (1 Bft) O-NO 77 0 min 0,000 mm 0,0 UV-I 5 W/m 5,3 C 10,3 C 4,8 km/h (1 Bft) 96,30 %
08.05.2018 05:28 10,4 C 17,8 C 71 % 1011,8 hPa 0,0 l/m 4,2 km/h (1 Bft) O-NO 77 0 min 0,000 mm 0,0 UV-I 5 W/m 5,4 C 10,4 C 4,8 km/h (1 Bft) 91,30 %
08.05.2018 05:29 10,4 C 17,8 C 71 % 1011,8 hPa 0,0 l/m 4,8 km/h (1 Bft) O 83 0 min 0,000 mm 0,0 UV-I 5 W/m 5,4 C 10,4 C 6,4 km/h (2 Bft) 100,00 %
08.05.2018 05:30 10,4 C 17,8 C 71 % 1011,8 hPa 0,0 l/m 4,6 km/h (1 Bft) O 83 0 min 0,000 mm 0,0 UV-I 5 W/m 5,4 C 10,4 C 6,4 km/h (2 Bft) 95,65 %
08.05.2018 05:31 10,4 C 17,8 C 71 % 1011,8 hPa 0,0 l/m 3,6 km/h (1 Bft) NO 51 0 min 0,000 mm 0,0 UV-I 7 W/m 5,4 C 10,4 C 6,4 km/h (2 Bft) 100,00 %
08.05.2018 05:32 10,4 C 17,8 C 71 % 1011,8 hPa 0,0 l/m 3,5 km/h (1 Bft) NO 55 0 min 0,000 mm 0,0 UV-I 7 W/m 5,4 C 10,4 C 4,8 km/h (1 Bft) 96,15 %
08.05.2018 05:33 10,4 C 17,8 C 71 % 1011,8 hPa 0,0 l/m 4,0 km/h (1 Bft) O-NO 62 0 min 0,000 mm 0,0 UV-I 7 W/m 5,4 C 10,4 C 4,8 km/h (1 Bft) 95,83 %
08.05.2018 05:34 10,3 C 17,8 C 71 % 1011,8 hPa 0,0 l/m 4,1 km/h (1 Bft) O-NO 70 0 min 0,000 mm 0,0 UV-I 7 W/m 5,3 C 10,3 C 4,8 km/h (1 Bft) 95,65 %
08.05.2018 05:35 10,3 C 17,8 C 71 % 1011,8 hPa 0,0 l/m 3,9 km/h (1 Bft) O 85 0 min 0,000 mm 0,0 UV-I 7 W/m 5,3 C 10,3 C 4,8 km/h (1 Bft) 95,83 %
08.05.2018 05:36 10,2 C 17,8 C 71 % 1011,7 hPa 0,0 l/m 4,0 km/h (1 Bft) O 84 0 min 0,000 mm 0,0 UV-I 9 W/m 5,2 C 10,2 C 4,8 km/h (1 Bft) 100,00 %
08.05.2018 05:37 10,2 C 17,8 C 71 % 1011,7 hPa 0,0 l/m 3,6 km/h (1 Bft) O 84 0 min 0,000 mm 0,0 UV-I 9 W/m 5,2 C 10,2 C 4,8 km/h (1 Bft) 95,65 %
08.05.2018 05:38 10,2 C 17,8 C 71 % 1011,7 hPa 0,0 l/m 3,6 km/h (1 Bft) O 84 0 min 0,000 mm 0,0 UV-I 9 W/m 5,2 C 10,2 C 4,8 km/h (1 Bft) 100,00 %
08.05.2018 05:39 10,2 C 17,8 C 71 % 1011,7 hPa 0,0 l/m 3,5 km/h (1 Bft) O 85 0 min 0,000 mm 0,0 UV-I 10 W/m 5,2 C 10,2 C 4,8 km/h (1 Bft) 95,65 %
08.05.2018 05:40 10,2 C 17,8 C 72 % 1011,7 hPa 0,0 l/m 3,3 km/h (1 Bft) O 81 0 min 0,000 mm 0,0 UV-I 11 W/m 5,4 C 10,2 C 4,8 km/h (1 Bft) 100,00 %
08.05.2018 05:41 10,1 C 17,8 C 72 % 1011,7 hPa 0,0 l/m 3,3 km/h (1 Bft) O 81 0 min 0,000 mm 0,0 UV-I 11 W/m 5,3 C 10,1 C 4,8 km/h (1 Bft) 95,65 %
08.05.2018 05:42 10,1 C 17,8 C 72 % 1011,7 hPa 0,0 l/m 2,4 km/h (1 Bft) O 81 0 min 0,000 mm 0,0 UV-I 12 W/m 5,3 C 10,1 C 3,2 km/h (1 Bft) 100,00 %
08.05.2018 05:43 10,0 C 17,8 C 72 % 1011,6 hPa 0,0 l/m 2,1 km/h (1 Bft) O 81 0 min 0,000 mm 0,0 UV-I 12 W/m 5,2 C 10,0 C 3,2 km/h (1 Bft) 95,65 %
08.05.2018 05:44 10,0 C 17,8 C 73 % 1011,6 hPa 0,0 l/m 2,0 km/h (1 Bft) O 81 0 min 0,000 mm 0,0 UV-I 14 W/m 5,4 C 10,0 C 3,2 km/h (1 Bft) 91,67 %
08.05.2018 05:45 10,1 C 17,8 C 73 % 1011,7 hPa 0,0 l/m 1,7 km/h (1 Bft) O 81 0 min 0,000 mm 0,0 UV-I 14 W/m 5,5 C 10,1 C 3,2 km/h (1 Bft) 100,00 %
08.05.2018 05:46 10,0 C 17,8 C 73 % 1011,6 hPa 0,0 l/m 2,5 km/h (1 Bft) O 85 1 min 0,000 mm 0,0 UV-I 15 W/m 5,4 C 10,0 C 3,2 km/h (1 Bft) 95,83 %
08.05.2018 05:47 9,9 C 17,8 C 73 % 1011,6 hPa 0,0 l/m 3,0 km/h (1 Bft) O 85 1 min 0,000 mm 0,0 UV-I 16 W/m 5,3 C 9,9 C 4,8 km/h (1 Bft) 95,65 %
08.05.2018 05:48 9,9 C 17,8 C 73 % 1011,7 hPa 0,0 l/m 3,3 km/h (1 Bft) O 86 1 min 0,000 mm 0,0 UV-I 18 W/m 5,3 C 9,9 C 4,8 km/h (1 Bft) 95,83 %
08.05.2018 05:49 9,8 C 17,8 C 73 % 1011,7 hPa 0,0 l/m 2,9 km/h (1 Bft) O 86 1 min 0,000 mm 0,0 UV-I 18 W/m 5,2 C 9,8 C 4,8 km/h (1 Bft) 100,00 %
08.05.2018 05:50 9,7 C 17,8 C 73 % 1011,7 hPa 0,0 l/m 3,0 km/h (1 Bft) O 86 1 min 0,000 mm 0,0 UV-I 19 W/m 5,1 C 9,7 C 3,2 km/h (1 Bft) 95,83 %
08.05.2018 05:51 9,7 C 17,8 C 74 % 1011,7 hPa 0,0 l/m 2,3 km/h (1 Bft) O 93 1 min 0,000 mm 0,0 UV-I 20 W/m 5,3 C 9,7 C 4,8 km/h (1 Bft) 100,00 %
08.05.2018 05:52 9,6 C 17,8 C 74 % 1011,7 hPa 0,0 l/m 2,7 km/h (1 Bft) O 93 1 min 0,000 mm 0,0 UV-I 22 W/m 5,2 C 9,6 C 4,8 km/h (1 Bft) 95,83 %
08.05.2018 05:53 9,6 C 17,8 C 74 % 1011,7 hPa 0,0 l/m 1,1 km/h (1 Bft) O 93 1 min 0,000 mm 0,0 UV-I 23 W/m 5,2 C 9,6 C 1,6 km/h (1 Bft) 100,00 %
08.05.2018 05:54 9,6 C 17,8 C 74 % 1011,6 hPa 0,0 l/m 1,6 km/h (1 Bft) O 93 1 min 0,000 mm 0,0 UV-I 25 W/m 5,2 C 9,6 C 3,2 km/h (1 Bft) 91,67 %
08.05.2018 05:55 9,5 C 17,8 C 74 % 1011,7 hPa 0,0 l/m 0,8 km/h (0 Bft) O 93 1 min 0,000 mm 0,0 UV-I 26 W/m 5,1 C 9,5 C 1,6 km/h (1 Bft) 95,65 %
08.05.2018 05:56 9,5 C 17,8 C 75 % 1011,6 hPa 0,0 l/m 0,0 km/h (0 Bft) O 93 1 min 0,000 mm 0,0 UV-I 27 W/m 5,3 C 9,5 C 0,0 km/h (0 Bft) 95,83 %
08.05.2018 05:57 9,5 C 17,8 C 75 % 1011,7 hPa 0,0 l/m 0,5 km/h (0 Bft) O 93 1 min 0,000 mm 0,0 UV-I 28 W/m 5,3 C 9,5 C 1,6 km/h (1 Bft) 91,30 %
08.05.2018 05:58 9,5 C 17,8 C 75 % 1011,6 hPa 0,0 l/m 0,4 km/h (0 Bft) O 93 1 min 0,000 mm 0,0 UV-I 28 W/m 5,3 C 9,5 C 1,6 km/h (1 Bft) 95,83 %
08.05.2018 05:59 9,4 C 17,8 C 75 % 1011,6 hPa 0,0 l/m 0,5 km/h (0 Bft) O 93 1 min 0,000 mm 0,0 UV-I 31 W/m 5,2 C 9,4 C 1,6 km/h (1 Bft) 95,83 %
08.05.2018 06:00 9,5 C 17,8 C 75 % 1011,6 hPa 0,0 l/m 1,0 km/h (0 Bft) O 93 1 min 0,026 mm 0,0 UV-I 32 W/m 5,3 C 9,5 C 1,6 km/h (1 Bft) 92,31 %
08.05.2018 06:01 9,5 C 17,8 C 75 % 1011,6 hPa 0,0 l/m 0,1 km/h (0 Bft) O 93 0 min 0,000 mm 0,0 UV-I 29 W/m 5,3 C 9,5 C 1,6 km/h (1 Bft) 95,83 %
08.05.2018 06:02 9,5 C 17,8 C 75 % 1011,6 hPa 0,0 l/m 0,0 km/h (0 Bft) O 93 0 min 0,000 mm 0,0 UV-I 24 W/m 5,3 C 9,5 C 0,0 km/h (0 Bft) 95,65 %
08.05.2018 06:03 9,6 C 17,8 C 75 % 1011,6 hPa 0,0 l/m 0,0 km/h (0 Bft) O 93 0 min 0,000 mm 0,0 UV-I 19 W/m 5,4 C 9,6 C 0,0 km/h (0 Bft) 91,67 %
08.05.2018 06:04 9,6 C 17,8 C 75 % 1011,6 hPa 0,0 l/m 0,0 km/h (0 Bft) O 93 0 min 0,000 mm 0,0 UV-I 18 W/m 5,4 C 9,6 C 0,0 km/h (0 Bft) 95,65 %
08.05.2018 06:05 9,6 C 17,8 C 75 % 1011,6 hPa 0,0 l/m 0,0 km/h (0 Bft) O 93 0 min 0,000 mm 0,0 UV-I 18 W/m 5,4 C 9,6 C 0,0 km/h (0 Bft) 91,67 %
08.05.2018 06:06 9,6 C 17,8 C 75 % 1011,6 hPa 0,0 l/m 1,5 km/h (1 Bft) O 93 0 min 0,000 mm 0,0 UV-I 18 W/m 5,4 C 9,6 C 3,2 km/h (1 Bft) 95,65 %
08.05.2018 06:07 9,6 C 17,8 C 75 % 1011,6 hPa 0,0 l/m 0,9 km/h (0 Bft) O 93 0 min 0,000 mm 0,0 UV-I 19 W/m 5,4 C 9,6 C 1,6 km/h (1 Bft) 87,50 %
08.05.2018 06:08 9,6 C 17,8 C 75 % 1011,6 hPa 0,0 l/m 0,0 km/h (0 Bft) O 93 0 min 0,000 mm 0,0 UV-I 19 W/m 5,4 C 9,6 C 0,0 km/h (0 Bft) 100,00 %
08.05.2018 06:09 9,6 C 17,8 C 75 % 1011,6 hPa 0,0 l/m 0,0 km/h (0 Bft) O 93 0 min 0,000 mm 0,0 UV-I 19 W/m 5,4 C 9,6 C 0,0 km/h (0 Bft) 91,67 %
08.05.2018 06:10 9,5 C 17,8 C 75 % 1011,6 hPa 0,0 l/m 0,0 km/h (0 Bft) O 93 0 min 0,000 mm 0,0 UV-I 19 W/m 5,3 C 9,5 C 0,0 km/h (0 Bft) 100,00 %
08.05.2018 06:11 9,5 C 17,8 C 76 % 1011,6 hPa 0,0 l/m 0,0 km/h (0 Bft) O 93 0 min 0,000 mm 0,0 UV-I 21 W/m 5,5 C 9,5 C 0,0 km/h (0 Bft) 95,65 %
08.05.2018 06:12 9,5 C 17,8 C 76 % 1011,6 hPa 0,0 l/m 0,0 km/h (0 Bft) O 93 0 min 0,000 mm 0,0 UV-I 24 W/m 5,5 C 9,5 C 0,0 km/h (0 Bft) 95,83 %
08.05.2018 06:13 9,5 C 17,8 C 75 % 1011,6 hPa 0,0 l/m 0,0 km/h (0 Bft) O 93 0 min 0,000 mm 0,0 UV-I 28 W/m 5,3 C 9,5 C 0,0 km/h (0 Bft) 100,00 %
08.05.2018 06:14 9,4 C 17,8 C 75 % 1011,7 hPa 0,0 l/m 0,0 km/h (0 Bft) O 93 0 min 0,000 mm 0,0 UV-I 35 W/m 5,2 C 9,4 C 0,0 km/h (0 Bft) 95,83 %
08.05.2018 06:15 9,4 C 17,8 C 76 % 1011,7 hPa 0,0 l/m 0,0 km/h (0 Bft) O 93 0 min 0,000 mm 0,0 UV-I 40 W/m 5,4 C 9,4 C 0,0 km/h (0 Bft) 95,65 %
08.05.2018 06:16 9,3 C 17,8 C 76 % 1011,7 hPa 0,0 l/m 0,0 km/h (0 Bft) O 93 0 min 0,000 mm 0,0 UV-I 42 W/m 5,3 C 9,3 C 0,0 km/h (0 Bft) 95,83 %
08.05.2018 06:17 9,3 C 17,8 C 77 % 1011,7 hPa 0,0 l/m 0,0 km/h (0 Bft) O 93 0 min 0,000 mm 0,0 UV-I 54 W/m 5,5 C 9,3 C 0,0 km/h (0 Bft) 100,00 %
08.05.2018 06:18 9,3 C 17,8 C 77 % 1011,7 hPa 0,0 l/m 0,0 km/h (0 Bft) O 93 1 min 0,000 mm 0,0 UV-I 63 W/m 5,5 C 9,3 C 0,0 km/h (0 Bft) 95,83 %
08.05.2018 06:19 9,2 C 17,8 C 77 % 1011,8 hPa 0,0 l/m 0,8 km/h (0 Bft) O 92 1 min 0,000 mm 0,0 UV-I 66 W/m 5,4 C 9,2 C 3,2 km/h (1 Bft) 100,00 %
08.05.2018 06:20 9,2 C 17,8 C 77 % 1011,8 hPa 0,0 l/m 1,5 km/h (1 Bft) O 92 1 min 0,000 mm 0,0 UV-I 69 W/m 5,4 C 9,2 C 3,2 km/h (1 Bft) 95,83 %
08.05.2018 06:21 9,3 C 17,8 C 77 % 1011,8 hPa 0,0 l/m 1,6 km/h (1 Bft) O 92 1 min 0,000 mm 0,0 UV-I 70 W/m 5,5 C 9,3 C 3,2 km/h (1 Bft) 91,30 %
08.05.2018 06:22 9,3 C 17,8 C 77 % 1011,8 hPa 0,0 l/m 1,6 km/h (1 Bft) O 92 1 min 0,000 mm 0,0 UV-I 68 W/m 5,5 C 9,3 C 3,2 km/h (1 Bft) 100,00 %
08.05.2018 06:23 9,4 C 17,8 C 77 % 1011,8 hPa 0,0 l/m 3,0 km/h (1 Bft) O 92 0 min 0,000 mm 0,0 UV-I 62 W/m 5,6 C 9,4 C 3,2 km/h (1 Bft) 92,31 %
08.05.2018 06:24 9,5 C 17,8 C 76 % 1011,8 hPa 0,0 l/m 3,0 km/h (1 Bft) O-NO 64 0 min 0,000 mm 0,0 UV-I 56 W/m 5,5 C 9,5 C 4,8 km/h (1 Bft) 100,00 %
08.05.2018 06:25 9,6 C 17,8 C 76 % 1011,8 hPa 0,0 l/m 2,5 km/h (1 Bft) O-NO 65 0 min 0,000 mm 0,0 UV-I 57 W/m 5,6 C 9,6 C 4,8 km/h (1 Bft) 95,65 %
08.05.2018 06:26 9,7 C 17,8 C 75 % 1011,7 hPa 0,0 l/m 1,5 km/h (1 Bft) O-NO 65 0 min 0,000 mm 0,0 UV-I 64 W/m 5,5 C 9,7 C 3,2 km/h (1 Bft) 100,00 %
08.05.2018 06:27 9,7 C 17,8 C 75 % 1011,7 hPa 0,0 l/m 2,3 km/h (1 Bft) O-NO 65 1 min 0,000 mm 0,0 UV-I 74 W/m 5,5 C 9,7 C 3,2 km/h (1 Bft) 95,65 %
08.05.2018 06:28 9,7 C 17,8 C 74 % 1011,7 hPa 0,0 l/m 2,2 km/h (1 Bft) O-NO 69 1 min 0,000 mm 0,0 UV-I 73 W/m 5,3 C 9,7 C 3,2 km/h (1 Bft) 100,00 %
08.05.2018 06:29 9,7 C 17,8 C 75 % 1011,7 hPa 0,0 l/m 1,3 km/h (1 Bft) O-NO 69 1 min 0,000 mm 0,0 UV-I 77 W/m 5,5 C 9,7 C 3,2 km/h (1 Bft) 95,83 %
08.05.2018 06:30 9,7 C 17,8 C 75 % 1011,7 hPa 0,0 l/m 2,9 km/h (1 Bft) O-NO 69 1 min 0,000 mm 0,0 UV-I 88 W/m 5,5 C 9,7 C 4,8 km/h (1 Bft) 100,00 %
08.05.2018 06:31 9,7 C 17,8 C 75 % 1011,7 hPa 0,0 l/m 2,4 km/h (1 Bft) O-NO 69 1 min 0,000 mm 0,0 UV-I 98 W/m 5,5 C 9,7 C 4,8 km/h (1 Bft) 95,83 %
08.05.2018 06:32 9,7 C 17,8 C 75 % 1011,7 hPa 0,0 l/m 2,3 km/h (1 Bft) O-NO 69 1 min 0,000 mm 0,0 UV-I 104 W/m 5,5 C 9,7 C 3,2 km/h (1 Bft) 95,65 %
08.05.2018 06:33 9,6 C 17,8 C 75 % 1011,7 hPa 0,0 l/m 2,7 km/h (1 Bft) O-NO 69 1 min 0,000 mm 0,0 UV-I 105 W/m 5,4 C 9,6 C 3,2 km/h (1 Bft) 95,83 %
08.05.2018 06:34 9,4 C 17,8 C 76 % 1011,7 hPa 0,0 l/m 2,9 km/h (1 Bft) O-NO 68 1 min 0,000 mm 0,0 UV-I 108 W/m 5,4 C 9,4 C 4,8 km/h (1 Bft) 100,00 %
08.05.2018 06:35 9,4 C 17,8 C 76 % 1011,7 hPa 0,0 l/m 1,9 km/h (1 Bft) O-NO 68 1 min 0,000 mm 0,0 UV-I 113 W/m 5,4 C 9,4 C 3,2 km/h (1 Bft) 100,00 %
08.05.2018 06:36 9,6 C 17,8 C 76 % 1011,6 hPa 0,0 l/m 1,2 km/h (1 Bft) O-NO 68 1 min 0,000 mm 0,0 UV-I 115 W/m 5,6 C 9,6 C 3,2 km/h (1 Bft) 100,00 %
08.05.2018 06:37 9,7 C 17,8 C 76 % 1011,7 hPa 0,0 l/m 0,1 km/h (0 Bft) O-NO 68 1 min 0,000 mm 0,0 UV-I 118 W/m 5,7 C 9,7 C 1,6 km/h (1 Bft) 100,00 %
08.05.2018 06:38 9,8 C 17,8 C 75 % 1011,7 hPa 0,0 l/m 1,8 km/h (1 Bft) O-NO 68 1 min 0,000 mm 0,0 UV-I 121 W/m 5,6 C 9,8 C 3,2 km/h (1 Bft) 100,00 %
08.05.2018 06:39 9,9 C 17,8 C 75 % 1011,7 hPa 0,0 l/m 1,8 km/h (1 Bft) O-NO 68 1 min 0,000 mm 0,0 UV-I 122 W/m 5,7 C 9,9 C 3,2 km/h (1 Bft) 95,83 %
08.05.2018 06:40 9,9 C 17,8 C 74 % 1011,7 hPa 0,0 l/m 1,9 km/h (1 Bft) O-NO 68 1 min 0,000 mm 0,0 UV-I 127 W/m 5,5 C 9,9 C 3,2 km/h (1 Bft) 100,00 %
08.05.2018 06:41 10,0 C 17,8 C 75 % 1011,6 hPa 0,0 l/m 1,4 km/h (1 Bft) O-NO 68 1 min 0,000 mm 0,0 UV-I 128 W/m 5,8 C 10,0 C 1,6 km/h (1 Bft) 100,00 %
08.05.2018 06:42 10,1 C 17,8 C 74 % 1011,6 hPa 0,0 l/m 1,0 km/h (0 Bft) O-NO 68 1 min 0,000 mm 0,0 UV-I 131 W/m 5,7 C 10,1 C 1,6 km/h (1 Bft) 95,65 %
08.05.2018 06:43 10,1 C 17,8 C 74 % 1011,6 hPa 0,0 l/m 0,6 km/h (0 Bft) O-NO 68 1 min 0,000 mm 0,0 UV-I 134 W/m 5,7 C 10,1 C 1,6 km/h (1 Bft) 100,00 %
08.05.2018 06:44 10,2 C 17,8 C 74 % 1011,6 hPa 0,0 l/m 1,4 km/h (1 Bft) O-NO 68 1 min 0,000 mm 0,0 UV-I 136 W/m 5,8 C 10,2 C 3,2 km/h (1 Bft) 100,00 %
08.05.2018 06:45 10,3 C 17,8 C 74 % 1011,5 hPa 0,0 l/m 0,1 km/h (0 Bft) O-NO 68 1 min 0,000 mm 0,0 UV-I 138 W/m 5,9 C 10,3 C 1,6 km/h (1 Bft) 100,00 %
08.05.2018 06:46 10,3 C 17,8 C 74 % 1011,5 hPa 0,0 l/m 0,0 km/h (0 Bft) O-NO 68 1 min 0,000 mm 0,0 UV-I 142 W/m 5,9 C 10,3 C 0,0 km/h (0 Bft) 100,00 %
08.05.2018 06:47 10,4 C 17,8 C 74 % 1011,6 hPa 0,0 l/m 0,9 km/h (0 Bft) O-NO 68 1 min 0,000 mm 0,0 UV-I 139 W/m 6,0 C 10,4 C 3,2 km/h (1 Bft) 100,00 %
08.05.2018 06:48 10,4 C 17,8 C 74 % 1011,6 hPa 0,0 l/m 2,2 km/h (1 Bft) O-NO 68 1 min 0,000 mm 0,0 UV-I 133 W/m 6,0 C 10,4 C 3,2 km/h (1 Bft) 95,65 %
08.05.2018 06:49 10,4 C 17,8 C 74 % 1011,5 hPa 0,0 l/m 2,1 km/h (1 Bft) O-NO 68 1 min 0,000 mm 0,0 UV-I 151 W/m 6,0 C 10,4 C 3,2 km/h (1 Bft) 100,00 %
08.05.2018 06:50 10,4 C 17,8 C 75 % 1011,5 hPa 0,0 l/m 2,7 km/h (1 Bft) NO 55 1 min 0,000 mm 0,0 UV-I 157 W/m 6,2 C 10,4 C 4,8 km/h (1 Bft) 100,00 %
08.05.2018 06:51 10,4 C 17,8 C 76 % 1011,6 hPa 0,0 l/m 4,2 km/h (1 Bft) NO 53 1 min 0,000 mm 0,0 UV-I 161 W/m 6,4 C 10,4 C 6,4 km/h (2 Bft) 100,00 %
08.05.2018 06:52 10,4 C 17,8 C 75 % 1011,6 hPa 0,0 l/m 4,7 km/h (1 Bft) NO 56 1 min 0,000 mm 0,0 UV-I 165 W/m 6,2 C 10,4 C 6,4 km/h (2 Bft) 100,00 %
08.05.2018 06:53 10,5 C 17,8 C 76 % 1011,6 hPa 0,0 l/m 4,3 km/h (1 Bft) NO 55 1 min 0,000 mm 0,0 UV-I 162 W/m 6,5 C 10,5 C 6,4 km/h (2 Bft) 100,00 %
08.05.2018 06:54 10,6 C 17,8 C 75 % 1011,5 hPa 0,0 l/m 5,0 km/h (1 Bft) NO 50 1 min 0,000 mm 0,0 UV-I 157 W/m 6,4 C 10,6 C 6,4 km/h (2 Bft) 100,00 %
08.05.2018 06:55 10,6 C 17,8 C 76 % 1011,6 hPa 0,0 l/m 4,2 km/h (1 Bft) O-NO 61 1 min 0,000 mm 0,0 UV-I 160 W/m 6,5 C 10,6 C 6,4 km/h (2 Bft) 100,00 %
08.05.2018 06:56 10,7 C 17,8 C 76 % 1011,6 hPa 0,0 l/m 4,5 km/h (1 Bft) O-NO 61 1 min 0,000 mm 0,0 UV-I 174 W/m 6,6 C 10,7 C 4,8 km/h (1 Bft) 100,00 %
08.05.2018 06:57 10,7 C 17,8 C 76 % 1011,5 hPa 0,0 l/m 5,8 km/h (2 Bft) O-NO 65 1 min 0,000 mm 0,0 UV-I 178 W/m 6,6 C 10,7 C 8,0 km/h (2 Bft) 100,00 %
08.05.2018 06:58 10,8 C 17,8 C 76 % 1011,6 hPa 0,0 l/m 4,9 km/h (1 Bft) O-NO 63 1 min 0,000 mm 0,0 UV-I 182 W/m 6,7 C 10,8 C 8,0 km/h (2 Bft) 100,00 %
08.05.2018 06:59 10,9 C 17,8 C 75 % 1011,5 hPa 0,0 l/m 3,8 km/h (1 Bft) O 88 1 min 0,000 mm 0,0 UV-I 170 W/m 6,6 C 10,9 C 4,8 km/h (1 Bft) 100,00 %
08.05.2018 07:00 11,1 C 17,8 C 74 % 1011,6 hPa 0,0 l/m 3,4 km/h (1 Bft) O-NO 66 1 min 0,051 mm 0,0 UV-I 147 W/m 6,6 C 11,1 C 4,8 km/h (1 Bft) 100,00 %
08.05.2018 07:01 11,2 C 17,8 C 74 % 1011,5 hPa 0,0 l/m 4,1 km/h (1 Bft) O-NO 67 1 min 0,000 mm 0,0 UV-I 151 W/m 6,7 C 11,2 C 6,4 km/h (2 Bft) 95,65 %
08.05.2018 07:02 11,3 C 17,8 C 73 % 1011,5 hPa 0,0 l/m 6,1 km/h (2 Bft) O-NO 57 1 min 0,000 mm 0,0 UV-I 169 W/m 6,6 C 11,3 C 8,0 km/h (2 Bft) 100,00 %
08.05.2018 07:03 11,3 C 17,8 C 73 % 1011,5 hPa 0,0 l/m 5,7 km/h (1 Bft) O-NO 74 1 min 0,000 mm 0,0 UV-I 158 W/m 6,6 C 11,3 C 8,0 km/h (2 Bft) 100,00 %
08.05.2018 07:04 11,4 C 17,8 C 73 % 1011,5 hPa 0,0 l/m 6,1 km/h (2 Bft) O-NO 76 1 min 0,000 mm 0,0 UV-I 180 W/m 6,7 C 11,4 C 9,7 km/h (2 Bft) 100,00 %
08.05.2018 07:05 11,5 C 17,8 C 73 % 1011,5 hPa 0,0 l/m 6,2 km/h (2 Bft) O-NO 76 1 min 0,000 mm 0,0 UV-I 194 W/m 6,8 C 11,5 C 9,7 km/h (2 Bft) 100,00 %
08.05.2018 07:06 11,5 C 17,8 C 73 % 1011,5 hPa 0,0 l/m 7,5 km/h (2 Bft) O 86 1 min 0,000 mm 0,0 UV-I 198 W/m 6,8 C 10,8 C 12,9 km/h (3 Bft) 100,00 %
08.05.2018 07:07 11,6 C 17,8 C 73 % 1011,6 hPa 0,0 l/m 9,0 km/h (2 Bft) O-NO 74 1 min 0,000 mm 0,0 UV-I 200 W/m 6,9 C 9,9 C 11,3 km/h (2 Bft) 100,00 %
08.05.2018 07:08 11,6 C 17,8 C 72 % 1011,5 hPa 0,0 l/m 9,8 km/h (2 Bft) O 82 1 min 0,000 mm 0,0 UV-I 202 W/m 6,7 C 9,5 C 14,5 km/h (3 Bft) 100,00 %
08.05.2018 07:09 11,7 C 17,8 C 72 % 1011,6 hPa 0,0 l/m 10,2 km/h (2 Bft) O 98 1 min 0,000 mm 0,0 UV-I 204 W/m 6,8 C 9,4 C 12,9 km/h (3 Bft) 100,00 %
08.05.2018 07:10 11,7 C 17,8 C 72 % 1011,6 hPa 0,0 l/m 12,6 km/h (3 Bft) O-NO 63 1 min 0,000 mm 0,0 UV-I 206 W/m 6,8 C 8,2 C 17,7 km/h (3 Bft) 100,00 %
08.05.2018 07:11 11,8 C 17,8 C 71 % 1011,7 hPa 0,0 l/m 11,3 km/h (2 Bft) O-NO 76 1 min 0,000 mm 0,0 UV-I 208 W/m 6,7 C 8,9 C 14,5 km/h (3 Bft) 100,00 %
08.05.2018 07:12 11,8 C 17,8 C 71 % 1011,6 hPa 0,0 l/m 8,5 km/h (2 Bft) O-NO 69 1 min 0,000 mm 0,0 UV-I 211 W/m 6,7 C 10,4 C 14,5 km/h (3 Bft) 100,00 %
08.05.2018 07:13 11,9 C 17,8 C 70 % 1011,6 hPa 0,0 l/m 11,2 km/h (2 Bft) NO 45 1 min 0,000 mm 0,0 UV-I 213 W/m 6,6 C 9,1 C 14,5 km/h (3 Bft) 100,00 %
08.05.2018 07:14 11,9 C 17,8 C 70 % 1011,7 hPa 0,0 l/m 11,5 km/h (2 Bft) O-NO 65 1 min 0,000 mm 0,0 UV-I 215 W/m 6,6 C 8,9 C 16,1 km/h (3 Bft) 100,00 %
08.05.2018 07:15 12,0 C 17,8 C 70 % 1011,8 hPa 0,0 l/m 10,9 km/h (2 Bft) O 88 1 min 0,000 mm 0,0 UV-I 218 W/m 6,7 C 9,3 C 14,5 km/h (3 Bft) 100,00 %
08.05.2018 07:16 12,1 C 17,8 C 70 % 1011,8 hPa 0,0 l/m 9,3 km/h (2 Bft) O-NO 62 1 min 0,000 mm 0,0 UV-I 220 W/m 6,8 C 10,3 C 12,9 km/h (3 Bft) 100,00 %
08.05.2018 07:17 12,1 C 17,8 C 70 % 1011,7 hPa 0,0 l/m 8,2 km/h (2 Bft) O-NO 74 1 min 0,000 mm 0,0 UV-I 220 W/m 6,8 C 10,9 C 11,3 km/h (2 Bft) 100,00 %
08.05.2018 07:18 12,2 C 17,8 C 71 % 1011,8 hPa 0,0 l/m 8,8 km/h (2 Bft) O-NO 63 1 min 0,000 mm 0,0 UV-I 221 W/m 7,1 C 10,7 C 11,3 km/h (2 Bft) 100,00 %
08.05.2018 07:19 12,2 C 17,8 C 70 % 1011,8 hPa 0,0 l/m 7,6 km/h (2 Bft) O-NO 65 1 min 0,000 mm 0,0 UV-I 226 W/m 6,9 C 11,4 C 9,7 km/h (2 Bft) 100,00 %
08.05.2018 07:20 12,3 C 17,8 C 70 % 1011,8 hPa 0,0 l/m 12,6 km/h (3 Bft) O-NO 75 1 min 0,000 mm 0,0 UV-I 228 W/m 7,0 C 8,9 C 16,1 km/h (3 Bft) 100,00 %
08.05.2018 07:21 12,3 C 17,8 C 69 % 1011,8 hPa 0,0 l/m 9,4 km/h (2 Bft) O-NO 63 1 min 0,000 mm 0,0 UV-I 230 W/m 6,8 C 10,5 C 14,5 km/h (3 Bft) 100,00 %
08.05.2018 07:22 12,4 C 17,8 C 68 % 1011,7 hPa 0,0 l/m 8,1 km/h (2 Bft) O-NO 71 1 min 0,000 mm 0,0 UV-I 234 W/m 6,7 C 11,3 C 12,9 km/h (3 Bft) 100,00 %
08.05.2018 07:23 12,4 C 17,8 C 68 % 1011,7 hPa 0,0 l/m 11,0 km/h (2 Bft) O-NO 64 1 min 0,000 mm 0,0 UV-I 238 W/m 6,7 C 9,7 C 16,1 km/h (3 Bft) 100,00 %
08.05.2018 07:24 12,5 C 17,8 C 68 % 1011,7 hPa 0,0 l/m 11,7 km/h (2 Bft) O-NO 71 1 min 0,000 mm 0,0 UV-I 241 W/m 6,8 C 9,5 C 14,5 km/h (3 Bft) 100,00 %
08.05.2018 07:25 12,6 C 17,8 C 67 % 1011,7 hPa 0,0 l/m 9,1 km/h (2 Bft) O-NO 71 1 min 0,000 mm 0,0 UV-I 244 W/m 6,6 C 10,9 C 12,9 km/h (3 Bft) 95,83 %
08.05.2018 07:26 12,6 C 17,8 C 67 % 1011,7 hPa 0,0 l/m 10,5 km/h (2 Bft) O-NO 77 1 min 0,000 mm 0,0 UV-I 246 W/m 6,6 C 10,2 C 12,9 km/h (3 Bft) 100,00 %
08.05.2018 07:27 12,6 C 17,8 C 67 % 1011,6 hPa 0,0 l/m 10,6 km/h (2 Bft) O-NO 65 1 min 0,000 mm 0,0 UV-I 248 W/m 6,6 C 10,2 C 12,9 km/h (3 Bft) 100,00 %
08.05.2018 07:28 12,6 C 17,8 C 67 % 1011,6 hPa 0,0 l/m 11,6 km/h (2 Bft) O-NO 75 1 min 0,000 mm 0,0 UV-I 251 W/m 6,6 C 9,7 C 14,5 km/h (3 Bft) 100,00 %
08.05.2018 07:29 12,7 C 17,8 C 67 % 1011,6 hPa 0,0 l/m 9,9 km/h (2 Bft) O-NO 71 1 min 0,000 mm 0,0 UV-I 254 W/m 6,7 C 10,6 C 12,9 km/h (3 Bft) 100,00 %
08.05.2018 07:30 12,7 C 17,8 C 67 % 1011,6 hPa 0,0 l/m 9,1 km/h (2 Bft) O-NO 60 1 min 0,000 mm 0,0 UV-I 258 W/m 6,7 C 11,1 C 12,9 km/h (3 Bft) 100,00 %
08.05.2018 07:31 12,7 C 17,8 C 67 % 1011,6 hPa 0,0 l/m 8,5 km/h (2 Bft) O-NO 78 1 min 0,000 mm 0,0 UV-I 261 W/m 6,7 C 11,4 C 12,9 km/h (3 Bft) 100,00 %
08.05.2018 07:32 12,8 C 17,8 C 67 % 1011,6 hPa 0,0 l/m 9,9 km/h (2 Bft) O 80 1 min 0,000 mm 0,0 UV-I 265 W/m 6,8 C 10,7 C 16,1 km/h (3 Bft) 100,00 %
08.05.2018 07:33 12,8 C 17,8 C 67 % 1011,5 hPa 0,0 l/m 6,0 km/h (2 Bft) O 88 1 min 0,000 mm 0,0 UV-I 267 W/m 6,8 C 12,8 C 9,7 km/h (2 Bft) 100,00 %
08.05.2018 07:34 12,8 C 17,8 C 67 % 1011,5 hPa 0,0 l/m 5,6 km/h (1 Bft) O 97 1 min 0,000 mm 0,0 UV-I 272 W/m 6,8 C 12,8 C 9,7 km/h (2 Bft) 100,00 %
08.05.2018 07:35 12,9 C 17,8 C 67 % 1011,5 hPa 0,0 l/m 9,2 km/h (2 Bft) NO 53 1 min 0,000 mm 0,0 UV-I 275 W/m 6,9 C 11,2 C 14,5 km/h (3 Bft) 100,00 %
08.05.2018 07:36 12,9 C 17,8 C 67 % 1011,5 hPa 0,0 l/m 9,1 km/h (2 Bft) O 79 1 min 0,000 mm 0,0 UV-I 279 W/m 6,9 C 11,3 C 12,9 km/h (3 Bft) 100,00 %
08.05.2018 07:37 13,0 C 17,8 C 67 % 1011,5 hPa 0,0 l/m 7,9 km/h (2 Bft) O-NO 78 1 min 0,000 mm 0,0 UV-I 282 W/m 7,0 C 12,1 C 11,3 km/h (2 Bft) 100,00 %
08.05.2018 07:38 13,0 C 17,8 C 66 % 1011,6 hPa 0,0 l/m 9,1 km/h (2 Bft) NO 48 1 min 0,000 mm 0,0 UV-I 285 W/m 6,8 C 11,4 C 14,5 km/h (3 Bft) 100,00 %
08.05.2018 07:39 13,1 C 17,8 C 66 % 1011,6 hPa 0,0 l/m 7,8 km/h (2 Bft) O 80 1 min 0,000 mm 0,4 UV-I 288 W/m 6,9 C 12,2 C 9,7 km/h (2 Bft) 100,00 %
08.05.2018 07:40 13,1 C 17,8 C 66 % 1011,6 hPa 0,0 l/m 6,0 km/h (2 Bft) O 92 1 min 0,000 mm 0,5 UV-I 291 W/m 6,9 C 13,1 C 6,4 km/h (2 Bft) 95,83 %
08.05.2018 07:41 13,1 C 17,8 C 66 % 1011,6 hPa 0,0 l/m 7,9 km/h (2 Bft) O-NO 76 1 min 0,000 mm 0,5 UV-I 294 W/m 6,9 C 12,2 C 11,3 km/h (2 Bft) 100,00 %
08.05.2018 07:42 13,1 C 17,8 C 66 % 1011,6 hPa 0,0 l/m 5,6 km/h (1 Bft) O-NO 77 1 min 0,000 mm 0,5 UV-I 296 W/m 6,9 C 13,1 C 9,7 km/h (2 Bft) 100,00 %
08.05.2018 07:43 13,1 C 17,8 C 66 % 1011,6 hPa 0,0 l/m 6,4 km/h (2 Bft) O-NO 68 1 min 0,000 mm 0,5 UV-I 299 W/m 6,9 C 13,1 C 8,0 km/h (2 Bft) 100,00 %
08.05.2018 07:44 13,2 C 17,8 C 67 % 1011,6 hPa 0,0 l/m 8,4 km/h (2 Bft) NO 43 1 min 0,000 mm 0,5 UV-I 302 W/m 7,2 C 12,0 C 9,7 km/h (2 Bft) 97,37 %
08.05.2018 07:45 13,2 C 17,8 C 67 % 1011,6 hPa 0,0 l/m 9,6 km/h (2 Bft) O-NO 76 1 min 0,000 mm 0,5 UV-I 304 W/m 7,2 C 11,3 C 14,5 km/h (3 Bft) 100,00 %
08.05.2018 07:46 13,3 C 17,8 C 67 % 1011,6 hPa 0,0 l/m 10,8 km/h (2 Bft) NO 55 1 min 0,000 mm 0,5 UV-I 309 W/m 7,3 C 10,9 C 14,5 km/h (3 Bft) 100,00 %
08.05.2018 07:47 13,3 C 17,8 C 68 % 1011,6 hPa 0,0 l/m 10,4 km/h (2 Bft) O-NO 68 1 min 0,000 mm 0,5 UV-I 312 W/m 7,5 C 11,0 C 16,1 km/h (3 Bft) 100,00 %
08.05.2018 07:48 13,4 C 17,8 C 66 % 1011,6 hPa 0,0 l/m 6,8 km/h (2 Bft) O-NO 63 1 min 0,000 mm 0,5 UV-I 316 W/m 7,2 C 13,2 C 12,9 km/h (3 Bft) 100,00 %
08.05.2018 07:49 13,5 C 17,8 C 66 % 1011,6 hPa 0,0 l/m 8,8 km/h (2 Bft) O 84 1 min 0,000 mm 0,5 UV-I 319 W/m 7,3 C 12,1 C 14,5 km/h (3 Bft) 95,65 %
08.05.2018 07:50 13,5 C 17,8 C 65 % 1011,5 hPa 0,0 l/m 9,2 km/h (2 Bft) NO 42 1 min 0,000 mm 0,5 UV-I 322 W/m 7,1 C 11,9 C 12,9 km/h (3 Bft) 100,00 %
08.05.2018 07:51 13,6 C 17,8 C 65 % 1011,5 hPa 0,0 l/m 11,0 km/h (2 Bft) O-NO 74 1 min 0,000 mm 0,6 UV-I 327 W/m 7,1 C 11,1 C 17,7 km/h (3 Bft) 95,65 %
08.05.2018 07:52 13,6 C 17,8 C 65 % 1011,4 hPa 0,0 l/m 11,9 km/h (2 Bft) O-NO 60 1 min 0,000 mm 0,6 UV-I 331 W/m 7,1 C 10,7 C 16,1 km/h (3 Bft) 95,83 %
08.05.2018 07:53 13,6 C 17,8 C 64 % 1011,4 hPa 0,0 l/m 14,1 km/h (3 Bft) O-NO 62 1 min 0,000 mm 0,6 UV-I 336 W/m 6,9 C 9,8 C 22,5 km/h (4 Bft) 100,00 %
08.05.2018 07:54 13,6 C 17,8 C 63 % 1011,4 hPa 0,0 l/m 15,2 km/h (3 Bft) O 82 1 min 0,000 mm 0,6 UV-I 340 W/m 6,7 C 9,4 C 19,3 km/h (3 Bft) 100,00 %
08.05.2018 07:55 13,6 C 17,8 C 63 % 1011,4 hPa 0,0 l/m 11,5 km/h (2 Bft) O-NO 67 1 min 0,000 mm 0,6 UV-I 344 W/m 6,7 C 10,9 C 17,7 km/h (3 Bft) 100,00 %
08.05.2018 07:56 13,6 C 17,8 C 64 % 1011,4 hPa 0,0 l/m 8,9 km/h (2 Bft) O 82 1 min 0,000 mm 0,6 UV-I 348 W/m 6,9 C 12,1 C 16,1 km/h (3 Bft) 95,65 %
08.05.2018 07:57 13,7 C 17,8 C 64 % 1011,4 hPa 0,0 l/m 13,5 km/h (3 Bft) O-NO 74 1 min 0,000 mm 0,6 UV-I 350 W/m 7,0 C 10,2 C 17,7 km/h (3 Bft) 100,00 %
08.05.2018 07:58 13,7 C 17,8 C 63 % 1011,4 hPa 0,0 l/m 15,0 km/h (3 Bft) O-NO 73 1 min 0,000 mm 0,6 UV-I 354 W/m 6,8 C 9,6 C 17,7 km/h (3 Bft) 92,31 %
08.05.2018 07:59 13,7 C 17,8 C 64 % 1011,4 hPa 0,0 l/m 12,8 km/h (3 Bft) O 87 1 min 0,000 mm 0,6 UV-I 356 W/m 7,0 C 10,4 C 19,3 km/h (3 Bft) 100,00 %
08.05.2018 08:00 13,7 C 17,8 C 63 % 1011,4 hPa 0,0 l/m 14,1 km/h (3 Bft) O-NO 64 1 min 0,000 mm 0,6 UV-I 357 W/m 6,8 C 9,9 C 17,7 km/h (3 Bft) 100,00 %
08.05.2018 08:01 13,7 C 17,8 C 63 % 1011,4 hPa 0,0 l/m 13,1 km/h (3 Bft) O-SO 102 1 min 0,177 mm 0,7 UV-I 358 W/m 6,8 C 10,3 C 16,1 km/h (3 Bft) 95,83 %
08.05.2018 08:02 13,8 C 17,8 C 64 % 1011,4 hPa 0,0 l/m 13,3 km/h (3 Bft) O-NO 71 1 min 0,000 mm 0,7 UV-I 360 W/m 7,1 C 10,4 C 19,3 km/h (3 Bft) 95,65 %
08.05.2018 08:03 13,8 C 17,8 C 63 % 1011,5 hPa 0,0 l/m 9,6 km/h (2 Bft) O 94 1 min 0,000 mm 0,7 UV-I 362 W/m 6,9 C 12,0 C 12,9 km/h (3 Bft) 100,00 %
08.05.2018 08:04 13,8 C 17,8 C 63 % 1011,6 hPa 0,0 l/m 14,5 km/h (3 Bft) O 94 1 min 0,000 mm 0,7 UV-I 365 W/m 6,9 C 9,9 C 19,3 km/h (3 Bft) 92,31 %
08.05.2018 08:05 13,8 C 17,8 C 62 % 1011,6 hPa 0,0 l/m 15,0 km/h (3 Bft) O-NO 67 1 min 0,000 mm 0,7 UV-I 366 W/m 6,6 C 9,7 C 19,3 km/h (3 Bft) 95,83 %
08.05.2018 08:06 13,8 C 17,8 C 63 % 1011,6 hPa 0,0 l/m 13,8 km/h (3 Bft) O-SO 104 1 min 0,000 mm 0,7 UV-I 368 W/m 6,9 C 10,2 C 17,7 km/h (3 Bft) 100,00 %
08.05.2018 08:07 13,8 C 17,8 C 64 % 1011,6 hPa 0,0 l/m 15,3 km/h (3 Bft) O-NO 71 1 min 0,000 mm 0,7 UV-I 370 W/m 7,1 C 9,6 C 19,3 km/h (3 Bft) 91,67 %
08.05.2018 08:08 13,8 C 17,8 C 63 % 1011,5 hPa 0,0 l/m 12,7 km/h (3 Bft) O-NO 73 1 min 0,000 mm 0,7 UV-I 373 W/m 6,9 C 10,6 C 19,3 km/h (3 Bft) 100,00 %
08.05.2018 08:09 13,8 C 17,8 C 64 % 1011,5 hPa 0,0 l/m 8,2 km/h (2 Bft) O-NO 60 1 min 0,000 mm 0,7 UV-I 376 W/m 7,1 C 12,7 C 14,5 km/h (3 Bft) 91,67 %
08.05.2018 08:10 13,9 C 17,8 C 64 % 1011,5 hPa 0,0 l/m 10,5 km/h (2 Bft) O-NO 74 1 min 0,000 mm 0,7 UV-I 378 W/m 7,2 C 11,7 C 16,1 km/h (3 Bft) 100,00 %
08.05.2018 08:11 14,0 C 17,8 C 64 % 1011,4 hPa 0,0 l/m 12,6 km/h (3 Bft) O-NO 71 1 min 0,000 mm 0,7 UV-I 380 W/m 7,3 C 10,9 C 16,1 km/h (3 Bft) 92,31 %
08.05.2018 08:12 14,1 C 17,8 C 62 % 1011,5 hPa 0,0 l/m 13,1 km/h (3 Bft) NO 49 1 min 0,000 mm 0,7 UV-I 384 W/m 6,9 C 10,8 C 17,7 km/h (3 Bft) 100,00 %
08.05.2018 08:13 14,1 C 17,8 C 63 % 1011,4 hPa 0,0 l/m 13,4 km/h (3 Bft) O 82 1 min 0,000 mm 0,8 UV-I 386 W/m 7,2 C 10,7 C 17,7 km/h (3 Bft) 82,61 %
08.05.2018 08:14 14,1 C 17,8 C 63 % 1011,5 hPa 0,0 l/m 11,0 km/h (2 Bft) O-NO 68 1 min 0,000 mm 0,8 UV-I 390 W/m 7,2 C 11,7 C 14,5 km/h (3 Bft) 95,83 %
08.05.2018 08:15 14,1 C 17,8 C 62 % 1011,4 hPa 0,0 l/m 16,4 km/h (3 Bft) O 85 1 min 0,000 mm 0,8 UV-I 394 W/m 6,9 C 9,6 C 19,3 km/h (3 Bft) 100,00 %
08.05.2018 08:16 14,2 C 17,8 C 62 % 1011,4 hPa 0,0 l/m 12,4 km/h (3 Bft) O 92 1 min 0,000 mm 0,8 UV-I 397 W/m 7,0 C 11,2 C 16,1 km/h (3 Bft) 91,67 %
08.05.2018 08:17 14,2 C 17,8 C 62 % 1011,4 hPa 0,0 l/m 14,6 km/h (3 Bft) O 87 1 min 0,000 mm 0,8 UV-I 400 W/m 7,0 C 10,4 C 20,9 km/h (4 Bft) 100,00 %
08.05.2018 08:18 14,2 C 17,8 C 61 % 1011,4 hPa 0,0 l/m 14,2 km/h (3 Bft) O-NO 70 1 min 0,000 mm 0,8 UV-I 402 W/m 6,8 C 10,5 C 19,3 km/h (3 Bft) 91,67 %
08.05.2018 08:19 14,2 C 17,8 C 61 % 1011,4 hPa 0,0 l/m 14,7 km/h (3 Bft) O 84 1 min 0,000 mm 0,8 UV-I 405 W/m 6,8 C 10,3 C 19,3 km/h (3 Bft) 100,00 %
08.05.2018 08:20 14,2 C 17,8 C 61 % 1011,3 hPa 0,0 l/m 13,6 km/h (3 Bft) O-NO 62 1 min 0,000 mm 0,8 UV-I 406 W/m 6,8 C 10,7 C 19,3 km/h (3 Bft) 92,59 %
08.05.2018 08:21 14,2 C 17,8 C 62 % 1011,4 hPa 0,0 l/m 13,1 km/h (3 Bft) O-NO 71 1 min 0,000 mm 0,8 UV-I 411 W/m 7,0 C 10,9 C 19,3 km/h (3 Bft) 100,00 %
08.05.2018 08:22 14,2 C 17,8 C 62 % 1011,4 hPa 0,0 l/m 16,6 km/h (3 Bft) O-SO 107 1 min 0,000 mm 0,9 UV-I 414 W/m 7,0 C 9,7 C 22,5 km/h (4 Bft) 91,67 %
08.05.2018 08:23 14,3 C 17,8 C 61 % 1011,3 hPa 0,0 l/m 15,0 km/h (3 Bft) NO 53 1 min 0,000 mm 0,9 UV-I 418 W/m 6,9 C 10,3 C 19,3 km/h (3 Bft) 92,31 %
08.05.2018 08:24 14,3 C 17,8 C 63 % 1011,3 hPa 0,0 l/m 14,4 km/h (3 Bft) NO 53 1 min 0,000 mm 0,9 UV-I 421 W/m 7,4 C 10,6 C 20,9 km/h (4 Bft) 100,00 %
08.05.2018 08:25 14,4 C 17,8 C 62 % 1011,3 hPa 0,0 l/m 10,2 km/h (2 Bft) O 80 1 min 0,000 mm 0,9 UV-I 424 W/m 7,2 C 12,4 C 16,1 km/h (3 Bft) 91,67 %
08.05.2018 08:26 14,4 C 17,8 C 62 % 1011,2 hPa 0,0 l/m 13,1 km/h (3 Bft) NO 40 1 min 0,000 mm 0,9 UV-I 427 W/m 7,2 C 11,1 C 17,7 km/h (3 Bft) 94,74 %
08.05.2018 08:27 14,4 C 17,8 C 61 % 1011,2 hPa 0,0 l/m 11,0 km/h (2 Bft) NO 43 1 min 0,000 mm 0,9 UV-I 428 W/m 7,0 C 12,0 C 19,3 km/h (3 Bft) 83,33 %
08.05.2018 08:28 14,5 C 17,8 C 61 % 1011,2 hPa 0,0 l/m 13,1 km/h (3 Bft) NO 56 1 min 0,000 mm 0,9 UV-I 431 W/m 7,1 C 11,3 C 17,7 km/h (3 Bft) 100,00 %
08.05.2018 08:29 14,6 C 17,8 C 61 % 1011,3 hPa 0,0 l/m 11,9 km/h (2 Bft) O-NO 65 1 min 0,000 mm 0,9 UV-I 434 W/m 7,2 C 11,9 C 16,1 km/h (3 Bft) 91,67 %
08.05.2018 08:30 14,7 C 17,8 C 61 % 1011,3 hPa 0,0 l/m 9,5 km/h (2 Bft) NO 55 1 min 0,000 mm 0,9 UV-I 437 W/m 7,3 C 13,0 C 17,7 km/h (3 Bft) 100,00 %
08.05.2018 08:31 14,7 C 17,8 C 62 % 1011,2 hPa 0,0 l/m 12,7 km/h (3 Bft) O-NO 63 1 min 0,000 mm 1,0 UV-I 439 W/m 7,5 C 11,7 C 17,7 km/h (3 Bft) 91,67 %
08.05.2018 08:32 14,7 C 17,8 C 62 % 1011,3 hPa 0,0 l/m 14,1 km/h (3 Bft) O-NO 57 1 min 0,000 mm 1,0 UV-I 443 W/m 7,5 C 11,1 C 19,3 km/h (3 Bft) 96,15 %
08.05.2018 08:33 14,8 C 17,8 C 61 % 1011,3 hPa 0,0 l/m 14,9 km/h (3 Bft) O-NO 69 1 min 0,000 mm 1,0 UV-I 445 W/m 7,4 C 11,0 C 19,3 km/h (3 Bft) 95,83 %
08.05.2018 08:34 14,8 C 17,8 C 62 % 1011,2 hPa 0,0 l/m 13,3 km/h (3 Bft) O-NO 65 1 min 0,000 mm 1,0 UV-I 448 W/m 7,6 C 11,5 C 16,1 km/h (3 Bft) 86,96 %
08.05.2018 08:35 14,8 C 17,8 C 60 % 1011,2 hPa 0,0 l/m 10,6 km/h (2 Bft) O-NO 68 1 min 0,000 mm 1,0 UV-I 451 W/m 7,1 C 12,6 C 16,1 km/h (3 Bft) 100,00 %
08.05.2018 08:36 14,8 C 17,8 C 61 % 1011,3 hPa 0,0 l/m 12,2 km/h (2 Bft) O 82 1 min 0,000 mm 1,0 UV-I 454 W/m 7,4 C 12,0 C 19,3 km/h (3 Bft) 88,46 %
08.05.2018 08:37 14,9 C 17,8 C 60 % 1011,3 hPa 0,0 l/m 16,8 km/h (3 Bft) O 91 1 min 0,000 mm 1,0 UV-I 455 W/m 7,2 C 10,5 C 20,9 km/h (4 Bft) 100,00 %
08.05.2018 08:38 14,9 C 17,8 C 59 % 1011,3 hPa 0,0 l/m 15,2 km/h (3 Bft) NO 55 1 min 0,000 mm 1,0 UV-I 459 W/m 7,0 C 11,0 C 20,9 km/h (4 Bft) 95,65 %
08.05.2018 08:39 14,9 C 17,8 C 59 % 1011,3 hPa 0,0 l/m 14,2 km/h (3 Bft) NO 53 1 min 0,000 mm 1,0 UV-I 462 W/m 7,0 C 11,3 C 19,3 km/h (3 Bft) 91,67 %
08.05.2018 08:40 15,0 C 17,8 C 60 % 1011,3 hPa 0,0 l/m 15,3 km/h (3 Bft) O-NO 63 1 min 0,000 mm 1,1 UV-I 465 W/m 7,3 C 11,1 C 20,9 km/h (4 Bft) 96,15 %
08.05.2018 08:41 15,0 C 17,8 C 58 % 1011,3 hPa 0,0 l/m 15,6 km/h (3 Bft) O 85 1 min 0,000 mm 1,1 UV-I 467 W/m 6,8 C 11,0 C 19,3 km/h (3 Bft) 100,00 %
08.05.2018 08:42 15,0 C 17,8 C 58 % 1011,3 hPa 0,0 l/m 14,1 km/h (3 Bft) O-NO 59 1 min 0,000 mm 1,1 UV-I 469 W/m 6,8 C 11,5 C 19,3 km/h (3 Bft) 92,31 %
08.05.2018 08:43 15,0 C 17,8 C 58 % 1011,4 hPa 0,0 l/m 17,4 km/h (3 Bft) O 96 1 min 0,000 mm 1,1 UV-I 471 W/m 6,8 C 10,5 C 20,9 km/h (4 Bft) 100,00 %
08.05.2018 08:44 15,0 C 17,8 C 58 % 1011,4 hPa 0,0 l/m 16,0 km/h (3 Bft) O-SO 112 1 min 0,000 mm 1,1 UV-I 475 W/m 6,8 C 10,9 C 19,3 km/h (3 Bft) 95,65 %
08.05.2018 08:45 15,1 C 17,8 C 59 % 1011,4 hPa 0,0 l/m 17,3 km/h (3 Bft) O-SO 103 1 min 0,000 mm 1,1 UV-I 477 W/m 7,1 C 10,6 C 22,5 km/h (4 Bft) 91,67 %
08.05.2018 08:46 15,1 C 17,8 C 59 % 1011,3 hPa 0,0 l/m 16,3 km/h (3 Bft) O-NO 72 1 min 0,000 mm 1,1 UV-I 479 W/m 7,1 C 10,9 C 24,1 km/h (4 Bft) 96,15 %
08.05.2018 08:47 15,2 C 17,8 C 60 % 1011,4 hPa 0,0 l/m 13,7 km/h (3 Bft) O-NO 69 1 min 0,000 mm 1,1 UV-I 483 W/m 7,5 C 11,9 C 16,1 km/h (3 Bft) 95,83 %
08.05.2018 08:48 15,2 C 17,8 C 59 % 1011,4 hPa 0,0 l/m 12,5 km/h (3 Bft) O-NO 57 1 min 0,000 mm 1,2 UV-I 484 W/m 7,2 C 12,3 C 16,1 km/h (3 Bft) 95,65 %
08.05.2018 08:49 15,2 C 17,8 C 59 % 1011,4 hPa 0,0 l/m 10,9 km/h (2 Bft) O-NO 76 1 min 0,000 mm 1,2 UV-I 487 W/m 7,2 C 12,9 C 14,5 km/h (3 Bft) 95,83 %
08.05.2018 08:50 15,2 C 17,8 C 59 % 1011,4 hPa 0,0 l/m 10,8 km/h (2 Bft) O-NO 71 1 min 0,000 mm 1,2 UV-I 489 W/m 7,2 C 13,0 C 14,5 km/h (3 Bft) 100,00 %
08.05.2018 08:51 15,3 C 17,8 C 61 % 1011,4 hPa 0,0 l/m 9,7 km/h (2 Bft) NO 44 1 min 0,000 mm 1,2 UV-I 493 W/m 7,8 C 13,6 C 14,5 km/h (3 Bft) 96,30 %
08.05.2018 08:52 15,3 C 17,8 C 61 % 1011,4 hPa 0,0 l/m 9,9 km/h (2 Bft) NO 42 1 min 0,000 mm 1,2 UV-I 495 W/m 7,8 C 13,5 C 12,9 km/h (3 Bft) 95,83 %
08.05.2018 08:53 15,4 C 17,8 C 60 % 1011,4 hPa 0,0 l/m 14,1 km/h (3 Bft) O-NO 64 1 min 0,000 mm 1,2 UV-I 497 W/m 7,7 C 12,0 C 17,7 km/h (3 Bft) 100,00 %
08.05.2018 08:54 15,4 C 17,8 C 59 % 1011,4 hPa 0,0 l/m 11,7 km/h (2 Bft) O-NO 76 1 min 0,000 mm 1,2 UV-I 500 W/m 7,4 C 12,8 C 16,1 km/h (3 Bft) 100,00 %
08.05.2018 08:55 15,5 C 17,8 C 58 % 1011,4 hPa 0,0 l/m 14,0 km/h (3 Bft) N-NO 33 1 min 0,000 mm 1,3 UV-I 503 W/m 7,3 C 12,1 C 19,3 km/h (3 Bft) 100,00 %
08.05.2018 08:56 15,5 C 17,8 C 59 % 1011,4 hPa 0,0 l/m 14,9 km/h (3 Bft) NO 42 1 min 0,000 mm 1,3 UV-I 507 W/m 7,5 C 11,8 C 19,3 km/h (3 Bft) 100,00 %
08.05.2018 08:57 15,6 C 17,8 C 59 % 1011,3 hPa 0,0 l/m 13,1 km/h (3 Bft) NO 41 1 min 0,000 mm 1,3 UV-I 511 W/m 7,6 C 12,6 C 17,7 km/h (3 Bft) 100,00 %
08.05.2018 08:58 15,6 C 17,8 C 58 % 1011,3 hPa 0,0 l/m 14,4 km/h (3 Bft) O-NO 61 1 min 0,000 mm 1,3 UV-I 513 W/m 7,4 C 12,1 C 19,3 km/h (3 Bft) 100,00 %
08.05.2018 08:59 15,6 C 17,8 C 58 % 1011,4 hPa 0,0 l/m 15,6 km/h (3 Bft) O-NO 70 1 min 0,000 mm 1,3 UV-I 516 W/m 7,4 C 11,7 C 22,5 km/h (4 Bft) 100,00 %
08.05.2018 09:00 15,7 C 17,8 C 59 % 1011,4 hPa 0,0 l/m 14,9 km/h (3 Bft) O-NO 59 1 min 0,280 mm 1,3 UV-I 519 W/m 7,7 C 12,1 C 20,9 km/h (4 Bft) 100,00 %
08.05.2018 09:01 15,7 C 17,8 C 59 % 1011,4 hPa 0,0 l/m 14,2 km/h (3 Bft) O-NO 72 1 min 0,000 mm 1,3 UV-I 520 W/m 7,7 C 12,3 C 19,3 km/h (3 Bft) 100,00 %
08.05.2018 09:02 15,7 C 17,8 C 58 % 1011,4 hPa 0,0 l/m 17,7 km/h (3 Bft) NO 46 1 min 0,000 mm 1,3 UV-I 523 W/m 7,5 C 11,2 C 24,1 km/h (4 Bft) 100,00 %
08.05.2018 09:03 15,7 C 17,8 C 58 % 1011,4 hPa 0,0 l/m 12,7 km/h (3 Bft) O-NO 63 1 min 0,000 mm 1,3 UV-I 526 W/m 7,5 C 12,8 C 17,7 km/h (3 Bft) 100,00 %
08.05.2018 09:04 15,7 C 17,8 C 57 % 1011,4 hPa 0,0 l/m 19,0 km/h (3 Bft) O-NO 58 1 min 0,000 mm 1,4 UV-I 529 W/m 7,2 C 10,9 C 24,1 km/h (4 Bft) 100,00 %
08.05.2018 09:05 15,7 C 17,8 C 60 % 1011,3 hPa 0,0 l/m 20,1 km/h (4 Bft) O-NO 58 1 min 0,000 mm 1,4 UV-I 534 W/m 8,0 C 10,6 C 29,0 km/h (5 Bft) 100,00 %
08.05.2018 09:06 15,7 C 17,8 C 58 % 1011,3 hPa 0,0 l/m 17,8 km/h (3 Bft) O 89 1 min 0,000 mm 1,4 UV-I 537 W/m 7,5 C 11,2 C 25,7 km/h (4 Bft) 92,86 %
08.05.2018 09:07 15,7 C 17,8 C 58 % 1011,3 hPa 0,0 l/m 21,3 km/h (4 Bft) N-NO 24 1 min 0,000 mm 1,4 UV-I 540 W/m 7,5 C 10,3 C 25,7 km/h (4 Bft) 100,00 %
08.05.2018 09:08 15,7 C 17,8 C 58 % 1011,2 hPa 0,0 l/m 17,0 km/h (3 Bft) O-NO 64 1 min 0,000 mm 1,4 UV-I 544 W/m 7,5 C 11,4 C 24,1 km/h (4 Bft) 95,83 %
08.05.2018 09:09 15,7 C 17,8 C 57 % 1011,2 hPa 0,0 l/m 18,3 km/h (3 Bft) O 86 1 min 0,000 mm 1,4 UV-I 548 W/m 7,2 C 11,1 C 24,1 km/h (4 Bft) 100,00 %
08.05.2018 09:10 15,7 C 17,8 C 57 % 1011,2 hPa 0,0 l/m 19,2 km/h (3 Bft) NO 51 1 min 0,000 mm 1,4 UV-I 552 W/m 7,2 C 10,9 C 24,1 km/h (4 Bft) 100,00 %
08.05.2018 09:11 15,7 C 17,8 C 58 % 1011,3 hPa 0,0 l/m 20,4 km/h (4 Bft) NO 39 1 min 0,000 mm 1,5 UV-I 556 W/m 7,5 C 10,6 C 25,7 km/h (4 Bft) 100,00 %
08.05.2018 09:12 15,7 C 17,8 C 57 % 1011,3 hPa 0,0 l/m 20,3 km/h (4 Bft) O-NO 65 1 min 0,000 mm 1,5 UV-I 559 W/m 7,2 C 10,6 C 25,7 km/h (4 Bft) 100,00 %
08.05.2018 09:13 15,7 C 17,8 C 58 % 1011,3 hPa 0,0 l/m 16,7 km/h (3 Bft) O-NO 66 1 min 0,000 mm 1,5 UV-I 563 W/m 7,5 C 11,5 C 24,1 km/h (4 Bft) 100,00 %
08.05.2018 09:14 15,8 C 17,8 C 58 % 1011,3 hPa 0,0 l/m 19,0 km/h (3 Bft) O 86 1 min 0,000 mm 1,5 UV-I 565 W/m 7,6 C 11,0 C 29,0 km/h (5 Bft) 100,00 %
08.05.2018 09:15 15,8 C 17,8 C 57 % 1011,3 hPa 0,0 l/m 17,7 km/h (3 Bft) NO 56 1 min 0,000 mm 1,5 UV-I 567 W/m 7,3 C 11,4 C 25,7 km/h (4 Bft) 95,83 %
08.05.2018 09:16 15,8 C 17,8 C 57 % 1011,2 hPa 0,0 l/m 18,9 km/h (3 Bft) O-NO 57 1 min 0,000 mm 1,5 UV-I 569 W/m 7,3 C 11,1 C 27,4 km/h (4 Bft) 95,65 %
08.05.2018 09:17 15,8 C 17,8 C 58 % 1011,2 hPa 0,0 l/m 19,4 km/h (3 Bft) O-NO 65 1 min 0,000 mm 1,6 UV-I 572 W/m 7,6 C 10,9 C 25,7 km/h (4 Bft) 100,00 %
08.05.2018 09:18 15,8 C 17,8 C 58 % 1011,3 hPa 0,0 l/m 16,4 km/h (3 Bft) O-NO 77 1 min 0,000 mm 1,6 UV-I 575 W/m 7,6 C 11,7 C 24,1 km/h (4 Bft) 100,00 %
08.05.2018 09:19 15,9 C 17,8 C 58 % 1011,3 hPa 0,0 l/m 14,6 km/h (3 Bft) O-NO 63 1 min 0,000 mm 1,6 UV-I 577 W/m 7,6 C 12,4 C 20,9 km/h (4 Bft) 93,33 %
08.05.2018 09:20 16,0 C 17,8 C 58 % 1011,3 hPa 0,0 l/m 16,6 km/h (3 Bft) NO 49 1 min 0,000 mm 1,6 UV-I 578 W/m 7,7 C 11,9 C 24,1 km/h (4 Bft) 95,65 %
08.05.2018 09:21 16,1 C 17,8 C 58 % 1011,3 hPa 0,0 l/m 20,0 km/h (4 Bft) NO 53 1 min 0,000 mm 1,6 UV-I 579 W/m 7,8 C 11,2 C 24,1 km/h (4 Bft) 100,00 %
08.05.2018 09:22 16,2 C 17,8 C 58 % 1011,3 hPa 0,0 l/m 19,0 km/h (3 Bft) O-NO 62 1 min 0,000 mm 1,6 UV-I 582 W/m 7,9 C 11,5 C 25,7 km/h (4 Bft) 91,30 %
08.05.2018 09:23 16,2 C 17,8 C 55 % 1011,4 hPa 0,0 l/m 14,0 km/h (3 Bft) O-NO 58 1 min 0,000 mm 1,6 UV-I 583 W/m 7,2 C 13,0 C 20,9 km/h (4 Bft) 100,00 %
08.05.2018 09:24 16,2 C 17,8 C 56 % 1011,3 hPa 0,0 l/m 14,1 km/h (3 Bft) O-NO 75 1 min 0,000 mm 1,7 UV-I 587 W/m 7,4 C 12,9 C 27,4 km/h (4 Bft) 100,00 %
08.05.2018 09:25 16,3 C 17,8 C 57 % 1011,3 hPa 0,0 l/m 21,2 km/h (4 Bft) NO 56 1 min 0,000 mm 1,7 UV-I 587 W/m 7,8 C 11,2 C 29,0 km/h (5 Bft) 97,51 %
08.05.2018 09:26 16,3 C 17,8 C 57 % 1011,3 hPa 0,0 l/m 20,8 km/h (4 Bft) O-NO 62 1 min 0,000 mm 1,7 UV-I 590 W/m 7,8 C 11,2 C 30,6 km/h (5 Bft) 100,00 %
08.05.2018 09:27 16,3 C 17,8 C 57 % 1011,3 hPa 0,0 l/m 19,2 km/h (3 Bft) O-NO 59 1 min 0,000 mm 1,7 UV-I 591 W/m 7,8 C 11,6 C 24,1 km/h (4 Bft) 95,65 %
08.05.2018 09:28 16,3 C 17,8 C 57 % 1011,3 hPa 0,0 l/m 20,1 km/h (4 Bft) O-NO 59 1 min 0,000 mm 1,7 UV-I 594 W/m 7,8 C 11,4 C 24,1 km/h (4 Bft) 100,00 %
08.05.2018 09:29 16,3 C 17,8 C 56 % 1011,3 hPa 0,0 l/m 19,2 km/h (3 Bft) NO 49 1 min 0,000 mm 1,7 UV-I 598 W/m 7,5 C 11,6 C 30,6 km/h (5 Bft) 95,65 %
08.05.2018 09:30 16,3 C 17,8 C 55 % 1011,3 hPa 0,0 l/m 13,9 km/h (3 Bft) NO 46 1 min 0,000 mm 1,7 UV-I 599 W/m 7,2 C 13,1 C 19,3 km/h (3 Bft) 100,00 %
08.05.2018 09:31 16,4 C 17,8 C 57 % 1011,3 hPa 0,0 l/m 16,4 km/h (3 Bft) O-NO 68 1 min 0,000 mm 1,7 UV-I 601 W/m 7,9 C 12,5 C 24,1 km/h (4 Bft) 100,00 %
08.05.2018 09:32 16,4 C 17,8 C 57 % 1011,3 hPa 0,0 l/m 19,9 km/h (4 Bft) O 87 1 min 0,000 mm 1,8 UV-I 604 W/m 7,9 C 11,6 C 25,7 km/h (4 Bft) 100,00 %
08.05.2018 09:33 16,4 C 17,8 C 57 % 1011,3 hPa 0,0 l/m 19,0 km/h (3 Bft) O-NO 71 1 min 0,000 mm 1,8 UV-I 605 W/m 7,9 C 11,8 C 24,1 km/h (4 Bft) 100,00 %
08.05.2018 09:34 16,4 C 17,8 C 56 % 1011,4 hPa 0,0 l/m 16,6 km/h (3 Bft) O 94 1 min 0,000 mm 1,8 UV-I 607 W/m 7,6 C 12,4 C 24,1 km/h (4 Bft) 95,83 %
08.05.2018 09:35 16,5 C 17,8 C 56 % 1011,3 hPa 0,0 l/m 11,8 km/h (2 Bft) O-NO 62 1 min 0,000 mm 1,8 UV-I 608 W/m 7,7 C 14,1 C 16,1 km/h (3 Bft) 100,00 %
08.05.2018 09:36 16,6 C 17,8 C 57 % 1011,3 hPa 0,0 l/m 15,3 km/h (3 Bft) O-NO 62 1 min 0,000 mm 1,8 UV-I 610 W/m 8,0 C 13,0 C 22,5 km/h (4 Bft) 100,00 %
08.05.2018 09:37 16,7 C 17,8 C 57 % 1011,4 hPa 0,0 l/m 12,5 km/h (3 Bft) O-NO 67 1 min 0,000 mm 1,8 UV-I 612 W/m 8,1 C 14,1 C 16,1 km/h (3 Bft) 100,00 %
08.05.2018 09:38 16,7 C 17,8 C 55 % 1011,3 hPa 0,0 l/m 16,5 km/h (3 Bft) NO 46 1 min 0,000 mm 1,8 UV-I 613 W/m 7,6 C 12,8 C 22,5 km/h (4 Bft) 100,00 %
08.05.2018 09:39 16,8 C 17,8 C 57 % 1011,3 hPa 0,0 l/m 13,3 km/h (3 Bft) NO 40 1 min 0,000 mm 1,9 UV-I 616 W/m 8,2 C 13,9 C 20,9 km/h (4 Bft) 100,00 %
08.05.2018 09:40 16,8 C 17,8 C 57 % 1011,3 hPa 0,0 l/m 16,5 km/h (3 Bft) O-NO 70 1 min 0,000 mm 1,9 UV-I 617 W/m 8,2 C 12,9 C 22,5 km/h (4 Bft) 100,00 %
08.05.2018 09:41 16,8 C 17,8 C 55 % 1011,4 hPa 0,0 l/m 16,2 km/h (3 Bft) O-NO 66 1 min 0,000 mm 1,9 UV-I 620 W/m 7,7 C 13,0 C 19,3 km/h (3 Bft) 100,00 %
08.05.2018 09:42 16,8 C 17,8 C 55 % 1011,4 hPa 0,0 l/m 19,7 km/h (3 Bft) O 97 1 min 0,000 mm 1,9 UV-I 621 W/m 7,7 C 12,1 C 30,6 km/h (5 Bft) 95,83 %
08.05.2018 09:43 16,8 C 17,8 C 54 % 1011,4 hPa 0,0 l/m 21,7 km/h (4 Bft) NO 53 1 min 0,000 mm 1,9 UV-I 624 W/m 7,4 C 11,7 C 30,6 km/h (5 Bft) 100,00 %
08.05.2018 09:44 16,8 C 17,8 C 53 % 1011,4 hPa 0,0 l/m 19,2 km/h (3 Bft) NO 45 1 min 0,000 mm 1,9 UV-I 625 W/m 7,2 C 12,3 C 25,7 km/h (4 Bft) 100,00 %
08.05.2018 09:45 16,7 C 17,8 C 54 % 1011,4 hPa 0,0 l/m 20,3 km/h (4 Bft) O-NO 75 1 min 0,000 mm 1,9 UV-I 628 W/m 7,3 C 11,9 C 29,0 km/h (5 Bft) 100,00 %
08.05.2018 09:46 16,7 C 17,8 C 53 % 1011,4 hPa 0,0 l/m 20,9 km/h (4 Bft) O-SO 119 1 min 0,000 mm 1,9 UV-I 630 W/m 7,1 C 11,7 C 27,4 km/h (4 Bft) 100,00 %
08.05.2018 09:47 16,7 C 17,8 C 54 % 1011,4 hPa 0,0 l/m 20,4 km/h (4 Bft) O-NO 70 1 min 0,000 mm 2,0 UV-I 631 W/m 7,3 C 11,9 C 25,7 km/h (4 Bft) 100,00 %
08.05.2018 09:48 16,7 C 17,8 C 54 % 1011,3 hPa 0,0 l/m 19,0 km/h (3 Bft) O 99 1 min 0,000 mm 2,0 UV-I 633 W/m 7,3 C 12,2 C 24,1 km/h (4 Bft) 100,00 %
08.05.2018 09:49 16,7 C 17,8 C 55 % 1011,3 hPa 0,0 l/m 15,2 km/h (3 Bft) O-NO 71 1 min 0,000 mm 2,0 UV-I 636 W/m 7,6 C 13,2 C 19,3 km/h (3 Bft) 100,00 %
08.05.2018 09:50 16,7 C 17,8 C 55 % 1011,3 hPa 0,0 l/m 18,4 km/h (3 Bft) O-SO 112 1 min 0,000 mm 2,0 UV-I 638 W/m 7,6 C 12,3 C 24,1 km/h (4 Bft) 95,83 %
08.05.2018 09:51 16,7 C 17,8 C 54 % 1011,3 hPa 0,0 l/m 15,7 km/h (3 Bft) O 99 1 min 0,000 mm 2,0 UV-I 640 W/m 7,3 C 13,0 C 20,9 km/h (4 Bft) 95,65 %
08.05.2018 09:52 16,8 C 17,8 C 55 % 1011,3 hPa 0,0 l/m 15,1 km/h (3 Bft) O-SO 110 1 min 0,000 mm 2,0 UV-I 643 W/m 7,7 C 13,3 C 19,3 km/h (3 Bft) 100,00 %
08.05.2018 09:53 16,8 C 17,8 C 55 % 1011,3 hPa 0,0 l/m 16,0 km/h (3 Bft) O 99 1 min 0,000 mm 2,1 UV-I 643 W/m 7,7 C 13,1 C 22,5 km/h (4 Bft) 95,83 %
08.05.2018 09:54 16,9 C 17,8 C 54 % 1011,3 hPa 0,0 l/m 15,3 km/h (3 Bft) O 89 1 min 0,000 mm 2,1 UV-I 646 W/m 7,5 C 13,4 C 25,7 km/h (4 Bft) 100,00 %
08.05.2018 09:55 17,0 C 17,8 C 54 % 1011,3 hPa 0,0 l/m 15,9 km/h (3 Bft) O 98 1 min 0,000 mm 2,1 UV-I 649 W/m 7,6 C 13,4 C 24,1 km/h (4 Bft) 96,30 %
08.05.2018 09:56 17,1 C 17,8 C 54 % 1011,4 hPa 0,0 l/m 20,3 km/h (4 Bft) O 96 1 min 0,000 mm 2,1 UV-I 651 W/m 7,7 C 12,4 C 25,7 km/h (4 Bft) 100,00 %
08.05.2018 09:57 17,2 C 17,8 C 53 % 1011,3 hPa 0,0 l/m 21,6 km/h (4 Bft) O 100 1 min 0,000 mm 2,1 UV-I 653 W/m 7,5 C 12,2 C 30,6 km/h (5 Bft) 95,83 %
08.05.2018 09:58 17,2 C 17,8 C 52 % 1011,3 hPa 0,0 l/m 24,4 km/h (4 Bft) O 98 1 min 0,000 mm 2,2 UV-I 656 W/m 7,3 C 11,7 C 32,2 km/h (5 Bft) 86,96 %
08.05.2018 09:59 17,2 C 17,8 C 53 % 1011,3 hPa 0,0 l/m 16,2 km/h (3 Bft) O-SO 113 1 min 0,000 mm 2,2 UV-I 659 W/m 7,5 C 13,5 C 22,5 km/h (4 Bft) 100,00 %
08.05.2018 10:00 17,2 C 18,3 C 52 % 1011,3 hPa 0,0 l/m 12,4 km/h (3 Bft) O-SO 103 1 min 0,406 mm 2,2 UV-I 661 W/m 7,3 C 14,7 C 20,9 km/h (4 Bft) 95,65 %
08.05.2018 10:01 17,2 C 17,8 C 52 % 1011,3 hPa 0,0 l/m 16,2 km/h (3 Bft) O 84 1 min 0,000 mm 2,2 UV-I 663 W/m 7,3 C 13,5 C 20,9 km/h (4 Bft) 100,00 %
08.05.2018 10:02 17,3 C 17,8 C 53 % 1011,3 hPa 0,0 l/m 18,1 km/h (3 Bft) O-SO 110 1 min 0,000 mm 2,2 UV-I 665 W/m 7,6 C 13,2 C 25,7 km/h (4 Bft) 91,30 %
08.05.2018 10:03 17,3 C 17,8 C 52 % 1011,3 hPa 0,0 l/m 18,8 km/h (3 Bft) O 93 1 min 0,000 mm 2,2 UV-I 668 W/m 7,3 C 13,0 C 25,7 km/h (4 Bft) 100,00 %
08.05.2018 10:04 17,3 C 17,8 C 52 % 1011,3 hPa 0,0 l/m 19,0 km/h (3 Bft) O 82 1 min 0,000 mm 2,2 UV-I 671 W/m 7,3 C 12,9 C 27,4 km/h (4 Bft) 95,65 %
08.05.2018 10:05 17,3 C 17,8 C 53 % 1011,3 hPa 0,0 l/m 16,6 km/h (3 Bft) O-SO 118 1 min 0,000 mm 2,3 UV-I 671 W/m 7,6 C 13,5 C 27,4 km/h (4 Bft) 95,83 %
08.05.2018 10:06 17,4 C 17,8 C 52 % 1011,3 hPa 0,0 l/m 21,1 km/h (4 Bft) NO 56 1 min 0,000 mm 2,3 UV-I 673 W/m 7,4 C 12,6 C 29,0 km/h (5 Bft) 92,31 %
08.05.2018 10:07 17,4 C 17,8 C 52 % 1011,3 hPa 0,0 l/m 20,7 km/h (4 Bft) O-NO 74 1 min 0,000 mm 2,3 UV-I 676 W/m 7,4 C 12,7 C 29,0 km/h (5 Bft) 95,83 %
08.05.2018 10:08 17,5 C 18,3 C 53 % 1011,3 hPa 0,0 l/m 18,2 km/h (3 Bft) O 83 1 min 0,000 mm 2,3 UV-I 679 W/m 7,8 C 13,4 C 24,1 km/h (4 Bft) 100,00 %
08.05.2018 10:09 17,6 C 17,8 C 51 % 1011,3 hPa 0,0 l/m 20,9 km/h (4 Bft) O-NO 66 1 min 0,000 mm 2,3 UV-I 680 W/m 7,3 C 12,9 C 27,4 km/h (4 Bft) 95,65 %
08.05.2018 10:10 17,6 C 17,8 C 51 % 1011,3 hPa 0,0 l/m 20,0 km/h (4 Bft) O-NO 66 1 min 0,000 mm 2,3 UV-I 681 W/m 7,3 C 13,1 C 25,7 km/h (4 Bft) 100,00 %
08.05.2018 10:11 17,6 C 17,8 C 52 % 1011,3 hPa 0,0 l/m 22,8 km/h (4 Bft) O-NO 74 1 min 0,000 mm 2,4 UV-I 682 W/m 7,6 C 12,5 C 37,0 km/h (5 Bft) 96,15 %
08.05.2018 10:12 17,5 C 17,8 C 50 % 1011,2 hPa 0,0 l/m 22,6 km/h (4 Bft) O 86 1 min 0,000 mm 2,4 UV-I 686 W/m 7,0 C 12,4 C 30,6 km/h (5 Bft) 95,83 %
08.05.2018 10:13 17,6 C 17,8 C 51 % 1011,2 hPa 0,0 l/m 19,6 km/h (3 Bft) O-NO 67 1 min 0,000 mm 2,4 UV-I 688 W/m 7,3 C 13,2 C 25,7 km/h (4 Bft) 100,00 %
08.05.2018 10:14 17,6 C 17,8 C 52 % 1011,2 hPa 0,0 l/m 24,9 km/h (4 Bft) NO 55 1 min 0,000 mm 2,4 UV-I 690 W/m 7,6 C 12,1 C 37,0 km/h (5 Bft) 95,83 %
08.05.2018 10:15 17,6 C 17,8 C 50 % 1011,3 hPa 0,0 l/m 21,6 km/h (4 Bft) O-NO 77 1 min 0,000 mm 2,4 UV-I 693 W/m 7,1 C 12,8 C 29,0 km/h (5 Bft) 100,00 %
08.05.2018 10:16 17,6 C 17,8 C 50 % 1011,3 hPa 0,0 l/m 13,9 km/h (3 Bft) O 94 1 min 0,000 mm 2,4 UV-I 693 W/m 7,1 C 14,7 C 20,9 km/h (4 Bft) 95,83 %
08.05.2018 10:17 17,7 C 17,8 C 51 % 1011,3 hPa 0,0 l/m 19,8 km/h (3 Bft) O 84 1 min 0,000 mm 2,4 UV-I 694 W/m 7,4 C 13,3 C 24,1 km/h (4 Bft) 100,00 %
08.05.2018 10:18 17,7 C 17,8 C 50 % 1011,3 hPa 0,0 l/m 19,6 km/h (3 Bft) NO 36 1 min 0,000 mm 2,5 UV-I 698 W/m 7,1 C 13,3 C 25,7 km/h (4 Bft) 95,83 %
08.05.2018 10:19 17,7 C 17,8 C 50 % 1011,3 hPa 0,0 l/m 17,1 km/h (3 Bft) NO 55 1 min 0,000 mm 2,5 UV-I 700 W/m 7,1 C 13,9 C 24,1 km/h (4 Bft) 100,00 %
08.05.2018 10:20 17,8 C 17,8 C 52 % 1011,3 hPa 0,0 l/m 16,6 km/h (3 Bft) O 96 1 min 0,000 mm 2,5 UV-I 702 W/m 7,8 C 14,2 C 19,3 km/h (3 Bft) 100,00 %
08.05.2018 10:21 17,8 C 17,8 C 53 % 1011,2 hPa 0,0 l/m 14,6 km/h (3 Bft) O-NO 59 1 min 0,000 mm 2,5 UV-I 704 W/m 8,1 C 14,7 C 20,9 km/h (4 Bft) 100,00 %
08.05.2018 10:22 18,0 C 17,8 C 53 % 1011,2 hPa 0,0 l/m 19,1 km/h (3 Bft) O-SO 119 1 min 0,000 mm 2,6 UV-I 705 W/m 8,3 C 13,8 C 30,6 km/h (5 Bft) 100,00 %
08.05.2018 10:23 18,1 C 17,8 C 52 % 1011,2 hPa 0,0 l/m 16,6 km/h (3 Bft) O-NO 66 1 min 0,000 mm 2,6 UV-I 708 W/m 8,1 C 14,5 C 22,5 km/h (4 Bft) 100,00 %
08.05.2018 10:24 18,2 C 17,8 C 50 % 1011,2 hPa 0,0 l/m 23,6 km/h (4 Bft) O-SO 103 1 min 0,000 mm 2,6 UV-I 709 W/m 7,6 C 13,2 C 27,4 km/h (4 Bft) 91,67 %
08.05.2018 10:25 18,2 C 17,8 C 50 % 1011,2 hPa 0,0 l/m 22,5 km/h (4 Bft) O 94 1 min 0,000 mm 2,6 UV-I 713 W/m 7,6 C 13,4 C 30,6 km/h (5 Bft) 100,00 %
08.05.2018 10:26 18,1 C 17,8 C 50 % 1011,2 hPa 0,0 l/m 19,8 km/h (3 Bft) O 82 1 min 0,000 mm 2,6 UV-I 716 W/m 7,5 C 13,8 C 33,8 km/h (5 Bft) 100,00 %
08.05.2018 10:27 18,1 C 17,8 C 49 % 1011,2 hPa 0,0 l/m 18,7 km/h (3 Bft) O 98 1 min 0,000 mm 2,6 UV-I 717 W/m 7,2 C 14,0 C 24,1 km/h (4 Bft) 100,00 %
08.05.2018 10:28 18,1 C 17,8 C 49 % 1011,2 hPa 0,0 l/m 24,9 km/h (4 Bft) O-NO 69 1 min 0,000 mm 2,7 UV-I 720 W/m 7,2 C 12,8 C 30,6 km/h (5 Bft) 95,83 %
08.05.2018 10:29 18,1 C 17,8 C 49 % 1011,2 hPa 0,0 l/m 21,0 km/h (4 Bft) O 81 1 min 0,000 mm 2,7 UV-I 721 W/m 7,2 C 13,5 C 29,0 km/h (5 Bft) 100,00 %
08.05.2018 10:30 18,1 C 17,8 C 49 % 1011,2 hPa 0,0 l/m 26,2 km/h (4 Bft) NO 56 1 min 0,000 mm 2,7 UV-I 722 W/m 7,2 C 12,6 C 33,8 km/h (5 Bft) 100,00 %
08.05.2018 10:31 18,1 C 17,8 C 49 % 1011,2 hPa 0,0 l/m 25,1 km/h (4 Bft) O-NO 63 1 min 0,000 mm 2,7 UV-I 724 W/m 7,2 C 12,8 C 35,4 km/h (5 Bft) 100,00 %
08.05.2018 10:32 18,2 C 17,8 C 49 % 1011,2 hPa 0,0 l/m 19,9 km/h (4 Bft) O-NO 67 1 min 0,000 mm 2,7 UV-I 724 W/m 7,3 C 13,9 C 29,0 km/h (5 Bft) 95,65 %
08.05.2018 10:33 18,2 C 17,8 C 48 % 1011,2 hPa 0,0 l/m 25,3 km/h (4 Bft) O-NO 63 1 min 0,000 mm 2,7 UV-I 727 W/m 7,0 C 12,9 C 32,2 km/h (5 Bft) 100,00 %
08.05.2018 10:34 18,2 C 17,8 C 48 % 1011,2 hPa 0,0 l/m 22,6 km/h (4 Bft) O 89 1 min 0,000 mm 2,7 UV-I 729 W/m 7,0 C 13,4 C 27,4 km/h (4 Bft) 95,65 %
08.05.2018 10:35 18,2 C 17,8 C 49 % 1011,2 hPa 0,0 l/m 17,0 km/h (3 Bft) O-NO 70 1 min 0,000 mm 2,8 UV-I 731 W/m 7,3 C 14,6 C 22,5 km/h (4 Bft) 95,83 %
08.05.2018 10:36 18,2 C 17,8 C 50 % 1011,2 hPa 0,0 l/m 17,2 km/h (3 Bft) O-NO 75 1 min 0,000 mm 2,8 UV-I 730 W/m 7,6 C 14,5 C 22,5 km/h (4 Bft) 95,65 %
08.05.2018 10:37 18,3 C 17,8 C 50 % 1011,2 hPa 0,0 l/m 19,6 km/h (3 Bft) O-NO 58 1 min 0,000 mm 2,8 UV-I 734 W/m 7,7 C 14,1 C 24,1 km/h (4 Bft) 100,00 %
08.05.2018 10:38 18,3 C 17,8 C 48 % 1011,1 hPa 0,0 l/m 18,8 km/h (3 Bft) O-NO 70 1 min 0,000 mm 2,8 UV-I 736 W/m 7,1 C 14,3 C 25,7 km/h (4 Bft) 100,00 %
08.05.2018 10:39 18,4 C 17,8 C 48 % 1011,1 hPa 0,0 l/m 24,9 km/h (4 Bft) O-NO 65 1 min 0,000 mm 2,8 UV-I 737 W/m 7,2 C 13,2 C 33,8 km/h (5 Bft) 100,00 %
08.05.2018 10:40 18,4 C 17,8 C 48 % 1011,1 hPa 0,0 l/m 22,6 km/h (4 Bft) O-NO 62 1 min 0,000 mm 2,8 UV-I 738 W/m 7,2 C 13,6 C 29,0 km/h (5 Bft) 100,00 %
08.05.2018 10:41 18,4 C 17,8 C 48 % 1011,1 hPa 0,0 l/m 22,4 km/h (4 Bft) O-NO 72 1 min 0,000 mm 2,9 UV-I 739 W/m 7,2 C 13,7 C 30,6 km/h (5 Bft) 95,83 %
08.05.2018 10:42 18,4 C 17,8 C 48 % 1011,1 hPa 0,0 l/m 23,1 km/h (4 Bft) O-NO 57 1 min 0,000 mm 2,9 UV-I 742 W/m 7,2 C 13,5 C 30,6 km/h (5 Bft) 100,00 %
08.05.2018 10:43 18,4 C 17,8 C 48 % 1011,0 hPa 0,0 l/m 21,9 km/h (4 Bft) O 100 1 min 0,000 mm 2,9 UV-I 742 W/m 7,2 C 13,8 C 29,0 km/h (5 Bft) 100,00 %
08.05.2018 10:44 18,5 C 17,8 C 47 % 1011,0 hPa 0,0 l/m 20,3 km/h (4 Bft) O 96 1 min 0,000 mm 2,9 UV-I 743 W/m 7,0 C 14,2 C 29,0 km/h (5 Bft) 100,00 %
08.05.2018 10:45 18,5 C 17,8 C 47 % 1011,0 hPa 0,0 l/m 18,3 km/h (3 Bft) O-NO 75 1 min 0,000 mm 2,9 UV-I 745 W/m 7,0 C 14,6 C 22,5 km/h (4 Bft) 100,00 %
08.05.2018 10:46 18,4 C 17,8 C 49 % 1011,0 hPa 0,0 l/m 19,5 km/h (3 Bft) O-NO 60 1 min 0,000 mm 2,9 UV-I 747 W/m 7,5 C 14,2 C 27,4 km/h (4 Bft) 100,00 %
08.05.2018 10:47 18,5 C 17,8 C 48 % 1010,9 hPa 0,0 l/m 19,7 km/h (3 Bft) O 82 1 min 0,000 mm 3,0 UV-I 751 W/m 7,3 C 14,3 C 25,7 km/h (4 Bft) 100,00 %
08.05.2018 10:48 18,5 C 17,8 C 47 % 1011,0 hPa 0,0 l/m 22,3 km/h (4 Bft) O-NO 67 1 min 0,000 mm 3,0 UV-I 752 W/m 7,0 C 13,8 C 29,0 km/h (5 Bft) 100,00 %
08.05.2018 10:49 18,6 C 17,8 C 49 % 1011,0 hPa 0,0 l/m 21,9 km/h (4 Bft) O-NO 62 1 min 0,000 mm 3,0 UV-I 752 W/m 7,7 C 14,0 C 30,6 km/h (5 Bft) 95,83 %
08.05.2018 10:50 18,7 C 17,8 C 49 % 1011,0 hPa 0,0 l/m 21,3 km/h (4 Bft) O-NO 69 1 min 0,000 mm 3,0 UV-I 754 W/m 7,8 C 14,3 C 27,4 km/h (4 Bft) 100,00 %
08.05.2018 10:51 18,7 C 17,8 C 47 % 1010,9 hPa 0,0 l/m 20,5 km/h (4 Bft) O-NO 60 1 min 0,000 mm 3,0 UV-I 757 W/m 7,2 C 14,4 C 27,4 km/h (4 Bft) 96,67 %
08.05.2018 10:52 18,7 C 17,8 C 47 % 1010,9 hPa 0,0 l/m 17,9 km/h (3 Bft) O 80 1 min 0,000 mm 3,0 UV-I 758 W/m 7,2 C 15,0 C 24,1 km/h (4 Bft) 100,00 %
08.05.2018 10:53 18,7 C 18,3 C 48 % 1010,9 hPa 0,0 l/m 21,3 km/h (4 Bft) O 90 1 min 0,000 mm 3,1 UV-I 759 W/m 7,5 C 14,3 C 27,4 km/h (4 Bft) 100,00 %
08.05.2018 10:54 18,7 C 17,8 C 48 % 1010,9 hPa 0,0 l/m 21,5 km/h (4 Bft) O-NO 67 1 min 0,000 mm 3,1 UV-I 762 W/m 7,5 C 14,2 C 29,0 km/h (5 Bft) 100,00 %
08.05.2018 10:55 18,7 C 18,3 C 47 % 1010,9 hPa 0,0 l/m 19,8 km/h (3 Bft) O-NO 65 1 min 0,000 mm 3,1 UV-I 764 W/m 7,2 C 14,6 C 25,7 km/h (4 Bft) 95,65 %
08.05.2018 10:56 18,7 C 18,3 C 49 % 1010,9 hPa 0,0 l/m 21,8 km/h (4 Bft) O-NO 70 1 min 0,000 mm 3,1 UV-I 765 W/m 7,8 C 14,2 C 30,6 km/h (5 Bft) 100,00 %
08.05.2018 10:57 18,8 C 18,3 C 48 % 1010,9 hPa 0,0 l/m 19,0 km/h (3 Bft) O 94 1 min 0,000 mm 3,1 UV-I 766 W/m 7,6 C 14,9 C 29,0 km/h (5 Bft) 100,00 %
08.05.2018 10:58 18,8 C 18,3 C 47 % 1010,9 hPa 0,0 l/m 19,6 km/h (3 Bft) O-NO 74 1 min 0,000 mm 3,1 UV-I 766 W/m 7,2 C 14,7 C 24,1 km/h (4 Bft) 100,00 %
08.05.2018 10:59 18,8 C 18,3 C 48 % 1010,9 hPa 0,0 l/m 20,0 km/h (4 Bft) O-NO 65 1 min 0,000 mm 3,1 UV-I 768 W/m 7,6 C 14,7 C 25,7 km/h (4 Bft) 100,00 %
08.05.2018 11:00 18,9 C 18,3 C 47 % 1010,9 hPa 0,0 l/m 18,9 km/h (3 Bft) NO 52 1 min 0,000 mm 3,1 UV-I 771 W/m 7,3 C 15,0 C 24,1 km/h (4 Bft) 100,00 %
08.05.2018 11:01 18,9 C 18,3 C 49 % 1010,9 hPa 0,0 l/m 18,5 km/h (3 Bft) O 80 1 min 0,534 mm 3,2 UV-I 773 W/m 7,9 C 15,1 C 25,7 km/h (4 Bft) 96,15 %
08.05.2018 11:02 19,1 C 18,3 C 47 % 1010,9 hPa 0,0 l/m 20,5 km/h (4 Bft) O 82 1 min 0,000 mm 3,2 UV-I 773 W/m 7,5 C 14,9 C 25,7 km/h (4 Bft) 100,00 %
08.05.2018 11:03 19,0 C 18,3 C 46 % 1010,9 hPa 0,0 l/m 18,2 km/h (3 Bft) O-NO 78 1 min 0,000 mm 3,2 UV-I 775 W/m 7,1 C 15,3 C 24,1 km/h (4 Bft) 100,00 %
08.05.2018 11:04 19,1 C 18,3 C 47 % 1010,9 hPa 0,0 l/m 21,3 km/h (4 Bft) O-NO 71 1 min 0,000 mm 3,2 UV-I 777 W/m 7,5 C 14,8 C 27,4 km/h (4 Bft) 93,33 %
08.05.2018 11:05 19,1 C 18,3 C 47 % 1010,9 hPa 0,0 l/m 17,2 km/h (3 Bft) NO 34 1 min 0,000 mm 3,2 UV-I 777 W/m 7,5 C 15,6 C 22,5 km/h (4 Bft) 96,55 %
08.05.2018 11:06 19,1 C 18,3 C 48 % 1010,9 hPa 0,0 l/m 22,7 km/h (4 Bft) O 97 1 min 0,000 mm 3,3 UV-I 779 W/m 7,8 C 14,5 C 25,7 km/h (4 Bft) 100,00 %
08.05.2018 11:07 19,2 C 18,3 C 47 % 1010,9 hPa 0,0 l/m 21,0 km/h (4 Bft) O-NO 78 1 min 0,000 mm 3,3 UV-I 779 W/m 7,6 C 15,0 C 29,0 km/h (5 Bft) 100,00 %
08.05.2018 11:08 19,2 C 18,3 C 47 % 1010,9 hPa 0,0 l/m 22,0 km/h (4 Bft) O 81 1 min 0,000 mm 3,3 UV-I 780 W/m 7,6 C 14,8 C 32,2 km/h (5 Bft) 100,00 %
08.05.2018 11:09 19,2 C 18,3 C 48 % 1010,9 hPa 0,0 l/m 19,2 km/h (3 Bft) O-NO 71 1 min 0,000 mm 3,3 UV-I 782 W/m 7,9 C 15,3 C 29,0 km/h (5 Bft) 100,00 %
08.05.2018 11:10 19,2 C 18,3 C 47 % 1010,9 hPa 0,0 l/m 18,7 km/h (3 Bft) O-NO 75 1 min 0,000 mm 3,3 UV-I 780 W/m 7,6 C 15,4 C 25,7 km/h (4 Bft) 100,00 %
08.05.2018 11:11 19,3 C 18,3 C 50 % 1010,9 hPa 0,0 l/m 19,1 km/h (3 Bft) O-NO 76 1 min 0,000 mm 3,4 UV-I 784 W/m 8,6 C 15,5 C 25,7 km/h (4 Bft) 100,00 %
08.05.2018 11:12 19,3 C 18,3 C 48 % 1010,9 hPa 0,0 l/m 18,1 km/h (3 Bft) O 89 1 min 0,000 mm 3,4 UV-I 786 W/m 8,0 C 15,7 C 25,7 km/h (4 Bft) 95,65 %
08.05.2018 11:13 19,3 C 18,3 C 48 % 1010,9 hPa 0,0 l/m 23,8 km/h (4 Bft) O-NO 75 1 min 0,000 mm 3,4 UV-I 787 W/m 8,0 C 14,6 C 32,2 km/h (5 Bft) 100,00 %
08.05.2018 11:14 19,3 C 18,3 C 48 % 1010,9 hPa 0,0 l/m 24,2 km/h (4 Bft) O-NO 60 1 min 0,000 mm 3,4 UV-I 788 W/m 8,0 C 14,6 C 32,2 km/h (5 Bft) 100,00 %
08.05.2018 11:15 19,4 C 18,3 C 47 % 1010,9 hPa 0,0 l/m 22,7 km/h (4 Bft) O-NO 59 1 min 0,000 mm 3,4 UV-I 789 W/m 7,8 C 14,9 C 35,4 km/h (5 Bft) 95,83 %
08.05.2018 11:16 19,4 C 18,3 C 48 % 1010,8 hPa 0,0 l/m 20,6 km/h (4 Bft) O 82 1 min 0,000 mm 3,4 UV-I 789 W/m 8,1 C 15,3 C 25,7 km/h (4 Bft) 100,00 %
08.05.2018 11:17 19,5 C 18,3 C 49 % 1010,8 hPa 0,0 l/m 20,1 km/h (4 Bft) O-NO 69 1 min 0,000 mm 3,4 UV-I 791 W/m 8,5 C 15,5 C 27,4 km/h (4 Bft) 100,00 %
08.05.2018 11:18 19,6 C 18,3 C 49 % 1010,8 hPa 0,0 l/m 20,1 km/h (4 Bft) O-NO 74 1 min 0,000 mm 3,4 UV-I 792 W/m 8,6 C 15,7 C 29,0 km/h (5 Bft) 100,00 %
08.05.2018 11:19 19,7 C 18,3 C 48 % 1010,8 hPa 0,0 l/m 24,5 km/h (4 Bft) N-NO 26 1 min 0,000 mm 3,5 UV-I 793 W/m 8,4 C 15,1 C 37,0 km/h (5 Bft) 100,00 %
08.05.2018 11:20 19,7 C 18,3 C 45 % 1010,8 hPa 0,0 l/m 24,1 km/h (4 Bft) O-NO 71 1 min 0,000 mm 3,5 UV-I 794 W/m 7,4 C 15,1 C 29,0 km/h (5 Bft) 100,00 %
08.05.2018 11:21 19,6 C 18,3 C 45 % 1010,9 hPa 0,0 l/m 25,3 km/h (4 Bft) O-NO 70 1 min 0,000 mm 3,5 UV-I 796 W/m 7,3 C 14,8 C 33,8 km/h (5 Bft) 100,00 %
08.05.2018 11:22 19,6 C 18,3 C 45 % 1010,9 hPa 0,0 l/m 25,7 km/h (4 Bft) O-NO 63 1 min 0,000 mm 3,5 UV-I 798 W/m 7,3 C 14,7 C 29,0 km/h (5 Bft) 100,00 %
08.05.2018 11:23 19,6 C 18,3 C 45 % 1010,7 hPa 0,0 l/m 18,8 km/h (3 Bft) O-NO 59 1 min 0,000 mm 3,6 UV-I 803 W/m 7,3 C 15,9 C 24,1 km/h (4 Bft) 100,00 %
08.05.2018 11:24 19,6 C 18,3 C 46 % 1010,7 hPa 0,0 l/m 22,5 km/h (4 Bft) NO 42 1 min 0,000 mm 3,6 UV-I 803 W/m 7,7 C 15,2 C 30,6 km/h (5 Bft) 95,83 %
08.05.2018 11:25 19,7 C 18,3 C 49 % 1010,7 hPa 0,0 l/m 22,5 km/h (4 Bft) NO 49 1 min 0,000 mm 3,6 UV-I 803 W/m 8,7 C 15,4 C 29,0 km/h (5 Bft) 100,00 %
08.05.2018 11:26 19,8 C 18,3 C 47 % 1010,7 hPa 0,0 l/m 28,8 km/h (4 Bft) NO 50 1 min 0,000 mm 3,6 UV-I 804 W/m 8,2 C 14,6 C 35,4 km/h (5 Bft) 95,83 %
08.05.2018 11:27 19,8 C 18,3 C 47 % 1010,7 hPa 0,0 l/m 28,0 km/h (4 Bft) O-NO 58 1 min 0,000 mm 3,6 UV-I 807 W/m 8,2 C 14,7 C 37,0 km/h (5 Bft) 96,15 %
08.05.2018 11:28 19,9 C 18,3 C 49 % 1010,7 hPa 0,0 l/m 20,6 km/h (4 Bft) NO 51 1 min 0,000 mm 3,6 UV-I 807 W/m 8,9 C 16,0 C 27,4 km/h (4 Bft) 100,00 %
08.05.2018 11:29 19,9 C 18,3 C 45 % 1010,7 hPa 0,0 l/m 21,2 km/h (4 Bft) O-NO 65 1 min 0,000 mm 3,6 UV-I 809 W/m 7,6 C 15,9 C 30,6 km/h (5 Bft) 100,00 %
08.05.2018 11:30 20,0 C 18,3 C 48 % 1010,7 hPa 0,0 l/m 20,9 km/h (4 Bft) O-NO 75 1 min 0,000 mm 3,6 UV-I 809 W/m 8,7 C 16,0 C 27,4 km/h (4 Bft) 100,00 %
08.05.2018 11:31 20,1 C 18,3 C 47 % 1010,7 hPa 0,0 l/m 15,7 km/h (3 Bft) O 95 1 min 0,000 mm 3,7 UV-I 810 W/m 8,4 C 17,2 C 20,9 km/h (4 Bft) 100,00 %
08.05.2018 11:32 20,2 C 18,3 C 47 % 1010,7 hPa 0,0 l/m 20,0 km/h (4 Bft) O-NO 59 1 min 0,000 mm 3,7 UV-I 812 W/m 8,5 C 16,5 C 29,0 km/h (5 Bft) 100,00 %
08.05.2018 11:33 20,2 C 18,3 C 45 % 1010,7 hPa 0,0 l/m 12,7 km/h (3 Bft) O 79 1 min 0,000 mm 3,7 UV-I 812 W/m 7,9 C 18,1 C 16,1 km/h (3 Bft) 100,00 %
08.05.2018 11:34 20,3 C 18,3 C 47 % 1010,7 hPa 0,0 l/m 16,8 km/h (3 Bft) O 92 1 min 0,000 mm 3,7 UV-I 812 W/m 8,6 C 17,2 C 22,5 km/h (4 Bft) 100,00 %
08.05.2018 11:35 20,3 C 18,3 C 45 % 1010,6 hPa 0,0 l/m 19,7 km/h (3 Bft) O-SO 107 1 min 0,000 mm 3,8 UV-I 811 W/m 8,0 C 16,6 C 24,1 km/h (4 Bft) 100,00 %
08.05.2018 11:36 20,3 C 18,3 C 45 % 1010,6 hPa 0,0 l/m 18,1 km/h (3 Bft) O 92 1 min 0,000 mm 3,8 UV-I 815 W/m 8,0 C 17,0 C 22,5 km/h (4 Bft) 100,00 %
08.05.2018 11:37 20,3 C 18,3 C 45 % 1010,6 hPa 0,0 l/m 17,2 km/h (3 Bft) O-NO 65 1 min 0,000 mm 3,8 UV-I 817 W/m 8,0 C 17,1 C 20,9 km/h (4 Bft) 96,15 %
08.05.2018 11:38 20,3 C 18,3 C 46 % 1010,6 hPa 0,0 l/m 16,9 km/h (3 Bft) NO 38 1 min 0,000 mm 3,8 UV-I 817 W/m 8,3 C 17,2 C 24,1 km/h (4 Bft) 100,00 %
08.05.2018 11:39 20,4 C 18,3 C 44 % 1010,6 hPa 0,0 l/m 24,9 km/h (4 Bft) O-NO 74 1 min 0,000 mm 3,8 UV-I 817 W/m 7,7 C 15,9 C 32,2 km/h (5 Bft) 82,61 %
08.05.2018 11:40 20,4 C 18,3 C 44 % 1010,6 hPa 0,0 l/m 22,1 km/h (4 Bft) O 86 1 min 0,000 mm 3,8 UV-I 823 W/m 7,7 C 16,4 C 29,0 km/h (5 Bft) 95,83 %
08.05.2018 11:41 20,4 C 18,3 C 44 % 1010,6 hPa 0,0 l/m 25,5 km/h (4 Bft) O 86 1 min 0,000 mm 3,9 UV-I 824 W/m 7,7 C 15,9 C 38,6 km/h (5 Bft) 91,30 %
08.05.2018 11:42 20,4 C 18,3 C 43 % 1010,6 hPa 0,0 l/m 27,1 km/h (4 Bft) O-NO 69 1 min 0,000 mm 3,9 UV-I 824 W/m 7,4 C 15,6 C 35,4 km/h (5 Bft) 96,30 %
08.05.2018 11:43 20,4 C 18,3 C 43 % 1010,6 hPa 0,0 l/m 20,3 km/h (4 Bft) O-NO 65 1 min 0,000 mm 3,9 UV-I 825 W/m 7,4 C 16,7 C 27,4 km/h (4 Bft) 91,67 %
08.05.2018 11:44 20,3 C 18,3 C 42 % 1010,6 hPa 0,0 l/m 25,3 km/h (4 Bft) O-NO 67 1 min 0,000 mm 3,9 UV-I 824 W/m 7,0 C 15,7 C 30,6 km/h (5 Bft) 95,65 %
08.05.2018 11:45 20,3 C 18,3 C 43 % 1010,6 hPa 0,0 l/m 26,1 km/h (4 Bft) O-NO 69 1 min 0,000 mm 3,9 UV-I 828 W/m 7,3 C 15,6 C 35,4 km/h (5 Bft) 95,83 %
08.05.2018 11:46 20,3 C 18,3 C 42 % 1010,5 hPa 0,0 l/m 29,0 km/h (5 Bft) O 99 1 min 0,000 mm 3,9 UV-I 830 W/m 7,0 C 15,3 C 37,0 km/h (5 Bft) 93,55 %
08.05.2018 11:47 20,3 C 18,3 C 42 % 1010,5 hPa 0,0 l/m 29,8 km/h (5 Bft) O-NO 74 1 min 0,000 mm 3,9 UV-I 831 W/m 7,0 C 15,2 C 43,5 km/h (6 Bft) 100,00 %
08.05.2018 11:48 20,3 C 18,3 C 41 % 1010,5 hPa 0,0 l/m 22,0 km/h (4 Bft) O 86 1 min 0,000 mm 3,9 UV-I 831 W/m 6,6 C 16,3 C 32,2 km/h (5 Bft) 90,91 %
08.05.2018 11:49 20,3 C 18,3 C 42 % 1010,5 hPa 0,0 l/m 26,8 km/h (4 Bft) O-NO 71 1 min 0,000 mm 3,9 UV-I 832 W/m 7,0 C 15,5 C 33,8 km/h (5 Bft) 94,87 %
08.05.2018 11:50 20,3 C 18,3 C 43 % 1010,4 hPa 0,0 l/m 22,5 km/h (4 Bft) O 80 1 min 0,000 mm 3,9 UV-I 831 W/m 7,3 C 16,2 C 32,2 km/h (5 Bft) 95,65 %
08.05.2018 11:51 20,3 C 18,3 C 42 % 1010,4 hPa 0,0 l/m 29,7 km/h (5 Bft) O-NO 74 1 min 0,000 mm 3,9 UV-I 831 W/m 7,0 C 15,2 C 35,4 km/h (5 Bft) 95,83 %
08.05.2018 11:52 20,3 C 18,3 C 41 % 1010,5 hPa 0,0 l/m 26,9 km/h (4 Bft) NO 53 1 min 0,000 mm 3,9 UV-I 828 W/m 6,6 C 15,5 C 32,2 km/h (5 Bft) 81,82 %
08.05.2018 11:53 20,4 C 18,3 C 42 % 1010,4 hPa 0,0 l/m 24,5 km/h (4 Bft) O 88 1 min 0,000 mm 3,9 UV-I 831 W/m 7,1 C 16,0 C 32,2 km/h (5 Bft) 95,83 %
08.05.2018 11:54 20,4 C 18,3 C 41 % 1010,4 hPa 0,0 l/m 24,9 km/h (4 Bft) O-NO 69 1 min 0,000 mm 4,0 UV-I 835 W/m 6,7 C 15,9 C 33,8 km/h (5 Bft) 95,65 %
08.05.2018 11:55 20,4 C 18,3 C 42 % 1010,4 hPa 0,0 l/m 24,4 km/h (4 Bft) O-NO 78 1 min 0,000 mm 4,0 UV-I 835 W/m 7,1 C 16,0 C 30,6 km/h (5 Bft) 95,83 %
08.05.2018 11:56 20,4 C 18,3 C 41 % 1010,3 hPa 0,0 l/m 25,2 km/h (4 Bft) NO 36 1 min 0,000 mm 4,0 UV-I 838 W/m 6,7 C 15,9 C 30,6 km/h (5 Bft) 96,30 %
08.05.2018 11:57 20,4 C 18,3 C 40 % 1010,3 hPa 0,0 l/m 23,9 km/h (4 Bft) O-NO 78 1 min 0,000 mm 4,0 UV-I 838 W/m 6,3 C 16,1 C 33,8 km/h (5 Bft) 92,59 %
08.05.2018 11:58 20,5 C 18,3 C 40 % 1010,3 hPa 0,0 l/m 25,6 km/h (4 Bft) O 92 1 min 0,000 mm 4,0 UV-I 840 W/m 6,4 C 16,0 C 30,6 km/h (5 Bft) 95,65 %
08.05.2018 11:59 20,6 C 18,3 C 42 % 1010,3 hPa 0,0 l/m 22,5 km/h (4 Bft) O 79 1 min 0,000 mm 4,0 UV-I 838 W/m 7,2 C 16,6 C 27,4 km/h (4 Bft) 95,83 %
08.05.2018 12:00 20,6 C 18,3 C 42 % 1010,3 hPa 0,0 l/m 23,5 km/h (4 Bft) O-NO 74 1 min 0,635 mm 4,0 UV-I 839 W/m 7,2 C 16,4 C 30,6 km/h (5 Bft) 95,65 %
08.05.2018 12:01 20,7 C 18,3 C 40 % 1010,3 hPa 0,0 l/m 22,0 km/h (4 Bft) O 81 1 min 0,000 mm 4,1 UV-I 841 W/m 6,6 C 16,8 C 30,6 km/h (5 Bft) 91,67 %
08.05.2018 12:02 20,6 C 18,3 C 41 % 1010,2 hPa 0,0 l/m 17,4 km/h (3 Bft) O-NO 74 1 min 0,000 mm 4,1 UV-I 842 W/m 6,9 C 17,5 C 24,1 km/h (4 Bft) 95,65 %
08.05.2018 12:03 20,7 C 18,3 C 44 % 1010,2 hPa 0,0 l/m 19,1 km/h (3 Bft) NO 37 1 min 0,000 mm 4,1 UV-I 844 W/m 8,0 C 17,3 C 29,0 km/h (5 Bft) 96,30 %
08.05.2018 12:04 20,8 C 18,3 C 44 % 1010,2 hPa 0,0 l/m 18,6 km/h (3 Bft) O-NO 76 1 min 0,000 mm 4,1 UV-I 844 W/m 8,1 C 17,5 C 25,7 km/h (4 Bft) 93,33 %
08.05.2018 12:05 20,9 C 18,3 C 45 % 1010,1 hPa 0,0 l/m 21,9 km/h (4 Bft) O-NO 63 1 min 0,000 mm 4,1 UV-I 843 W/m 8,5 C 17,1 C 27,4 km/h (4 Bft) 96,55 %
08.05.2018 12:06 20,9 C 18,3 C 41 % 1010,2 hPa 0,0 l/m 19,4 km/h (3 Bft) O-NO 71 1 min 0,000 mm 4,1 UV-I 845 W/m 7,2 C 17,5 C 24,1 km/h (4 Bft) 95,83 %
08.05.2018 12:07 21,0 C 18,3 C 42 % 1010,1 hPa 0,0 l/m 21,1 km/h (4 Bft) O 79 1 min 0,000 mm 4,1 UV-I 846 W/m 7,6 C 17,3 C 27,4 km/h (4 Bft) 91,30 %
08.05.2018 12:08 21,1 C 18,3 C 42 % 1010,1 hPa 0,0 l/m 22,5 km/h (4 Bft) O-SO 107 1 min 0,000 mm 4,1 UV-I 846 W/m 7,7 C 17,2 C 29,0 km/h (5 Bft) 100,00 %
08.05.2018 12:09 21,1 C 18,3 C 42 % 1010,1 hPa 0,0 l/m 21,3 km/h (4 Bft) O 92 1 min 0,000 mm 4,2 UV-I 847 W/m 7,7 C 17,4 C 27,4 km/h (4 Bft) 97,37 %
08.05.2018 12:10 21,2 C 18,3 C 41 % 1010,2 hPa 0,0 l/m 19,7 km/h (3 Bft) O 88 1 min 0,000 mm 4,1 UV-I 847 W/m 7,4 C 17,8 C 25,7 km/h (4 Bft) 95,83 %
08.05.2018 12:11 21,2 C 18,3 C 39 % 1010,1 hPa 0,0 l/m 24,2 km/h (4 Bft) NO 55 1 min 0,000 mm 4,2 UV-I 848 W/m 6,7 C 17,1 C 30,6 km/h (5 Bft) 91,30 %
08.05.2018 12:12 21,1 C 18,3 C 40 % 1010,1 hPa 0,0 l/m 22,2 km/h (4 Bft) O 98 1 min 0,000 mm 4,2 UV-I 849 W/m 7,0 C 17,3 C 29,0 km/h (5 Bft) 91,67 %
08.05.2018 12:13 21,2 C 18,3 C 41 % 1010,1 hPa 0,0 l/m 20,3 km/h (4 Bft) O-SO 119 1 min 0,000 mm 4,2 UV-I 850 W/m 7,4 C 17,7 C 25,7 km/h (4 Bft) 91,30 %
08.05.2018 12:14 21,2 C 18,3 C 40 % 1010,1 hPa 0,0 l/m 17,1 km/h (3 Bft) O-SO 112 1 min 0,000 mm 4,2 UV-I 853 W/m 7,1 C 18,3 C 19,3 km/h (3 Bft) 96,43 %
08.05.2018 12:15 21,2 C 18,3 C 39 % 1010,1 hPa 0,0 l/m 24,7 km/h (4 Bft) O 92 1 min 0,000 mm 4,2 UV-I 851 W/m 6,7 C 17,0 C 33,8 km/h (5 Bft) 91,30 %
08.05.2018 12:16 21,2 C 18,3 C 37 % 1010,1 hPa 0,0 l/m 26,8 km/h (4 Bft) O 83 1 min 0,000 mm 4,2 UV-I 851 W/m 5,9 C 16,8 C 33,8 km/h (5 Bft) 95,83 %
08.05.2018 12:17 21,2 C 18,3 C 36 % 1010,1 hPa 0,0 l/m 23,1 km/h (4 Bft) O-SO 102 1 min 0,000 mm 4,2 UV-I 852 W/m 5,5 C 17,3 C 32,2 km/h (5 Bft) 91,30 %
08.05.2018 12:18 21,2 C 18,3 C 37 % 1010,1 hPa 0,0 l/m 24,1 km/h (4 Bft) O 96 1 min 0,000 mm 4,2 UV-I 852 W/m 5,9 C 17,1 C 33,8 km/h (5 Bft) 96,30 %
08.05.2018 12:19 21,2 C 18,3 C 37 % 1010,1 hPa 0,0 l/m 29,0 km/h (5 Bft) O 80 1 min 0,000 mm 4,2 UV-I 853 W/m 5,9 C 16,5 C 38,6 km/h (5 Bft) 95,65 %
08.05.2018 12:20 21,2 C 18,3 C 37 % 1010,1 hPa 0,0 l/m 24,8 km/h (4 Bft) O 92 1 min 0,000 mm 4,2 UV-I 853 W/m 5,9 C 17,0 C 35,4 km/h (5 Bft) 100,00 %
08.05.2018 12:21 21,2 C 18,3 C 38 % 1010,1 hPa 0,0 l/m 20,1 km/h (4 Bft) O-SO 106 1 min 0,000 mm 4,2 UV-I 853 W/m 6,3 C 17,7 C 30,6 km/h (5 Bft) 91,30 %
08.05.2018 12:22 21,2 C 18,3 C 39 % 1010,1 hPa 0,0 l/m 24,2 km/h (4 Bft) O 95 1 min 0,000 mm 4,2 UV-I 853 W/m 6,7 C 17,1 C 38,6 km/h (5 Bft) 95,83 %
08.05.2018 12:23 21,2 C 18,3 C 38 % 1010,1 hPa 0,0 l/m 28,0 km/h (4 Bft) NO 55 1 min 0,000 mm 4,2 UV-I 854 W/m 6,3 C 16,6 C 37,0 km/h (5 Bft) 95,65 %
08.05.2018 12:24 21,1 C 18,3 C 38 % 1010,0 hPa 0,0 l/m 27,0 km/h (4 Bft) O-NO 78 1 min 0,000 mm 4,3 UV-I 853 W/m 6,2 C 16,6 C 33,8 km/h (5 Bft) 100,00 %
08.05.2018 12:25 21,1 C 18,3 C 38 % 1010,0 hPa 0,0 l/m 21,6 km/h (4 Bft) O 84 1 min 0,000 mm 4,3 UV-I 853 W/m 6,2 C 17,4 C 27,4 km/h (4 Bft) 95,83 %
08.05.2018 12:26 21,1 C 18,3 C 40 % 1010,0 hPa 0,0 l/m 21,6 km/h (4 Bft) O 92 1 min 0,000 mm 4,3 UV-I 853 W/m 7,0 C 17,4 C 29,0 km/h (5 Bft) 100,00 %
08.05.2018 12:27 21,1 C 18,3 C 39 % 1010,0 hPa 0,0 l/m 20,6 km/h (4 Bft) O 95 1 min 0,000 mm 4,3 UV-I 853 W/m 6,6 C 17,5 C 27,4 km/h (4 Bft) 96,43 %
08.05.2018 12:28 21,2 C 18,3 C 39 % 1010,0 hPa 0,0 l/m 20,0 km/h (4 Bft) NO 56 1 min 0,000 mm 4,3 UV-I 853 W/m 6,7 C 17,8 C 29,0 km/h (5 Bft) 100,00 %
08.05.2018 12:29 21,1 C 18,3 C 39 % 1010,0 hPa 0,0 l/m 18,2 km/h (3 Bft) O 84 1 min 0,000 mm 4,3 UV-I 853 W/m 6,6 C 17,9 C 25,7 km/h (4 Bft) 95,83 %
08.05.2018 12:30 21,2 C 18,3 C 40 % 1009,9 hPa 0,0 l/m 17,1 km/h (3 Bft) O 100 1 min 0,000 mm 4,3 UV-I 853 W/m 7,1 C 18,3 C 24,1 km/h (4 Bft) 92,31 %
08.05.2018 12:31 21,2 C 18,3 C 40 % 1009,8 hPa 0,0 l/m 23,6 km/h (4 Bft) O 101 1 min 0,000 mm 4,3 UV-I 851 W/m 7,1 C 17,2 C 32,2 km/h (5 Bft) 100,00 %
08.05.2018 12:32 21,3 C 18,3 C 41 % 1009,9 hPa 0,0 l/m 21,5 km/h (4 Bft) O-SO 103 1 min 0,000 mm 4,3 UV-I 851 W/m 7,5 C 17,6 C 32,2 km/h (5 Bft) 96,15 %
08.05.2018 12:33 21,3 C 18,3 C 39 % 1009,9 hPa 0,0 l/m 30,2 km/h (5 Bft) O-NO 76 1 min 0,000 mm 4,3 UV-I 853 W/m 6,8 C 16,5 C 35,4 km/h (5 Bft) 100,00 %
08.05.2018 12:34 21,4 C 18,3 C 39 % 1009,9 hPa 0,0 l/m 27,9 km/h (4 Bft) O-NO 71 1 min 0,000 mm 4,3 UV-I 853 W/m 6,9 C 16,9 C 33,8 km/h (5 Bft) 94,12 %
08.05.2018 12:35 21,4 C 18,3 C 40 % 1009,9 hPa 0,0 l/m 23,5 km/h (4 Bft) O-NO 68 1 min 0,000 mm 4,3 UV-I 854 W/m 7,2 C 17,5 C 30,6 km/h (5 Bft) 95,83 %
08.05.2018 12:36 21,4 C 18,3 C 38 % 1009,9 hPa 0,0 l/m 22,9 km/h (4 Bft) O 96 1 min 0,000 mm 4,3 UV-I 854 W/m 6,5 C 17,6 C 30,6 km/h (5 Bft) 95,65 %
08.05.2018 12:37 21,3 C 18,3 C 38 % 1009,9 hPa 0,0 l/m 18,3 km/h (3 Bft) NO 38 1 min 0,000 mm 4,3 UV-I 854 W/m 6,4 C 18,2 C 25,7 km/h (4 Bft) 100,00 %
08.05.2018 12:38 21,3 C 18,3 C 41 % 1009,8 hPa 0,0 l/m 17,5 km/h (3 Bft) O-NO 57 1 min 0,000 mm 4,3 UV-I 853 W/m 7,5 C 18,3 C 25,7 km/h (4 Bft) 95,65 %
08.05.2018 12:39 21,3 C 18,3 C 41 % 1009,8 hPa 0,0 l/m 16,6 km/h (3 Bft) O 94 1 min 0,000 mm 4,3 UV-I 854 W/m 7,5 C 18,5 C 24,1 km/h (4 Bft) 100,00 %
08.05.2018 12:40 21,4 C 18,3 C 40 % 1009,8 hPa 0,0 l/m 17,2 km/h (3 Bft) O-NO 61 1 min 0,000 mm 4,3 UV-I 856 W/m 7,2 C 18,5 C 24,1 km/h (4 Bft) 91,30 %
08.05.2018 12:41 21,4 C 18,3 C 41 % 1009,8 hPa 0,0 l/m 16,8 km/h (3 Bft) O-NO 69 1 min 0,000 mm 4,3 UV-I 855 W/m 7,6 C 18,6 C 22,5 km/h (4 Bft) 95,83 %
08.05.2018 12:42 21,5 C 18,3 C 42 % 1009,7 hPa 0,0 l/m 20,1 km/h (4 Bft) O-NO 69 1 min 0,000 mm 4,3 UV-I 853 W/m 8,0 C 18,1 C 25,7 km/h (4 Bft) 95,65 %
08.05.2018 12:43 21,6 C 18,3 C 39 % 1009,8 hPa 0,0 l/m 29,9 km/h (5 Bft) O 80 1 min 0,000 mm 4,3 UV-I 854 W/m 7,0 C 17,0 C 35,4 km/h (5 Bft) 95,83 %
08.05.2018 12:44 21,6 C 18,3 C 38 % 1009,8 hPa 0,0 l/m 26,3 km/h (4 Bft) O-NO 72 1 min 0,000 mm 4,3 UV-I 854 W/m 6,7 C 17,4 C 33,8 km/h (5 Bft) 100,00 %
08.05.2018 12:45 21,5 C 18,3 C 40 % 1009,8 hPa 0,0 l/m 20,7 km/h (4 Bft) O-NO 57 1 min 0,000 mm 4,3 UV-I 853 W/m 7,3 C 18,0 C 32,2 km/h (5 Bft) 86,96 %
08.05.2018 12:46 21,5 C 18,3 C 42 % 1009,7 hPa 0,0 l/m 22,0 km/h (4 Bft) O-NO 63 1 min 0,000 mm 4,3 UV-I 853 W/m 8,0 C 17,8 C 33,8 km/h (5 Bft) 100,00 %
08.05.2018 12:47 21,5 C 18,3 C 43 % 1009,7 hPa 0,0 l/m 28,8 km/h (4 Bft) NO 46 1 min 0,000 mm 4,3 UV-I 854 W/m 8,4 C 17,0 C 35,4 km/h (5 Bft) 91,30 %
08.05.2018 12:48 21,6 C 18,3 C 43 % 1009,7 hPa 0,0 l/m 19,5 km/h (3 Bft) O-NO 57 1 min 0,000 mm 4,3 UV-I 854 W/m 8,5 C 18,4 C 24,1 km/h (4 Bft) 100,00 %
08.05.2018 12:49 21,6 C 18,3 C 44 % 1009,7 hPa 0,0 l/m 22,6 km/h (4 Bft) NO 49 1 min 0,000 mm 4,3 UV-I 854 W/m 8,8 C 17,9 C 29,0 km/h (5 Bft) 96,15 %
08.05.2018 12:50 21,7 C 18,3 C 40 % 1009,7 hPa 0,0 l/m 22,6 km/h (4 Bft) O-NO 69 1 min 0,000 mm 4,3 UV-I 851 W/m 7,5 C 18,0 C 32,2 km/h (5 Bft) 95,83 %
08.05.2018 12:51 21,7 C 18,3 C 40 % 1009,8 hPa 0,0 l/m 22,7 km/h (4 Bft) O 91 1 min 0,000 mm 4,3 UV-I 850 W/m 7,5 C 18,0 C 29,0 km/h (5 Bft) 95,65 %
08.05.2018 12:52 21,6 C 18,9 C 39 % 1009,8 hPa 0,0 l/m 23,8 km/h (4 Bft) O-NO 72 1 min 0,000 mm 4,3 UV-I 853 W/m 7,0 C 17,7 C 33,8 km/h (5 Bft) 95,83 %
08.05.2018 12:53 21,6 C 18,9 C 39 % 1009,7 hPa 0,0 l/m 20,7 km/h (4 Bft) O-NO 67 1 min 0,000 mm 4,3 UV-I 852 W/m 7,0 C 18,2 C 30,6 km/h (5 Bft) 100,00 %
08.05.2018 12:54 21,5 C 18,9 C 41 % 1009,8 hPa 0,0 l/m 15,8 km/h (3 Bft) N-NO 26 1 min 0,000 mm 4,3 UV-I 852 W/m 7,7 C 18,9 C 19,3 km/h (3 Bft) 91,67 %
08.05.2018 12:55 21,5 C 18,9 C 44 % 1009,7 hPa 0,0 l/m 15,9 km/h (3 Bft) NO 55 1 min 0,000 mm 4,3 UV-I 857 W/m 8,7 C 18,9 C 27,4 km/h (4 Bft) 100,00 %
08.05.2018 12:56 21,6 C 18,3 C 44 % 1009,7 hPa 0,0 l/m 19,2 km/h (3 Bft) O-NO 72 1 min 0,000 mm 4,3 UV-I 850 W/m 8,8 C 18,4 C 25,7 km/h (4 Bft) 95,83 %
08.05.2018 12:57 21,6 C 18,9 C 40 % 1009,7 hPa 0,0 l/m 13,9 km/h (3 Bft) N-NO 32 1 min 0,000 mm 4,3 UV-I 853 W/m 7,4 C 19,4 C 17,7 km/h (3 Bft) 100,00 %
08.05.2018 12:58 21,6 C 18,9 C 45 % 1009,5 hPa 0,0 l/m 20,4 km/h (4 Bft) N-NO 28 1 min 0,000 mm 4,3 UV-I 854 W/m 9,2 C 18,2 C 25,7 km/h (4 Bft) 92,31 %
08.05.2018 12:59 21,5 C 18,9 C 43 % 1009,5 hPa 0,0 l/m 16,1 km/h (3 Bft) N-NO 30 1 min 0,000 mm 4,3 UV-I 854 W/m 8,4 C 18,8 C 20,9 km/h (4 Bft) 100,00 %
08.05.2018 13:00 21,6 C 18,9 C 43 % 1009,6 hPa 0,0 l/m 22,2 km/h (4 Bft) NO 50 1 min 0,000 mm 4,4 UV-I 853 W/m 8,5 C 17,9 C 27,4 km/h (4 Bft) 96,55 %
08.05.2018 13:01 21,6 C 18,9 C 43 % 1009,4 hPa 0,0 l/m 18,9 km/h (3 Bft) O-SO 109 1 min 0,685 mm 4,3 UV-I 854 W/m 8,5 C 18,5 C 25,7 km/h (4 Bft) 100,00 %
08.05.2018 13:02 21,7 C 18,9 C 43 % 1009,5 hPa 0,0 l/m 17,4 km/h (3 Bft) O 92 1 min 0,000 mm 4,3 UV-I 854 W/m 8,6 C 18,8 C 24,1 km/h (4 Bft) 100,00 %
08.05.2018 13:03 21,7 C 18,9 C 41 % 1009,5 hPa 0,0 l/m 19,8 km/h (3 Bft) O 96 1 min 0,000 mm 4,3 UV-I 855 W/m 7,9 C 18,4 C 25,7 km/h (4 Bft) 97,46 %
08.05.2018 13:04 21,7 C 18,9 C 41 % 1009,5 hPa 0,0 l/m 17,1 km/h (3 Bft) O 90 1 min 0,000 mm 4,4 UV-I 855 W/m 7,9 C 18,9 C 24,1 km/h (4 Bft) 100,00 %
08.05.2018 13:05 21,8 C 18,9 C 41 % 1009,5 hPa 0,0 l/m 18,8 km/h (3 Bft) O 98 1 min 0,000 mm 4,3 UV-I 853 W/m 8,0 C 18,7 C 22,5 km/h (4 Bft) 95,83 %
08.05.2018 13:06 21,8 C 18,9 C 40 % 1009,5 hPa 0,0 l/m 14,4 km/h (3 Bft) O 92 1 min 0,000 mm 4,3 UV-I 853 W/m 7,6 C 19,6 C 19,3 km/h (3 Bft) 100,00 %
08.05.2018 13:07 21,7 C 18,9 C 41 % 1009,5 hPa 0,0 l/m 10,6 km/h (2 Bft) O 88 1 min 0,000 mm 4,3 UV-I 853 W/m 7,9 C 20,4 C 17,7 km/h (3 Bft) 100,00 %
08.05.2018 13:08 21,7 C 18,9 C 42 % 1009,5 hPa 0,0 l/m 17,4 km/h (3 Bft) O 83 1 min 0,000 mm 4,3 UV-I 853 W/m 8,2 C 18,8 C 24,1 km/h (4 Bft) 100,00 %
08.05.2018 13:09 21,7 C 18,9 C 41 % 1009,4 hPa 0,0 l/m 23,7 km/h (4 Bft) O 88 1 min 0,000 mm 4,3 UV-I 850 W/m 7,9 C 17,9 C 30,6 km/h (5 Bft) 100,00 %
08.05.2018 13:10 21,7 C 18,9 C 40 % 1009,4 hPa 0,0 l/m 22,3 km/h (4 Bft) O 79 1 min 0,000 mm 4,3 UV-I 849 W/m 7,5 C 18,1 C 29,0 km/h (5 Bft) 91,30 %
08.05.2018 13:11 21,7 C 18,9 C 40 % 1009,4 hPa 0,0 l/m 23,2 km/h (4 Bft) O 95 1 min 0,000 mm 4,3 UV-I 850 W/m 7,5 C 17,9 C 27,4 km/h (4 Bft) 100,00 %
08.05.2018 13:12 21,6 C 18,9 C 40 % 1009,5 hPa 0,0 l/m 16,3 km/h (3 Bft) O-SO 117 1 min 0,000 mm 4,3 UV-I 851 W/m 7,4 C 18,9 C 22,5 km/h (4 Bft) 95,65 %
08.05.2018 13:13 21,6 C 18,9 C 41 % 1009,4 hPa 0,0 l/m 18,6 km/h (3 Bft) O 79 1 min 0,000 mm 4,3 UV-I 853 W/m 7,8 C 18,5 C 24,1 km/h (4 Bft) 100,00 %
08.05.2018 13:14 21,6 C 18,9 C 41 % 1009,4 hPa 0,0 l/m 23,3 km/h (4 Bft) O 80 1 min 0,000 mm 4,3 UV-I 852 W/m 7,8 C 17,8 C 29,0 km/h (5 Bft) 95,65 %
08.05.2018 13:15 21,6 C 18,9 C 41 % 1009,5 hPa 0,0 l/m 19,7 km/h (3 Bft) NO 41 1 min 0,000 mm 4,3 UV-I 849 W/m 7,8 C 18,3 C 30,6 km/h (5 Bft) 100,00 %
08.05.2018 13:16 21,6 C 18,9 C 44 % 1009,4 hPa 0,0 l/m 16,9 km/h (3 Bft) O-NO 67 1 min 0,000 mm 4,3 UV-I 848 W/m 8,8 C 18,8 C 24,1 km/h (4 Bft) 100,00 %
08.05.2018 13:17 21,7 C 18,9 C 41 % 1009,4 hPa 0,0 l/m 13,5 km/h (3 Bft) O 96 1 min 0,000 mm 4,3 UV-I 846 W/m 7,9 C 19,6 C 20,9 km/h (4 Bft) 100,00 %
08.05.2018 13:18 21,7 C 18,9 C 41 % 1009,3 hPa 0,0 l/m 7,1 km/h (2 Bft) O-NO 70 1 min 0,000 mm 4,3 UV-I 847 W/m 7,9 C 21,5 C 11,3 km/h (2 Bft) 91,30 %
08.05.2018 13:19 21,7 C 18,9 C 43 % 1009,3 hPa 0,0 l/m 12,9 km/h (3 Bft) O-NO 64 1 min 0,000 mm 4,3 UV-I 845 W/m 8,6 C 19,8 C 19,3 km/h (3 Bft) 100,00 %
08.05.2018 13:20 21,8 C 18,9 C 42 % 1009,3 hPa 0,0 l/m 14,8 km/h (3 Bft) O-NO 78 1 min 0,000 mm 4,3 UV-I 849 W/m 8,3 C 19,5 C 22,5 km/h (4 Bft) 100,00 %
08.05.2018 13:21 21,8 C 18,9 C 42 % 1009,3 hPa 0,0 l/m 20,7 km/h (4 Bft) O-NO 66 1 min 0,000 mm 4,3 UV-I 848 W/m 8,3 C 18,4 C 25,7 km/h (4 Bft) 100,00 %
08.05.2018 13:22 21,8 C 18,9 C 43 % 1009,2 hPa 0,0 l/m 19,1 km/h (3 Bft) NO 49 1 min 0,000 mm 4,3 UV-I 846 W/m 8,7 C 18,7 C 27,4 km/h (4 Bft) 100,00 %
08.05.2018 13:23 21,8 C 18,9 C 43 % 1009,2 hPa 0,0 l/m 14,6 km/h (3 Bft) N-NO 30 1 min 0,000 mm 4,3 UV-I 846 W/m 8,7 C 19,5 C 19,3 km/h (3 Bft) 100,00 %
08.05.2018 13:24 21,8 C 18,9 C 47 % 1009,2 hPa 0,0 l/m 19,4 km/h (3 Bft) O-NO 62 1 min 0,000 mm 4,3 UV-I 844 W/m 10,0 C 18,6 C 24,1 km/h (4 Bft) 100,00 %
08.05.2018 13:25 21,9 C 18,9 C 45 % 1009,2 hPa 0,0 l/m 14,2 km/h (3 Bft) O-NO 73 1 min 0,000 mm 4,3 UV-I 847 W/m 9,4 C 19,7 C 20,9 km/h (4 Bft) 100,00 %
08.05.2018 13:26 21,9 C 18,9 C 43 % 1009,1 hPa 0,0 l/m 20,0 km/h (4 Bft) O-NO 78 1 min 0,000 mm 4,3 UV-I 848 W/m 8,7 C 18,7 C 30,6 km/h (5 Bft) 95,83 %
08.05.2018 13:27 21,9 C 18,9 C 41 % 1009,2 hPa 0,0 l/m 24,1 km/h (4 Bft) O 100 1 min 0,000 mm 4,3 UV-I 846 W/m 8,0 C 18,1 C 35,4 km/h (5 Bft) 100,00 %
08.05.2018 13:28 21,9 C 18,9 C 40 % 1009,2 hPa 0,0 l/m 17,5 km/h (3 Bft) O 84 1 min 0,000 mm 4,3 UV-I 847 W/m 7,7 C 19,1 C 24,1 km/h (4 Bft) 95,83 %
08.05.2018 13:29 21,9 C 18,9 C 41 % 1009,2 hPa 0,0 l/m 19,1 km/h (3 Bft) O 86 1 min 0,000 mm 4,3 UV-I 848 W/m 8,0 C 18,8 C 25,7 km/h (4 Bft) 95,65 %
08.05.2018 13:30 21,8 C 18,9 C 41 % 1009,2 hPa 0,0 l/m 17,5 km/h (3 Bft) O 97 1 min 0,000 mm 4,3 UV-I 849 W/m 8,0 C 19,0 C 24,1 km/h (4 Bft) 91,67 %
08.05.2018 13:31 21,9 C 18,9 C 43 % 1009,1 hPa 0,0 l/m 14,8 km/h (3 Bft) SO 139 1 min 0,000 mm 4,3 UV-I 847 W/m 8,7 C 19,6 C 20,9 km/h (4 Bft) 100,00 %
08.05.2018 13:32 21,9 C 18,9 C 44 % 1009,1 hPa 0,0 l/m 9,8 km/h (2 Bft) O-SO 103 1 min 0,000 mm 4,2 UV-I 845 W/m 9,1 C 20,8 C 19,3 km/h (3 Bft) 96,30 %
08.05.2018 13:33 22,0 C 18,9 C 43 % 1009,1 hPa 0,0 l/m 18,6 km/h (3 Bft) O 99 1 min 0,000 mm 4,3 UV-I 843 W/m 8,8 C 19,0 C 25,7 km/h (4 Bft) 100,00 %
08.05.2018 13:34 22,1 C 18,9 C 42 % 1009,1 hPa 0,0 l/m 20,3 km/h (4 Bft) O 101 1 min 0,000 mm 4,3 UV-I 845 W/m 8,6 C 18,9 C 30,6 km/h (5 Bft) 95,83 %
08.05.2018 13:35 22,2 C 18,9 C 41 % 1009,1 hPa 0,0 l/m 24,5 km/h (4 Bft) O 92 1 min 0,000 mm 4,3 UV-I 848 W/m 8,3 C 18,4 C 29,0 km/h (5 Bft) 96,15 %
08.05.2018 13:36 22,1 C 18,9 C 41 % 1009,0 hPa 0,0 l/m 22,3 km/h (4 Bft) O 86 1 min 0,000 mm 4,3 UV-I 854 W/m 8,2 C 18,6 C 30,6 km/h (5 Bft) 100,00 %
08.05.2018 13:37 22,1 C 18,9 C 42 % 1009,1 hPa 0,0 l/m 18,4 km/h (3 Bft) NO 54 1 min 0,000 mm 4,3 UV-I 861 W/m 8,6 C 19,2 C 24,1 km/h (4 Bft) 95,65 %
08.05.2018 13:38 22,1 C 18,9 C 45 % 1009,1 hPa 0,0 l/m 19,2 km/h (3 Bft) NO 51 1 min 0,000 mm 4,2 UV-I 864 W/m 9,6 C 19,0 C 27,4 km/h (4 Bft) 100,00 %
08.05.2018 13:39 22,2 C 18,9 C 46 % 1009,1 hPa 0,0 l/m 23,8 km/h (4 Bft) N-NO 26 1 min 0,000 mm 4,3 UV-I 872 W/m 10,0 C 18,5 C 30,6 km/h (5 Bft) 95,65 %
08.05.2018 13:40 22,2 C 18,9 C 47 % 1009,0 hPa 0,0 l/m 23,1 km/h (4 Bft) N-NO 24 1 min 0,000 mm 4,2 UV-I 866 W/m 10,3 C 18,6 C 30,6 km/h (5 Bft) 100,00 %
08.05.2018 13:41 22,2 C 18,9 C 45 % 1009,0 hPa 0,0 l/m 18,5 km/h (3 Bft) O-NO 63 1 min 0,000 mm 4,2 UV-I 852 W/m 9,7 C 19,3 C 24,1 km/h (4 Bft) 94,29 %
08.05.2018 13:42 22,1 C 18,9 C 43 % 1009,0 hPa 0,0 l/m 21,1 km/h (4 Bft) NO 52 1 min 0,000 mm 4,2 UV-I 846 W/m 8,9 C 18,8 C 33,8 km/h (5 Bft) 100,00 %
08.05.2018 13:43 22,0 C 18,9 C 44 % 1008,9 hPa 0,0 l/m 22,6 km/h (4 Bft) NO 40 1 min 0,000 mm 4,2 UV-I 839 W/m 9,2 C 18,4 C 30,6 km/h (5 Bft) 95,83 %
08.05.2018 13:44 22,0 C 18,9 C 48 % 1008,9 hPa 0,0 l/m 20,9 km/h (4 Bft) O-NO 62 1 min 0,000 mm 4,2 UV-I 844 W/m 10,5 C 18,7 C 29,0 km/h (5 Bft) 91,30 %
08.05.2018 13:45 22,0 C 18,9 C 45 % 1008,9 hPa 0,0 l/m 16,6 km/h (3 Bft) NO 46 1 min 0,000 mm 4,2 UV-I 852 W/m 9,5 C 19,4 C 20,9 km/h (4 Bft) 100,00 %
08.05.2018 13:46 22,0 C 18,9 C 45 % 1008,9 hPa 0,0 l/m 20,7 km/h (4 Bft) O-NO 59 1 min 0,000 mm 4,3 UV-I 856 W/m 9,5 C 18,7 C 24,1 km/h (4 Bft) 95,65 %
08.05.2018 13:47 21,9 C 18,9 C 45 % 1008,9 hPa 0,0 l/m 23,5 km/h (4 Bft) NO 46 1 min 0,000 mm 4,2 UV-I 855 W/m 9,4 C 18,2 C 30,6 km/h (5 Bft) 100,00 %
08.05.2018 13:48 21,9 C 18,9 C 45 % 1008,9 hPa 0,0 l/m 18,8 km/h (3 Bft) O-SO 103 1 min 0,000 mm 4,2 UV-I 854 W/m 9,4 C 18,9 C 24,1 km/h (4 Bft) 95,65 %
08.05.2018 13:49 22,0 C 18,9 C 43 % 1008,8 hPa 0,0 l/m 15,5 km/h (3 Bft) O-NO 58 1 min 0,000 mm 4,1 UV-I 856 W/m 8,8 C 19,6 C 25,7 km/h (4 Bft) 100,00 %
08.05.2018 13:50 22,1 C 18,9 C 45 % 1008,8 hPa 0,0 l/m 15,0 km/h (3 Bft) O-NO 59 1 min 0,000 mm 4,2 UV-I 854 W/m 9,6 C 19,8 C 19,3 km/h (3 Bft) 96,15 %
08.05.2018 13:51 22,1 C 18,9 C 47 % 1008,8 hPa 0,0 l/m 15,5 km/h (3 Bft) NO 36 1 min 0,000 mm 4,0 UV-I 851 W/m 10,3 C 19,7 C 19,3 km/h (3 Bft) 95,83 %
08.05.2018 13:52 22,1 C 18,9 C 46 % 1008,8 hPa 0,0 l/m 13,6 km/h (3 Bft) NO 55 1 min 0,000 mm 4,1 UV-I 854 W/m 9,9 C 20,1 C 17,7 km/h (3 Bft) 100,00 %
08.05.2018 13:53 22,1 C 18,9 C 48 % 1008,8 hPa 0,0 l/m 22,9 km/h (4 Bft) NO 46 1 min 0,000 mm 4,1 UV-I 838 W/m 10,6 C 18,5 C 29,0 km/h (5 Bft) 95,83 %
08.05.2018 13:54 22,1 C 18,9 C 47 % 1008,7 hPa 0,0 l/m 20,6 km/h (4 Bft) NO 53 1 min 0,000 mm 4,1 UV-I 834 W/m 10,3 C 18,8 C 25,7 km/h (4 Bft) 100,00 %
08.05.2018 13:55 22,1 C 18,9 C 46 % 1008,8 hPa 0,0 l/m 21,8 km/h (4 Bft) NO 38 1 min 0,000 mm 4,2 UV-I 845 W/m 9,9 C 18,7 C 25,7 km/h (4 Bft) 95,83 %
08.05.2018 13:56 22,1 C 18,9 C 48 % 1008,7 hPa 0,0 l/m 19,4 km/h (3 Bft) N-NO 22 1 min 0,000 mm 4,2 UV-I 848 W/m 10,6 C 19,0 C 24,1 km/h (4 Bft) 100,00 %
08.05.2018 13:57 22,2 C 18,9 C 47 % 1008,7 hPa 0,0 l/m 18,4 km/h (3 Bft) O-NO 61 1 min 0,000 mm 3,8 UV-I 847 W/m 10,3 C 19,3 C 22,5 km/h (4 Bft) 95,83 %
08.05.2018 13:58 22,2 C 18,9 C 47 % 1008,7 hPa 0,0 l/m 13,9 km/h (3 Bft) O-NO 61 1 min 0,000 mm 3,8 UV-I 847 W/m 10,3 C 20,1 C 19,3 km/h (3 Bft) 95,83 %
08.05.2018 13:59 22,3 C 18,9 C 46 % 1008,8 hPa 0,0 l/m 10,1 km/h (2 Bft) NO 51 1 min 0,000 mm 4,1 UV-I 846 W/m 10,1 C 21,2 C 16,1 km/h (3 Bft) 96,15 %
08.05.2018 14:00 22,4 C 18,9 C 47 % 1008,7 hPa 0,0 l/m 12,9 km/h (3 Bft) O 89 1 min 0,000 mm 4,1 UV-I 848 W/m 10,5 C 20,6 C 24,1 km/h (4 Bft) 100,00 %
08.05.2018 14:01 22,4 C 18,9 C 42 % 1008,7 hPa 0,0 l/m 19,5 km/h (3 Bft) O 84 1 min 0,661 mm 3,9 UV-I 854 W/m 8,9 C 19,4 C 22,5 km/h (4 Bft) 93,33 %
08.05.2018 14:02 22,3 C 18,9 C 43 % 1008,7 hPa 0,0 l/m 14,9 km/h (3 Bft) O-NO 69 1 min 0,000 mm 2,8 UV-I 854 W/m 9,1 C 20,1 C 22,5 km/h (4 Bft) 100,00 %
08.05.2018 14:03 22,3 C 18,9 C 46 % 1008,7 hPa 0,0 l/m 18,0 km/h (3 Bft) NO 49 1 min 0,000 mm 4,1 UV-I 841 W/m 10,1 C 19,5 C 22,5 km/h (4 Bft) 100,00 %
08.05.2018 14:04 22,3 C 18,9 C 44 % 1008,7 hPa 0,0 l/m 24,3 km/h (4 Bft) O 86 1 min 0,000 mm 4,0 UV-I 837 W/m 9,5 C 18,6 C 30,6 km/h (5 Bft) 100,00 %
08.05.2018 14:05 22,3 C 18,9 C 43 % 1008,7 hPa 0,0 l/m 24,1 km/h (4 Bft) O-NO 57 1 min 0,000 mm 4,0 UV-I 840 W/m 9,1 C 18,6 C 30,6 km/h (5 Bft) 100,00 %
08.05.2018 14:06 22,2 C 18,9 C 45 % 1008,6 hPa 0,0 l/m 20,1 km/h (4 Bft) O-NO 78 1 min 0,000 mm 4,1 UV-I 839 W/m 9,7 C 19,0 C 27,4 km/h (4 Bft) 100,00 %
08.05.2018 14:07 22,1 C 18,9 C 44 % 1008,6 hPa 0,0 l/m 19,5 km/h (3 Bft) O-NO 76 1 min 0,000 mm 4,1 UV-I 831 W/m 9,3 C 19,0 C 25,7 km/h (4 Bft) 100,00 %
08.05.2018 14:08 22,1 C 18,9 C 42 % 1008,6 hPa 0,0 l/m 13,5 km/h (3 Bft) O-NO 78 1 min 0,000 mm 4,0 UV-I 821 W/m 8,6 C 20,1 C 19,3 km/h (3 Bft) 96,30 %
08.05.2018 14:09 22,2 C 18,9 C 43 % 1008,6 hPa 0,0 l/m 17,0 km/h (3 Bft) NO 53 1 min 0,000 mm 4,0 UV-I 817 W/m 9,0 C 19,5 C 22,5 km/h (4 Bft) 95,65 %
08.05.2018 14:10 22,2 C 18,9 C 45 % 1008,6 hPa 0,0 l/m 12,4 km/h (3 Bft) N-NO 32 1 min 0,000 mm 4,0 UV-I 823 W/m 9,7 C 20,5 C 17,7 km/h (3 Bft) 100,00 %
08.05.2018 14:11 22,2 C 18,9 C 43 % 1008,6 hPa 0,0 l/m 15,9 km/h (3 Bft) O-NO 71 1 min 0,000 mm 4,0 UV-I 824 W/m 9,0 C 19,7 C 22,5 km/h (4 Bft) 100,00 %
08.05.2018 14:12 22,2 C 18,9 C 43 % 1008,6 hPa 0,0 l/m 14,0 km/h (3 Bft) NO 47 1 min 0,000 mm 4,0 UV-I 823 W/m 9,0 C 20,1 C 17,7 km/h (3 Bft) 100,00 %
08.05.2018 14:13 22,2 C 18,9 C 43 % 1008,6 hPa 0,0 l/m 13,3 km/h (3 Bft) O-NO 61 1 min 0,000 mm 4,0 UV-I 820 W/m 9,0 C 20,3 C 20,9 km/h (4 Bft) 100,00 %
08.05.2018 14:14 22,3 C 18,9 C 43 % 1008,5 hPa 0,0 l/m 17,2 km/h (3 Bft) NO 56 1 min 0,000 mm 4,0 UV-I 828 W/m 9,1 C 19,6 C 29,0 km/h (5 Bft) 100,00 %
08.05.2018 14:15 22,3 C 18,9 C 45 % 1008,5 hPa 0,0 l/m 17,8 km/h (3 Bft) NO 51 1 min 0,000 mm 3,9 UV-I 840 W/m 9,8 C 19,5 C 27,4 km/h (4 Bft) 95,65 %
08.05.2018 14:16 22,3 C 18,9 C 44 % 1008,6 hPa 0,0 l/m 12,6 km/h (3 Bft) O-NO 60 1 min 0,000 mm 2,6 UV-I 846 W/m 9,5 C 20,5 C 16,1 km/h (3 Bft) 100,00 %
08.05.2018 14:17 22,4 C 18,9 C 44 % 1008,5 hPa 0,0 l/m 11,3 km/h (2 Bft) O-SO 104 1 min 0,000 mm 3,5 UV-I 845 W/m 9,5 C 21,0 C 19,3 km/h (3 Bft) 100,00 %
08.05.2018 14:18 22,4 C 18,9 C 44 % 1008,5 hPa 0,0 l/m 6,1 km/h (2 Bft) O-NO 71 1 min 0,000 mm 3,9 UV-I 817 W/m 9,5 C 22,4 C 9,7 km/h (2 Bft) 100,00 %
08.05.2018 14:19 22,5 C 18,9 C 44 % 1008,5 hPa 0,0 l/m 16,8 km/h (3 Bft) O 82 1 min 0,000 mm 3,9 UV-I 810 W/m 9,6 C 19,9 C 25,7 km/h (4 Bft) 95,65 %
08.05.2018 14:20 22,6 C 18,9 C 45 % 1008,5 hPa 0,0 l/m 19,5 km/h (3 Bft) O-NO 69 1 min 0,000 mm 3,9 UV-I 813 W/m 10,1 C 19,6 C 25,7 km/h (4 Bft) 100,00 %
08.05.2018 14:21 22,6 C 18,9 C 42 % 1008,5 hPa 0,0 l/m 14,6 km/h (3 Bft) NO 54 1 min 0,000 mm 3,9 UV-I 812 W/m 9,0 C 20,5 C 22,5 km/h (4 Bft) 95,83 %
08.05.2018 14:22 22,6 C 18,9 C 43 % 1008,5 hPa 0,0 l/m 15,8 km/h (3 Bft) O-NO 59 1 min 0,000 mm 3,9 UV-I 813 W/m 9,4 C 20,3 C 25,7 km/h (4 Bft) 100,00 %
08.05.2018 14:23 22,6 C 18,9 C 44 % 1008,4 hPa 0,0 l/m 22,5 km/h (4 Bft) O-SO 104 1 min 0,000 mm 3,8 UV-I 809 W/m 9,7 C 19,2 C 30,6 km/h (5 Bft) 100,00 %
08.05.2018 14:24 22,6 C 18,9 C 43 % 1008,5 hPa 0,0 l/m 19,9 km/h (4 Bft) O-SO 105 1 min 0,000 mm 3,9 UV-I 821 W/m 9,4 C 19,6 C 27,4 km/h (4 Bft) 100,00 %
08.05.2018 14:25 22,6 C 18,9 C 43 % 1008,4 hPa 0,0 l/m 11,0 km/h (2 Bft) O 97 1 min 0,000 mm 4,0 UV-I 833 W/m 9,4 C 21,3 C 14,5 km/h (3 Bft) 100,00 %
08.05.2018 14:26 22,7 C 18,9 C 43 % 1008,4 hPa 0,0 l/m 13,6 km/h (3 Bft) O 86 1 min 0,000 mm 4,0 UV-I 837 W/m 9,5 C 20,8 C 20,9 km/h (4 Bft) 100,00 %
08.05.2018 14:27 22,7 C 18,9 C 43 % 1008,4 hPa 0,0 l/m 17,4 km/h (3 Bft) O 89 1 min 0,000 mm 4,0 UV-I 841 W/m 9,5 C 20,1 C 19,3 km/h (3 Bft) 95,83 %
08.05.2018 14:28 22,7 C 18,9 C 44 % 1008,4 hPa 0,0 l/m 17,4 km/h (3 Bft) O 90 1 min 0,000 mm 4,0 UV-I 851 W/m 9,8 C 20,1 C 25,7 km/h (4 Bft) 100,00 %
08.05.2018 14:29 22,7 C 18,9 C 43 % 1008,4 hPa 0,0 l/m 20,1 km/h (4 Bft) NO 46 1 min 0,000 mm 4,0 UV-I 854 W/m 9,5 C 19,7 C 27,4 km/h (4 Bft) 100,00 %
08.05.2018 14:30 22,8 C 18,9 C 43 % 1008,5 hPa 0,0 l/m 14,6 km/h (3 Bft) O-NO 74 1 min 0,000 mm 3,8 UV-I 859 W/m 9,6 C 20,7 C 22,5 km/h (4 Bft) 100,00 %
08.05.2018 14:31 22,8 C 18,9 C 45 % 1008,4 hPa 0,0 l/m 19,6 km/h (3 Bft) O-NO 76 1 min 0,000 mm 3,8 UV-I 857 W/m 10,2 C 19,9 C 24,1 km/h (4 Bft) 100,00 %
08.05.2018 14:32 22,8 C 18,9 C 42 % 1008,4 hPa 0,0 l/m 16,5 km/h (3 Bft) O-NO 59 1 min 0,000 mm 3,9 UV-I 844 W/m 9,2 C 20,4 C 20,9 km/h (4 Bft) 100,00 %
08.05.2018 14:33 22,7 C 18,9 C 45 % 1008,4 hPa 0,0 l/m 19,5 km/h (3 Bft) O-NO 60 1 min 0,000 mm 3,8 UV-I 834 W/m 10,1 C 19,8 C 25,7 km/h (4 Bft) 100,00 %
08.05.2018 14:34 22,7 C 18,9 C 45 % 1008,4 hPa 0,0 l/m 19,8 km/h (3 Bft) NO 35 1 min 0,000 mm 3,8 UV-I 817 W/m 10,1 C 19,7 C 22,5 km/h (4 Bft) 100,00 %
08.05.2018 14:35 22,6 C 18,9 C 46 % 1008,4 hPa 0,0 l/m 14,4 km/h (3 Bft) O 92 1 min 0,000 mm 3,7 UV-I 798 W/m 10,4 C 20,5 C 17,7 km/h (3 Bft) 100,00 %
08.05.2018 14:36 22,6 C 18,9 C 44 % 1008,3 hPa 0,0 l/m 10,6 km/h (2 Bft) NO 51 1 min 0,000 mm 3,8 UV-I 803 W/m 9,7 C 21,4 C 16,1 km/h (3 Bft) 100,00 %
08.05.2018 14:37 22,6 C 18,9 C 45 % 1008,3 hPa 0,0 l/m 12,9 km/h (3 Bft) O-NO 70 1 min 0,000 mm 3,8 UV-I 806 W/m 10,1 C 20,8 C 17,7 km/h (3 Bft) 100,00 %
08.05.2018 14:38 22,6 C 18,9 C 42 % 1008,3 hPa 0,0 l/m 13,9 km/h (3 Bft) O-NO 65 1 min 0,000 mm 3,8 UV-I 813 W/m 9,0 C 20,6 C 19,3 km/h (3 Bft) 100,00 %
08.05.2018 14:39 22,6 C 18,9 C 45 % 1008,3 hPa 0,0 l/m 13,4 km/h (3 Bft) O-SO 109 1 min 0,000 mm 3,8 UV-I 821 W/m 10,1 C 20,7 C 22,5 km/h (4 Bft) 100,00 %
08.05.2018 14:40 22,7 C 18,9 C 43 % 1008,3 hPa 0,0 l/m 17,3 km/h (3 Bft) O 86 1 min 0,000 mm 3,8 UV-I 831 W/m 9,5 C 20,1 C 22,5 km/h (4 Bft) 100,00 %
08.05.2018 14:41 22,8 C 18,9 C 42 % 1008,3 hPa 0,0 l/m 11,5 km/h (2 Bft) O 88 1 min 0,000 mm 3,8 UV-I 837 W/m 9,2 C 21,4 C 19,3 km/h (3 Bft) 95,83 %
08.05.2018 14:42 22,8 C 18,9 C 43 % 1008,3 hPa 0,0 l/m 12,0 km/h (2 Bft) O 82 1 min 0,000 mm 3,8 UV-I 839 W/m 9,6 C 21,3 C 14,5 km/h (3 Bft) 100,00 %
08.05.2018 14:43 22,9 C 18,9 C 43 % 1008,2 hPa 0,0 l/m 12,5 km/h (3 Bft) O 101 1 min 0,000 mm 3,8 UV-I 845 W/m 9,6 C 21,3 C 19,3 km/h (3 Bft) 91,30 %
08.05.2018 14:44 23,0 C 18,9 C 43 % 1008,2 hPa 0,0 l/m 17,4 km/h (3 Bft) O-SO 102 1 min 0,000 mm 3,3 UV-I 847 W/m 9,7 C 20,5 C 25,7 km/h (4 Bft) 100,00 %
08.05.2018 14:45 22,9 C 18,9 C 42 % 1008,2 hPa 0,0 l/m 20,4 km/h (4 Bft) O 90 1 min 0,000 mm 3,3 UV-I 847 W/m 9,3 C 19,9 C 27,4 km/h (4 Bft) 91,30 %
08.05.2018 14:46 22,9 C 18,9 C 42 % 1008,2 hPa 0,0 l/m 22,0 km/h (4 Bft) O 80 1 min 0,000 mm 3,7 UV-I 846 W/m 9,3 C 19,7 C 30,6 km/h (5 Bft) 96,30 %
08.05.2018 14:47 22,9 C 18,9 C 42 % 1008,2 hPa 0,0 l/m 23,5 km/h (4 Bft) O 81 1 min 0,000 mm 3,5 UV-I 850 W/m 9,3 C 19,5 C 32,2 km/h (5 Bft) 100,00 %
08.05.2018 14:48 22,9 C 19,4 C 42 % 1008,2 hPa 0,0 l/m 18,8 km/h (3 Bft) O-NO 60 1 min 0,000 mm 3,6 UV-I 880 W/m 9,3 C 20,1 C 25,7 km/h (4 Bft) 100,00 %
08.05.2018 14:49 22,9 C 19,4 C 44 % 1008,2 hPa 0,0 l/m 15,1 km/h (3 Bft) NO 49 1 min 0,000 mm 3,7 UV-I 908 W/m 10,0 C 20,7 C 22,5 km/h (4 Bft) 95,65 %
08.05.2018 14:50 22,9 C 19,4 C 43 % 1008,1 hPa 0,0 l/m 12,5 km/h (3 Bft) O-NO 65 1 min 0,000 mm 3,8 UV-I 938 W/m 9,6 C 21,3 C 22,5 km/h (4 Bft) 100,00 %
08.05.2018 14:51 23,0 C 19,4 C 43 % 1008,1 hPa 0,0 l/m 19,5 km/h (3 Bft) O 80 1 min 0,000 mm 3,7 UV-I 947 W/m 9,7 C 20,2 C 27,4 km/h (4 Bft) 91,30 %
08.05.2018 14:52 23,1 C 19,4 C 43 % 1008,1 hPa 0,0 l/m 21,7 km/h (4 Bft) O-NO 72 1 min 0,000 mm 3,6 UV-I 955 W/m 9,8 C 20,0 C 30,6 km/h (5 Bft) 100,00 %
08.05.2018 14:53 23,2 C 19,4 C 42 % 1008,2 hPa 0,0 l/m 19,4 km/h (3 Bft) O-SO 107 1 min 0,000 mm 3,6 UV-I 977 W/m 9,6 C 20,4 C 25,7 km/h (4 Bft) 95,65 %
08.05.2018 14:54 23,2 C 19,4 C 42 % 1008,2 hPa 0,0 l/m 17,5 km/h (3 Bft) O-NO 65 1 min 0,000 mm 3,2 UV-I 977 W/m 9,6 C 20,7 C 22,5 km/h (4 Bft) 100,00 %
08.05.2018 14:55 23,2 C 19,4 C 42 % 1008,2 hPa 0,0 l/m 16,0 km/h (3 Bft) O 86 1 min 0,000 mm 3,3 UV-I 991 W/m 9,6 C 21,0 C 20,9 km/h (4 Bft) 100,00 %
08.05.2018 14:56 23,1 C 19,4 C 43 % 1008,2 hPa 0,0 l/m 19,9 km/h (4 Bft) O-NO 65 1 min 0,000 mm 2,8 UV-I 1007 W/m 9,8 C 20,2 C 27,4 km/h (4 Bft) 100,00 %
08.05.2018 14:57 23,0 C 19,4 C 41 % 1008,2 hPa 0,0 l/m 20,4 km/h (4 Bft) O-NO 71 1 min 0,000 mm 1,9 UV-I 1007 W/m 9,0 C 20,0 C 29,0 km/h (5 Bft) 100,00 %
08.05.2018 14:58 22,8 C 19,4 C 42 % 1008,1 hPa 0,0 l/m 22,8 km/h (4 Bft) O-NO 60 1 min 0,000 mm 1,8 UV-I 426 W/m 9,2 C 19,4 C 30,6 km/h (5 Bft) 96,15 %
08.05.2018 14:59 22,7 C 19,4 C 41 % 1008,1 hPa 0,0 l/m 22,7 km/h (4 Bft) O-NO 65 0 min 0,000 mm 2,7 UV-I 343 W/m 8,8 C 19,3 C 32,2 km/h (5 Bft) 95,83 %
08.05.2018 15:00 22,6 C 19,4 C 42 % 1008,1 hPa 0,0 l/m 20,8 km/h (4 Bft) O-NO 70 0 min 0,609 mm 1,9 UV-I 343 W/m 9,0 C 19,4 C 27,4 km/h (4 Bft) 100,00 %
08.05.2018 15:01 22,6 C 19,4 C 43 % 1008,1 hPa 0,0 l/m 17,8 km/h (3 Bft) O-NO 75 0 min 0,000 mm 1,4 UV-I 314 W/m 9,4 C 19,9 C 25,7 km/h (4 Bft) 100,00 %
08.05.2018 15:02 22,4 C 19,4 C 44 % 1008,1 hPa 0,0 l/m 18,8 km/h (3 Bft) O 96 0 min 0,000 mm 1,3 UV-I 272 W/m 9,5 C 19,5 C 24,1 km/h (4 Bft) 100,00 %
08.05.2018 15:03 22,3 C 19,4 C 43 % 1008,1 hPa 0,0 l/m 20,4 km/h (4 Bft) O 94 0 min 0,000 mm 1,1 UV-I 254 W/m 9,1 C 19,1 C 25,7 km/h (4 Bft) 100,00 %
08.05.2018 15:04 22,2 C 19,4 C 43 % 1008,1 hPa 0,0 l/m 18,5 km/h (3 Bft) O 86 0 min 0,000 mm 1,1 UV-I 242 W/m 9,0 C 19,3 C 27,4 km/h (4 Bft) 100,00 %
08.05.2018 15:05 22,1 C 19,4 C 45 % 1008,2 hPa 0,0 l/m 25,3 km/h (4 Bft) O-NO 63 0 min 0,000 mm 1,0 UV-I 231 W/m 9,6 C 18,2 C 35,4 km/h (5 Bft) 100,00 %
08.05.2018 15:06 22,0 C 19,4 C 45 % 1008,2 hPa 0,0 l/m 27,5 km/h (4 Bft) O-NO 61 0 min 0,000 mm 0,9 UV-I 224 W/m 9,5 C 17,8 C 38,6 km/h (5 Bft) 100,00 %
08.05.2018 15:07 21,8 C 18,9 C 46 % 1008,2 hPa 0,0 l/m 29,2 km/h (5 Bft) O 85 0 min 0,000 mm 0,9 UV-I 226 W/m 9,7 C 17,3 C 38,6 km/h (5 Bft) 100,00 %
08.05.2018 15:08 21,7 C 18,9 C 47 % 1008,2 hPa 0,0 l/m 21,1 km/h (4 Bft) O-NO 68 0 min 0,000 mm 0,9 UV-I 236 W/m 9,9 C 18,2 C 27,4 km/h (4 Bft) 100,00 %
08.05.2018 15:09 21,6 C 18,9 C 49 % 1008,2 hPa 0,0 l/m 24,2 km/h (4 Bft) NO 37 0 min 0,000 mm 0,8 UV-I 224 W/m 10,4 C 17,7 C 32,2 km/h (5 Bft) 100,00 %
08.05.2018 15:10 21,3 C 18,9 C 53 % 1008,3 hPa 0,0 l/m 28,5 km/h (4 Bft) NO 49 0 min 0,000 mm 0,7 UV-I 189 W/m 11,3 C 16,7 C 37,0 km/h (5 Bft) 100,00 %
08.05.2018 15:11 21,0 C 18,9 C 54 % 1008,3 hPa 0,0 l/m 26,6 km/h (4 Bft) NO 46 0 min 0,000 mm 0,7 UV-I 179 W/m 11,3 C 16,5 C 32,2 km/h (5 Bft) 96,30 %
08.05.2018 15:12 20,6 C 18,9 C 55 % 1008,3 hPa 0,0 l/m 25,6 km/h (4 Bft) NO 55 0 min 0,000 mm 0,7 UV-I 167 W/m 11,2 C 16,1 C 32,2 km/h (5 Bft) 96,15 %
08.05.2018 15:13 20,3 C 18,9 C 56 % 1008,3 hPa 0,0 l/m 23,4 km/h (4 Bft) NO 55 0 min 0,000 mm 0,7 UV-I 156 W/m 11,2 C 16,0 C 30,6 km/h (5 Bft) 100,00 %
08.05.2018 15:14 19,9 C 18,9 C 59 % 1008,4 hPa 0,0 l/m 17,3 km/h (3 Bft) O-NO 63 0 min 0,000 mm 0,7 UV-I 155 W/m 11,6 C 16,6 C 29,0 km/h (5 Bft) 95,65 %
08.05.2018 15:15 19,7 C 19,4 C 61 % 1008,4 hPa 0,0 l/m 14,0 km/h (3 Bft) N-NO 32 0 min 0,000 mm 0,7 UV-I 153 W/m 12,0 C 17,1 C 19,3 km/h (3 Bft) 100,00 %
08.05.2018 15:16 19,4 C 19,4 C 62 % 1008,4 hPa 0,0 l/m 16,7 km/h (3 Bft) N-NO 33 0 min 0,000 mm 0,7 UV-I 151 W/m 11,9 C 16,1 C 19,3 km/h (3 Bft) 93,33 %
08.05.2018 15:17 19,2 C 19,4 C 62 % 1008,4 hPa 0,0 l/m 21,3 km/h (4 Bft) N-NO 30 0 min 0,000 mm 0,7 UV-I 149 W/m 11,7 C 14,9 C 27,4 km/h (4 Bft) 91,30 %
08.05.2018 15:18 19,1 C 19,4 C 63 % 1008,4 hPa 0,0 l/m 21,5 km/h (4 Bft) O-NO 76 0 min 0,000 mm 0,7 UV-I 150 W/m 11,9 C 14,8 C 25,7 km/h (4 Bft) 96,30 %
08.05.2018 15:19 18,9 C 19,4 C 64 % 1008,4 hPa 0,0 l/m 16,1 km/h (3 Bft) NO 47 0 min 0,000 mm 0,7 UV-I 153 W/m 11,9 C 15,6 C 22,5 km/h (4 Bft) 100,00 %
08.05.2018 15:20 18,9 C 18,9 C 63 % 1008,3 hPa 0,0 l/m 15,6 km/h (3 Bft) N-NO 14 0 min 0,000 mm 0,8 UV-I 161 W/m 11,7 C 15,8 C 22,5 km/h (4 Bft) 100,00 %
08.05.2018 15:21 18,9 C 18,9 C 63 % 1008,3 hPa 0,0 l/m 17,6 km/h (3 Bft) O-NO 66 0 min 0,000 mm 0,9 UV-I 170 W/m 11,7 C 15,3 C 25,7 km/h (4 Bft) 95,65 %
08.05.2018 15:22 18,9 C 18,9 C 63 % 1008,3 hPa 0,0 l/m 16,4 km/h (3 Bft) O-NO 66 0 min 0,000 mm 0,9 UV-I 184 W/m 11,7 C 15,6 C 20,9 km/h (4 Bft) 100,00 %
08.05.2018 15:23 18,9 C 19,4 C 63 % 1008,2 hPa 0,0 l/m 16,4 km/h (3 Bft) NO 55 0 min 0,000 mm 1,0 UV-I 198 W/m 11,7 C 15,6 C 22,5 km/h (4 Bft) 91,30 %
08.05.2018 15:24 18,9 C 18,9 C 64 % 1008,3 hPa 0,0 l/m 17,8 km/h (3 Bft) O-NO 66 0 min 0,000 mm 1,1 UV-I 211 W/m 11,9 C 15,2 C 25,7 km/h (4 Bft) 100,00 %
08.05.2018 15:25 19,0 C 18,9 C 63 % 1008,2 hPa 0,0 l/m 13,0 km/h (3 Bft) O-NO 71 0 min 0,000 mm 1,1 UV-I 221 W/m 11,8 C 16,6 C 17,7 km/h (3 Bft) 92,86 %
08.05.2018 15:26 19,1 C 18,9 C 61 % 1008,2 hPa 0,0 l/m 13,4 km/h (3 Bft) O 83 0 min 0,000 mm 1,2 UV-I 230 W/m 11,4 C 16,6 C 20,9 km/h (4 Bft) 100,00 %
08.05.2018 15:27 19,2 C 18,9 C 60 % 1008,3 hPa 0,0 l/m 17,2 km/h (3 Bft) NO 48 0 min 0,000 mm 1,2 UV-I 238 W/m 11,2 C 15,8 C 24,1 km/h (4 Bft) 95,65 %
08.05.2018 15:28 19,3 C 19,4 C 61 % 1008,2 hPa 0,0 l/m 17,3 km/h (3 Bft) NO 55 0 min 0,000 mm 1,3 UV-I 247 W/m 11,6 C 15,9 C 22,5 km/h (4 Bft) 95,83 %
08.05.2018 15:29 19,4 C 19,4 C 59 % 1008,3 hPa 0,0 l/m 16,2 km/h (3 Bft) O-NO 78 0 min 0,000 mm 1,3 UV-I 267 W/m 11,2 C 16,2 C 20,9 km/h (4 Bft) 100,00 %
08.05.2018 15:30 19,5 C 19,4 C 59 % 1008,2 hPa 0,0 l/m 15,1 km/h (3 Bft) NO 34 0 min 0,000 mm 1,4 UV-I 280 W/m 11,3 C 16,6 C 19,3 km/h (3 Bft) 91,67 %
08.05.2018 15:31 19,6 C 19,4 C 59 % 1008,2 hPa 0,0 l/m 16,5 km/h (3 Bft) O-NO 77 0 min 0,000 mm 1,3 UV-I 258 W/m 11,4 C 16,4 C 22,5 km/h (4 Bft) 95,65 %
08.05.2018 15:32 19,7 C 19,4 C 59 % 1008,2 hPa 0,0 l/m 12,1 km/h (2 Bft) O-NO 74 0 min 0,000 mm 1,5 UV-I 283 W/m 11,5 C 17,7 C 16,1 km/h (3 Bft) 95,83 %
08.05.2018 15:33 19,8 C 19,4 C 60 % 1008,2 hPa 0,0 l/m 11,0 km/h (2 Bft) O 83 0 min 0,000 mm 1,6 UV-I 306 W/m 11,8 C 18,1 C 16,1 km/h (3 Bft) 100,00 %
08.05.2018 15:34 19,9 C 19,4 C 59 % 1008,2 hPa 0,0 l/m 15,2 km/h (3 Bft) O-NO 65 0 min 0,000 mm 1,6 UV-I 316 W/m 11,6 C 17,1 C 22,5 km/h (4 Bft) 95,83 %
08.05.2018 15:35 19,9 C 19,4 C 57 % 1008,1 hPa 0,0 l/m 16,5 km/h (3 Bft) O-NO 63 0 min 0,000 mm 1,7 UV-I 329 W/m 11,1 C 16,8 C 22,5 km/h (4 Bft) 96,15 %
08.05.2018 15:36 20,1 C 19,4 C 57 % 1008,1 hPa 0,0 l/m 14,9 km/h (3 Bft) O 84 0 min 0,000 mm 1,7 UV-I 332 W/m 11,3 C 17,4 C 19,3 km/h (3 Bft) 100,00 %
08.05.2018 15:37 20,2 C 19,4 C 56 % 1008,1 hPa 0,0 l/m 18,1 km/h (3 Bft) O-NO 59 0 min 0,000 mm 1,9 UV-I 338 W/m 11,1 C 16,8 C 22,5 km/h (4 Bft) 95,65 %
08.05.2018 15:38 20,3 C 19,4 C 55 % 1008,1 hPa 0,0 l/m 14,3 km/h (3 Bft) O-SO 105 0 min 0,000 mm 2,3 UV-I 338 W/m 11,0 C 17,8 C 20,9 km/h (4 Bft) 100,00 %
08.05.2018 15:39 20,5 C 19,4 C 54 % 1008,1 hPa 0,0 l/m 15,8 km/h (3 Bft) NO 53 1 min 0,000 mm 2,5 UV-I 807 W/m 10,9 C 17,7 C 20,9 km/h (4 Bft) 95,65 %
08.05.2018 15:40 20,8 C 19,4 C 55 % 1008,1 hPa 0,0 l/m 19,9 km/h (4 Bft) O-NO 65 1 min 0,000 mm 2,5 UV-I 877 W/m 11,4 C 17,3 C 25,7 km/h (4 Bft) 100,00 %
08.05.2018 15:41 20,9 C 19,4 C 54 % 1008,1 hPa 0,0 l/m 19,2 km/h (3 Bft) O-NO 71 1 min 0,000 mm 2,4 UV-I 877 W/m 11,2 C 17,5 C 24,1 km/h (4 Bft) 91,67 %
08.05.2018 15:42 21,2 C 19,4 C 56 % 1008,1 hPa 0,0 l/m 20,5 km/h (4 Bft) N-NO 33 1 min 0,000 mm 2,1 UV-I 877 W/m 12,1 C 17,7 C 25,7 km/h (4 Bft) 100,00 %
08.05.2018 15:43 21,3 C 19,4 C 55 % 1008,0 hPa 0,0 l/m 21,5 km/h (4 Bft) O-NO 57 1 min 0,000 mm 1,7 UV-I 877 W/m 11,9 C 17,6 C 29,0 km/h (5 Bft) 95,83 %
08.05.2018 15:44 21,3 C 19,4 C 53 % 1008,1 hPa 0,0 l/m 18,2 km/h (3 Bft) N-NO 28 1 min 0,000 mm 1,5 UV-I 404 W/m 11,3 C 18,2 C 25,7 km/h (4 Bft) 100,00 %
08.05.2018 15:45 21,1 C 19,4 C 54 % 1008,1 hPa 0,0 l/m 22,3 km/h (4 Bft) O-NO 71 0 min 0,000 mm 1,5 UV-I 240 W/m 11,4 C 17,3 C 29,0 km/h (5 Bft) 95,83 %
08.05.2018 15:46 20,9 C 19,4 C 55 % 1008,1 hPa 0,0 l/m 18,4 km/h (3 Bft) NO 42 0 min 0,000 mm 1,5 UV-I 244 W/m 11,5 C 17,7 C 29,0 km/h (5 Bft) 95,65 %
08.05.2018 15:47 20,7 C 19,4 C 55 % 1008,1 hPa 0,0 l/m 21,2 km/h (4 Bft) NO 49 0 min 0,000 mm 1,6 UV-I 254 W/m 11,3 C 16,9 C 27,4 km/h (4 Bft) 100,00 %
08.05.2018 15:48 20,4 C 19,4 C 55 % 1008,1 hPa 0,0 l/m 23,0 km/h (4 Bft) O-NO 71 0 min 0,000 mm 1,8 UV-I 264 W/m 11,1 C 16,2 C 33,8 km/h (5 Bft) 95,65 %
08.05.2018 15:49 20,4 C 19,4 C 56 % 1008,1 hPa 0,0 l/m 27,7 km/h (4 Bft) NO 52 1 min 0,000 mm 2,2 UV-I 600 W/m 11,3 C 15,6 C 38,6 km/h (5 Bft) 100,00 %
08.05.2018 15:50 20,3 C 19,4 C 57 % 1008,0 hPa 0,0 l/m 28,6 km/h (4 Bft) NO 50 1 min 0,000 mm 1,9 UV-I 779 W/m 11,5 C 15,3 C 37,0 km/h (5 Bft) 96,15 %
08.05.2018 15:51 20,3 C 19,4 C 56 % 1008,0 hPa 0,0 l/m 25,8 km/h (4 Bft) O-NO 61 0 min 0,000 mm 1,9 UV-I 347 W/m 11,2 C 15,7 C 30,6 km/h (5 Bft) 100,00 %
08.05.2018 15:52 20,3 C 19,4 C 54 % 1008,1 hPa 0,0 l/m 29,8 km/h (5 Bft) NO 46 1 min 0,000 mm 2,1 UV-I 396 W/m 10,7 C 15,2 C 38,6 km/h (5 Bft) 91,30 %
08.05.2018 15:53 20,2 C 19,4 C 54 % 1007,9 hPa 0,0 l/m 25,9 km/h (4 Bft) O-NO 57 0 min 0,000 mm 1,8 UV-I 336 W/m 10,6 C 15,5 C 37,0 km/h (5 Bft) 100,00 %
08.05.2018 15:54 20,2 C 19,4 C 54 % 1008,0 hPa 0,0 l/m 22,0 km/h (4 Bft) O-NO 76 0 min 0,000 mm 2,0 UV-I 236 W/m 10,6 C 16,1 C 30,6 km/h (5 Bft) 100,00 %
08.05.2018 15:55 20,3 C 19,4 C 54 % 1008,0 hPa 0,0 l/m 19,5 km/h (3 Bft) O-NO 69 0 min 0,000 mm 2,1 UV-I 236 W/m 10,7 C 16,7 C 30,6 km/h (5 Bft) 91,67 %
08.05.2018 15:56 20,3 C 19,4 C 52 % 1008,1 hPa 0,0 l/m 23,6 km/h (4 Bft) O-NO 60 1 min 0,000 mm 2,1 UV-I 455 W/m 10,1 C 16,0 C 33,8 km/h (5 Bft) 100,00 %
08.05.2018 15:57 20,4 C 19,4 C 53 % 1008,0 hPa 0,0 l/m 25,7 km/h (4 Bft) O-NO 76 1 min 0,000 mm 2,3 UV-I 513 W/m 10,5 C 15,8 C 33,8 km/h (5 Bft) 100,00 %
08.05.2018 15:58 20,5 C 19,4 C 53 % 1007,9 hPa 0,0 l/m 19,8 km/h (3 Bft) O-NO 59 1 min 0,000 mm 2,3 UV-I 640 W/m 10,6 C 16,9 C 29,0 km/h (5 Bft) 96,88 %
08.05.2018 15:59 20,6 C 19,4 C 52 % 1008,0 hPa 0,0 l/m 27,0 km/h (4 Bft) O 84 1 min 0,000 mm 2,3 UV-I 625 W/m 10,4 C 15,9 C 35,4 km/h (5 Bft) 91,30 %
08.05.2018 16:00 20,7 C 19,4 C 52 % 1007,9 hPa 0,0 l/m 21,3 km/h (4 Bft) O-NO 67 1 min 0,000 mm 2,3 UV-I 627 W/m 10,5 C 16,9 C 29,0 km/h (5 Bft) 91,67 %
08.05.2018 16:01 20,7 C 19,4 C 51 % 1008,0 hPa 0,0 l/m 18,6 km/h (3 Bft) O 86 1 min 0,331 mm 2,3 UV-I 622 W/m 10,2 C 17,4 C 24,1 km/h (4 Bft) 100,00 %
08.05.2018 16:02 20,8 C 19,4 C 51 % 1008,0 hPa 0,0 l/m 20,9 km/h (4 Bft) O-NO 78 1 min 0,000 mm 2,2 UV-I 614 W/m 10,3 C 17,1 C 25,7 km/h (4 Bft) 100,00 %
08.05.2018 16:03 20,8 C 19,4 C 52 % 1007,9 hPa 0,0 l/m 21,1 km/h (4 Bft) NO 49 1 min 0,000 mm 2,2 UV-I 612 W/m 10,6 C 17,1 C 27,4 km/h (4 Bft) 91,30 %
08.05.2018 16:04 20,9 C 19,4 C 53 % 1007,9 hPa 0,0 l/m 20,0 km/h (4 Bft) NO 54 1 min 0,000 mm 2,2 UV-I 609 W/m 11,0 C 17,4 C 27,4 km/h (4 Bft) 100,00 %
08.05.2018 16:05 20,9 C 19,4 C 53 % 1007,9 hPa 0,0 l/m 20,4 km/h (4 Bft) NO 40 1 min 0,000 mm 2,2 UV-I 613 W/m 11,0 C 17,3 C 29,0 km/h (5 Bft) 100,00 %
08.05.2018 16:06 21,1 C 19,4 C 53 % 1007,9 hPa 0,0 l/m 20,3 km/h (4 Bft) O-NO 76 1 min 0,000 mm 2,2 UV-I 614 W/m 11,1 C 17,6 C 25,7 km/h (4 Bft) 100,00 %
08.05.2018 16:07 21,2 C 19,4 C 52 % 1007,9 hPa 0,0 l/m 19,5 km/h (3 Bft) O-NO 66 1 min 0,000 mm 2,2 UV-I 612 W/m 10,9 C 17,8 C 22,5 km/h (4 Bft) 100,00 %
08.05.2018 16:08 21,3 C 19,4 C 51 % 1007,9 hPa 0,0 l/m 24,3 km/h (4 Bft) O 80 1 min 0,000 mm 2,2 UV-I 608 W/m 10,7 C 17,2 C 32,2 km/h (5 Bft) 100,00 %
08.05.2018 16:09 21,3 C 19,4 C 50 % 1007,7 hPa 0,0 l/m 21,3 km/h (4 Bft) O-NO 62 1 min 0,000 mm 2,2 UV-I 606 W/m 10,4 C 17,7 C 29,0 km/h (5 Bft) 100,00 %
08.05.2018 16:10 21,3 C 19,4 C 49 % 1007,8 hPa 0,0 l/m 19,5 km/h (3 Bft) NO 42 1 min 0,000 mm 2,2 UV-I 604 W/m 10,1 C 18,0 C 25,7 km/h (4 Bft) 100,00 %
08.05.2018 16:11 21,3 C 19,4 C 50 % 1007,8 hPa 0,0 l/m 22,2 km/h (4 Bft) O-NO 66 1 min 0,000 mm 2,2 UV-I 600 W/m 10,4 C 17,5 C 30,6 km/h (5 Bft) 100,00 %
08.05.2018 16:12 21,3 C 19,4 C 51 % 1007,9 hPa 0,0 l/m 24,5 km/h (4 Bft) NO 51 1 min 0,000 mm 2,1 UV-I 598 W/m 10,7 C 17,2 C 35,4 km/h (5 Bft) 100,00 %
08.05.2018 16:13 21,3 C 19,4 C 50 % 1007,9 hPa 0,0 l/m 24,8 km/h (4 Bft) NO 36 1 min 0,000 mm 2,1 UV-I 596 W/m 10,4 C 17,2 C 30,6 km/h (5 Bft) 95,65 %
08.05.2018 16:14 21,2 C 19,4 C 49 % 1007,8 hPa 0,0 l/m 20,8 km/h (4 Bft) O-NO 63 1 min 0,000 mm 2,1 UV-I 594 W/m 10,1 C 17,6 C 27,4 km/h (4 Bft) 100,00 %
08.05.2018 16:15 21,2 C 19,4 C 49 % 1007,9 hPa 0,0 l/m 24,1 km/h (4 Bft) O-NO 77 1 min 0,000 mm 2,1 UV-I 590 W/m 10,1 C 17,1 C 32,2 km/h (5 Bft) 100,00 %
08.05.2018 16:16 21,2 C 19,4 C 48 % 1007,8 hPa 0,0 l/m 21,3 km/h (4 Bft) O-NO 57 1 min 0,000 mm 2,1 UV-I 584 W/m 9,7 C 17,5 C 30,6 km/h (5 Bft) 100,00 %
08.05.2018 16:17 21,2 C 19,4 C 50 % 1007,8 hPa 0,0 l/m 23,9 km/h (4 Bft) NO 42 1 min 0,000 mm 2,0 UV-I 581 W/m 10,4 C 17,2 C 32,2 km/h (5 Bft) 100,00 %
08.05.2018 16:18 21,2 C 19,4 C 49 % 1007,7 hPa 0,0 l/m 18,9 km/h (3 Bft) O-NO 59 1 min 0,000 mm 2,0 UV-I 578 W/m 10,1 C 17,9 C 29,0 km/h (5 Bft) 100,00 %
08.05.2018 16:19 21,2 C 19,4 C 51 % 1007,8 hPa 0,0 l/m 27,4 km/h (4 Bft) N-NO 30 1 min 0,000 mm 2,0 UV-I 577 W/m 10,7 C 16,7 C 32,2 km/h (5 Bft) 100,00 %
08.05.2018 16:20 21,2 C 19,4 C 50 % 1007,7 hPa 0,0 l/m 21,4 km/h (4 Bft) O-NO 60 1 min 0,000 mm 2,0 UV-I 577 W/m 10,4 C 17,5 C 30,6 km/h (5 Bft) 95,65 %
08.05.2018 16:21 21,2 C 19,4 C 49 % 1007,7 hPa 0,0 l/m 19,1 km/h (3 Bft) NO 55 1 min 0,000 mm 2,0 UV-I 577 W/m 10,1 C 17,9 C 30,6 km/h (5 Bft) 100,00 %
08.05.2018 16:22 21,2 C 19,4 C 51 % 1007,7 hPa 0,0 l/m 19,8 km/h (3 Bft) N-NO 22 1 min 0,000 mm 2,0 UV-I 574 W/m 10,7 C 17,8 C 24,1 km/h (4 Bft) 95,65 %
08.05.2018 16:23 21,2 C 19,4 C 50 % 1007,7 hPa 0,0 l/m 22,3 km/h (4 Bft) O-NO 61 1 min 0,000 mm 2,0 UV-I 572 W/m 10,4 C 17,4 C 29,0 km/h (5 Bft) 100,00 %
08.05.2018 16:24 21,1 C 19,4 C 52 % 1007,7 hPa 0,0 l/m 20,7 km/h (4 Bft) NO 44 1 min 0,000 mm 1,9 UV-I 569 W/m 10,9 C 17,5 C 25,7 km/h (4 Bft) 100,00 %
08.05.2018 16:25 21,1 C 19,4 C 50 % 1007,7 hPa 0,0 l/m 25,2 km/h (4 Bft) NO 50 1 min 0,000 mm 1,9 UV-I 564 W/m 10,3 C 16,8 C 37,0 km/h (5 Bft) 100,00 %
08.05.2018 16:26 21,1 C 19,4 C 51 % 1007,7 hPa 0,0 l/m 18,3 km/h (3 Bft) NO 46 1 min 0,000 mm 1,9 UV-I 561 W/m 10,6 C 17,9 C 24,1 km/h (4 Bft) 95,65 %
08.05.2018 16:27 21,2 C 19,4 C 50 % 1007,7 hPa 0,0 l/m 18,8 km/h (3 Bft) O-NO 64 1 min 0,000 mm 1,9 UV-I 559 W/m 10,4 C 18,0 C 29,0 km/h (5 Bft) 100,00 %
08.05.2018 16:28 21,2 C 19,4 C 50 % 1007,7 hPa 0,0 l/m 18,6 km/h (3 Bft) O 101 1 min 0,000 mm 1,9 UV-I 558 W/m 10,4 C 18,0 C 25,7 km/h (4 Bft) 91,30 %
08.05.2018 16:29 21,2 C 19,4 C 49 % 1007,6 hPa 0,0 l/m 20,7 km/h (4 Bft) N-NO 24 1 min 0,000 mm 1,9 UV-I 556 W/m 10,1 C 17,6 C 25,7 km/h (4 Bft) 95,83 %
08.05.2018 16:30 21,3 C 19,4 C 50 % 1007,6 hPa 0,0 l/m 20,4 km/h (4 Bft) NO 45 1 min 0,000 mm 1,8 UV-I 553 W/m 10,4 C 17,8 C 27,4 km/h (4 Bft) 91,30 %
08.05.2018 16:31 21,3 C 19,4 C 49 % 1007,6 hPa 0,0 l/m 22,5 km/h (4 Bft) NO 49 1 min 0,000 mm 1,8 UV-I 552 W/m 10,1 C 17,5 C 29,0 km/h (5 Bft) 100,00 %
08.05.2018 16:32 21,3 C 19,4 C 48 % 1007,7 hPa 0,0 l/m 21,9 km/h (4 Bft) O-NO 63 1 min 0,000 mm 1,8 UV-I 552 W/m 9,8 C 17,6 C 32,2 km/h (5 Bft) 95,65 %
08.05.2018 16:33 21,2 C 19,4 C 48 % 1007,6 hPa 0,0 l/m 22,5 km/h (4 Bft) NO 48 1 min 0,000 mm 1,8 UV-I 550 W/m 9,7 C 17,4 C 32,2 km/h (5 Bft) 100,00 %
08.05.2018 16:34 21,2 C 19,4 C 48 % 1007,7 hPa 0,0 l/m 18,2 km/h (3 Bft) O-NO 69 1 min 0,000 mm 1,8 UV-I 547 W/m 9,7 C 18,1 C 25,7 km/h (4 Bft) 95,65 %
08.05.2018 16:35 21,2 C 19,4 C 47 % 1007,7 hPa 0,0 l/m 22,0 km/h (4 Bft) NO 50 1 min 0,000 mm 1,8 UV-I 546 W/m 9,4 C 17,4 C 27,4 km/h (4 Bft) 95,83 %
08.05.2018 16:36 21,2 C 19,4 C 48 % 1007,7 hPa 0,0 l/m 18,0 km/h (3 Bft) O-NO 71 1 min 0,000 mm 1,8 UV-I 547 W/m 9,7 C 18,1 C 29,0 km/h (5 Bft) 100,00 %
08.05.2018 16:37 21,2 C 19,4 C 47 % 1007,7 hPa 0,0 l/m 19,8 km/h (3 Bft) NO 52 1 min 0,000 mm 1,7 UV-I 544 W/m 9,4 C 17,8 C 27,4 km/h (4 Bft) 91,67 %
08.05.2018 16:38 21,2 C 19,4 C 49 % 1007,6 hPa 0,0 l/m 26,5 km/h (4 Bft) O-NO 65 1 min 0,000 mm 1,7 UV-I 541 W/m 10,1 C 16,8 C 37,0 km/h (5 Bft) 100,00 %
08.05.2018 16:39 21,2 C 19,4 C 47 % 1007,7 hPa 0,0 l/m 24,9 km/h (4 Bft) O-NO 63 1 min 0,000 mm 1,7 UV-I 536 W/m 9,4 C 17,0 C 30,6 km/h (5 Bft) 100,00 %
08.05.2018 16:40 21,2 C 19,4 C 48 % 1007,7 hPa 0,0 l/m 22,5 km/h (4 Bft) NO 44 1 min 0,000 mm 1,7 UV-I 535 W/m 9,7 C 17,4 C 30,6 km/h (5 Bft) 96,30 %
08.05.2018 16:41 21,2 C 19,4 C 48 % 1007,6 hPa 0,0 l/m 20,3 km/h (4 Bft) NO 41 1 min 0,000 mm 1,7 UV-I 533 W/m 9,7 C 17,7 C 25,7 km/h (4 Bft) 95,65 %
08.05.2018 16:42 21,1 C 19,4 C 49 % 1007,7 hPa 0,0 l/m 18,9 km/h (3 Bft) O-NO 59 1 min 0,000 mm 1,7 UV-I 536 W/m 10,0 C 17,8 C 22,5 km/h (4 Bft) 100,00 %
08.05.2018 16:43 21,1 C 19,4 C 50 % 1007,7 hPa 0,0 l/m 15,1 km/h (3 Bft) NO 51 1 min 0,000 mm 1,7 UV-I 540 W/m 10,3 C 18,6 C 19,3 km/h (3 Bft) 95,65 %
08.05.2018 16:44 21,2 C 19,4 C 49 % 1007,7 hPa 0,0 l/m 13,5 km/h (3 Bft) O-NO 76 1 min 0,000 mm 1,7 UV-I 546 W/m 10,1 C 19,0 C 19,3 km/h (3 Bft) 95,83 %
08.05.2018 16:45 21,3 C 19,4 C 48 % 1007,7 hPa 0,0 l/m 21,1 km/h (4 Bft) O-NO 76 1 min 0,000 mm 1,7 UV-I 558 W/m 9,8 C 17,7 C 27,4 km/h (4 Bft) 95,65 %
08.05.2018 16:46 21,4 C 19,4 C 47 % 1007,6 hPa 0,0 l/m 15,2 km/h (3 Bft) NO 40 1 min 0,000 mm 1,6 UV-I 569 W/m 9,6 C 18,9 C 24,1 km/h (4 Bft) 100,00 %
08.05.2018 16:47 21,4 C 19,4 C 47 % 1007,6 hPa 0,0 l/m 16,2 km/h (3 Bft) O-NO 71 1 min 0,000 mm 1,6 UV-I 572 W/m 9,6 C 18,7 C 25,7 km/h (4 Bft) 95,65 %
08.05.2018 16:48 21,5 C 19,4 C 47 % 1007,6 hPa 0,0 l/m 19,8 km/h (3 Bft) O 80 1 min 0,000 mm 1,4 UV-I 573 W/m 9,7 C 18,2 C 24,1 km/h (4 Bft) 100,00 %
08.05.2018 16:49 21,4 C 19,4 C 46 % 1007,6 hPa 0,0 l/m 20,8 km/h (4 Bft) O-NO 78 1 min 0,000 mm 1,2 UV-I 573 W/m 9,3 C 17,9 C 25,7 km/h (4 Bft) 92,31 %
08.05.2018 16:50 21,4 C 19,4 C 46 % 1007,6 hPa 0,0 l/m 17,1 km/h (3 Bft) O 90 0 min 0,000 mm 1,5 UV-I 190 W/m 9,3 C 18,5 C 22,5 km/h (4 Bft) 96,30 %
08.05.2018 16:51 21,3 C 19,4 C 46 % 1007,6 hPa 0,0 l/m 23,1 km/h (4 Bft) O-NO 68 1 min 0,000 mm 1,5 UV-I 310 W/m 9,2 C 17,4 C 27,4 km/h (4 Bft) 100,00 %
08.05.2018 16:52 21,3 C 19,4 C 45 % 1007,6 hPa 0,0 l/m 18,3 km/h (3 Bft) O-NO 68 1 min 0,000 mm 1,5 UV-I 531 W/m 8,9 C 18,2 C 22,5 km/h (4 Bft) 95,83 %
08.05.2018 16:53 21,3 C 19,4 C 45 % 1007,6 hPa 0,0 l/m 16,9 km/h (3 Bft) O-NO 68 1 min 0,000 mm 1,5 UV-I 538 W/m 8,9 C 18,4 C 22,5 km/h (4 Bft) 100,00 %
08.05.2018 16:54 21,3 C 19,4 C 46 % 1007,6 hPa 0,0 l/m 14,6 km/h (3 Bft) O-NO 69 1 min 0,000 mm 1,5 UV-I 547 W/m 9,2 C 18,9 C 22,5 km/h (4 Bft) 96,30 %
08.05.2018 16:55 21,3 C 19,4 C 45 % 1007,7 hPa 0,0 l/m 14,3 km/h (3 Bft) O-SO 111 1 min 0,000 mm 1,5 UV-I 553 W/m 8,9 C 19,0 C 20,9 km/h (4 Bft) 95,65 %
08.05.2018 16:56 21,4 C 19,4 C 46 % 1007,7 hPa 0,0 l/m 20,6 km/h (4 Bft) O-SO 109 1 min 0,000 mm 1,5 UV-I 554 W/m 9,3 C 17,9 C 30,6 km/h (5 Bft) 95,83 %
08.05.2018 16:57 21,4 C 19,4 C 43 % 1007,6 hPa 0,0 l/m 18,4 km/h (3 Bft) O 84 1 min 0,000 mm 1,5 UV-I 550 W/m 8,3 C 18,3 C 24,1 km/h (4 Bft) 96,15 %
08.05.2018 16:58 21,4 C 19,4 C 44 % 1007,7 hPa 0,0 l/m 18,6 km/h (3 Bft) O-SO 107 1 min 0,000 mm 1,5 UV-I 538 W/m 8,6 C 18,3 C 25,7 km/h (4 Bft) 91,67 %
08.05.2018 16:59 21,5 C 19,4 C 46 % 1007,6 hPa 0,0 l/m 20,5 km/h (4 Bft) O 79 1 min 0,000 mm 1,5 UV-I 523 W/m 9,4 C 18,1 C 25,7 km/h (4 Bft) 100,00 %
08.05.2018 17:00 21,5 C 19,4 C 44 % 1007,5 hPa 0,0 l/m 23,3 km/h (4 Bft) O 86 1 min 0,000 mm 1,4 UV-I 514 W/m 8,7 C 17,6 C 27,4 km/h (4 Bft) 96,15 %
08.05.2018 17:01 21,5 C 19,4 C 45 % 1007,6 hPa 0,0 l/m 20,7 km/h (4 Bft) O-NO 72 1 min 0,482 mm 1,4 UV-I 467 W/m 9,1 C 18,0 C 29,0 km/h (5 Bft) 96,30 %
08.05.2018 17:02 21,4 C 19,4 C 44 % 1007,6 hPa 0,0 l/m 21,3 km/h (4 Bft) O 86 1 min 0,000 mm 1,4 UV-I 490 W/m 8,6 C 17,8 C 24,1 km/h (4 Bft) 95,65 %
08.05.2018 17:03 21,4 C 19,4 C 44 % 1007,5 hPa 0,0 l/m 17,7 km/h (3 Bft) O 86 1 min 0,000 mm 1,4 UV-I 492 W/m 8,6 C 18,4 C 20,9 km/h (4 Bft) 100,00 %
08.05.2018 17:04 21,4 C 19,4 C 44 % 1007,5 hPa 0,0 l/m 18,6 km/h (3 Bft) NO 55 1 min 0,000 mm 1,3 UV-I 476 W/m 8,6 C 18,3 C 24,1 km/h (4 Bft) 100,00 %
08.05.2018 17:05 21,4 C 19,4 C 46 % 1007,5 hPa 0,0 l/m 18,0 km/h (3 Bft) O 84 1 min 0,000 mm 1,4 UV-I 510 W/m 9,3 C 18,4 C 22,5 km/h (4 Bft) 95,83 %
08.05.2018 17:06 21,5 C 19,4 C 46 % 1007,6 hPa 0,0 l/m 17,7 km/h (3 Bft) O 96 1 min 0,000 mm 1,4 UV-I 528 W/m 9,4 C 18,5 C 24,1 km/h (4 Bft) 100,00 %
08.05.2018 17:07 21,6 C 19,4 C 45 % 1007,5 hPa 0,0 l/m 20,9 km/h (4 Bft) O 88 1 min 0,000 mm 1,4 UV-I 520 W/m 9,2 C 18,1 C 27,4 km/h (4 Bft) 95,83 %
08.05.2018 17:08 21,5 C 19,4 C 45 % 1007,5 hPa 0,0 l/m 19,6 km/h (3 Bft) O 86 1 min 0,000 mm 1,3 UV-I 514 W/m 9,1 C 18,2 C 24,1 km/h (4 Bft) 100,00 %
08.05.2018 17:09 21,5 C 19,4 C 45 % 1007,5 hPa 0,0 l/m 14,1 km/h (3 Bft) O-SO 110 1 min 0,000 mm 1,3 UV-I 508 W/m 9,1 C 19,3 C 17,7 km/h (3 Bft) 95,83 %
08.05.2018 17:10 21,5 C 19,4 C 46 % 1007,4 hPa 0,0 l/m 12,7 km/h (3 Bft) O-NO 68 1 min 0,000 mm 1,3 UV-I 497 W/m 9,4 C 19,6 C 19,3 km/h (3 Bft) 95,65 %
08.05.2018 17:11 21,6 C 19,4 C 46 % 1007,4 hPa 0,0 l/m 14,6 km/h (3 Bft) O 92 1 min 0,000 mm 1,3 UV-I 489 W/m 9,5 C 19,3 C 19,3 km/h (3 Bft) 100,00 %
08.05.2018 17:12 21,6 C 19,4 C 47 % 1007,4 hPa 0,0 l/m 14,6 km/h (3 Bft) O 93 1 min 0,000 mm 1,3 UV-I 478 W/m 9,8 C 19,3 C 24,1 km/h (4 Bft) 95,65 %
08.05.2018 17:13 21,7 C 19,4 C 46 % 1007,3 hPa 0,0 l/m 15,6 km/h (3 Bft) O 81 1 min 0,000 mm 1,3 UV-I 464 W/m 9,6 C 19,2 C 20,9 km/h (4 Bft) 100,00 %
08.05.2018 17:14 21,6 C 19,4 C 47 % 1007,4 hPa 0,0 l/m 15,7 km/h (3 Bft) O 84 1 min 0,000 mm 1,3 UV-I 472 W/m 9,8 C 19,0 C 20,9 km/h (4 Bft) 95,65 %
08.05.2018 17:15 21,6 C 19,4 C 47 % 1007,4 hPa 0,0 l/m 16,9 km/h (3 Bft) O-NO 71 1 min 0,000 mm 1,2 UV-I 448 W/m 9,8 C 18,8 C 24,1 km/h (4 Bft) 100,00 %
08.05.2018 17:16 21,6 C 19,4 C 46 % 1007,4 hPa 0,0 l/m 13,1 km/h (3 Bft) O-NO 76 1 min 0,000 mm 1,2 UV-I 416 W/m 9,5 C 19,6 C 17,7 km/h (3 Bft) 91,30 %
08.05.2018 17:17 21,6 C 19,4 C 48 % 1007,4 hPa 0,0 l/m 13,8 km/h (3 Bft) O 94 1 min 0,000 mm 1,2 UV-I 418 W/m 10,1 C 19,4 C 20,9 km/h (4 Bft) 91,67 %
08.05.2018 17:18 21,5 C 19,4 C 47 % 1007,4 hPa 0,0 l/m 18,4 km/h (3 Bft) O-NO 62 1 min 0,000 mm 1,2 UV-I 427 W/m 9,7 C 18,4 C 27,4 km/h (4 Bft) 91,67 %
08.05.2018 17:19 21,4 C 19,4 C 47 % 1007,4 hPa 0,0 l/m 16,8 km/h (3 Bft) O-NO 58 1 min 0,000 mm 1,2 UV-I 422 W/m 9,6 C 18,6 C 22,5 km/h (4 Bft) 100,00 %
08.05.2018 17:20 21,4 C 19,4 C 48 % 1007,3 hPa 0,0 l/m 16,6 km/h (3 Bft) O 82 1 min 0,000 mm 1,2 UV-I 453 W/m 9,9 C 18,6 C 19,3 km/h (3 Bft) 91,67 %
08.05.2018 17:21 21,4 C 19,4 C 49 % 1007,3 hPa 0,0 l/m 14,6 km/h (3 Bft) O-SO 120 1 min 0,000 mm 1,2 UV-I 465 W/m 10,2 C 19,0 C 19,3 km/h (3 Bft) 95,65 %
08.05.2018 17:22 21,4 C 19,4 C 48 % 1007,3 hPa 0,0 l/m 14,9 km/h (3 Bft) O-NO 65 1 min 0,000 mm 1,2 UV-I 487 W/m 9,9 C 19,0 C 17,7 km/h (3 Bft) 96,30 %
08.05.2018 17:23 21,4 C 19,4 C 49 % 1007,3 hPa 0,0 l/m 13,7 km/h (3 Bft) O 93 1 min 0,000 mm 1,2 UV-I 485 W/m 10,2 C 19,2 C 19,3 km/h (3 Bft) 86,96 %
08.05.2018 17:24 21,4 C 19,4 C 49 % 1007,3 hPa 0,0 l/m 15,7 km/h (3 Bft) O 92 1 min 0,000 mm 1,1 UV-I 455 W/m 10,2 C 18,8 C 22,5 km/h (4 Bft) 96,30 %
08.05.2018 17:25 21,3 C 19,4 C 48 % 1007,2 hPa 0,0 l/m 17,3 km/h (3 Bft) O-SO 105 1 min 0,000 mm 1,1 UV-I 448 W/m 9,8 C 18,4 C 20,9 km/h (4 Bft) 86,96 %
08.05.2018 17:26 21,3 C 19,4 C 49 % 1007,1 hPa 0,0 l/m 18,2 km/h (3 Bft) NO 56 1 min 0,000 mm 1,1 UV-I 414 W/m 10,1 C 18,2 C 25,7 km/h (4 Bft) 95,83 %
08.05.2018 17:27 21,3 C 19,4 C 49 % 1007,1 hPa 0,0 l/m 18,3 km/h (3 Bft) O-NO 72 1 min 0,000 mm 1,0 UV-I 411 W/m 10,1 C 18,2 C 24,1 km/h (4 Bft) 96,15 %
08.05.2018 17:28 21,3 C 19,4 C 50 % 1007,2 hPa 0,0 l/m 12,2 km/h (2 Bft) O 86 1 min 0,000 mm 1,1 UV-I 387 W/m 10,4 C 19,5 C 14,5 km/h (3 Bft) 100,00 %
08.05.2018 17:29 21,3 C 19,4 C 50 % 1007,2 hPa 0,0 l/m 16,4 km/h (3 Bft) O-NO 76 1 min 0,000 mm 1,0 UV-I 365 W/m 10,4 C 18,5 C 22,5 km/h (4 Bft) 91,30 %
08.05.2018 17:30 21,3 C 19,4 C 49 % 1007,2 hPa 0,0 l/m 23,7 km/h (4 Bft) O-SO 106 1 min 0,000 mm 1,0 UV-I 397 W/m 10,1 C 17,3 C 30,6 km/h (5 Bft) 95,83 %
08.05.2018 17:31 21,2 C 19,4 C 49 % 1007,2 hPa 0,0 l/m 21,5 km/h (4 Bft) O 86 1 min 0,000 mm 1,0 UV-I 413 W/m 10,1 C 17,5 C 25,7 km/h (4 Bft) 91,30 %
08.05.2018 17:32 21,2 C 19,4 C 48 % 1007,2 hPa 0,0 l/m 18,9 km/h (3 Bft) O 86 1 min 0,000 mm 0,9 UV-I 389 W/m 9,7 C 17,9 C 24,1 km/h (4 Bft) 95,83 %
08.05.2018 17:33 21,2 C 19,4 C 48 % 1007,2 hPa 0,0 l/m 18,9 km/h (3 Bft) O-NO 67 1 min 0,000 mm 0,9 UV-I 375 W/m 9,7 C 17,9 C 22,5 km/h (4 Bft) 95,83 %
08.05.2018 17:34 21,2 C 19,4 C 50 % 1007,2 hPa 0,0 l/m 18,6 km/h (3 Bft) O-NO 72 1 min 0,000 mm 0,9 UV-I 365 W/m 10,4 C 18,0 C 22,5 km/h (4 Bft) 95,65 %
08.05.2018 17:35 21,1 C 19,4 C 50 % 1007,2 hPa 0,0 l/m 14,7 km/h (3 Bft) O-NO 60 1 min 0,000 mm 0,9 UV-I 358 W/m 10,3 C 18,6 C 20,9 km/h (4 Bft) 95,83 %
08.05.2018 17:36 21,2 C 19,4 C 51 % 1007,2 hPa 0,0 l/m 13,6 km/h (3 Bft) O-NO 69 1 min 0,000 mm 0,8 UV-I 312 W/m 10,7 C 19,0 C 19,3 km/h (3 Bft) 91,30 %
08.05.2018 17:37 21,1 C 19,4 C 49 % 1007,2 hPa 0,0 l/m 12,1 km/h (2 Bft) O-NO 64 1 min 0,000 mm 0,9 UV-I 347 W/m 10,0 C 19,3 C 16,1 km/h (3 Bft) 91,67 %
08.05.2018 17:38 21,1 C 19,4 C 49 % 1007,2 hPa 0,0 l/m 10,1 km/h (2 Bft) NO 47 1 min 0,000 mm 0,9 UV-I 360 W/m 10,0 C 19,8 C 12,9 km/h (3 Bft) 100,00 %
08.05.2018 17:39 21,1 C 19,4 C 49 % 1007,2 hPa 0,0 l/m 7,6 km/h (2 Bft) O 79 1 min 0,000 mm 0,9 UV-I 386 W/m 10,0 C 20,7 C 11,3 km/h (2 Bft) 94,87 %
08.05.2018 17:40 21,1 C 19,4 C 50 % 1007,1 hPa 0,0 l/m 10,8 km/h (2 Bft) O 88 1 min 0,000 mm 0,9 UV-I 426 W/m 10,3 C 19,6 C 14,5 km/h (3 Bft) 95,65 %
08.05.2018 17:41 21,2 C 19,4 C 52 % 1007,1 hPa 0,0 l/m 6,9 km/h (2 Bft) O-SO 111 1 min 0,000 mm 0,9 UV-I 436 W/m 10,9 C 21,0 C 11,3 km/h (2 Bft) 95,83 %
08.05.2018 17:42 21,2 C 19,4 C 51 % 1007,1 hPa 0,0 l/m 7,0 km/h (2 Bft) O 99 1 min 0,000 mm 0,9 UV-I 426 W/m 10,7 C 21,0 C 16,1 km/h (3 Bft) 95,65 %
08.05.2018 17:43 21,2 C 19,4 C 50 % 1007,1 hPa 0,0 l/m 16,4 km/h (3 Bft) O 88 1 min 0,000 mm 0,8 UV-I 410 W/m 10,4 C 18,4 C 20,9 km/h (4 Bft) 95,83 %
08.05.2018 17:44 21,2 C 19,4 C 49 % 1007,1 hPa 0,0 l/m 12,9 km/h (3 Bft) O-SO 115 1 min 0,000 mm 0,8 UV-I 351 W/m 10,1 C 19,2 C 17,7 km/h (3 Bft) 91,30 %
08.05.2018 17:45 21,2 C 19,4 C 48 % 1007,1 hPa 0,0 l/m 8,1 km/h (2 Bft) O 88 1 min 0,000 mm 0,8 UV-I 345 W/m 9,7 C 20,6 C 11,3 km/h (2 Bft) 95,83 %
08.05.2018 17:46 21,2 C 19,4 C 49 % 1007,2 hPa 0,0 l/m 11,3 km/h (2 Bft) O-SO 109 1 min 0,000 mm 0,7 UV-I 329 W/m 10,1 C 19,6 C 16,1 km/h (3 Bft) 96,15 %
08.05.2018 17:47 21,2 C 19,4 C 49 % 1007,1 hPa 0,0 l/m 8,9 km/h (2 Bft) O-NO 74 1 min 0,000 mm 0,7 UV-I 310 W/m 10,1 C 20,3 C 14,5 km/h (3 Bft) 95,83 %
08.05.2018 17:48 21,2 C 19,4 C 49 % 1007,2 hPa 0,0 l/m 10,3 km/h (2 Bft) O 89 1 min 0,000 mm 0,6 UV-I 245 W/m 10,1 C 19,9 C 14,5 km/h (3 Bft) 100,00 %
08.05.2018 17:49 21,1 C 19,4 C 49 % 1007,1 hPa 0,0 l/m 8,5 km/h (2 Bft) O 99 0 min 0,000 mm 0,6 UV-I 208 W/m 10,0 C 20,3 C 12,9 km/h (3 Bft) 100,00 %
08.05.2018 17:50 21,0 C 19,4 C 49 % 1007,1 hPa 0,0 l/m 6,9 km/h (2 Bft) O-SO 103 0 min 0,000 mm 0,6 UV-I 203 W/m 9,9 C 20,8 C 11,3 km/h (2 Bft) 95,65 %
08.05.2018 17:51 21,0 C 19,4 C 50 % 1007,1 hPa 0,0 l/m 7,6 km/h (2 Bft) O 86 0 min 0,000 mm 0,6 UV-I 202 W/m 10,2 C 20,5 C 12,9 km/h (3 Bft) 91,67 %
08.05.2018 17:52 20,9 C 19,4 C 49 % 1007,1 hPa 0,0 l/m 7,6 km/h (2 Bft) O-NO 60 0 min 0,000 mm 0,6 UV-I 190 W/m 9,8 C 20,4 C 11,3 km/h (2 Bft) 100,00 %
08.05.2018 17:53 20,8 C 19,4 C 50 % 1007,1 hPa 0,0 l/m 8,8 km/h (2 Bft) NO 53 0 min 0,000 mm 0,6 UV-I 184 W/m 10,0 C 19,9 C 12,9 km/h (3 Bft) 100,00 %
08.05.2018 17:54 20,8 C 19,4 C 50 % 1007,1 hPa 0,0 l/m 11,8 km/h (2 Bft) O-SO 109 0 min 0,000 mm 0,6 UV-I 186 W/m 10,0 C 19,0 C 14,5 km/h (3 Bft) 100,00 %
08.05.2018 17:55 20,7 C 19,4 C 50 % 1007,1 hPa 0,0 l/m 13,9 km/h (3 Bft) O 93 0 min 0,000 mm 0,6 UV-I 193 W/m 9,9 C 18,4 C 16,1 km/h (3 Bft) 100,00 %
08.05.2018 17:56 20,7 C 19,4 C 49 % 1007,1 hPa 0,0 l/m 12,9 km/h (3 Bft) O 94 0 min 0,000 mm 0,6 UV-I 194 W/m 9,6 C 18,6 C 16,1 km/h (3 Bft) 100,00 %
08.05.2018 17:57 20,6 C 19,4 C 49 % 1007,1 hPa 0,0 l/m 9,9 km/h (2 Bft) O-SO 107 0 min 0,000 mm 0,6 UV-I 204 W/m 9,5 C 19,3 C 12,9 km/h (3 Bft) 100,00 %
08.05.2018 17:58 20,6 C 19,4 C 50 % 1007,1 hPa 0,0 l/m 9,5 km/h (2 Bft) O-SO 104 1 min 0,000 mm 0,6 UV-I 214 W/m 9,8 C 19,5 C 14,5 km/h (3 Bft) 100,00 %
08.05.2018 17:59 20,6 C 19,4 C 49 % 1007,1 hPa 0,0 l/m 12,3 km/h (3 Bft) O 101 1 min 0,000 mm 0,6 UV-I 223 W/m 9,5 C 18,6 C 14,5 km/h (3 Bft) 100,00 %
08.05.2018 18:00 20,6 C 19,4 C 49 % 1007,1 hPa 0,0 l/m 7,3 km/h (2 Bft) O 96 1 min 0,000 mm 0,6 UV-I 233 W/m 9,5 C 20,2 C 11,3 km/h (2 Bft) 100,00 %
08.05.2018 18:01 20,6 C 19,4 C 49 % 1007,1 hPa 0,0 l/m 11,5 km/h (2 Bft) O 96 1 min 0,330 mm 0,6 UV-I 246 W/m 9,5 C 18,9 C 12,9 km/h (3 Bft) 100,00 %
08.05.2018 18:02 20,6 C 19,4 C 49 % 1007,1 hPa 0,0 l/m 7,5 km/h (2 Bft) SO 134 1 min 0,000 mm 0,6 UV-I 258 W/m 9,5 C 20,2 C 11,3 km/h (2 Bft) 100,00 %
08.05.2018 18:03 20,6 C 19,4 C 50 % 1007,1 hPa 0,0 l/m 9,7 km/h (2 Bft) O-SO 107 1 min 0,000 mm 0,6 UV-I 284 W/m 9,8 C 19,4 C 12,9 km/h (3 Bft) 100,00 %
08.05.2018 18:04 20,7 C 19,4 C 49 % 1007,1 hPa 0,0 l/m 11,6 km/h (2 Bft) O 94 1 min 0,000 mm 0,6 UV-I 325 W/m 9,6 C 18,9 C 14,5 km/h (3 Bft) 100,00 %
08.05.2018 18:05 20,7 C 19,4 C 49 % 1007,1 hPa 0,0 l/m 10,8 km/h (2 Bft) O 92 1 min 0,000 mm 0,6 UV-I 350 W/m 9,6 C 19,2 C 12,9 km/h (3 Bft) 100,00 %
08.05.2018 18:06 20,8 C 19,4 C 50 % 1007,1 hPa 0,0 l/m 11,7 km/h (2 Bft) O-SO 108 1 min 0,000 mm 0,6 UV-I 354 W/m 10,0 C 19,0 C 14,5 km/h (3 Bft) 100,00 %
08.05.2018 18:07 20,8 C 19,4 C 49 % 1007,1 hPa 0,0 l/m 9,2 km/h (2 Bft) O-SO 107 1 min 0,000 mm 0,6 UV-I 362 W/m 9,7 C 19,8 C 11,3 km/h (2 Bft) 100,00 %
08.05.2018 18:08 20,8 C 19,4 C 49 % 1007,1 hPa 0,0 l/m 11,9 km/h (2 Bft) O 98 1 min 0,000 mm 0,6 UV-I 358 W/m 9,7 C 19,0 C 14,5 km/h (3 Bft) 100,00 %
08.05.2018 18:09 20,9 C 19,4 C 51 % 1007,0 hPa 0,0 l/m 10,3 km/h (2 Bft) O-SO 113 1 min 0,000 mm 0,6 UV-I 358 W/m 10,4 C 19,5 C 12,9 km/h (3 Bft) 100,00 %
08.05.2018 18:10 20,9 C 19,4 C 49 % 1007,0 hPa 0,0 l/m 13,6 km/h (3 Bft) O 90 1 min 0,000 mm 0,5 UV-I 340 W/m 9,8 C 18,7 C 16,1 km/h (3 Bft) 100,00 %
08.05.2018 18:11 21,0 C 19,4 C 49 % 1007,0 hPa 0,0 l/m 11,3 km/h (2 Bft) O 94 1 min 0,000 mm 0,5 UV-I 350 W/m 9,9 C 19,4 C 14,5 km/h (3 Bft) 100,00 %
08.05.2018 18:12 21,1 C 19,4 C 49 % 1006,9 hPa 0,0 l/m 9,5 km/h (2 Bft) O-SO 102 1 min 0,000 mm 0,5 UV-I 330 W/m 10,0 C 20,0 C 14,5 km/h (3 Bft) 100,00 %
08.05.2018 18:13 21,1 C 19,4 C 49 % 1006,9 hPa 0,0 l/m 11,7 km/h (2 Bft) O-SO 112 1 min 0,000 mm 0,5 UV-I 315 W/m 10,0 C 19,4 C 17,7 km/h (3 Bft) 95,83 %
08.05.2018 18:14 21,1 C 19,4 C 49 % 1006,9 hPa 0,0 l/m 8,6 km/h (2 Bft) O 101 1 min 0,000 mm 0,0 UV-I 298 W/m 10,0 C 20,3 C 16,1 km/h (3 Bft) 100,00 %
08.05.2018 18:15 21,1 C 19,4 C 49 % 1006,9 hPa 0,0 l/m 8,8 km/h (2 Bft) O 79 1 min 0,000 mm 0,0 UV-I 266 W/m 10,0 C 20,2 C 12,9 km/h (3 Bft) 100,00 %
08.05.2018 18:16 21,1 C 19,4 C 49 % 1006,9 hPa 0,0 l/m 12,3 km/h (3 Bft) O 94 1 min 0,000 mm 0,0 UV-I 224 W/m 10,0 C 19,2 C 14,5 km/h (3 Bft) 95,65 %
08.05.2018 18:17 21,0 C 19,4 C 48 % 1006,9 hPa 0,0 l/m 12,8 km/h (3 Bft) O-SO 108 1 min 0,000 mm 0,0 UV-I 204 W/m 9,6 C 19,0 C 14,5 km/h (3 Bft) 100,00 %
08.05.2018 18:18 20,9 C 19,4 C 50 % 1007,0 hPa 0,0 l/m 16,9 km/h (3 Bft) O 86 1 min 0,000 mm 0,0 UV-I 190 W/m 10,1 C 17,9 C 20,9 km/h (4 Bft) 95,65 %
08.05.2018 18:19 20,8 C 19,4 C 49 % 1007,0 hPa 0,0 l/m 15,9 km/h (3 Bft) O 100 1 min 0,000 mm 0,0 UV-I 185 W/m 9,7 C 18,0 C 19,3 km/h (3 Bft) 100,00 %
08.05.2018 18:20 20,8 C 19,4 C 50 % 1006,9 hPa 0,0 l/m 16,9 km/h (3 Bft) O-SO 105 0 min 0,000 mm 0,0 UV-I 172 W/m 10,0 C 17,8 C 19,3 km/h (3 Bft) 100,00 %
08.05.2018 18:21 20,7 C 19,4 C 50 % 1007,0 hPa 0,0 l/m 12,7 km/h (3 Bft) O 92 0 min 0,000 mm 0,0 UV-I 174 W/m 9,9 C 18,7 C 14,5 km/h (3 Bft) 100,00 %
08.05.2018 18:22 20,6 C 19,4 C 50 % 1006,9 hPa 0,0 l/m 8,0 km/h (2 Bft) O 98 0 min 0,000 mm 0,0 UV-I 166 W/m 9,8 C 20,0 C 11,3 km/h (2 Bft) 100,00 %
08.05.2018 18:23 20,6 C 19,4 C 50 % 1006,9 hPa 0,0 l/m 8,2 km/h (2 Bft) O-SO 118 0 min 0,000 mm 0,0 UV-I 146 W/m 9,8 C 19,9 C 12,9 km/h (3 Bft) 100,00 %
08.05.2018 18:24 20,5 C 19,4 C 51 % 1006,9 hPa 0,0 l/m 7,7 km/h (2 Bft) SO 127 0 min 0,000 mm 0,0 UV-I 133 W/m 10,0 C 20,0 C 11,3 km/h (2 Bft) 91,30 %
08.05.2018 18:25 20,5 C 19,4 C 52 % 1006,9 hPa 0,0 l/m 9,5 km/h (2 Bft) O-SO 115 0 min 0,000 mm 0,0 UV-I 121 W/m 10,3 C 19,4 C 12,9 km/h (3 Bft) 100,00 %
08.05.2018 18:26 20,4 C 19,4 C 51 % 1006,9 hPa 0,0 l/m 12,3 km/h (3 Bft) O-SO 107 0 min 0,000 mm 0,0 UV-I 114 W/m 9,9 C 18,4 C 16,1 km/h (3 Bft) 100,00 %
08.05.2018 18:27 20,4 C 19,4 C 51 % 1006,9 hPa 0,0 l/m 14,0 km/h (3 Bft) O 88 0 min 0,000 mm 0,0 UV-I 107 W/m 9,9 C 18,0 C 17,7 km/h (3 Bft) 100,00 %
08.05.2018 18:28 20,3 C 19,4 C 51 % 1006,9 hPa 0,0 l/m 14,2 km/h (3 Bft) O-SO 111 0 min 0,000 mm 0,0 UV-I 99 W/m 9,8 C 17,8 C 16,1 km/h (3 Bft) 100,00 %
08.05.2018 18:29 20,3 C 19,4 C 52 % 1006,9 hPa 0,0 l/m 11,5 km/h (2 Bft) O 87 0 min 0,000 mm 0,0 UV-I 94 W/m 10,1 C 18,5 C 14,5 km/h (3 Bft) 100,00 %
08.05.2018 18:30 20,2 C 19,4 C 52 % 1006,9 hPa 0,0 l/m 8,5 km/h (2 Bft) O-SO 103 0 min 0,000 mm 0,0 UV-I 89 W/m 10,0 C 19,4 C 12,9 km/h (3 Bft) 100,00 %
08.05.2018 18:31 20,2 C 19,4 C 52 % 1006,9 hPa 0,0 l/m 8,9 km/h (2 Bft) O-SO 109 0 min 0,000 mm 0,0 UV-I 85 W/m 10,0 C 19,2 C 12,9 km/h (3 Bft) 100,00 %
08.05.2018 18:32 20,1 C 19,4 C 52 % 1006,9 hPa 0,0 l/m 10,1 km/h (2 Bft) O-SO 118 0 min 0,000 mm 0,0 UV-I 81 W/m 9,9 C 18,7 C 12,9 km/h (3 Bft) 100,00 %
08.05.2018 18:33 20,1 C 19,4 C 53 % 1006,9 hPa 0,0 l/m 7,6 km/h (2 Bft) O-NO 71 0 min 0,000 mm 0,0 UV-I 78 W/m 10,2 C 19,6 C 11,3 km/h (2 Bft) 100,00 %
08.05.2018 18:34 20,0 C 19,4 C 53 % 1006,9 hPa 0,0 l/m 9,1 km/h (2 Bft) O-SO 102 0 min 0,000 mm 0,0 UV-I 76 W/m 10,1 C 18,9 C 12,9 km/h (3 Bft) 100,00 %
08.05.2018 18:35 19,9 C 19,4 C 53 % 1006,9 hPa 0,0 l/m 7,1 km/h (2 Bft) O 94 0 min 0,000 mm 0,0 UV-I 74 W/m 10,0 C 19,6 C 11,3 km/h (2 Bft) 100,00 %
08.05.2018 18:36 19,9 C 19,4 C 53 % 1006,8 hPa 0,0 l/m 9,0 km/h (2 Bft) O 82 0 min 0,000 mm 0,0 UV-I 74 W/m 10,0 C 18,9 C 11,3 km/h (2 Bft) 100,00 %
08.05.2018 18:37 19,9 C 19,4 C 53 % 1006,8 hPa 0,0 l/m 7,0 km/h (2 Bft) O 84 0 min 0,000 mm 0,0 UV-I 74 W/m 10,0 C 19,7 C 11,3 km/h (2 Bft) 100,00 %
08.05.2018 18:38 19,9 C 19,4 C 53 % 1006,8 hPa 0,0 l/m 7,1 km/h (2 Bft) O-NO 69 0 min 0,000 mm 0,0 UV-I 74 W/m 10,0 C 19,6 C 9,7 km/h (2 Bft) 100,00 %
08.05.2018 18:39 19,8 C 19,4 C 54 % 1006,8 hPa 0,0 l/m 6,8 km/h (2 Bft) O 94 0 min 0,000 mm 0,0 UV-I 73 W/m 10,2 C 19,6 C 11,3 km/h (2 Bft) 100,00 %
08.05.2018 18:40 19,8 C 19,4 C 54 % 1006,8 hPa 0,0 l/m 5,6 km/h (1 Bft) O-SO 111 0 min 0,000 mm 0,0 UV-I 74 W/m 10,2 C 19,8 C 9,7 km/h (2 Bft) 100,00 %
08.05.2018 18:41 19,8 C 19,4 C 54 % 1006,8 hPa 0,0 l/m 6,0 km/h (2 Bft) O 91 0 min 0,000 mm 0,0 UV-I 74 W/m 10,2 C 19,8 C 9,7 km/h (2 Bft) 91,30 %
08.05.2018 18:42 19,8 C 19,4 C 54 % 1006,8 hPa 0,0 l/m 7,0 km/h (2 Bft) O 82 0 min 0,000 mm 0,0 UV-I 74 W/m 10,2 C 19,6 C 11,3 km/h (2 Bft) 100,00 %
08.05.2018 18:43 19,7 C 19,4 C 54 % 1006,8 hPa 0,0 l/m 7,7 km/h (2 Bft) O-SO 103 0 min 0,000 mm 0,0 UV-I 73 W/m 10,1 C 19,2 C 9,7 km/h (2 Bft) 95,65 %
08.05.2018 18:44 19,7 C 19,4 C 54 % 1006,8 hPa 0,0 l/m 6,2 km/h (2 Bft) O 92 0 min 0,000 mm 0,0 UV-I 73 W/m 10,1 C 19,7 C 9,7 km/h (2 Bft) 100,00 %
08.05.2018 18:45 19,7 C 19,4 C 54 % 1006,8 hPa 0,0 l/m 4,8 km/h (1 Bft) O 98 0 min 0,000 mm 0,0 UV-I 74 W/m 10,1 C 19,7 C 6,4 km/h (2 Bft) 95,65 %
08.05.2018 18:46 19,7 C 19,4 C 54 % 1006,7 hPa 0,0 l/m 4,4 km/h (1 Bft) O 98 0 min 0,000 mm 0,0 UV-I 76 W/m 10,1 C 19,7 C 6,4 km/h (2 Bft) 100,00 %
08.05.2018 18:47 19,7 C 19,4 C 55 % 1006,7 hPa 0,0 l/m 4,1 km/h (1 Bft) O 101 0 min 0,000 mm 0,0 UV-I 77 W/m 10,4 C 19,7 C 6,4 km/h (2 Bft) 100,00 %
08.05.2018 18:48 19,7 C 19,4 C 54 % 1006,7 hPa 0,0 l/m 6,1 km/h (2 Bft) O 98 0 min 0,000 mm 0,0 UV-I 80 W/m 10,1 C 19,7 C 9,7 km/h (2 Bft) 100,00 %
08.05.2018 18:49 19,7 C 19,4 C 54 % 1006,7 hPa 0,0 l/m 5,6 km/h (1 Bft) O 90 0 min 0,000 mm 0,0 UV-I 83 W/m 10,1 C 19,7 C 6,4 km/h (2 Bft) 95,65 %
08.05.2018 18:50 19,7 C 19,4 C 54 % 1006,7 hPa 0,0 l/m 7,3 km/h (2 Bft) O-SO 105 0 min 0,000 mm 0,0 UV-I 85 W/m 10,1 C 19,3 C 9,7 km/h (2 Bft) 95,83 %
08.05.2018 18:51 19,7 C 19,4 C 54 % 1006,6 hPa 0,0 l/m 6,8 km/h (2 Bft) O 92 0 min 0,000 mm 0,0 UV-I 87 W/m 10,1 C 19,5 C 9,7 km/h (2 Bft) 100,00 %
08.05.2018 18:52 19,6 C 19,4 C 54 % 1006,7 hPa 0,0 l/m 9,1 km/h (2 Bft) O 101 0 min 0,000 mm 0,0 UV-I 88 W/m 10,0 C 18,5 C 11,3 km/h (2 Bft) 95,83 %
08.05.2018 18:53 19,6 C 19,4 C 54 % 1006,7 hPa 0,0 l/m 6,1 km/h (2 Bft) O-SO 115 0 min 0,000 mm 0,0 UV-I 86 W/m 10,0 C 19,6 C 9,7 km/h (2 Bft) 100,00 %
08.05.2018 18:54 19,6 C 19,4 C 54 % 1006,6 hPa 0,0 l/m 5,1 km/h (1 Bft) O 94 0 min 0,000 mm 0,0 UV-I 84 W/m 10,0 C 19,6 C 6,4 km/h (2 Bft) 95,65 %
08.05.2018 18:55 19,6 C 19,4 C 54 % 1006,7 hPa 0,0 l/m 5,2 km/h (1 Bft) O 90 0 min 0,000 mm 0,0 UV-I 81 W/m 10,0 C 19,6 C 6,4 km/h (2 Bft) 100,00 %
08.05.2018 18:56 19,6 C 19,4 C 55 % 1006,6 hPa 0,0 l/m 5,1 km/h (1 Bft) O-NO 71 0 min 0,000 mm 0,0 UV-I 77 W/m 10,3 C 19,6 C 6,4 km/h (2 Bft) 100,00 %
08.05.2018 18:57 19,6 C 19,4 C 55 % 1006,7 hPa 0,0 l/m 4,6 km/h (1 Bft) O 87 0 min 0,000 mm 0,0 UV-I 75 W/m 10,3 C 19,6 C 6,4 km/h (2 Bft) 100,00 %
08.05.2018 18:58 19,6 C 19,4 C 56 % 1006,6 hPa 0,0 l/m 3,6 km/h (1 Bft) O 87 0 min 0,000 mm 0,0 UV-I 70 W/m 10,6 C 19,6 C 4,8 km/h (1 Bft) 95,65 %
08.05.2018 18:59 19,5 C 19,4 C 55 % 1006,7 hPa 0,0 l/m 3,4 km/h (1 Bft) O 84 0 min 0,000 mm 0,0 UV-I 66 W/m 10,2 C 19,5 C 4,8 km/h (1 Bft) 100,00 %
08.05.2018 19:00 19,4 C 19,4 C 56 % 1006,6 hPa 0,0 l/m 3,3 km/h (1 Bft) O 84 0 min 0,000 mm 0,0 UV-I 62 W/m 10,4 C 19,4 C 4,8 km/h (1 Bft) 91,30 %
08.05.2018 19:01 19,3 C 19,4 C 57 % 1006,7 hPa 0,0 l/m 3,9 km/h (1 Bft) O 82 0 min 0,153 mm 0,0 UV-I 59 W/m 10,6 C 19,3 C 6,4 km/h (2 Bft) 100,00 %
08.05.2018 19:02 19,2 C 19,4 C 58 % 1006,7 hPa 0,0 l/m 4,2 km/h (1 Bft) O-NO 65 0 min 0,000 mm 0,0 UV-I 56 W/m 10,7 C 19,2 C 6,4 km/h (2 Bft) 100,00 %
08.05.2018 19:03 19,1 C 19,4 C 59 % 1006,7 hPa 0,0 l/m 4,4 km/h (1 Bft) O-NO 67 0 min 0,000 mm 0,0 UV-I 53 W/m 10,9 C 19,1 C 6,4 km/h (2 Bft) 100,00 %
08.05.2018 19:04 19,1 C 19,4 C 59 % 1006,7 hPa 0,0 l/m 5,2 km/h (1 Bft) NO 49 0 min 0,000 mm 0,0 UV-I 51 W/m 10,9 C 19,1 C 6,4 km/h (2 Bft) 100,00 %
08.05.2018 19:05 19,0 C 19,4 C 60 % 1006,7 hPa 0,0 l/m 5,3 km/h (1 Bft) O-NO 59 0 min 0,000 mm 0,0 UV-I 49 W/m 11,1 C 19,0 C 6,4 km/h (2 Bft) 100,00 %
08.05.2018 19:06 18,9 C 19,4 C 60 % 1006,7 hPa 0,0 l/m 5,0 km/h (1 Bft) NO 53 0 min 0,000 mm 0,0 UV-I 48 W/m 11,0 C 18,9 C 6,4 km/h (2 Bft) 100,00 %
08.05.2018 19:07 18,8 C 19,4 C 60 % 1006,7 hPa 0,0 l/m 4,6 km/h (1 Bft) NO 53 0 min 0,000 mm 0,0 UV-I 47 W/m 10,9 C 18,8 C 6,4 km/h (2 Bft) 100,00 %
08.05.2018 19:08 18,8 C 19,4 C 60 % 1006,6 hPa 0,0 l/m 5,2 km/h (1 Bft) NO 49 0 min 0,000 mm 0,0 UV-I 47 W/m 10,9 C 18,8 C 6,4 km/h (2 Bft) 97,60 %
08.05.2018 19:09 18,8 C 19,4 C 59 % 1006,7 hPa 0,0 l/m 6,0 km/h (2 Bft) O-NO 57 0 min 0,000 mm 0,0 UV-I 47 W/m 10,6 C 18,8 C 8,0 km/h (2 Bft) 97,37 %
08.05.2018 19:10 18,8 C 19,4 C 59 % 1006,6 hPa 0,0 l/m 5,3 km/h (1 Bft) NO 37 0 min 0,000 mm 0,0 UV-I 47 W/m 10,6 C 18,8 C 8,0 km/h (2 Bft) 100,00 %
08.05.2018 19:11 18,8 C 19,4 C 60 % 1006,6 hPa 0,0 l/m 5,5 km/h (1 Bft) NO 46 0 min 0,000 mm 0,0 UV-I 47 W/m 10,9 C 18,8 C 6,4 km/h (2 Bft) 96,15 %
08.05.2018 19:12 18,8 C 19,4 C 59 % 1006,6 hPa 0,0 l/m 4,6 km/h (1 Bft) NO 42 0 min 0,000 mm 0,0 UV-I 49 W/m 10,6 C 18,8 C 6,4 km/h (2 Bft) 95,83 %
08.05.2018 19:13 18,8 C 19,4 C 60 % 1006,6 hPa 0,0 l/m 4,8 km/h (1 Bft) NO 56 0 min 0,000 mm 0,0 UV-I 50 W/m 10,9 C 18,8 C 6,4 km/h (2 Bft) 100,00 %
08.05.2018 19:14 18,8 C 19,4 C 59 % 1006,7 hPa 0,0 l/m 4,4 km/h (1 Bft) NO 55 0 min 0,000 mm 0,0 UV-I 52 W/m 10,6 C 18,8 C 6,4 km/h (2 Bft) 95,83 %
08.05.2018 19:15 18,8 C 19,4 C 59 % 1006,6 hPa 0,0 l/m 4,3 km/h (1 Bft) NO 52 0 min 0,000 mm 0,0 UV-I 54 W/m 10,6 C 18,8 C 6,4 km/h (2 Bft) 100,00 %
08.05.2018 19:16 18,8 C 19,4 C 59 % 1006,6 hPa 0,0 l/m 3,8 km/h (1 Bft) NO 56 0 min 0,000 mm 0,0 UV-I 58 W/m 10,6 C 18,8 C 4,8 km/h (1 Bft) 95,83 %
08.05.2018 19:18 18,8 C 19,4 C 59 % 1006,6 hPa 0,0 l/m 4,6 km/h (1 Bft) O-NO 67 0 min 0,000 mm 0,0 UV-I 62 W/m 10,6 C 18,8 C 6,4 km/h (2 Bft) 97,87 %
08.05.2018 19:19 18,9 C 19,4 C 59 % 1006,6 hPa 0,0 l/m 3,2 km/h (1 Bft) O-NO 67 0 min 0,000 mm 0,0 UV-I 61 W/m 10,7 C 18,9 C 4,8 km/h (1 Bft) 95,65 %
08.05.2018 19:20 19,0 C 19,4 C 58 % 1006,6 hPa 0,0 l/m 3,3 km/h (1 Bft) O-NO 70 0 min 0,000 mm 0,0 UV-I 57 W/m 10,5 C 19,0 C 4,8 km/h (1 Bft) 95,83 %
08.05.2018 19:21 19,1 C 19,4 C 58 % 1006,6 hPa 0,0 l/m 3,5 km/h (1 Bft) O 90 0 min 0,000 mm 0,0 UV-I 54 W/m 10,6 C 19,1 C 4,8 km/h (1 Bft) 96,15 %
08.05.2018 19:22 19,2 C 19,4 C 58 % 1006,6 hPa 0,0 l/m 5,4 km/h (1 Bft) O-NO 76 0 min 0,000 mm 0,0 UV-I 51 W/m 10,7 C 19,2 C 6,4 km/h (2 Bft) 100,00 %
08.05.2018 19:23 19,2 C 19,4 C 57 % 1006,6 hPa 0,0 l/m 4,4 km/h (1 Bft) O 88 0 min 0,000 mm 0,0 UV-I 46 W/m 10,5 C 19,2 C 6,4 km/h (2 Bft) 86,96 %
08.05.2018 19:24 19,2 C 19,4 C 58 % 1006,6 hPa 0,0 l/m 4,1 km/h (1 Bft) O 92 0 min 0,000 mm 0,0 UV-I 43 W/m 10,7 C 19,2 C 4,8 km/h (1 Bft) 100,00 %
08.05.2018 19:25 19,2 C 19,4 C 59 % 1006,6 hPa 0,0 l/m 4,0 km/h (1 Bft) O-NO 78 0 min 0,000 mm 0,0 UV-I 41 W/m 11,0 C 19,2 C 4,8 km/h (1 Bft) 85,71 %
08.05.2018 19:26 19,2 C 19,4 C 59 % 1006,6 hPa 0,0 l/m 4,4 km/h (1 Bft) O 90 0 min 0,000 mm 0,0 UV-I 39 W/m 11,0 C 19,2 C 6,4 km/h (2 Bft) 100,00 %
08.05.2018 19:28 19,1 C 19,4 C 58 % 1006,7 hPa 0,0 l/m 3,6 km/h (1 Bft) O 94 0 min 0,000 mm 0,0 UV-I 38 W/m 10,6 C 19,1 C 4,8 km/h (1 Bft) 96,00 %
08.05.2018 19:29 19,1 C 19,4 C 58 % 1006,7 hPa 0,0 l/m 3,3 km/h (1 Bft) O-NO 66 0 min 0,000 mm 0,0 UV-I 36 W/m 10,6 C 19,1 C 4,8 km/h (1 Bft) 91,30 %
08.05.2018 19:30 19,1 C 19,4 C 59 % 1006,7 hPa 0,0 l/m 1,9 km/h (1 Bft) O-NO 66 0 min 0,000 mm 0,0 UV-I 35 W/m 10,9 C 19,1 C 3,2 km/h (1 Bft) 95,83 %
08.05.2018 19:31 19,1 C 19,4 C 59 % 1006,7 hPa 0,0 l/m 3,4 km/h (1 Bft) O-NO 65 0 min 0,000 mm 0,0 UV-I 35 W/m 10,9 C 19,1 C 4,8 km/h (1 Bft) 100,00 %
08.05.2018 19:32 19,1 C 19,4 C 60 % 1006,7 hPa 0,0 l/m 3,7 km/h (1 Bft) O-NO 65 0 min 0,000 mm 0,0 UV-I 34 W/m 11,1 C 19,1 C 4,8 km/h (1 Bft) 91,30 %
08.05.2018 19:33 18,9 C 19,4 C 61 % 1006,7 hPa 0,0 l/m 3,4 km/h (1 Bft) O-NO 65 0 min 0,000 mm 0,0 UV-I 33 W/m 11,2 C 18,9 C 4,8 km/h (1 Bft) 100,00 %
08.05.2018 19:34 18,9 C 19,4 C 61 % 1006,7 hPa 0,0 l/m 3,8 km/h (1 Bft) O-NO 67 0 min 0,000 mm 0,0 UV-I 33 W/m 11,2 C 18,9 C 4,8 km/h (1 Bft) 95,65 %
08.05.2018 19:35 18,8 C 19,4 C 60 % 1006,7 hPa 0,0 l/m 3,1 km/h (1 Bft) O-NO 61 0 min 0,000 mm 0,0 UV-I 33 W/m 10,9 C 18,8 C 4,8 km/h (1 Bft) 100,00 %
08.05.2018 19:36 18,8 C 19,4 C 60 % 1006,7 hPa 0,0 l/m 2,7 km/h (1 Bft) O-NO 67 0 min 0,000 mm 0,0 UV-I 33 W/m 10,9 C 18,8 C 4,8 km/h (1 Bft) 95,65 %
08.05.2018 19:37 18,8 C 19,4 C 60 % 1006,8 hPa 0,0 l/m 2,5 km/h (1 Bft) O-NO 67 0 min 0,000 mm 0,0 UV-I 32 W/m 10,9 C 18,8 C 4,8 km/h (1 Bft) 95,83 %
08.05.2018 19:38 18,8 C 19,4 C 61 % 1006,8 hPa 0,0 l/m 3,8 km/h (1 Bft) O-NO 66 0 min 0,000 mm 0,0 UV-I 32 W/m 11,1 C 18,8 C 4,8 km/h (1 Bft) 100,00 %
08.05.2018 19:39 18,8 C 19,4 C 61 % 1006,8 hPa 0,0 l/m 4,4 km/h (1 Bft) O-NO 66 0 min 0,000 mm 0,0 UV-I 30 W/m 11,1 C 18,8 C 4,8 km/h (1 Bft) 95,83 %
08.05.2018 19:40 18,7 C 19,4 C 61 % 1006,8 hPa 0,0 l/m 4,7 km/h (1 Bft) NO 51 0 min 0,000 mm 0,0 UV-I 28 W/m 11,0 C 18,7 C 6,4 km/h (2 Bft) 100,00 %
08.05.2018 19:41 18,7 C 19,4 C 61 % 1006,8 hPa 0,0 l/m 6,1 km/h (2 Bft) O-NO 63 0 min 0,000 mm 0,0 UV-I 26 W/m 11,0 C 18,7 C 9,7 km/h (2 Bft) 95,83 %
08.05.2018 19:42 18,7 C 19,4 C 61 % 1006,8 hPa 0,0 l/m 7,4 km/h (2 Bft) NO 55 0 min 0,000 mm 0,0 UV-I 26 W/m 11,0 C 18,2 C 9,7 km/h (2 Bft) 95,65 %
08.05.2018 19:43 18,6 C 19,4 C 61 % 1006,8 hPa 0,0 l/m 6,0 km/h (2 Bft) NO 51 0 min 0,000 mm 0,0 UV-I 26 W/m 10,9 C 18,6 C 9,7 km/h (2 Bft) 100,00 %
08.05.2018 19:44 18,6 C 19,4 C 61 % 1006,8 hPa 0,0 l/m 7,8 km/h (2 Bft) NO 56 0 min 0,000 mm 0,0 UV-I 26 W/m 10,9 C 18,0 C 9,7 km/h (2 Bft) 100,00 %
08.05.2018 19:45 18,6 C 19,4 C 61 % 1006,9 hPa 0,0 l/m 10,6 km/h (2 Bft) O-NO 61 0 min 0,000 mm 0,0 UV-I 26 W/m 10,9 C 16,9 C 16,1 km/h (3 Bft) 100,00 %
08.05.2018 19:46 18,7 C 19,4 C 60 % 1006,9 hPa 0,0 l/m 11,1 km/h (2 Bft) O-NO 62 0 min 0,000 mm 0,0 UV-I 26 W/m 10,8 C 16,8 C 16,1 km/h (3 Bft) 100,00 %
08.05.2018 19:47 18,7 C 19,4 C 59 % 1006,9 hPa 0,0 l/m 11,9 km/h (2 Bft) O-NO 68 0 min 0,000 mm 0,0 UV-I 27 W/m 10,5 C 16,6 C 14,5 km/h (3 Bft) 100,00 %
08.05.2018 19:48 18,8 C 19,4 C 58 % 1006,9 hPa 0,0 l/m 13,5 km/h (3 Bft) NO 46 0 min 0,000 mm 0,0 UV-I 28 W/m 10,4 C 16,2 C 19,3 km/h (3 Bft) 95,65 %
08.05.2018 19:49 18,9 C 19,4 C 55 % 1006,9 hPa 0,0 l/m 16,4 km/h (3 Bft) O-NO 69 0 min 0,000 mm 0,0 UV-I 28 W/m 9,7 C 15,6 C 19,3 km/h (3 Bft) 100,00 %
08.05.2018 19:50 19,0 C 19,4 C 54 % 1006,9 hPa 0,0 l/m 15,8 km/h (3 Bft) NO 47 0 min 0,000 mm 0,0 UV-I 30 W/m 9,5 C 15,8 C 24,1 km/h (4 Bft) 95,83 %
08.05.2018 19:51 19,1 C 19,4 C 52 % 1007,0 hPa 0,0 l/m 16,6 km/h (3 Bft) O-NO 73 0 min 0,000 mm 0,0 UV-I 30 W/m 9,0 C 15,8 C 19,3 km/h (3 Bft) 100,00 %
08.05.2018 19:52 19,1 C 19,4 C 52 % 1007,0 hPa 0,0 l/m 17,8 km/h (3 Bft) NO 51 0 min 0,000 mm 0,0 UV-I 28 W/m 9,0 C 15,5 C 25,7 km/h (4 Bft) 100,00 %
08.05.2018 19:53 19,2 C 19,4 C 52 % 1007,0 hPa 0,0 l/m 19,6 km/h (3 Bft) O-NO 76 0 min 0,000 mm 0,0 UV-I 27 W/m 9,1 C 15,3 C 25,7 km/h (4 Bft) 100,00 %
08.05.2018 19:54 19,1 C 19,4 C 52 % 1007,0 hPa 0,0 l/m 21,1 km/h (4 Bft) NO 46 0 min 0,000 mm 0,0 UV-I 26 W/m 9,0 C 14,8 C 29,0 km/h (5 Bft) 100,00 %
08.05.2018 19:55 19,1 C 19,4 C 52 % 1007,0 hPa 0,0 l/m 16,0 km/h (3 Bft) NO 51 0 min 0,000 mm 0,0 UV-I 25 W/m 9,0 C 15,9 C 22,5 km/h (4 Bft) 95,65 %
08.05.2018 19:56 19,1 C 19,4 C 52 % 1007,1 hPa 0,0 l/m 13,5 km/h (3 Bft) NO 35 0 min 0,000 mm 0,0 UV-I 23 W/m 9,0 C 16,6 C 19,3 km/h (3 Bft) 100,00 %
08.05.2018 19:57 19,1 C 19,4 C 51 % 1007,1 hPa 0,0 l/m 16,4 km/h (3 Bft) NO 54 0 min 0,000 mm 0,0 UV-I 23 W/m 8,7 C 15,8 C 20,9 km/h (4 Bft) 100,00 %
08.05.2018 19:58 19,0 C 19,4 C 51 % 1007,1 hPa 0,0 l/m 11,9 km/h (2 Bft) O 83 0 min 0,000 mm 0,0 UV-I 21 W/m 8,6 C 16,9 C 16,1 km/h (3 Bft) 100,00 %
08.05.2018 19:59 19,1 C 19,4 C 51 % 1007,1 hPa 0,0 l/m 13,6 km/h (3 Bft) O 88 0 min 0,000 mm 0,0 UV-I 20 W/m 8,7 C 16,5 C 17,7 km/h (3 Bft) 95,65 %
08.05.2018 20:00 19,0 C 19,4 C 51 % 1007,1 hPa 0,0 l/m 10,3 km/h (2 Bft) O-NO 78 0 min 0,000 mm 0,0 UV-I 19 W/m 8,6 C 17,4 C 14,5 km/h (3 Bft) 100,00 %
08.05.2018 20:01 19,0 C 19,4 C 50 % 1007,1 hPa 0,0 l/m 9,7 km/h (2 Bft) O-NO 69 0 min 0,076 mm 0,0 UV-I 19 W/m 8,3 C 17,6 C 11,3 km/h (2 Bft) 100,00 %
08.05.2018 20:02 19,0 C 19,4 C 50 % 1007,1 hPa 0,0 l/m 11,9 km/h (2 Bft) O-NO 75 0 min 0,000 mm 0,0 UV-I 19 W/m 8,3 C 16,9 C 14,5 km/h (3 Bft) 100,00 %
08.05.2018 20:03 18,9 C 19,4 C 50 % 1007,1 hPa 0,0 l/m 9,4 km/h (2 Bft) O 90 0 min 0,000 mm 0,0 UV-I 18 W/m 8,2 C 17,6 C 12,9 km/h (3 Bft) 100,00 %
08.05.2018 20:04 18,9 C 19,4 C 50 % 1007,1 hPa 0,0 l/m 13,9 km/h (3 Bft) O 90 0 min 0,000 mm 0,0 UV-I 18 W/m 8,2 C 16,2 C 17,7 km/h (3 Bft) 100,00 %
08.05.2018 20:05 18,9 C 19,4 C 49 % 1007,1 hPa 0,0 l/m 16,6 km/h (3 Bft) O-NO 76 0 min 0,000 mm 0,0 UV-I 18 W/m 7,9 C 15,5 C 22,5 km/h (4 Bft) 100,00 %
08.05.2018 20:06 18,8 C 19,4 C 49 % 1007,1 hPa 0,0 l/m 16,0 km/h (3 Bft) O-NO 65 0 min 0,000 mm 0,0 UV-I 19 W/m 7,9 C 15,5 C 19,3 km/h (3 Bft) 100,00 %
08.05.2018 20:07 18,8 C 19,4 C 49 % 1007,1 hPa 0,0 l/m 13,3 km/h (3 Bft) O 92 0 min 0,000 mm 0,0 UV-I 19 W/m 7,9 C 16,3 C 16,1 km/h (3 Bft) 100,00 %
08.05.2018 20:08 18,8 C 19,4 C 48 % 1007,2 hPa 0,0 l/m 14,3 km/h (3 Bft) O 99 0 min 0,000 mm 0,0 UV-I 18 W/m 7,6 C 16,0 C 17,7 km/h (3 Bft) 100,00 %
08.05.2018 20:09 18,7 C 19,4 C 47 % 1007,2 hPa 0,0 l/m 14,0 km/h (3 Bft) O-NO 66 0 min 0,000 mm 0,0 UV-I 16 W/m 7,2 C 15,9 C 22,5 km/h (4 Bft) 96,15 %
08.05.2018 20:10 18,7 C 19,4 C 47 % 1007,2 hPa 0,0 l/m 23,2 km/h (4 Bft) NO 55 0 min 0,000 mm 0,0 UV-I 14 W/m 7,2 C 13,9 C 30,6 km/h (5 Bft) 100,00 %
08.05.2018 20:11 18,6 C 19,4 C 46 % 1007,2 hPa 0,0 l/m 19,9 km/h (4 Bft) O-NO 64 0 min 0,000 mm 0,0 UV-I 13 W/m 6,8 C 14,4 C 25,7 km/h (4 Bft) 95,83 %
08.05.2018 20:12 18,6 C 19,4 C 46 % 1007,2 hPa 0,0 l/m 18,8 km/h (3 Bft) O 97 0 min 0,000 mm 0,0 UV-I 12 W/m 6,8 C 14,6 C 24,1 km/h (4 Bft) 95,65 %
08.05.2018 20:13 18,6 C 19,4 C 46 % 1007,4 hPa 0,0 l/m 18,4 km/h (3 Bft) O-NO 69 1 min 0,000 mm 0,0 UV-I 12 W/m 6,8 C 14,7 C 24,1 km/h (4 Bft) 100,00 %
08.05.2018 20:14 18,5 C 19,4 C 46 % 1007,3 hPa 0,0 l/m 24,6 km/h (4 Bft) O-NO 69 1 min 0,000 mm 0,0 UV-I 11 W/m 6,7 C 13,4 C 33,8 km/h (5 Bft) 91,30 %
08.05.2018 20:15 18,4 C 19,4 C 46 % 1007,4 hPa 0,0 l/m 18,8 km/h (3 Bft) O-NO 65 1 min 0,000 mm 0,0 UV-I 11 W/m 6,6 C 14,4 C 25,7 km/h (4 Bft) 100,00 %
08.05.2018 20:16 18,4 C 18,9 C 47 % 1007,4 hPa 0,0 l/m 19,6 km/h (3 Bft) O 82 0 min 0,000 mm 0,0 UV-I 11 W/m 6,9 C 14,2 C 25,7 km/h (4 Bft) 95,65 %
08.05.2018 20:17 18,4 C 19,4 C 47 % 1007,4 hPa 0,0 l/m 18,5 km/h (3 Bft) O-NO 74 0 min 0,000 mm 0,0 UV-I 10 W/m 6,9 C 14,5 C 27,4 km/h (4 Bft) 100,00 %
08.05.2018 20:18 18,3 C 19,4 C 47 % 1007,4 hPa 0,0 l/m 23,3 km/h (4 Bft) O 87 0 min 0,000 mm 0,0 UV-I 9 W/m 6,8 C 13,4 C 32,2 km/h (5 Bft) 95,65 %
08.05.2018 20:19 18,3 C 19,4 C 47 % 1007,5 hPa 0,0 l/m 25,6 km/h (4 Bft) O 86 0 min 0,000 mm 0,0 UV-I 9 W/m 6,8 C 13,0 C 33,8 km/h (5 Bft) 100,00 %
08.05.2018 20:20 18,3 C 18,9 C 47 % 1007,5 hPa 0,0 l/m 25,7 km/h (4 Bft) O-NO 78 0 min 0,000 mm 0,0 UV-I 9 W/m 6,8 C 13,0 C 32,2 km/h (5 Bft) 100,00 %
08.05.2018 20:21 18,2 C 18,9 C 47 % 1007,5 hPa 0,0 l/m 24,7 km/h (4 Bft) O-NO 66 0 min 0,000 mm 0,0 UV-I 9 W/m 6,7 C 13,0 C 30,6 km/h (5 Bft) 100,00 %
08.05.2018 20:22 18,2 C 18,9 C 47 % 1007,5 hPa 0,0 l/m 24,7 km/h (4 Bft) O 85 0 min 0,000 mm 0,0 UV-I 11 W/m 6,7 C 13,0 C 29,0 km/h (5 Bft) 95,65 %
08.05.2018 20:23 18,2 C 18,9 C 48 % 1007,5 hPa 0,0 l/m 28,2 km/h (4 Bft) O-NO 70 0 min 0,000 mm 0,0 UV-I 12 W/m 7,0 C 12,4 C 37,0 km/h (5 Bft) 100,00 %
08.05.2018 20:24 18,2 C 18,9 C 48 % 1007,5 hPa 0,0 l/m 22,5 km/h (4 Bft) O-NO 73 0 min 0,000 mm 0,0 UV-I 11 W/m 7,0 C 13,4 C 32,2 km/h (5 Bft) 100,00 %
08.05.2018 20:25 18,2 C 18,9 C 48 % 1007,6 hPa 0,0 l/m 21,8 km/h (4 Bft) O 81 0 min 0,000 mm 0,0 UV-I 11 W/m 7,0 C 13,5 C 29,0 km/h (5 Bft) 100,00 %
08.05.2018 20:26 18,2 C 19,4 C 48 % 1007,6 hPa 0,0 l/m 16,2 km/h (3 Bft) O-SO 105 0 min 0,000 mm 0,0 UV-I 9 W/m 7,0 C 14,8 C 25,7 km/h (4 Bft) 100,00 %
08.05.2018 20:27 18,1 C 18,9 C 49 % 1007,6 hPa 0,0 l/m 22,1 km/h (4 Bft) NO 50 0 min 0,000 mm 0,0 UV-I 7 W/m 7,2 C 13,3 C 30,6 km/h (5 Bft) 100,00 %
08.05.2018 20:28 18,1 C 18,9 C 48 % 1007,6 hPa 0,0 l/m 20,6 km/h (4 Bft) O 88 0 min 0,000 mm 0,0 UV-I 7 W/m 6,9 C 13,6 C 30,6 km/h (5 Bft) 96,15 %
08.05.2018 20:29 18,1 C 18,9 C 48 % 1007,6 hPa 0,0 l/m 21,6 km/h (4 Bft) O-NO 73 0 min 0,000 mm 0,0 UV-I 6 W/m 6,9 C 13,4 C 30,6 km/h (5 Bft) 100,00 %
08.05.2018 20:30 18,0 C 18,9 C 49 % 1007,6 hPa 0,0 l/m 20,6 km/h (4 Bft) O 88 0 min 0,000 mm 0,0 UV-I 5 W/m 7,1 C 13,5 C 30,6 km/h (5 Bft) 100,00 %
08.05.2018 20:31 18,0 C 18,9 C 49 % 1007,6 hPa 0,0 l/m 22,4 km/h (4 Bft) O 90 0 min 0,000 mm 0,0 UV-I 5 W/m 7,1 C 13,1 C 30,6 km/h (5 Bft) 100,00 %
08.05.2018 20:33 17,9 C 18,9 C 49 % 1007,7 hPa 0,0 l/m 17,2 km/h (3 Bft) O-SO 109 0 min 0,000 mm 0,0 UV-I 5 W/m 7,0 C 14,1 C 27,4 km/h (4 Bft) 100,00 %
08.05.2018 20:34 17,9 C 18,9 C 49 % 1007,7 hPa 0,0 l/m 20,3 km/h (4 Bft) O 90 0 min 0,000 mm 0,0 UV-I 5 W/m 7,0 C 13,4 C 24,1 km/h (4 Bft) 100,00 %
08.05.2018 20:35 17,9 C 18,9 C 49 % 1007,7 hPa 0,0 l/m 20,5 km/h (4 Bft) O 95 0 min 0,000 mm 0,0 UV-I 5 W/m 7,0 C 13,4 C 33,8 km/h (5 Bft) 100,00 %
08.05.2018 20:36 17,8 C 18,9 C 49 % 1007,7 hPa 0,0 l/m 22,1 km/h (4 Bft) O-NO 76 0 min 0,000 mm 0,0 UV-I 5 W/m 6,9 C 12,9 C 27,4 km/h (4 Bft) 100,00 %
08.05.2018 20:37 17,8 C 18,9 C 49 % 1007,6 hPa 0,0 l/m 22,7 km/h (4 Bft) O 87 0 min 0,000 mm 0,0 UV-I 5 W/m 6,9 C 12,8 C 29,0 km/h (5 Bft) 100,00 %
08.05.2018 20:38 17,8 C 18,9 C 49 % 1007,7 hPa 0,0 l/m 15,9 km/h (3 Bft) O 92 0 min 0,000 mm 0,0 UV-I 5 W/m 6,9 C 14,3 C 20,9 km/h (4 Bft) 100,00 %
08.05.2018 20:39 17,7 C 18,9 C 50 % 1007,8 hPa 0,0 l/m 16,6 km/h (3 Bft) O-NO 63 0 min 0,000 mm 0,0 UV-I 5 W/m 7,1 C 14,0 C 20,9 km/h (4 Bft) 100,00 %
08.05.2018 20:40 17,7 C 18,9 C 50 % 1007,8 hPa 0,0 l/m 20,9 km/h (4 Bft) O 92 0 min 0,000 mm 0,0 UV-I 5 W/m 7,1 C 13,0 C 27,4 km/h (4 Bft) 100,00 %
08.05.2018 20:41 17,6 C 18,9 C 50 % 1007,8 hPa 0,0 l/m 17,4 km/h (3 Bft) O-NO 78 0 min 0,000 mm 0,0 UV-I 5 W/m 7,1 C 13,7 C 24,1 km/h (4 Bft) 100,00 %
08.05.2018 20:42 17,6 C 18,9 C 51 % 1007,8 hPa 0,0 l/m 16,9 km/h (3 Bft) O 82 0 min 0,000 mm 0,0 UV-I 5 W/m 7,3 C 13,8 C 20,9 km/h (4 Bft) 100,00 %
08.05.2018 20:43 17,5 C 18,9 C 51 % 1007,8 hPa 0,0 l/m 14,8 km/h (3 Bft) O 97 0 min 0,000 mm 0,0 UV-I 1 W/m 7,3 C 14,3 C 20,9 km/h (4 Bft) 100,00 %
08.05.2018 20:44 17,4 C 18,9 C 51 % 1007,8 hPa 0,0 l/m 19,7 km/h (3 Bft) O-SO 115 0 min 0,000 mm 0,0 UV-I 0 W/m 7,2 C 12,9 C 29,0 km/h (5 Bft) 100,00 %
08.05.2018 20:45 17,4 C 18,9 C 51 % 1007,8 hPa 0,0 l/m 14,7 km/h (3 Bft) O-NO 63 0 min 0,000 mm 0,0 UV-I 0 W/m 7,2 C 14,2 C 20,9 km/h (4 Bft) 100,00 %
08.05.2018 20:46 17,4 C 18,9 C 52 % 1007,8 hPa 0,0 l/m 21,3 km/h (4 Bft) O 98 0 min 0,000 mm 0,0 UV-I 0 W/m 7,4 C 12,6 C 27,4 km/h (4 Bft) 100,00 %
08.05.2018 20:48 17,3 C 18,9 C 52 % 1007,8 hPa 0,0 l/m 19,3 km/h (3 Bft) O 80 0 min 0,000 mm 0,0 UV-I 0 W/m 7,3 C 12,9 C 27,4 km/h (4 Bft) 98,00 %
08.05.2018 20:49 17,3 C 18,9 C 53 % 1007,8 hPa 0,0 l/m 15,5 km/h (3 Bft) O 94 0 min 0,000 mm 0,0 UV-I 0 W/m 7,6 C 13,8 C 24,1 km/h (4 Bft) 100,00 %
08.05.2018 20:50 17,3 C 18,9 C 53 % 1007,8 hPa 0,0 l/m 21,6 km/h (4 Bft) O 94 0 min 0,000 mm 0,0 UV-I 0 W/m 7,6 C 12,4 C 25,7 km/h (4 Bft) 95,65 %
08.05.2018 20:51 17,2 C 18,9 C 53 % 1007,7 hPa 0,0 l/m 15,8 km/h (3 Bft) O 94 0 min 0,000 mm 0,0 UV-I 0 W/m 7,5 C 13,6 C 22,5 km/h (4 Bft) 100,00 %
08.05.2018 20:52 17,2 C 18,9 C 53 % 1007,8 hPa 0,0 l/m 17,7 km/h (3 Bft) O 80 0 min 0,000 mm 0,0 UV-I 0 W/m 7,5 C 13,1 C 24,1 km/h (4 Bft) 95,65 %
08.05.2018 20:53 17,2 C 18,9 C 53 % 1007,8 hPa 0,0 l/m 17,2 km/h (3 Bft) O-NO 69 0 min 0,000 mm 0,0 UV-I 0 W/m 7,5 C 13,3 C 20,9 km/h (4 Bft) 95,83 %
08.05.2018 20:54 17,1 C 18,9 C 54 % 1007,7 hPa 0,0 l/m 16,3 km/h (3 Bft) O 81 0 min 0,000 mm 0,0 UV-I 0 W/m 7,7 C 13,4 C 19,3 km/h (3 Bft) 96,15 %
08.05.2018 20:55 17,1 C 18,9 C 54 % 1007,8 hPa 0,0 l/m 14,7 km/h (3 Bft) O-NO 74 0 min 0,000 mm 0,0 UV-I 0 W/m 7,7 C 13,8 C 19,3 km/h (3 Bft) 95,83 %
08.05.2018 20:56 17,1 C 18,9 C 54 % 1007,8 hPa 0,0 l/m 16,9 km/h (3 Bft) O-NO 58 0 min 0,000 mm 0,0 UV-I 0 W/m 7,7 C 13,2 C 22,5 km/h (4 Bft) 100,00 %
08.05.2018 20:57 17,0 C 18,9 C 54 % 1007,8 hPa 0,0 l/m 18,5 km/h (3 Bft) O 88 0 min 0,000 mm 0,0 UV-I 0 W/m 7,6 C 12,7 C 29,0 km/h (5 Bft) 91,67 %
08.05.2018 20:58 17,0 C 18,9 C 55 % 1007,8 hPa 0,0 l/m 17,6 km/h (3 Bft) O-NO 76 0 min 0,000 mm 0,0 UV-I 0 W/m 7,9 C 12,9 C 27,4 km/h (4 Bft) 95,65 %
08.05.2018 20:59 17,0 C 18,9 C 55 % 1007,8 hPa 0,0 l/m 21,3 km/h (4 Bft) O 85 0 min 0,000 mm 0,0 UV-I 0 W/m 7,9 C 12,0 C 27,4 km/h (4 Bft) 95,83 %
08.05.2018 21:00 17,0 C 18,9 C 55 % 1007,9 hPa 0,0 l/m 20,1 km/h (4 Bft) O-NO 64 0 min 0,000 mm 0,0 UV-I 0 W/m 7,9 C 12,3 C 27,4 km/h (4 Bft) 100,00 %
08.05.2018 21:01 16,9 C 18,9 C 55 % 1007,8 hPa 0,0 l/m 16,0 km/h (3 Bft) O 85 0 min 0,127 mm 0,0 UV-I 0 W/m 7,8 C 13,2 C 22,5 km/h (4 Bft) 95,83 %
08.05.2018 21:02 16,9 C 18,9 C 55 % 1007,8 hPa 0,0 l/m 18,3 km/h (3 Bft) O 79 0 min 0,000 mm 0,0 UV-I 0 W/m 7,8 C 12,6 C 27,4 km/h (4 Bft) 100,00 %
08.05.2018 21:03 16,9 C 18,9 C 55 % 1007,8 hPa 0,0 l/m 17,4 km/h (3 Bft) O-SO 107 0 min 0,000 mm 0,0 UV-I 0 W/m 7,8 C 12,8 C 22,5 km/h (4 Bft) 95,83 %
08.05.2018 21:04 16,9 C 18,9 C 55 % 1007,8 hPa 0,0 l/m 15,5 km/h (3 Bft) O-NO 76 0 min 0,000 mm 0,0 UV-I 0 W/m 7,8 C 13,3 C 20,9 km/h (4 Bft) 100,00 %
08.05.2018 21:05 16,8 C 18,9 C 55 % 1007,8 hPa 0,0 l/m 15,2 km/h (3 Bft) O-NO 66 0 min 0,000 mm 0,0 UV-I 0 W/m 7,7 C 13,3 C 20,9 km/h (4 Bft) 95,83 %
08.05.2018 21:06 16,8 C 18,9 C 55 % 1007,8 hPa 0,0 l/m 14,2 km/h (3 Bft) O-NO 63 0 min 0,000 mm 0,0 UV-I 0 W/m 7,7 C 13,6 C 17,7 km/h (3 Bft) 95,65 %
08.05.2018 21:07 16,8 C 18,9 C 56 % 1007,7 hPa 0,0 l/m 10,0 km/h (2 Bft) O-NO 71 0 min 0,000 mm 0,0 UV-I 0 W/m 8,0 C 15,1 C 14,5 km/h (3 Bft) 95,83 %
08.05.2018 21:08 16,8 C 18,9 C 56 % 1007,8 hPa 0,0 l/m 11,9 km/h (2 Bft) O-NO 71 0 min 0,000 mm 0,0 UV-I 0 W/m 8,0 C 14,4 C 16,1 km/h (3 Bft) 95,65 %
08.05.2018 21:09 16,7 C 18,9 C 56 % 1007,8 hPa 0,0 l/m 13,0 km/h (3 Bft) O 80 0 min 0,000 mm 0,0 UV-I 0 W/m 7,9 C 13,9 C 16,1 km/h (3 Bft) 91,67 %
08.05.2018 21:10 16,7 C 18,9 C 56 % 1007,8 hPa 0,0 l/m 12,8 km/h (3 Bft) O 86 0 min 0,000 mm 0,0 UV-I 0 W/m 7,9 C 14,0 C 16,1 km/h (3 Bft) 100,00 %
08.05.2018 21:11 16,6 C 18,9 C 56 % 1007,8 hPa 0,0 l/m 11,1 km/h (2 Bft) O-NO 59 0 min 0,000 mm 0,0 UV-I 0 W/m 7,8 C 14,4 C 16,1 km/h (3 Bft) 88,46 %
08.05.2018 21:12 16,6 C 18,9 C 56 % 1007,8 hPa 0,0 l/m 12,1 km/h (2 Bft) NO 53 0 min 0,000 mm 0,0 UV-I 0 W/m 7,8 C 14,1 C 16,1 km/h (3 Bft) 95,83 %
08.05.2018 21:13 16,6 C 18,9 C 56 % 1007,8 hPa 0,0 l/m 14,1 km/h (3 Bft) O-NO 76 0 min 0,000 mm 0,0 UV-I 0 W/m 7,8 C 13,4 C 17,7 km/h (3 Bft) 96,15 %
08.05.2018 21:14 16,6 C 18,9 C 57 % 1007,8 hPa 0,0 l/m 13,2 km/h (3 Bft) O 92 0 min 0,000 mm 0,0 UV-I 0 W/m 8,0 C 13,7 C 16,1 km/h (3 Bft) 91,67 %
08.05.2018 21:15 16,5 C 18,9 C 57 % 1007,8 hPa 0,0 l/m 12,3 km/h (3 Bft) O-NO 77 0 min 0,000 mm 0,0 UV-I 0 W/m 8,0 C 13,9 C 16,1 km/h (3 Bft) 100,00 %
08.05.2018 21:16 16,5 C 18,9 C 57 % 1007,8 hPa 0,0 l/m 12,1 km/h (2 Bft) O 82 0 min 0,000 mm 0,0 UV-I 0 W/m 8,0 C 14,0 C 16,1 km/h (3 Bft) 91,67 %
08.05.2018 21:17 16,4 C 18,9 C 57 % 1007,9 hPa 0,0 l/m 13,5 km/h (3 Bft) O 80 0 min 0,000 mm 0,0 UV-I 0 W/m 7,9 C 13,4 C 16,1 km/h (3 Bft) 100,00 %
08.05.2018 21:18 16,4 C 18,9 C 57 % 1007,8 hPa 0,0 l/m 11,5 km/h (2 Bft) O-NO 76 0 min 0,000 mm 0,0 UV-I 0 W/m 7,9 C 14,1 C 19,3 km/h (3 Bft) 91,67 %
08.05.2018 21:19 16,4 C 18,9 C 57 % 1007,9 hPa 0,0 l/m 12,5 km/h (3 Bft) O 92 0 min 0,000 mm 0,0 UV-I 0 W/m 7,9 C 13,7 C 16,1 km/h (3 Bft) 100,00 %
08.05.2018 21:20 16,4 C 18,9 C 57 % 1007,9 hPa 0,0 l/m 8,2 km/h (2 Bft) O 98 0 min 0,000 mm 0,0 UV-I 0 W/m 7,9 C 15,5 C 12,9 km/h (3 Bft) 91,67 %
08.05.2018 21:21 16,3 C 18,9 C 57 % 1007,9 hPa 0,0 l/m 9,7 km/h (2 Bft) O 94 0 min 0,000 mm 0,0 UV-I 0 W/m 7,8 C 14,7 C 14,5 km/h (3 Bft) 92,31 %
08.05.2018 21:22 16,3 C 18,9 C 58 % 1007,9 hPa 0,0 l/m 7,7 km/h (2 Bft) O 91 0 min 0,000 mm 0,0 UV-I 0 W/m 8,0 C 15,6 C 12,9 km/h (3 Bft) 100,00 %
08.05.2018 21:23 16,3 C 18,9 C 58 % 1007,9 hPa 0,0 l/m 12,2 km/h (2 Bft) O 86 0 min 0,000 mm 0,0 UV-I 0 W/m 8,0 C 13,7 C 16,1 km/h (3 Bft) 91,30 %
08.05.2018 21:24 16,3 C 18,9 C 58 % 1007,9 hPa 0,0 l/m 13,9 km/h (3 Bft) O 92 0 min 0,000 mm 0,0 UV-I 0 W/m 8,0 C 13,1 C 19,3 km/h (3 Bft) 100,00 %
08.05.2018 21:25 16,3 C 18,9 C 57 % 1007,9 hPa 0,0 l/m 15,8 km/h (3 Bft) O-NO 72 0 min 0,000 mm 0,0 UV-I 0 W/m 7,8 C 12,5 C 22,5 km/h (4 Bft) 91,30 %
08.05.2018 21:26 16,3 C 18,9 C 57 % 1007,9 hPa 0,0 l/m 11,5 km/h (2 Bft) O 82 0 min 0,000 mm 0,0 UV-I 0 W/m 7,8 C 14,0 C 14,5 km/h (3 Bft) 100,00 %
08.05.2018 21:27 16,3 C 18,9 C 57 % 1007,9 hPa 0,0 l/m 13,0 km/h (3 Bft) O 91 0 min 0,000 mm 0,0 UV-I 0 W/m 7,8 C 13,4 C 17,7 km/h (3 Bft) 91,67 %
08.05.2018 21:28 16,3 C 18,9 C 57 % 1007,9 hPa 0,0 l/m 12,9 km/h (3 Bft) O 88 0 min 0,000 mm 0,0 UV-I 0 W/m 7,8 C 13,4 C 17,7 km/h (3 Bft) 100,00 %
08.05.2018 21:29 16,3 C 18,9 C 58 % 1007,9 hPa 0,0 l/m 12,7 km/h (3 Bft) O 100 0 min 0,000 mm 0,0 UV-I 0 W/m 8,0 C 13,5 C 14,5 km/h (3 Bft) 97,60 %
08.05.2018 21:30 16,2 C 18,9 C 58 % 1007,9 hPa 0,0 l/m 13,5 km/h (3 Bft) O-NO 67 0 min 0,000 mm 0,0 UV-I 0 W/m 7,9 C 13,1 C 19,3 km/h (3 Bft) 97,37 %
08.05.2018 21:31 16,2 C 18,9 C 58 % 1007,9 hPa 0,0 l/m 12,0 km/h (2 Bft) O 83 0 min 0,000 mm 0,0 UV-I 0 W/m 7,9 C 13,7 C 16,1 km/h (3 Bft) 91,67 %
08.05.2018 21:32 16,2 C 18,9 C 58 % 1007,9 hPa 0,0 l/m 12,4 km/h (3 Bft) O 83 0 min 0,000 mm 0,0 UV-I 0 W/m 7,9 C 13,5 C 16,1 km/h (3 Bft) 95,65 %
08.05.2018 21:33 16,1 C 18,9 C 58 % 1007,8 hPa 0,0 l/m 13,4 km/h (3 Bft) O 97 0 min 0,000 mm 0,0 UV-I 0 W/m 7,8 C 13,0 C 17,7 km/h (3 Bft) 96,30 %
08.05.2018 21:34 16,1 C 18,9 C 58 % 1007,9 hPa 0,0 l/m 15,0 km/h (3 Bft) O 82 0 min 0,000 mm 0,0 UV-I 0 W/m 7,8 C 12,5 C 20,9 km/h (4 Bft) 91,30 %
08.05.2018 21:35 16,1 C 18,9 C 58 % 1007,9 hPa 0,0 l/m 14,3 km/h (3 Bft) O 86 0 min 0,000 mm 0,0 UV-I 0 W/m 7,8 C 12,7 C 17,7 km/h (3 Bft) 100,00 %
08.05.2018 21:36 16,1 C 18,9 C 58 % 1007,9 hPa 0,0 l/m 12,2 km/h (2 Bft) O 88 0 min 0,000 mm 0,0 UV-I 0 W/m 7,8 C 13,5 C 16,1 km/h (3 Bft) 91,30 %
08.05.2018 21:37 16,1 C 18,9 C 57 % 1007,9 hPa 0,0 l/m 12,2 km/h (2 Bft) O-NO 76 0 min 0,000 mm 0,0 UV-I 0 W/m 7,6 C 13,5 C 14,5 km/h (3 Bft) 100,00 %
08.05.2018 21:38 16,1 C 18,9 C 58 % 1007,9 hPa 0,0 l/m 12,4 km/h (3 Bft) O-NO 76 0 min 0,000 mm 0,0 UV-I 0 W/m 7,8 C 13,4 C 17,7 km/h (3 Bft) 91,30 %
08.05.2018 21:39 16,1 C 18,9 C 57 % 1007,9 hPa 0,0 l/m 11,6 km/h (2 Bft) O-NO 70 0 min 0,000 mm 0,0 UV-I 0 W/m 7,6 C 13,7 C 14,5 km/h (3 Bft) 91,67 %
08.05.2018 21:40 16,0 C 18,9 C 57 % 1007,9 hPa 0,0 l/m 14,0 km/h (3 Bft) O 88 0 min 0,000 mm 0,0 UV-I 0 W/m 7,5 C 12,7 C 17,7 km/h (3 Bft) 95,65 %
08.05.2018 21:41 16,0 C 18,9 C 57 % 1007,9 hPa 0,0 l/m 11,5 km/h (2 Bft) O 96 0 min 0,000 mm 0,0 UV-I 0 W/m 7,5 C 13,6 C 17,7 km/h (3 Bft) 100,00 %
08.05.2018 21:42 16,0 C 18,9 C 57 % 1007,9 hPa 0,0 l/m 14,3 km/h (3 Bft) O-NO 59 0 min 0,000 mm 0,0 UV-I 0 W/m 7,5 C 12,6 C 17,7 km/h (3 Bft) 96,15 %
08.05.2018 21:43 16,0 C 18,9 C 57 % 1008,0 hPa 0,0 l/m 8,8 km/h (2 Bft) O 82 0 min 0,000 mm 0,0 UV-I 0 W/m 7,5 C 14,8 C 14,5 km/h (3 Bft) 95,83 %
08.05.2018 21:44 16,0 C 18,9 C 57 % 1007,9 hPa 0,0 l/m 13,6 km/h (3 Bft) O-NO 71 0 min 0,000 mm 0,0 UV-I 0 W/m 7,5 C 12,9 C 17,7 km/h (3 Bft) 100,00 %
08.05.2018 21:45 16,0 C 18,9 C 57 % 1007,9 hPa 0,0 l/m 11,9 km/h (2 Bft) O-NO 71 0 min 0,000 mm 0,0 UV-I 0 W/m 7,5 C 13,5 C 17,7 km/h (3 Bft) 91,67 %
08.05.2018 21:46 16,0 C 18,9 C 57 % 1007,9 hPa 0,0 l/m 9,0 km/h (2 Bft) O 97 0 min 0,000 mm 0,0 UV-I 0 W/m 7,5 C 14,7 C 12,9 km/h (3 Bft) 95,83 %
08.05.2018 21:47 16,0 C 18,9 C 57 % 1007,9 hPa 0,0 l/m 9,7 km/h (2 Bft) O-NO 76 0 min 0,000 mm 0,0 UV-I 0 W/m 7,5 C 14,4 C 14,5 km/h (3 Bft) 92,31 %
08.05.2018 21:48 16,0 C 18,9 C 57 % 1007,9 hPa 0,0 l/m 9,0 km/h (2 Bft) O 86 0 min 0,000 mm 0,0 UV-I 0 W/m 7,5 C 14,7 C 12,9 km/h (3 Bft) 100,00 %
08.05.2018 21:49 15,9 C 18,9 C 57 % 1007,9 hPa 0,0 l/m 12,5 km/h (3 Bft) O 88 0 min 0,000 mm 0,0 UV-I 0 W/m 7,4 C 13,1 C 17,7 km/h (3 Bft) 86,67 %
08.05.2018 21:50 15,9 C 18,9 C 57 % 1007,9 hPa 0,0 l/m 12,0 km/h (2 Bft) O 80 0 min 0,000 mm 0,0 UV-I 0 W/m 7,4 C 13,3 C 16,1 km/h (3 Bft) 100,00 %
08.05.2018 21:51 15,9 C 18,9 C 57 % 1007,9 hPa 0,0 l/m 11,5 km/h (2 Bft) O-NO 73 0 min 0,000 mm 0,0 UV-I 0 W/m 7,4 C 13,5 C 16,1 km/h (3 Bft) 86,96 %
08.05.2018 21:52 15,9 C 18,9 C 57 % 1007,8 hPa 0,0 l/m 14,8 km/h (3 Bft) O-NO 69 0 min 0,000 mm 0,0 UV-I 0 W/m 7,4 C 12,3 C 19,3 km/h (3 Bft) 100,00 %
08.05.2018 21:53 15,9 C 18,9 C 57 % 1007,8 hPa 0,0 l/m 11,7 km/h (2 Bft) O-NO 72 0 min 0,000 mm 0,0 UV-I 0 W/m 7,4 C 13,4 C 17,7 km/h (3 Bft) 96,15 %
08.05.2018 21:54 15,9 C 18,9 C 57 % 1007,8 hPa 0,0 l/m 11,7 km/h (2 Bft) O-NO 59 0 min 0,000 mm 0,0 UV-I 0 W/m 7,4 C 13,4 C 16,1 km/h (3 Bft) 91,67 %
08.05.2018 21:55 15,9 C 18,9 C 57 % 1007,8 hPa 0,0 l/m 10,3 km/h (2 Bft) O-NO 67 0 min 0,000 mm 0,0 UV-I 0 W/m 7,4 C 14,0 C 14,5 km/h (3 Bft) 100,00 %
08.05.2018 21:56 15,9 C 18,9 C 57 % 1007,8 hPa 0,0 l/m 11,0 km/h (2 Bft) O-NO 68 0 min 0,000 mm 0,0 UV-I 0 W/m 7,4 C 13,7 C 14,5 km/h (3 Bft) 95,83 %
08.05.2018 21:57 15,9 C 18,9 C 57 % 1007,7 hPa 0,0 l/m 13,8 km/h (3 Bft) O 84 0 min 0,000 mm 0,0 UV-I 0 W/m 7,4 C 12,7 C 17,7 km/h (3 Bft) 100,00 %
08.05.2018 21:58 15,9 C 18,9 C 57 % 1007,7 hPa 0,0 l/m 11,0 km/h (2 Bft) O-NO 71 0 min 0,000 mm 0,0 UV-I 0 W/m 7,4 C 13,7 C 14,5 km/h (3 Bft) 93,33 %
08.05.2018 21:59 15,9 C 18,9 C 57 % 1007,7 hPa 0,0 l/m 11,9 km/h (2 Bft) O-NO 69 0 min 0,000 mm 0,0 UV-I 0 W/m 7,4 C 13,3 C 14,5 km/h (3 Bft) 100,00 %
08.05.2018 22:00 15,9 C 18,9 C 57 % 1007,7 hPa 0,0 l/m 9,4 km/h (2 Bft) O 84 0 min 0,000 mm 0,0 UV-I 0 W/m 7,4 C 14,4 C 14,5 km/h (3 Bft) 100,00 %
08.05.2018 22:01 15,8 C 18,9 C 57 % 1007,7 hPa 0,0 l/m 8,4 km/h (2 Bft) O-NO 75 0 min 0,076 mm 0,0 UV-I 0 W/m 7,3 C 14,7 C 12,9 km/h (3 Bft) 95,65 %
08.05.2018 22:02 15,8 C 18,9 C 58 % 1007,7 hPa 0,0 l/m 10,8 km/h (2 Bft) O 94 0 min 0,000 mm 0,0 UV-I 0 W/m 7,6 C 13,7 C 14,5 km/h (3 Bft) 95,83 %
08.05.2018 22:03 15,7 C 18,9 C 58 % 1007,7 hPa 0,0 l/m 12,8 km/h (3 Bft) NO 44 0 min 0,000 mm 0,0 UV-I 0 W/m 7,5 C 12,8 C 17,7 km/h (3 Bft) 100,00 %
08.05.2018 22:04 15,7 C 18,9 C 58 % 1007,7 hPa 0,0 l/m 8,0 km/h (2 Bft) O-NO 78 0 min 0,000 mm 0,0 UV-I 0 W/m 7,5 C 14,8 C 11,3 km/h (2 Bft) 100,00 %
08.05.2018 22:05 15,7 C 18,9 C 58 % 1007,7 hPa 0,0 l/m 9,2 km/h (2 Bft) O 92 0 min 0,000 mm 0,0 UV-I 0 W/m 7,5 C 14,3 C 14,5 km/h (3 Bft) 100,00 %
08.05.2018 22:06 15,6 C 18,9 C 58 % 1007,7 hPa 0,0 l/m 8,8 km/h (2 Bft) O 86 0 min 0,000 mm 0,0 UV-I 0 W/m 7,4 C 14,3 C 12,9 km/h (3 Bft) 100,00 %
08.05.2018 22:07 15,6 C 18,9 C 58 % 1007,7 hPa 0,0 l/m 11,3 km/h (2 Bft) O-NO 77 0 min 0,000 mm 0,0 UV-I 0 W/m 7,4 C 13,2 C 14,5 km/h (3 Bft) 100,00 %
08.05.2018 22:08 15,6 C 18,9 C 58 % 1007,7 hPa 0,0 l/m 12,0 km/h (2 Bft) O-NO 78 0 min 0,000 mm 0,0 UV-I 0 W/m 7,4 C 13,0 C 16,1 km/h (3 Bft) 100,00 %
08.05.2018 22:09 15,6 C 18,9 C 59 % 1007,7 hPa 0,0 l/m 12,6 km/h (3 Bft) O 81 0 min 0,000 mm 0,0 UV-I 0 W/m 7,6 C 12,7 C 14,5 km/h (3 Bft) 95,83 %
08.05.2018 22:10 15,6 C 18,9 C 59 % 1007,7 hPa 0,0 l/m 9,3 km/h (2 Bft) O-NO 71 0 min 0,000 mm 0,0 UV-I 0 W/m 7,6 C 14,1 C 14,5 km/h (3 Bft) 100,00 %
08.05.2018 22:11 15,5 C 18,9 C 59 % 1007,7 hPa 0,0 l/m 11,5 km/h (2 Bft) O 86 0 min 0,000 mm 0,0 UV-I 0 W/m 7,5 C 13,0 C 14,5 km/h (3 Bft) 100,00 %
08.05.2018 22:12 15,5 C 18,9 C 59 % 1007,6 hPa 0,0 l/m 8,7 km/h (2 Bft) NO 52 0 min 0,000 mm 0,0 UV-I 0 W/m 7,5 C 14,3 C 12,9 km/h (3 Bft) 100,00 %
08.05.2018 22:13 15,4 C 18,9 C 59 % 1007,6 hPa 0,0 l/m 6,9 km/h (2 Bft) O-NO 76 0 min 0,000 mm 0,0 UV-I 0 W/m 7,4 C 15,1 C 8,0 km/h (2 Bft) 95,83 %
08.05.2018 22:14 15,4 C 18,9 C 59 % 1007,6 hPa 0,0 l/m 7,6 km/h (2 Bft) O-NO 63 0 min 0,000 mm 0,0 UV-I 0 W/m 7,4 C 14,7 C 12,9 km/h (3 Bft) 100,00 %
08.05.2018 22:15 15,4 C 18,9 C 59 % 1007,6 hPa 0,0 l/m 5,3 km/h (1 Bft) O-NO 67 0 min 0,000 mm 0,0 UV-I 0 W/m 7,4 C 15,4 C 8,0 km/h (2 Bft) 100,00 %
08.05.2018 22:16 15,3 C 18,9 C 60 % 1007,6 hPa 0,0 l/m 7,7 km/h (2 Bft) O-NO 71 0 min 0,000 mm 0,0 UV-I 0 W/m 7,6 C 14,6 C 11,3 km/h (2 Bft) 100,00 %
08.05.2018 22:17 15,3 C 18,9 C 60 % 1007,6 hPa 0,0 l/m 8,6 km/h (2 Bft) O-NO 69 0 min 0,000 mm 0,0 UV-I 0 W/m 7,6 C 14,1 C 11,3 km/h (2 Bft) 95,83 %
08.05.2018 22:18 15,2 C 18,9 C 61 % 1007,6 hPa 0,0 l/m 6,6 km/h (2 Bft) O 80 0 min 0,000 mm 0,0 UV-I 0 W/m 7,7 C 15,1 C 12,9 km/h (3 Bft) 100,00 %
08.05.2018 22:19 15,2 C 18,9 C 60 % 1007,5 hPa 0,0 l/m 4,3 km/h (1 Bft) O 82 0 min 0,000 mm 0,0 UV-I 0 W/m 7,5 C 15,2 C 6,4 km/h (2 Bft) 100,00 %
08.05.2018 22:20 15,2 C 18,9 C 60 % 1007,5 hPa 0,0 l/m 5,6 km/h (1 Bft) O-NO 77 0 min 0,000 mm 0,0 UV-I 0 W/m 7,5 C 15,2 C 11,3 km/h (2 Bft) 100,00 %
08.05.2018 22:21 15,2 C 18,9 C 61 % 1007,5 hPa 0,0 l/m 10,8 km/h (2 Bft) O 86 0 min 0,000 mm 0,0 UV-I 0 W/m 7,7 C 13,0 C 14,5 km/h (3 Bft) 100,00 %
08.05.2018 22:22 15,2 C 18,9 C 61 % 1007,5 hPa 0,0 l/m 10,7 km/h (2 Bft) O 86 0 min 0,000 mm 0,0 UV-I 0 W/m 7,7 C 13,0 C 14,5 km/h (3 Bft) 96,15 %
08.05.2018 22:23 15,2 C 18,9 C 61 % 1007,5 hPa 0,0 l/m 10,3 km/h (2 Bft) O 80 0 min 0,000 mm 0,0 UV-I 0 W/m 7,7 C 13,2 C 14,5 km/h (3 Bft) 100,00 %
08.05.2018 22:24 15,2 C 18,9 C 60 % 1007,5 hPa 0,0 l/m 8,9 km/h (2 Bft) O-NO 60 0 min 0,000 mm 0,0 UV-I 0 W/m 7,5 C 13,9 C 12,9 km/h (3 Bft) 100,00 %
08.05.2018 22:25 15,2 C 18,9 C 61 % 1007,5 hPa 0,0 l/m 9,9 km/h (2 Bft) O-NO 65 0 min 0,000 mm 0,0 UV-I 0 W/m 7,7 C 13,4 C 16,1 km/h (3 Bft) 100,00 %
08.05.2018 22:26 15,3 C 18,9 C 60 % 1007,5 hPa 0,0 l/m 10,7 km/h (2 Bft) O 80 0 min 0,000 mm 0,0 UV-I 0 W/m 7,6 C 13,1 C 16,1 km/h (3 Bft) 100,00 %
08.05.2018 22:27 15,3 C 18,9 C 60 % 1007,4 hPa 0,0 l/m 11,3 km/h (2 Bft) O 83 0 min 0,000 mm 0,0 UV-I 0 W/m 7,6 C 12,9 C 16,1 km/h (3 Bft) 100,00 %
08.05.2018 22:28 15,3 C 18,9 C 60 % 1007,4 hPa 0,0 l/m 10,7 km/h (2 Bft) NO 52 0 min 0,000 mm 0,0 UV-I 0 W/m 7,6 C 13,1 C 14,5 km/h (3 Bft) 100,00 %
08.05.2018 22:29 15,3 C 18,9 C 61 % 1007,4 hPa 0,0 l/m 8,9 km/h (2 Bft) O-NO 74 0 min 0,000 mm 0,0 UV-I 0 W/m 7,8 C 14,0 C 12,9 km/h (3 Bft) 100,00 %
08.05.2018 22:30 15,3 C 18,9 C 61 % 1007,3 hPa 0,0 l/m 10,2 km/h (2 Bft) O 84 0 min 0,000 mm 0,0 UV-I 0 W/m 7,8 C 13,4 C 16,1 km/h (3 Bft) 95,83 %
08.05.2018 22:31 15,3 C 18,9 C 60 % 1007,4 hPa 0,0 l/m 8,5 km/h (2 Bft) O 84 0 min 0,000 mm 0,0 UV-I 0 W/m 7,6 C 14,2 C 12,9 km/h (3 Bft) 100,00 %
08.05.2018 22:32 15,3 C 18,9 C 61 % 1007,3 hPa 0,0 l/m 8,6 km/h (2 Bft) NO 56 0 min 0,000 mm 0,0 UV-I 0 W/m 7,8 C 14,1 C 12,9 km/h (3 Bft) 100,00 %
08.05.2018 22:33 15,3 C 18,9 C 61 % 1007,3 hPa 0,0 l/m 8,3 km/h (2 Bft) O 92 0 min 0,000 mm 0,0 UV-I 0 W/m 7,8 C 14,3 C 11,3 km/h (2 Bft) 95,65 %
08.05.2018 22:34 15,2 C 18,9 C 61 % 1007,2 hPa 0,0 l/m 7,5 km/h (2 Bft) O-NO 74 0 min 0,000 mm 0,0 UV-I 0 W/m 7,7 C 14,6 C 11,3 km/h (2 Bft) 100,00 %
08.05.2018 22:35 15,2 C 18,9 C 61 % 1007,2 hPa 0,0 l/m 10,9 km/h (2 Bft) O-NO 67 0 min 0,000 mm 0,0 UV-I 0 W/m 7,7 C 12,9 C 14,5 km/h (3 Bft) 91,30 %
08.05.2018 22:36 15,2 C 18,9 C 61 % 1007,2 hPa 0,0 l/m 11,1 km/h (2 Bft) O-NO 71 0 min 0,000 mm 0,0 UV-I 0 W/m 7,7 C 12,9 C 14,5 km/h (3 Bft) 100,00 %
08.05.2018 22:37 15,2 C 18,9 C 61 % 1007,2 hPa 0,0 l/m 9,6 km/h (2 Bft) O 81 0 min 0,000 mm 0,0 UV-I 0 W/m 7,7 C 13,5 C 16,1 km/h (3 Bft) 95,65 %
08.05.2018 22:38 15,2 C 18,9 C 62 % 1007,2 hPa 0,0 l/m 11,1 km/h (2 Bft) O-NO 66 0 min 0,000 mm 0,0 UV-I 0 W/m 8,0 C 12,9 C 14,5 km/h (3 Bft) 95,83 %
08.05.2018 22:39 15,1 C 18,9 C 61 % 1007,2 hPa 0,0 l/m 9,0 km/h (2 Bft) O 100 0 min 0,000 mm 0,0 UV-I 0 W/m 7,6 C 13,7 C 12,9 km/h (3 Bft) 95,65 %
08.05.2018 22:40 15,1 C 18,9 C 61 % 1007,2 hPa 0,0 l/m 10,6 km/h (2 Bft) O-SO 105 0 min 0,000 mm 0,0 UV-I 0 W/m 7,6 C 13,0 C 14,5 km/h (3 Bft) 100,00 %
08.05.2018 22:41 15,1 C 18,9 C 61 % 1007,1 hPa 0,0 l/m 9,6 km/h (2 Bft) O-SO 103 0 min 0,000 mm 0,0 UV-I 0 W/m 7,6 C 13,4 C 12,9 km/h (3 Bft) 100,00 %
08.05.2018 22:42 15,1 C 18,9 C 62 % 1007,1 hPa 0,0 l/m 7,4 km/h (2 Bft) O-SO 106 0 min 0,000 mm 0,0 UV-I 0 W/m 7,9 C 14,5 C 12,9 km/h (3 Bft) 95,65 %
08.05.2018 22:43 15,1 C 18,9 C 62 % 1007,1 hPa 0,0 l/m 6,4 km/h (2 Bft) O 93 0 min 0,000 mm 0,0 UV-I 0 W/m 7,9 C 15,1 C 11,3 km/h (2 Bft) 100,00 %
08.05.2018 22:44 15,1 C 18,9 C 62 % 1007,2 hPa 0,0 l/m 6,9 km/h (2 Bft) O-SO 103 0 min 0,000 mm 0,0 UV-I 0 W/m 7,9 C 14,8 C 11,3 km/h (2 Bft) 96,15 %
08.05.2018 22:45 15,1 C 18,9 C 62 % 1007,2 hPa 0,0 l/m 8,8 km/h (2 Bft) O-NO 75 0 min 0,000 mm 0,0 UV-I 0 W/m 7,9 C 13,8 C 12,9 km/h (3 Bft) 100,00 %
08.05.2018 22:46 15,1 C 18,9 C 62 % 1007,2 hPa 0,0 l/m 6,4 km/h (2 Bft) O-NO 67 0 min 0,000 mm 0,0 UV-I 0 W/m 7,9 C 15,1 C 9,7 km/h (2 Bft) 100,00 %
08.05.2018 22:47 15,1 C 18,9 C 62 % 1007,1 hPa 0,0 l/m 7,4 km/h (2 Bft) O 80 0 min 0,000 mm 0,0 UV-I 0 W/m 7,9 C 14,5 C 9,7 km/h (2 Bft) 100,00 %
08.05.2018 22:48 15,2 C 18,9 C 62 % 1007,1 hPa 0,0 l/m 5,7 km/h (1 Bft) O-NO 77 0 min 0,000 mm 0,0 UV-I 0 W/m 8,0 C 15,2 C 9,7 km/h (2 Bft) 95,65 %
08.05.2018 22:49 15,1 C 18,9 C 62 % 1007,2 hPa 0,0 l/m 6,1 km/h (2 Bft) O 80 0 min 0,000 mm 0,0 UV-I 0 W/m 7,9 C 15,1 C 9,7 km/h (2 Bft) 100,00 %
08.05.2018 22:50 15,1 C 18,9 C 62 % 1007,2 hPa 0,0 l/m 7,8 km/h (2 Bft) O 79 0 min 0,000 mm 0,0 UV-I 0 W/m 7,9 C 14,3 C 11,3 km/h (2 Bft) 100,00 %
08.05.2018 22:51 15,1 C 18,9 C 62 % 1007,2 hPa 0,0 l/m 8,4 km/h (2 Bft) O-NO 63 0 min 0,000 mm 0,0 UV-I 0 W/m 7,9 C 14,0 C 12,9 km/h (3 Bft) 100,00 %
08.05.2018 22:52 15,0 C 18,9 C 63 % 1007,2 hPa 0,0 l/m 8,8 km/h (2 Bft) NO 44 0 min 0,000 mm 0,0 UV-I 0 W/m 8,0 C 13,7 C 12,9 km/h (3 Bft) 100,00 %
08.05.2018 22:53 14,9 C 18,9 C 63 % 1007,1 hPa 0,0 l/m 7,0 km/h (2 Bft) O-NO 77 0 min 0,000 mm 0,0 UV-I 0 W/m 7,9 C 14,6 C 11,3 km/h (2 Bft) 100,00 %
08.05.2018 22:54 14,9 C 18,9 C 63 % 1007,1 hPa 0,0 l/m 7,2 km/h (2 Bft) O-NO 57 0 min 0,000 mm 0,0 UV-I 0 W/m 7,9 C 14,4 C 11,3 km/h (2 Bft) 100,00 %
08.05.2018 22:55 14,9 C 18,9 C 63 % 1007,1 hPa 0,0 l/m 7,0 km/h (2 Bft) O 80 0 min 0,000 mm 0,0 UV-I 0 W/m 7,9 C 14,6 C 9,7 km/h (2 Bft) 100,00 %
08.05.2018 22:56 14,9 C 18,9 C 63 % 1007,1 hPa 0,0 l/m 8,6 km/h (2 Bft) NO 50 0 min 0,000 mm 0,0 UV-I 0 W/m 7,9 C 13,7 C 12,9 km/h (3 Bft) 100,00 %
08.05.2018 22:57 14,9 C 18,9 C 63 % 1007,1 hPa 0,0 l/m 8,4 km/h (2 Bft) O-NO 76 0 min 0,000 mm 0,0 UV-I 0 W/m 7,9 C 13,8 C 12,9 km/h (3 Bft) 100,00 %
08.05.2018 22:58 14,9 C 18,9 C 63 % 1007,2 hPa 0,0 l/m 10,7 km/h (2 Bft) O-NO 59 0 min 0,000 mm 0,0 UV-I 0 W/m 7,9 C 12,7 C 16,1 km/h (3 Bft) 100,00 %
08.05.2018 22:59 14,9 C 18,9 C 63 % 1007,2 hPa 0,0 l/m 6,5 km/h (2 Bft) O-NO 71 0 min 0,000 mm 0,0 UV-I 0 W/m 7,9 C 14,9 C 8,0 km/h (2 Bft) 100,00 %
08.05.2018 23:00 14,9 C 18,9 C 63 % 1007,1 hPa 0,0 l/m 7,2 km/h (2 Bft) NO 53 0 min 0,000 mm 0,0 UV-I 0 W/m 7,9 C 14,4 C 11,3 km/h (2 Bft) 100,00 %
08.05.2018 23:01 14,8 C 18,9 C 63 % 1007,1 hPa 0,0 l/m 9,2 km/h (2 Bft) O-NO 68 0 min 0,051 mm 0,0 UV-I 0 W/m 7,8 C 13,3 C 14,5 km/h (3 Bft) 100,00 %
08.05.2018 23:02 14,8 C 18,9 C 63 % 1007,1 hPa 0,0 l/m 14,4 km/h (3 Bft) O-NO 58 0 min 0,000 mm 0,0 UV-I 0 W/m 7,8 C 11,2 C 17,7 km/h (3 Bft) 100,00 %
08.05.2018 23:03 14,8 C 18,9 C 63 % 1007,1 hPa 0,0 l/m 10,5 km/h (2 Bft) O-NO 78 0 min 0,000 mm 0,0 UV-I 0 W/m 7,8 C 12,7 C 14,5 km/h (3 Bft) 82,61 %
08.05.2018 23:04 14,8 C 18,9 C 63 % 1007,1 hPa 0,0 l/m 9,7 km/h (2 Bft) O-NO 72 0 min 0,000 mm 0,0 UV-I 0 W/m 7,8 C 13,0 C 16,1 km/h (3 Bft) 100,00 %
08.05.2018 23:05 14,8 C 18,9 C 63 % 1007,1 hPa 0,0 l/m 11,1 km/h (2 Bft) O 86 0 min 0,000 mm 0,0 UV-I 0 W/m 7,8 C 12,4 C 14,5 km/h (3 Bft) 100,00 %
08.05.2018 23:06 14,7 C 18,9 C 64 % 1007,1 hPa 0,0 l/m 12,6 km/h (3 Bft) O 91 0 min 0,000 mm 0,0 UV-I 0 W/m 8,0 C 11,7 C 14,5 km/h (3 Bft) 100,00 %
08.05.2018 23:07 14,7 C 18,9 C 64 % 1007,1 hPa 0,0 l/m 10,9 km/h (2 Bft) O-NO 58 0 min 0,000 mm 0,0 UV-I 0 W/m 8,0 C 12,4 C 14,5 km/h (3 Bft) 91,30 %
08.05.2018 23:08 14,7 C 18,9 C 64 % 1007,1 hPa 0,0 l/m 10,9 km/h (2 Bft) O-NO 76 0 min 0,000 mm 0,0 UV-I 0 W/m 8,0 C 12,4 C 16,1 km/h (3 Bft) 100,00 %
08.05.2018 23:09 14,7 C 18,9 C 64 % 1007,1 hPa 0,0 l/m 8,5 km/h (2 Bft) O-NO 75 0 min 0,000 mm 0,0 UV-I 0 W/m 8,0 C 13,5 C 14,5 km/h (3 Bft) 92,86 %
08.05.2018 23:10 14,7 C 18,9 C 64 % 1007,0 hPa 0,0 l/m 9,9 km/h (2 Bft) NO 46 0 min 0,000 mm 0,0 UV-I 0 W/m 8,0 C 12,8 C 14,5 km/h (3 Bft) 100,00 %
08.05.2018 23:11 14,7 C 18,9 C 64 % 1007,0 hPa 0,0 l/m 11,5 km/h (2 Bft) O-NO 58 0 min 0,000 mm 0,0 UV-I 0 W/m 8,0 C 12,1 C 14,5 km/h (3 Bft) 96,77 %
08.05.2018 23:12 14,6 C 18,9 C 64 % 1007,1 hPa 0,0 l/m 9,9 km/h (2 Bft) O-NO 66 0 min 0,000 mm 0,0 UV-I 0 W/m 7,9 C 12,7 C 12,9 km/h (3 Bft) 100,00 %
08.05.2018 23:13 14,6 C 18,9 C 64 % 1007,0 hPa 0,0 l/m 8,9 km/h (2 Bft) O-NO 77 0 min 0,000 mm 0,0 UV-I 0 W/m 7,9 C 13,2 C 12,9 km/h (3 Bft) 95,65 %
08.05.2018 23:14 14,6 C 18,9 C 65 % 1007,1 hPa 0,0 l/m 9,9 km/h (2 Bft) NO 56 0 min 0,000 mm 0,0 UV-I 0 W/m 8,1 C 12,7 C 12,9 km/h (3 Bft) 93,33 %
08.05.2018 23:15 14,6 C 18,9 C 65 % 1007,0 hPa 0,0 l/m 7,5 km/h (2 Bft) O-NO 78 0 min 0,000 mm 0,0 UV-I 0 W/m 8,1 C 14,0 C 12,9 km/h (3 Bft) 97,14 %
08.05.2018 23:16 14,5 C 18,9 C 65 % 1007,0 hPa 0,0 l/m 7,9 km/h (2 Bft) O 82 0 min 0,000 mm 0,0 UV-I 0 W/m 8,0 C 13,6 C 12,9 km/h (3 Bft) 95,83 %
08.05.2018 23:17 14,4 C 18,9 C 65 % 1007,0 hPa 0,0 l/m 6,7 km/h (2 Bft) O-NO 57 0 min 0,000 mm 0,0 UV-I 0 W/m 7,9 C 14,2 C 8,0 km/h (2 Bft) 100,00 %
08.05.2018 23:18 14,3 C 18,9 C 65 % 1007,0 hPa 0,0 l/m 6,1 km/h (2 Bft) O-NO 66 0 min 0,000 mm 0,0 UV-I 0 W/m 7,8 C 14,3 C 9,7 km/h (2 Bft) 95,65 %
08.05.2018 23:19 14,3 C 18,9 C 66 % 1007,0 hPa 0,0 l/m 8,0 km/h (2 Bft) O-NO 74 0 min 0,000 mm 0,0 UV-I 0 W/m 8,0 C 13,4 C 14,5 km/h (3 Bft) 100,00 %
08.05.2018 23:20 14,2 C 18,9 C 66 % 1007,0 hPa 0,0 l/m 6,5 km/h (2 Bft) O 91 0 min 0,000 mm 0,0 UV-I 0 W/m 7,9 C 14,2 C 9,7 km/h (2 Bft) 95,65 %
08.05.2018 23:21 14,2 C 18,9 C 66 % 1007,0 hPa 0,0 l/m 6,4 km/h (2 Bft) O-NO 73 0 min 0,000 mm 0,0 UV-I 0 W/m 7,9 C 14,2 C 9,7 km/h (2 Bft) 95,83 %
08.05.2018 23:23 14,1 C 18,9 C 66 % 1007,0 hPa 0,0 l/m 4,6 km/h (1 Bft) O 80 0 min 0,000 mm 0,0 UV-I 0 W/m 7,8 C 14,1 C 6,4 km/h (2 Bft) 96,23 %
08.05.2018 23:24 14,1 C 18,9 C 66 % 1007,0 hPa 0,0 l/m 5,7 km/h (1 Bft) O-NO 76 0 min 0,000 mm 0,0 UV-I 0 W/m 7,8 C 14,1 C 11,3 km/h (2 Bft) 100,00 %
08.05.2018 23:25 14,1 C 18,9 C 67 % 1007,0 hPa 0,0 l/m 6,0 km/h (2 Bft) O-NO 67 0 min 0,000 mm 0,0 UV-I 0 W/m 8,1 C 14,1 C 9,7 km/h (2 Bft) 95,83 %
08.05.2018 23:26 14,0 C 18,9 C 67 % 1006,9 hPa 0,0 l/m 6,7 km/h (2 Bft) O-NO 64 0 min 0,000 mm 0,0 UV-I 0 W/m 8,0 C 13,8 C 8,0 km/h (2 Bft) 96,15 %
08.05.2018 23:27 13,9 C 18,9 C 67 % 1006,9 hPa 0,0 l/m 8,5 km/h (2 Bft) O-NO 60 0 min 0,000 mm 0,0 UV-I 0 W/m 7,9 C 12,7 C 12,9 km/h (3 Bft) 91,67 %
08.05.2018 23:28 13,8 C 18,9 C 67 % 1006,9 hPa 0,0 l/m 8,0 km/h (2 Bft) O-NO 70 0 min 0,000 mm 0,0 UV-I 0 W/m 7,8 C 12,8 C 11,3 km/h (2 Bft) 100,00 %
08.05.2018 23:29 13,8 C 18,9 C 67 % 1006,9 hPa 0,0 l/m 6,2 km/h (2 Bft) N-NO 31 0 min 0,000 mm 0,0 UV-I 0 W/m 7,8 C 13,8 C 8,0 km/h (2 Bft) 92,59 %
08.05.2018 23:30 13,8 C 18,9 C 68 % 1006,9 hPa 0,0 l/m 7,2 km/h (2 Bft) O-NO 63 0 min 0,000 mm 0,0 UV-I 0 W/m 8,0 C 13,3 C 11,3 km/h (2 Bft) 95,65 %
08.05.2018 23:31 13,7 C 18,9 C 68 % 1006,9 hPa 0,0 l/m 5,4 km/h (1 Bft) O-NO 58 0 min 0,000 mm 0,0 UV-I 0 W/m 7,9 C 13,7 C 8,0 km/h (2 Bft) 91,67 %
08.05.2018 23:32 13,6 C 18,9 C 69 % 1006,9 hPa 0,0 l/m 6,6 km/h (2 Bft) O-NO 72 0 min 0,000 mm 0,0 UV-I 0 W/m 8,0 C 13,5 C 9,7 km/h (2 Bft) 91,30 %
08.05.2018 23:33 13,5 C 18,9 C 69 % 1006,8 hPa 0,0 l/m 6,0 km/h (2 Bft) O-NO 70 0 min 0,000 mm 0,0 UV-I 0 W/m 7,9 C 13,5 C 8,0 km/h (2 Bft) 100,00 %
08.05.2018 23:34 13,4 C 18,9 C 69 % 1006,8 hPa 0,0 l/m 7,6 km/h (2 Bft) O-NO 63 0 min 0,000 mm 0,0 UV-I 0 W/m 7,8 C 12,7 C 9,7 km/h (2 Bft) 95,65 %
08.05.2018 23:35 13,3 C 18,9 C 70 % 1006,8 hPa 0,0 l/m 6,8 km/h (2 Bft) O-NO 63 0 min 0,000 mm 0,0 UV-I 0 W/m 7,9 C 13,1 C 9,7 km/h (2 Bft) 100,00 %
08.05.2018 23:36 13,3 C 18,9 C 70 % 1006,8 hPa 0,0 l/m 6,4 km/h (2 Bft) NO 55 0 min 0,000 mm 0,0 UV-I 0 W/m 7,9 C 13,3 C 11,3 km/h (2 Bft) 95,65 %
08.05.2018 23:37 13,4 C 18,9 C 69 % 1006,8 hPa 0,0 l/m 6,4 km/h (2 Bft) O-NO 66 0 min 0,000 mm 0,0 UV-I 0 W/m 7,8 C 13,4 C 9,7 km/h (2 Bft) 100,00 %
08.05.2018 23:38 13,4 C 18,9 C 69 % 1006,8 hPa 0,0 l/m 8,2 km/h (2 Bft) O-NO 67 0 min 0,000 mm 0,0 UV-I 0 W/m 7,8 C 12,3 C 12,9 km/h (3 Bft) 91,67 %
08.05.2018 23:39 13,4 C 18,9 C 69 % 1006,9 hPa 0,0 l/m 9,7 km/h (2 Bft) O-NO 74 0 min 0,000 mm 0,0 UV-I 0 W/m 7,8 C 11,5 C 14,5 km/h (3 Bft) 100,00 %
08.05.2018 23:40 13,4 C 18,9 C 69 % 1006,9 hPa 0,0 l/m 8,0 km/h (2 Bft) O-NO 73 0 min 0,000 mm 0,0 UV-I 0 W/m 7,8 C 12,4 C 12,9 km/h (3 Bft) 100,00 %
08.05.2018 23:41 13,4 C 18,9 C 69 % 1006,9 hPa 0,0 l/m 9,8 km/h (2 Bft) O-NO 67 0 min 0,000 mm 0,0 UV-I 0 W/m 7,8 C 11,5 C 14,5 km/h (3 Bft) 95,65 %
08.05.2018 23:42 13,4 C 18,9 C 69 % 1006,9 hPa 0,0 l/m 9,2 km/h (2 Bft) O-NO 69 0 min 0,000 mm 0,0 UV-I 0 W/m 7,8 C 11,8 C 12,9 km/h (3 Bft) 100,00 %
08.05.2018 23:43 13,3 C 18,9 C 70 % 1006,9 hPa 0,0 l/m 7,1 km/h (2 Bft) O-NO 62 0 min 0,000 mm 0,0 UV-I 0 W/m 7,9 C 12,9 C 11,3 km/h (2 Bft) 100,00 %
08.05.2018 23:44 13,3 C 18,9 C 70 % 1006,9 hPa 0,0 l/m 7,8 km/h (2 Bft) O 87 0 min 0,000 mm 0,0 UV-I 0 W/m 7,9 C 12,4 C 12,9 km/h (3 Bft) 100,00 %
08.05.2018 23:45 13,3 C 18,9 C 70 % 1006,9 hPa 0,0 l/m 8,7 km/h (2 Bft) O 81 0 min 0,000 mm 0,0 UV-I 0 W/m 7,9 C 11,9 C 12,9 km/h (3 Bft) 95,65 %
08.05.2018 23:46 13,3 C 18,9 C 70 % 1006,9 hPa 0,0 l/m 8,0 km/h (2 Bft) O-NO 75 0 min 0,000 mm 0,0 UV-I 0 W/m 7,9 C 12,3 C 11,3 km/h (2 Bft) 100,00 %
08.05.2018 23:47 13,3 C 18,9 C 70 % 1006,9 hPa 0,0 l/m 6,7 km/h (2 Bft) O 82 0 min 0,000 mm 0,0 UV-I 0 W/m 7,9 C 13,1 C 9,7 km/h (2 Bft) 100,00 %
08.05.2018 23:48 13,3 C 18,9 C 70 % 1006,9 hPa 0,0 l/m 7,2 km/h (2 Bft) O-NO 78 0 min 0,000 mm 0,0 UV-I 0 W/m 7,9 C 12,8 C 9,7 km/h (2 Bft) 100,00 %
08.05.2018 23:49 13,2 C 18,9 C 70 % 1006,9 hPa 0,0 l/m 5,8 km/h (2 Bft) O 85 0 min 0,000 mm 0,0 UV-I 0 W/m 7,9 C 13,2 C 8,0 km/h (2 Bft) 95,65 %
08.05.2018 23:50 13,2 C 18,9 C 70 % 1006,9 hPa 0,0 l/m 7,6 km/h (2 Bft) O 88 0 min 0,000 mm 0,0 UV-I 0 W/m 7,9 C 12,5 C 12,9 km/h (3 Bft) 91,67 %
08.05.2018 23:51 13,2 C 18,9 C 70 % 1006,9 hPa 0,0 l/m 8,3 km/h (2 Bft) O-NO 74 0 min 0,000 mm 0,0 UV-I 0 W/m 7,9 C 12,0 C 12,9 km/h (3 Bft) 100,00 %
08.05.2018 23:52 13,2 C 18,9 C 70 % 1006,9 hPa 0,0 l/m 8,1 km/h (2 Bft) NO 43 0 min 0,000 mm 0,0 UV-I 0 W/m 7,9 C 12,2 C 12,9 km/h (3 Bft) 95,83 %
08.05.2018 23:53 13,2 C 18,9 C 70 % 1006,9 hPa 0,0 l/m 6,4 km/h (2 Bft) O-NO 76 0 min 0,000 mm 0,0 UV-I 0 W/m 7,9 C 13,2 C 8,0 km/h (2 Bft) 100,00 %
08.05.2018 23:54 13,2 C 18,9 C 71 % 1006,9 hPa 0,0 l/m 7,0 km/h (2 Bft) O-NO 76 0 min 0,000 mm 0,0 UV-I 0 W/m 8,1 C 12,8 C 11,3 km/h (2 Bft) 100,00 %
08.05.2018 23:55 13,2 C 18,9 C 71 % 1006,9 hPa 0,0 l/m 7,2 km/h (2 Bft) O-NO 71 0 min 0,000 mm 0,0 UV-I 0 W/m 8,1 C 12,7 C 11,3 km/h (2 Bft) 100,00 %
08.05.2018 23:56 13,1 C 18,9 C 71 % 1006,9 hPa 0,0 l/m 7,6 km/h (2 Bft) O-NO 78 0 min 0,000 mm 0,0 UV-I 0 W/m 8,0 C 12,3 C 11,3 km/h (2 Bft) 100,00 %
08.05.2018 23:57 13,1 C 18,9 C 71 % 1006,9 hPa 0,0 l/m 5,5 km/h (1 Bft) O-NO 68 0 min 0,000 mm 0,0 UV-I 0 W/m 8,0 C 13,1 C 8,0 km/h (2 Bft) 100,00 %
08.05.2018 23:58 13,1 C 18,9 C 72 % 1006,9 hPa 0,0 l/m 3,8 km/h (1 Bft) O 80 0 min 0,000 mm 0,0 UV-I 0 W/m 8,2 C 13,1 C 6,4 km/h (2 Bft) 100,00 %
08.05.2018 23:59 13,1 C 18,9 C 72 % 1006,9 hPa 0,0 l/m 6,4 km/h (2 Bft) O 98 0 min 0,000 mm 0,0 UV-I 0 W/m 8,2 C 13,1 C 11,3 km/h (2 Bft) 100,00 %
_ Min-Zeit 06:19 04:11 12:17 18:51 - 05:56 - - - - - - 05:50 07:10 05:56 11:52
Minimum _ 9,2 C 17,8 C 36 % 1006,6 hPa - 0,0 km/h (0 Bft) - - - - - - 5,1 C 8,2 C 0,0 km/h (0 Bft) 81,82 %
_ Max-Zeit 14:53 14:48 06:17 00:00 00:00 12:33 - - 05:46 13:01 13:00 14:56 15:42 14:18 11:47 00:02
Maximum _ 23,2 C 19,4 C 77 % 1014,1 hPa 0,0 l/m 30,2 km/h
O-NO (5 Bft)
- - 1 min 0,685 mm 4,4 UV-I 1007 W/m 12,1 C 22,4 C 43,5 km/h
O (6 Bft)
100,00 %
Durchschnitt _ 16,4 C 18,6 C 57 % 1009,9 hPa #0,0 l/m 12,4 km/h (3 Bft) O-NO - #11:18 h #5,842 mm 2,4 UV-I 451 W/m 7,7 C 14,4 C 17,1 km/h (3 Bft) 97,59 %